
Distance (Route):
Temperature : 0°C
Humidity : 0%
Pressure : 0hPa| Receiver | Frames | First received | Last received |
|---|---|---|---|
| PETON7-10 | 398 | 2026-09-01 23:34:41 | 2026-09-02 01:39:38 |
| OE5MMP-10 | 256 | 2026-09-02 00:14:27 | 2026-09-02 01:23:13 |
| OM5KV | 235 | 2026-09-02 01:13:11 | 2026-09-02 01:41:20 |
| ATIDSZ-14 | 223 | 2026-09-02 00:00:46 | 2026-09-02 01:40:43 |
| OE3OSB-13 | 215 | 2026-09-01 23:36:47 | 2026-09-02 01:40:02 |
| OE5DXL-15 | 155 | 2026-09-01 23:57:35 | 2026-09-02 01:27:48 |
| OE3JTB-15 | 152 | 2026-09-01 23:34:14 | 2026-09-02 01:40:38 |
| HA6NAB-11 | 30 | 2026-09-01 23:53:18 | 2026-09-02 00:16:15 |
| PG1ADW-2 | 14 | 2026-09-02 00:12:14 | 2026-09-02 00:44:27 |
| EDDB2-11 | 8 | 2026-09-02 01:02:01 | 2026-09-02 01:05:38 |
| DO3MHA-12 | 4 | 2026-09-02 01:00:22 | 2026-09-02 01:24:53 |
| OK1SLM-15 | 3 | 2026-09-02 01:16:53 | 2026-09-02 01:17:05 |
| OE5DRO-10 | 1 | 2026-09-01 23:58:44 | 2026-09-01 23:58:44 |
| SP9KGR-15 | 1 | 2026-09-02 01:17:06 | 2026-09-02 01:17:06 |
| Receiver | Date | Latitude | Longitude | Direction | Speed | Altitude | Climb | Temperature | Humidity | Pressure | Voltage | Killtimer | Uptime | BKT | XDATA |
|---|---|---|---|---|---|---|---|---|---|---|---|---|---|---|---|
| OM5KV | 2026-09-02 01:41:20 | 48.26598 | 17.53157 | 224° | 11km/h | 288m | -9.5m/s | 0°C | 0% | 0hPa | 0V | 00:00:00 | 00:00:00 | 00:00:00 | |
| OM5KV | 2026-09-02 01:41:15 | 48.26605 | 17.53171 | 255° | 7km/h | 336m | -9.5m/s | 0°C | 0% | 0hPa | 0V | 00:00:00 | 00:00:00 | 00:00:00 | |
| OM5KV | 2026-09-02 01:41:11 | 48.26606 | 17.53183 | 279° | 7km/h | 374m | -9.7m/s | 0°C | 0% | 0hPa | 0V | 00:00:00 | 00:00:00 | 00:00:00 | |
| OM5KV | 2026-09-02 01:41:10 | 48.26605 | 17.53186 | 287° | 7km/h | 384m | -9.7m/s | 0°C | 0% | 0hPa | 0V | 00:00:00 | 00:00:00 | 00:00:00 | |
| OM5KV | 2026-09-02 01:41:04 | 48.26603 | 17.53200 | 282° | 5km/h | 441m | -9.7m/s | 0°C | 0% | 0hPa | 0V | 00:00:00 | 00:00:00 | 00:00:00 | |
| OM5KV | 2026-09-02 01:40:57 | 48.26601 | 17.53207 | 0° | 0km/h | 510m | -9.9m/s | 0°C | 0% | 0hPa | 0V | 00:00:00 | 00:00:00 | 00:00:00 | |
| OM5KV | 2026-09-02 01:40:52 | 48.26603 | 17.53200 | 110° | 7km/h | 559m | -9.5m/s | 0°C | 0% | 0hPa | 0V | 00:00:00 | 00:00:00 | 00:00:00 | |
| OM5KV | 2026-09-02 01:40:48 | 48.26606 | 17.53189 | 106° | 7km/h | 598m | -9.6m/s | 0°C | 0% | 0hPa | 0V | 00:00:00 | 00:00:00 | 00:00:00 | |
| ATIDSZ-14 | 2026-09-02 01:40:43 | 48.26608 | 17.53173 | 103° | 9km/h | 648m | -9.5m/s | 0°C | 0% | 0hPa | 0V | 00:00:00 | 00:00:00 | 00:00:00 | |
| OM5KV | 2026-09-02 01:40:42 | 48.26608 | 17.53169 | 99° | 11km/h | 658m | -9.8m/s | 0°C | 0% | 0hPa | 0V | 00:00:00 | 00:00:00 | 00:00:00 | |
| OM5KV | 2026-09-02 01:40:40 | 48.26609 | 17.53161 | 96° | 9km/h | 678m | -10.0m/s | 0°C | 0% | 0hPa | 0V | 00:00:00 | 00:00:00 | 00:00:00 | |
| OE3JTB-15 | 2026-09-02 01:40:38 | 48.26609 | 17.53151 | 74° | 9km/h | 696m | -9.2m/s | 0°C | 0% | 0hPa | 0V | 00:00:00 | 00:00:00 | 00:00:00 | |
| OM5KV | 2026-09-02 01:40:37 | 48.26608 | 17.53147 | 60° | 7km/h | 705m | -9.8m/s | 0°C | 0% | 0hPa | 0V | 00:00:00 | 00:00:00 | 00:00:00 | |
| OM5KV | 2026-09-02 01:40:34 | 48.26608 | 17.53142 | 119° | 5km/h | 737m | -9.8m/s | 0°C | 0% | 0hPa | 0V | 00:00:00 | 00:00:00 | 00:00:00 | |
| OE3JTB-15 | 2026-09-02 01:40:33 | 48.26608 | 17.53139 | 122° | 11km/h | 746m | -8.5m/s | 0°C | 0% | 0hPa | 0V | 00:00:00 | 00:00:00 | 00:00:00 | |
| OM5KV | 2026-09-02 01:40:29 | 48.26610 | 17.53131 | 110° | 7km/h | 785m | -9.5m/s | 0°C | 0% | 0hPa | 0V | 00:00:00 | 00:00:00 | 00:00:00 | |
| OE3JTB-15 | 2026-09-02 01:40:25 | 48.26614 | 17.53114 | 115° | 15km/h | 824m | -9.4m/s | 0°C | 0% | 0hPa | 0V | 00:00:00 | 00:00:00 | 00:00:00 | |
| OM5KV | 2026-09-02 01:40:24 | 48.26615 | 17.53109 | 111° | 15km/h | 834m | -9.4m/s | 0°C | 0% | 0hPa | 0V | 00:00:00 | 00:00:00 | 00:00:00 | |
| OE3JTB-15 | 2026-09-02 01:40:23 | 48.26616 | 17.53104 | 110° | 15km/h | 843m | -9.3m/s | 0°C | 0% | 0hPa | 0V | 00:00:00 | 00:00:00 | 00:00:00 | |
| ATIDSZ-14 | 2026-09-02 01:40:22 | 48.26618 | 17.53098 | 108° | 16km/h | 853m | -9.4m/s | 0°C | 0% | 0hPa | 0V | 00:00:00 | 00:00:00 | 00:00:00 | |
| OM5KV | 2026-09-02 01:40:18 | 48.26620 | 17.53074 | 91° | 16km/h | 892m | -9.3m/s | 0°C | 0% | 0hPa | 0V | 00:00:00 | 00:00:00 | 00:00:00 | |
| OE3JTB-15 | 2026-09-02 01:40:15 | 48.26619 | 17.53057 | 88° | 13km/h | 921m | -9.4m/s | 0°C | 0% | 0hPa | 0V | 00:00:00 | 00:00:00 | 00:00:00 | |
| OE3JTB-15 | 2026-09-02 01:40:13 | 48.26619 | 17.53047 | 84° | 11km/h | 940m | -9.3m/s | 0°C | 0% | 0hPa | 0V | 00:00:00 | 00:00:00 | 00:00:00 | |
| OM5KV | 2026-09-02 01:40:13 | 48.26619 | 17.53047 | 84° | 11km/h | 940m | -9.4m/s | 0°C | 0% | 0hPa | 0V | 00:00:00 | 00:00:00 | 00:00:00 | |
| OE3JTB-15 | 2026-09-02 01:40:11 | 48.26619 | 17.53039 | 85° | 7km/h | 959m | -9.3m/s | 0°C | 0% | 0hPa | 0V | 00:00:00 | 00:00:00 | 00:00:00 | |
| OE3JTB-15 | 2026-09-02 01:40:08 | 48.26619 | 17.53030 | 97° | 9km/h | 988m | -9.8m/s | 0°C | 0% | 0hPa | 0V | 00:00:00 | 00:00:00 | 00:00:00 | |
| OM5KV | 2026-09-02 01:40:07 | 48.26620 | 17.53027 | 100° | 7km/h | 998m | -10.1m/s | 0°C | 0% | 0hPa | 0V | 00:00:00 | 00:00:00 | 00:00:00 | |
| OE3JTB-15 | 2026-09-02 01:40:04 | 48.26622 | 17.53020 | 121° | 7km/h | 1029m | -9.9m/s | 0°C | 0% | 0hPa | 0V | 00:00:00 | 00:00:00 | 00:00:00 | |
| OM5KV | 2026-09-02 01:40:02 | 48.26624 | 17.53014 | 110° | 9km/h | 1050m | -9.7m/s | 0°C | 0% | 0hPa | 0V | 00:00:00 | 00:00:00 | 00:00:00 | |
| ATIDSZ-14 | 2026-09-02 01:40:02 | 48.26624 | 17.53014 | 110° | 9km/h | 1050m | -9.7m/s | 0°C | 0% | 0hPa | 0V | 00:00:00 | 00:00:00 | 00:00:00 | |
| OE3OSB-13 | 2026-09-02 01:40:02 | 48.26625 | 17.53011 | 106° | 7km/h | 1060m | -10.6m/s | 15.9°C | 56.9% | 907.4hPa | 0V | 00:00:00 | 00:00:00 | 00:00:00 | |
| OE3JTB-15 | 2026-09-02 01:39:57 | 48.26631 | 17.53001 | 111° | 9km/h | 1104m | -10.8m/s | 0°C | 0% | 0hPa | 0V | 00:00:00 | 00:00:00 | 00:00:00 | |
| OM5KV | 2026-09-02 01:39:56 | 48.26632 | 17.52998 | 112° | 9km/h | 1115m | -7.1m/s | 0°C | 0% | 0hPa | 0V | 00:00:00 | 00:00:00 | 00:00:00 | |
| OE3JTB-15 | 2026-09-02 01:39:55 | 48.26634 | 17.52995 | 142° | 11km/h | 1124m | -11.2m/s | 0°C | 0% | 0hPa | 0V | 00:00:00 | 00:00:00 | 00:00:00 | |
| OM5KV | 2026-09-02 01:39:48 | 48.26645 | 17.52985 | 96° | 9km/h | 1196m | -11.1m/s | 0°C | 0% | 0hPa | 0V | 00:00:00 | 00:00:00 | 00:00:00 | |
| ATIDSZ-14 | 2026-09-02 01:39:42 | 48.26651 | 17.52964 | 152° | 9km/h | 1260m | -10.4m/s | 0°C | 0% | 0hPa | 0V | 00:00:00 | 00:00:00 | 00:00:00 | |
| OM5KV | 2026-09-02 01:39:41 | 48.26654 | 17.52962 | 141° | 11km/h | 1271m | -11.3m/s | 0°C | 0% | 0hPa | 0V | 00:00:00 | 00:00:00 | 00:00:00 | |
| PETON7-10 | 2026-09-02 01:39:38 | 48.26661 | 17.52948 | 116° | 16km/h | 1303m | -10.6m/s | 0°C | 0% | 0hPa | 0V | 00:00:00 | 00:00:00 | 00:00:00 | |
| PETON7-10 | 2026-09-02 01:39:31 | 48.26680 | 17.52921 | 139° | 16km/h | 1376m | -10.4m/s | 0°C | 0% | 0hPa | 0V | 00:00:00 | 00:00:00 | 00:00:00 | |
| OE3OSB-13 | 2026-09-02 01:39:31 | 48.26682 | 17.52918 | 149° | 15km/h | 1386m | -10.7m/s | 12.9°C | 65.3% | 872.9hPa | 0V | 00:00:00 | 00:00:00 | 00:00:00 | |
| OM5KV | 2026-09-02 01:39:28 | 48.26690 | 17.52912 | 148° | 20km/h | 1407m | -10.8m/s | 0°C | 0% | 0hPa | 0V | 00:00:00 | 00:00:00 | 00:00:00 | |
| PETON7-10 | 2026-09-02 01:39:26 | 48.26699 | 17.52907 | 169° | 20km/h | 1429m | -10.5m/s | 0°C | 0% | 0hPa | 0V | 00:00:00 | 00:00:00 | 00:00:00 | |
| ATIDSZ-14 | 2026-09-02 01:39:21 | 48.26720 | 17.52888 | 130° | 16km/h | 1479m | -9.7m/s | 0°C | 0% | 0hPa | 0V | 00:00:00 | 00:00:00 | 00:00:00 | |
| PETON7-10 | 2026-09-02 01:39:21 | 48.26720 | 17.52888 | 130° | 22km/h | 1479m | -9.7m/s | 0°C | 0% | 0hPa | 0V | 00:00:00 | 00:00:00 | 00:00:00 | |
| PETON7-10 | 2026-09-02 01:39:16 | 48.26741 | 17.52868 | 133° | 20km/h | 1529m | -10.0m/s | 0°C | 0% | 0hPa | 0V | 00:00:00 | 00:00:00 | 00:00:00 | |
| OM5KV | 2026-09-02 01:39:12 | 48.26758 | 17.52853 | 141° | 24km/h | 1571m | -9.9m/s | 0°C | 0% | 0hPa | 0V | 00:00:00 | 00:00:00 | 00:00:00 | |
| PETON7-10 | 2026-09-02 01:39:11 | 48.26762 | 17.52847 | 127° | 20km/h | 1581m | -10.2m/s | 0°C | 0% | 0hPa | 0V | 00:00:00 | 00:00:00 | 00:00:00 | |
| OM5KV | 2026-09-02 01:39:06 | 48.26783 | 17.52824 | 138° | 22km/h | 1635m | -9.7m/s | 0°C | 0% | 0hPa | 0V | 00:00:00 | 00:00:00 | 00:00:00 | |
| PETON7-10 | 2026-09-02 01:39:06 | 48.26783 | 17.52824 | 137° | 27km/h | 1635m | -9.6m/s | 0°C | 0% | 0hPa | 0V | 00:00:00 | 00:00:00 | 00:00:00 | |
| ATIDSZ-14 | 2026-09-02 01:39:01 | 48.26799 | 17.52786 | 121° | 27km/h | 1682m | -10.1m/s | 0°C | 0% | 0hPa | 0V | 00:00:00 | 00:00:00 | 00:00:00 | |
| OM5KV | 2026-09-02 01:39:00 | 48.26802 | 17.52777 | 121° | 29km/h | 1693m | -10.0m/s | 0°C | 0% | 0hPa | 0V | 00:00:00 | 00:00:00 | 00:00:00 | |
| OE3OSB-13 | 2026-09-02 01:39:00 | 48.26806 | 17.52768 | 115° | 27km/h | 1702m | -10.0m/s | 10.4°C | 76.1% | 840.4hPa | 0V | 00:00:00 | 00:00:00 | 00:00:00 | |
| OM5KV | 2026-09-02 01:38:55 | 48.26816 | 17.52728 | 108° | 26km/h | 1743m | -10.0m/s | 0°C | 0% | 0hPa | 0V | 00:00:00 | 00:00:00 | 00:00:00 | |
| PETON7-10 | 2026-09-02 01:38:52 | 48.26822 | 17.52700 | 107° | 22km/h | 1773m | -9.9m/s | 0°C | 0% | 0hPa | 0V | 00:00:00 | 00:00:00 | 00:00:00 | |
| OM5KV | 2026-09-02 01:38:49 | 48.26827 | 17.52673 | 105° | 24km/h | 1803m | -9.6m/s | 0°C | 0% | 0hPa | 0V | 00:00:00 | 00:00:00 | 00:00:00 | |
| OM5KV | 2026-09-02 01:38:44 | 48.26832 | 17.52630 | 95° | 22km/h | 1852m | -9.5m/s | 0°C | 0% | 0hPa | 0V | 00:00:00 | 00:00:00 | 00:00:00 | |
| ATIDSZ-14 | 2026-09-02 01:38:40 | 48.26836 | 17.52599 | 123° | 20km/h | 1892m | -10.0m/s | 0°C | 0% | 0hPa | 0V | 00:00:00 | 00:00:00 | 00:00:00 | |
| PETON7-10 | 2026-09-02 01:38:39 | 48.26839 | 17.52592 | 133° | 26km/h | 1902m | -9.8m/s | 0°C | 0% | 0hPa | 0V | 00:00:00 | 00:00:00 | 00:00:00 | |
| PETON7-10 | 2026-09-02 01:38:28 | 48.26878 | 17.52500 | 109° | 22km/h | 2014m | -9.8m/s | 0°C | 0% | 0hPa | 0V | 00:00:00 | 00:00:00 | 00:00:00 | |
| OM5KV | 2026-09-02 01:38:27 | 48.26880 | 17.52489 | 104° | 27km/h | 2024m | -10.3m/s | 0°C | 0% | 0hPa | 0V | 00:00:00 | 00:00:00 | 00:00:00 | |
| OM5KV | 2026-09-02 01:38:22 | 48.26887 | 17.52450 | 127° | 18km/h | 2075m | -10.0m/s | 0°C | 0% | 0hPa | 0V | 00:00:00 | 00:00:00 | 00:00:00 | |
| ATIDSZ-14 | 2026-09-02 01:38:20 | 48.26893 | 17.52439 | 133° | 18km/h | 2096m | -10.0m/s | 0°C | 0% | 0hPa | 0V | 00:00:00 | 00:00:00 | 00:00:00 | |
| PETON7-10 | 2026-09-02 01:38:17 | 48.26906 | 17.52419 | 132° | 31km/h | 2127m | -10.0m/s | 0°C | 0% | 0hPa | 0V | 00:00:00 | 00:00:00 | 00:00:00 | |
| OM5KV | 2026-09-02 01:38:08 | 48.26949 | 17.52335 | 113° | 37km/h | 2223m | -10.5m/s | 0°C | 0% | 0hPa | 0V | 00:00:00 | 00:00:00 | 00:00:00 | |
| PETON7-10 | 2026-09-02 01:38:07 | 48.26952 | 17.52323 | 121° | 42km/h | 2234m | -10.5m/s | 0°C | 0% | 0hPa | 0V | 00:00:00 | 00:00:00 | 00:00:00 | |
| OM5KV | 2026-09-02 01:38:03 | 48.26972 | 17.52277 | 121° | 40km/h | 2278m | -10.9m/s | 0°C | 0% | 0hPa | 0V | 00:00:00 | 00:00:00 | 00:00:00 | |
| OE3OSB-13 | 2026-09-02 01:37:57 | 48.27005 | 17.52199 | 121° | 46km/h | 2344m | -11.0m/s | 5.2°C | 77.3% | 777.3hPa | 0V | 00:00:00 | 00:00:00 | 00:00:00 | |
| OM5KV | 2026-09-02 01:37:56 | 48.27011 | 17.52184 | 127° | 47km/h | 2355m | -10.2m/s | 0°C | 0% | 0hPa | 0V | 00:00:00 | 00:00:00 | 00:00:00 | |
| PETON7-10 | 2026-09-02 01:37:51 | 48.27049 | 17.52112 | 122° | 47km/h | 2409m | -12.7m/s | 0°C | 0% | 0hPa | 0V | 00:00:00 | 00:00:00 | 00:00:00 | |
| OM5KV | 2026-09-02 01:37:49 | 48.27061 | 17.52076 | 115° | 55km/h | 2433m | -9.9m/s | 0°C | 0% | 0hPa | 0V | 00:00:00 | 00:00:00 | 00:00:00 | |
| OM5KV | 2026-09-02 01:37:44 | 48.27083 | 17.51993 | 116° | 40km/h | 2485m | -11.3m/s | 0°C | 0% | 0hPa | 0V | 00:00:00 | 00:00:00 | 00:00:00 | |
| ATIDSZ-14 | 2026-09-02 01:37:39 | 48.27107 | 17.51919 | 118° | 47km/h | 2541m | -11.3m/s | 0°C | 0% | 0hPa | 0V | 00:00:00 | 00:00:00 | 00:00:00 | |
| PETON7-10 | 2026-09-02 01:37:36 | 48.27123 | 17.51869 | 110° | 51km/h | 2574m | -11.3m/s | 0°C | 0% | 0hPa | 0V | 00:00:00 | 00:00:00 | 00:00:00 | |
| OE3OSB-13 | 2026-09-02 01:37:26 | 48.27178 | 17.51699 | 116° | 55km/h | 2686m | -10.6m/s | 2.7°C | 81.5% | 745.4hPa | 0V | 00:00:00 | 00:00:00 | 00:00:00 | |
| PETON7-10 | 2026-09-02 01:37:20 | 48.27203 | 17.51588 | 106° | 55km/h | 2754m | -7.5m/s | 0°C | 0% | 0hPa | 0V | 00:00:00 | 00:00:00 | 00:00:00 | |
| ATIDSZ-14 | 2026-09-02 01:37:18 | 48.27210 | 17.51549 | 99° | 55km/h | 2774m | -8.9m/s | 0°C | 0% | 0hPa | 0V | 00:00:00 | 00:00:00 | 00:00:00 | |
| OM5KV | 2026-09-02 01:37:14 | 48.27224 | 17.51473 | 107° | 51km/h | 2815m | -10.9m/s | 0°C | 0% | 0hPa | 0V | 00:00:00 | 00:00:00 | 00:00:00 | |
| OM5KV | 2026-09-02 01:37:09 | 48.27248 | 17.51374 | 109° | 58km/h | 2868m | -11.5m/s | 0°C | 0% | 0hPa | 0V | 00:00:00 | 00:00:00 | 00:00:00 | |
| PETON7-10 | 2026-09-02 01:37:05 | 48.27269 | 17.51291 | 110° | 68km/h | 2914m | -11.7m/s | 0°C | 0% | 0hPa | 0V | 00:00:00 | 00:00:00 | 00:00:00 | |
| OM5KV | 2026-09-02 01:37:04 | 48.27273 | 17.51270 | 105° | 58km/h | 2925m | -11.2m/s | 0°C | 0% | 0hPa | 0V | 00:00:00 | 00:00:00 | 00:00:00 | |
| OE3OSB-13 | 2026-09-02 01:36:55 | 48.27296 | 17.51024 | 97° | 71km/h | 3042m | -10.3m/s | 1.4°C | 80.4% | 713.0hPa | 0V | 00:00:00 | 00:00:00 | 00:00:00 | |
| OM5KV | 2026-09-02 01:36:51 | 48.27303 | 17.50938 | 98° | 77km/h | 3075m | -11.5m/s | 0°C | 0% | 0hPa | 0V | 00:00:00 | 00:00:00 | 00:00:00 | |
| PETON7-10 | 2026-09-02 01:36:49 | 48.27305 | 17.50880 | 91° | 60km/h | 3100m | -11.5m/s | 0°C | 0% | 0hPa | 0V | 00:00:00 | 00:00:00 | 00:00:00 | |
| ATIDSZ-14 | 2026-09-02 01:36:37 | 48.27325 | 17.50587 | 101° | 58km/h | 3246m | -10.0m/s | 0°C | 0% | 0hPa | 0V | 00:00:00 | 00:00:00 | 00:00:00 | |
| PETON7-10 | 2026-09-02 01:36:32 | 48.27336 | 17.50484 | 98° | 47km/h | 3303m | -10.6m/s | 0°C | 0% | 0hPa | 0V | 00:00:00 | 00:00:00 | 00:00:00 | |
| OM5KV | 2026-09-02 01:36:31 | 48.27340 | 17.50465 | 113° | 49km/h | 3316m | -11.3m/s | 0°C | 0% | 0hPa | 0V | 00:00:00 | 00:00:00 | 00:00:00 | |
| OE3JTB-15 | 2026-09-02 01:36:25 | 48.27363 | 17.50367 | 118° | 46km/h | 3385m | -12.4m/s | 0°C | 0% | 0hPa | 0V | 00:00:00 | 00:00:00 | 00:00:00 | |
| OM5KV | 2026-09-02 01:36:24 | 48.27368 | 17.50354 | 119° | 46km/h | 3398m | -11.8m/s | 0°C | 0% | 0hPa | 0V | 00:00:00 | 00:00:00 | 00:00:00 | |
| ATIDSZ-14 | 2026-09-02 01:36:17 | 48.27399 | 17.50236 | 117° | 46km/h | 3478m | -11.4m/s | 0°C | 0% | 0hPa | 0V | 00:00:00 | 00:00:00 | 00:00:00 | |
| PETON7-10 | 2026-09-02 01:36:15 | 48.27409 | 17.50217 | 108° | 49km/h | 3500m | -11.5m/s | 0°C | 0% | 0hPa | 0V | 00:00:00 | 00:00:00 | 00:00:00 | |
| OM5KV | 2026-09-02 01:36:13 | 48.27414 | 17.50163 | 102° | 44km/h | 3523m | -11.5m/s | 0°C | 0% | 0hPa | 0V | 00:00:00 | 00:00:00 | 00:00:00 | |
| OM5KV | 2026-09-02 01:36:08 | 48.27435 | 17.50079 | 105° | 55km/h | 3580m | -11.2m/s | 0°C | 0% | 0hPa | 0V | 00:00:00 | 00:00:00 | 00:00:00 | |
| OM5KV | 2026-09-02 01:36:01 | 48.27462 | 17.49956 | 104° | 49km/h | 3660m | -11.3m/s | 0°C | 0% | 0hPa | 0V | 00:00:00 | 00:00:00 | 00:00:00 | |
| PETON7-10 | 2026-09-02 01:36:00 | 48.27465 | 17.49939 | 103° | 47km/h | 3671m | -11.3m/s | 0°C | 0% | 0hPa | 0V | 00:00:00 | 00:00:00 | 00:00:00 | |
| ATIDSZ-14 | 2026-09-02 01:35:57 | 48.27477 | 17.49891 | 119° | 51km/h | 3705m | -11.5m/s | 0°C | 0% | 0hPa | 0V | 00:00:00 | 00:00:00 | 00:00:00 | |
| OM5KV | 2026-09-02 01:35:54 | 48.27490 | 17.49837 | 105° | 46km/h | 3739m | -11.2m/s | 0°C | 0% | 0hPa | 0V | 00:00:00 | 00:00:00 | 00:00:00 | |
| OE3JTB-15 | 2026-09-02 01:35:53 | 48.27494 | 17.49822 | 112° | 42km/h | 3750m | -10.9m/s | 0°C | 0% | 0hPa | 0V | 00:00:00 | 00:00:00 | 00:00:00 | |
| OM5KV | 2026-09-02 01:35:48 | 48.27512 | 17.49736 | 105° | 40km/h | 3808m | -11.4m/s | 0°C | 0% | 0hPa | 0V | 00:00:00 | 00:00:00 | 00:00:00 | |
| PETON7-10 | 2026-09-02 01:35:44 | 48.27529 | 17.49672 | 108° | 46km/h | 3855m | -11.3m/s | 0°C | 0% | 0hPa | 0V | 00:00:00 | 00:00:00 | 00:00:00 | |
| ATIDSZ-14 | 2026-09-02 01:35:36 | 48.27556 | 17.49543 | 109° | 38km/h | 3947m | -11.6m/s | 0°C | 0% | 0hPa | 0V | 00:00:00 | 00:00:00 | 00:00:00 | |
| PETON7-10 | 2026-09-02 01:35:29 | 48.27582 | 17.49433 | 115° | 46km/h | 4029m | -11.8m/s | 0°C | 0% | 0hPa | 0V | 00:00:00 | 00:00:00 | 00:00:00 | |
| OE3JTB-15 | 2026-09-02 01:35:24 | 48.27599 | 17.49350 | 112° | 40km/h | 4088m | -11.8m/s | 0°C | 0% | 0hPa | 0V | 00:00:00 | 00:00:00 | 00:00:00 | |
| OE3OSB-13 | 2026-09-02 01:35:22 | 48.27611 | 17.49301 | 101° | 47km/h | 4123m | -11.7m/s | -4.1°C | 45.4% | 622.2hPa | 0V | 00:00:00 | 00:00:00 | 00:00:00 | |
| ATIDSZ-14 | 2026-09-02 01:35:15 | 48.27629 | 17.49208 | 102° | 47km/h | 4194m | -12.0m/s | 0°C | 0% | 0hPa | 0V | 00:00:00 | 00:00:00 | 00:00:00 | |
| PETON7-10 | 2026-09-02 01:35:14 | 48.27631 | 17.49191 | 98° | 38km/h | 4206m | -11.7m/s | 0°C | 0% | 0hPa | 0V | 00:00:00 | 00:00:00 | 00:00:00 | |
| OE3OSB-13 | 2026-09-02 01:34:51 | 48.27694 | 17.48857 | 99° | 42km/h | 4488m | -11.9m/s | -6.0°C | 40.7% | 593.8hPa | 0V | 00:00:00 | 00:00:00 | 00:00:00 | |
| PETON7-10 | 2026-09-02 01:34:44 | 48.27696 | 17.48766 | 85° | 38km/h | 4562m | -12.3m/s | 0°C | 0% | 0hPa | 0V | 00:00:00 | 00:00:00 | 00:00:00 | |
| ATIDSZ-14 | 2026-09-02 01:34:34 | 48.27697 | 17.48634 | 105° | 37km/h | 4684m | -12.5m/s | 0°C | 0% | 0hPa | 0V | 00:00:00 | 00:00:00 | 00:00:00 | |
| PETON7-10 | 2026-09-02 01:34:29 | 48.27698 | 17.48558 | 92° | 38km/h | 4749m | -12.5m/s | 0°C | 0% | 0hPa | 0V | 00:00:00 | 00:00:00 | 00:00:00 | |
| OE3OSB-13 | 2026-09-02 01:34:20 | 48.27697 | 17.48420 | 93° | 33km/h | 4880m | -12.2m/s | -8.9°C | 42.4% | 564.8hPa | 0V | 00:00:00 | 00:00:00 | 00:00:00 | |
| ATIDSZ-14 | 2026-09-02 01:34:13 | 48.27697 | 17.48330 | 86° | 40km/h | 4956m | -11.2m/s | 0°C | 0% | 0hPa | 0V | 00:00:00 | 00:00:00 | 00:00:00 | |
| PETON7-10 | 2026-09-02 01:34:12 | 48.27696 | 17.48314 | 86° | 38km/h | 4968m | -12.1m/s | 0°C | 0% | 0hPa | 0V | 00:00:00 | 00:00:00 | 00:00:00 | |
| OE3OSB-13 | 2026-09-02 01:33:49 | 48.27676 | 17.47954 | 88° | 42km/h | 5275m | -11.5m/s | -11.0°C | 44.2% | 536.5hPa | 0V | 00:00:00 | 00:00:00 | 00:00:00 | |
| PETON7-10 | 2026-09-02 01:33:42 | 48.27676 | 17.47859 | 90° | 42km/h | 5351m | -12.9m/s | 0°C | 0% | 0hPa | 0V | 00:00:00 | 00:00:00 | 00:00:00 | |
| ATIDSZ-14 | 2026-09-02 01:33:33 | 48.27673 | 17.47714 | 90° | 46km/h | 5465m | -12.5m/s | 0°C | 0% | 0hPa | 0V | 00:00:00 | 00:00:00 | 00:00:00 | |
| PETON7-10 | 2026-09-02 01:33:27 | 48.27665 | 17.47620 | 76° | 42km/h | 5539m | -12.5m/s | 0°C | 0% | 0hPa | 0V | 00:00:00 | 00:00:00 | 00:00:00 | |
| OE3OSB-13 | 2026-09-02 01:33:18 | 48.27649 | 17.47465 | 74° | 40km/h | 5666m | -12.8m/s | -13.6°C | 61.4% | 509.3hPa | 0V | 00:00:00 | 00:00:00 | 00:00:00 | |
| PETON7-10 | 2026-09-02 01:33:12 | 48.27640 | 17.47386 | 76° | 44km/h | 5729m | -12.5m/s | 0°C | 0% | 0hPa | 0V | 00:00:00 | 00:00:00 | 00:00:00 | |
| OE3OSB-13 | 2026-09-02 01:32:47 | 48.27629 | 17.46930 | 95° | 44km/h | 6060m | -12.7m/s | -16.8°C | 90.5% | 483.3hPa | 0V | 00:00:00 | 00:00:00 | 00:00:00 | |
| PETON7-10 | 2026-09-02 01:32:41 | 48.27632 | 17.46835 | 94° | 49km/h | 6124m | -12.7m/s | 0°C | 0% | 0hPa | 0V | 00:00:00 | 00:00:00 | 00:00:00 | |
| ATIDSZ-14 | 2026-09-02 01:32:30 | 48.27635 | 17.46621 | 96° | 51km/h | 6266m | -13.4m/s | 0°C | 0% | 0hPa | 0V | 00:00:00 | 00:00:00 | 00:00:00 | |
| PETON7-10 | 2026-09-02 01:32:25 | 48.27635 | 17.46525 | 97° | 51km/h | 6331m | -12.6m/s | 0°C | 0% | 0hPa | 0V | 00:00:00 | 00:00:00 | 00:00:00 | |
| OE3OSB-13 | 2026-09-02 01:32:16 | 48.27651 | 17.46339 | 82° | 49km/h | 6469m | -12.7m/s | -19.6°C | 68.8% | 457.7hPa | 0V | 00:00:00 | 00:00:00 | 00:00:00 | |
| PETON7-10 | 2026-09-02 01:32:10 | 48.27647 | 17.46249 | 87° | 53km/h | 6535m | -12.4m/s | 0°C | 0% | 0hPa | 0V | 00:00:00 | 00:00:00 | 00:00:00 | |
| OE3OSB-13 | 2026-09-02 01:31:45 | 48.27661 | 17.45752 | 100° | 49km/h | 6891m | -14.1m/s | -20.9°C | 41.0% | 432.3hPa | 0V | 00:00:00 | 00:00:00 | 00:00:00 | |
| OE3JTB-15 | 2026-09-02 01:31:42 | 48.27663 | 17.45712 | 85° | 82km/h | 6920m | -12.2m/s | 0°C | 0% | 0hPa | 0V | 00:00:00 | 00:00:00 | 00:00:00 | |
| PETON7-10 | 2026-09-02 01:31:40 | 48.27664 | 17.45673 | 95° | 57km/h | 6948m | -13.0m/s | 0°C | 0% | 0hPa | 0V | 00:00:00 | 00:00:00 | 00:00:00 | |
| ATIDSZ-14 | 2026-09-02 01:31:28 | 48.27684 | 17.45417 | 92° | 58km/h | 7111m | -14.7m/s | 0°C | 0% | 0hPa | 0V | 00:00:00 | 00:00:00 | 00:00:00 | |
| PETON7-10 | 2026-09-02 01:31:23 | 48.27695 | 17.45315 | 101° | 62km/h | 7184m | -14.5m/s | 0°C | 0% | 0hPa | 0V | 00:00:00 | 00:00:00 | 00:00:00 | |
| OE3OSB-13 | 2026-09-02 01:31:14 | 48.27703 | 17.45080 | 94° | 66km/h | 7324m | -12.4m/s | -23.8°C | 29.6% | 407.3hPa | 0V | 00:00:00 | 00:00:00 | 00:00:00 | |
| PETON7-10 | 2026-09-02 01:31:08 | 48.27704 | 17.44950 | 85° | 68km/h | 7393m | -14.9m/s | 0°C | 0% | 0hPa | 0V | 00:00:00 | 00:00:00 | 00:00:00 | |
| ATIDSZ-14 | 2026-09-02 01:31:07 | 48.27703 | 17.44926 | 86° | 64km/h | 7408m | -14.1m/s | 0°C | 0% | 0hPa | 0V | 00:00:00 | 00:00:00 | 00:00:00 | |
| OE3OSB-13 | 2026-09-02 01:30:42 | 48.27707 | 17.44272 | 89° | 69km/h | 7771m | -14.7m/s | -27.4°C | 52.4% | 382.9hPa | 0V | 00:00:00 | 00:00:00 | 00:00:00 | |
| PETON7-10 | 2026-09-02 01:30:38 | 48.27709 | 17.44156 | 86° | 80km/h | 7836m | -14.5m/s | 0°C | 0% | 0hPa | 0V | 00:00:00 | 00:00:00 | 00:00:00 | |
| ATIDSZ-14 | 2026-09-02 01:30:26 | 48.27695 | 17.43794 | 93° | 77km/h | 8006m | -14.4m/s | 0°C | 0% | 0hPa | 0V | 00:00:00 | 00:00:00 | 00:00:00 | |
| PETON7-10 | 2026-09-02 01:30:22 | 48.27696 | 17.43663 | 87° | 86km/h | 8068m | -15.3m/s | 0°C | 0% | 0hPa | 0V | 00:00:00 | 00:00:00 | 00:00:00 | |
| OE3OSB-13 | 2026-09-02 01:30:11 | 48.27682 | 17.43306 | 82° | 82km/h | 8232m | -15.1m/s | -31.5°C | 67.4% | 358.7hPa | 0V | 00:00:00 | 00:00:00 | 00:00:00 | |
| PETON7-10 | 2026-09-02 01:30:06 | 48.27669 | 17.43138 | 82° | 95km/h | 8309m | -14.4m/s | 0°C | 0% | 0hPa | 0V | 00:00:00 | 00:00:00 | 00:00:00 | |
| ATIDSZ-14 | 2026-09-02 01:30:05 | 48.27666 | 17.43104 | 82° | 89km/h | 8323m | -14.5m/s | 0°C | 0% | 0hPa | 0V | 00:00:00 | 00:00:00 | 00:00:00 | |
| PETON7-10 | 2026-09-02 01:29:51 | 48.27632 | 17.42609 | 84° | 99km/h | 8536m | -16.1m/s | 0°C | 0% | 0hPa | 0V | 00:00:00 | 00:00:00 | 00:00:00 | |
| ATIDSZ-14 | 2026-09-02 01:29:45 | 48.27613 | 17.42375 | 79° | 104km/h | 8630m | -15.5m/s | 0°C | 0% | 0hPa | 0V | 00:00:00 | 00:00:00 | 00:00:00 | |
| OE3OSB-13 | 2026-09-02 01:29:40 | 48.27589 | 17.42197 | 83° | 93km/h | 8707m | -16.0m/s | -35.4°C | 76.8% | 335.2hPa | 0V | 00:00:00 | 00:00:00 | 00:00:00 | |
| PETON7-10 | 2026-09-02 01:29:36 | 48.27574 | 17.42049 | 77° | 99km/h | 8770m | -13.5m/s | 0°C | 0% | 0hPa | 0V | 00:00:00 | 00:00:00 | 00:00:00 | |
| OM5KV | 2026-09-02 01:29:27 | 48.27519 | 17.41726 | 82° | 100km/h | 8914m | -15.5m/s | 0°C | 0% | 0hPa | 0V | 00:00:00 | 00:00:00 | 00:00:00 | |
| ATIDSZ-14 | 2026-09-02 01:29:25 | 48.27510 | 17.41651 | 79° | 97km/h | 8949m | -16.8m/s | 0°C | 0% | 0hPa | 0V | 00:00:00 | 00:00:00 | 00:00:00 | |
| PETON7-10 | 2026-09-02 01:29:21 | 48.27487 | 17.41505 | 79° | 104km/h | 9011m | -17.7m/s | 0°C | 0% | 0hPa | 0V | 00:00:00 | 00:00:00 | 00:00:00 | |
| OM5KV | 2026-09-02 01:29:17 | 48.27464 | 17.41357 | 79° | 99km/h | 9071m | -15.6m/s | 0°C | 0% | 0hPa | 0V | 00:00:00 | 00:00:00 | 00:00:00 | |
| OM5KV | 2026-09-02 01:29:15 | 48.27455 | 17.41282 | 81° | 99km/h | 9102m | -15.6m/s | 0°C | 0% | 0hPa | 0V | 00:00:00 | 00:00:00 | 00:00:00 | |
| OM5KV | 2026-09-02 01:29:10 | 48.27429 | 17.41080 | 77° | 106km/h | 9183m | -15.8m/s | 0°C | 0% | 0hPa | 0V | 00:00:00 | 00:00:00 | 00:00:00 | |
| OE3OSB-13 | 2026-09-02 01:29:09 | 48.27416 | 17.41004 | 75° | 104km/h | 9214m | -14.8m/s | -38.6°C | 76.8% | 311.5hPa | 0V | 00:00:00 | 00:00:00 | 00:00:00 | |
| PETON7-10 | 2026-09-02 01:29:04 | 48.27390 | 17.40847 | 78° | 104km/h | 9274m | -14.1m/s | 0°C | 0% | 0hPa | 0V | 00:00:00 | 00:00:00 | 00:00:00 | |
| OM5KV | 2026-09-02 01:28:59 | 48.27358 | 17.40652 | 78° | 104km/h | 9349m | -14.7m/s | 0°C | 0% | 0hPa | 0V | 00:00:00 | 00:00:00 | 00:00:00 | |
| OM5KV | 2026-09-02 01:28:58 | 48.27353 | 17.40613 | 80° | 106km/h | 9363m | -14.1m/s | 0°C | 0% | 0hPa | 0V | 00:00:00 | 00:00:00 | 00:00:00 | |
| OM5KV | 2026-09-02 01:28:54 | 48.27328 | 17.40454 | 81° | 104km/h | 9424m | -15.1m/s | 0°C | 0% | 0hPa | 0V | 00:00:00 | 00:00:00 | 00:00:00 | |
| OM5KV | 2026-09-02 01:28:52 | 48.27319 | 17.40377 | 83° | 104km/h | 9455m | -16.0m/s | 0°C | 0% | 0hPa | 0V | 00:00:00 | 00:00:00 | 00:00:00 | |
| PETON7-10 | 2026-09-02 01:28:49 | 48.27308 | 17.40261 | 84° | 106km/h | 9504m | -16.1m/s | 0°C | 0% | 0hPa | 0V | 00:00:00 | 00:00:00 | 00:00:00 | |
| OM5KV | 2026-09-02 01:28:47 | 48.27303 | 17.40178 | 85° | 111km/h | 9537m | -14.9m/s | 0°C | 0% | 0hPa | 0V | 00:00:00 | 00:00:00 | 00:00:00 | |
| OM5KV | 2026-09-02 01:28:46 | 48.27299 | 17.40137 | 84° | 110km/h | 9553m | -15.9m/s | 0°C | 0% | 0hPa | 0V | 00:00:00 | 00:00:00 | 00:00:00 | |
| ATIDSZ-14 | 2026-09-02 01:28:44 | 48.27293 | 17.40053 | 85° | 110km/h | 9584m | -15.1m/s | 0°C | 0% | 0hPa | 0V | 00:00:00 | 00:00:00 | 00:00:00 | |
| OM5KV | 2026-09-02 01:28:42 | 48.27288 | 17.39972 | 86° | 106km/h | 9614m | -15.7m/s | 0°C | 0% | 0hPa | 0V | 00:00:00 | 00:00:00 | 00:00:00 | |
| OM5KV | 2026-09-02 01:28:40 | 48.27284 | 17.39891 | 87° | 110km/h | 9644m | -16.0m/s | 0°C | 0% | 0hPa | 0V | 00:00:00 | 00:00:00 | 00:00:00 | |
| OE3OSB-13 | 2026-09-02 01:28:38 | 48.27276 | 17.39770 | 83° | 100km/h | 9694m | -16.1m/s | -42.2°C | 76.0% | 290.2hPa | 0V | 00:00:00 | 00:00:00 | 00:00:00 | |
| OM5KV | 2026-09-02 01:28:36 | 48.27273 | 17.39733 | 85° | 97km/h | 9710m | -15.9m/s | 0°C | 0% | 0hPa | 0V | 00:00:00 | 00:00:00 | 00:00:00 | |
| PETON7-10 | 2026-09-02 01:28:33 | 48.27270 | 17.39625 | 91° | 99km/h | 9758m | -16.0m/s | 0°C | 0% | 0hPa | 0V | 00:00:00 | 00:00:00 | 00:00:00 | |
| OM5KV | 2026-09-02 01:28:30 | 48.27269 | 17.39508 | 87° | 102km/h | 9807m | -16.1m/s | 0°C | 0% | 0hPa | 0V | 00:00:00 | 00:00:00 | 00:00:00 | |
| OM5KV | 2026-09-02 01:28:29 | 48.27266 | 17.39470 | 86° | 99km/h | 9823m | -15.9m/s | 0°C | 0% | 0hPa | 0V | 00:00:00 | 00:00:00 | 00:00:00 | |
| OM5KV | 2026-09-02 01:28:25 | 48.27264 | 17.39326 | 92° | 100km/h | 9886m | -16.3m/s | 0°C | 0% | 0hPa | 0V | 00:00:00 | 00:00:00 | 00:00:00 | |
| OM5KV | 2026-09-02 01:28:24 | 48.27264 | 17.39288 | 91° | 102km/h | 9903m | -16.4m/s | 0°C | 0% | 0hPa | 0V | 00:00:00 | 00:00:00 | 00:00:00 | |
| ATIDSZ-14 | 2026-09-02 01:28:23 | 48.27263 | 17.39249 | 88° | 100km/h | 9920m | -16.7m/s | 0°C | 0% | 0hPa | 0V | 00:00:00 | 00:00:00 | 00:00:00 | |
| OM5KV | 2026-09-02 01:28:19 | 48.27258 | 17.39104 | 90° | 93km/h | 9984m | -16.4m/s | 0°C | 0% | 0hPa | 0V | 00:00:00 | 00:00:00 | 00:00:00 | |
| PETON7-10 | 2026-09-02 01:28:18 | 48.27257 | 17.39067 | 89° | 95km/h | 10000m | -15.7m/s | 0°C | 0% | 0hPa | 0V | 00:00:00 | 00:00:00 | 00:00:00 | |
| OM5KV | 2026-09-02 01:28:13 | 48.27254 | 17.38889 | 92° | 93km/h | 10077m | -14.4m/s | 0°C | 0% | 0hPa | 0V | 00:00:00 | 00:00:00 | 00:00:00 | |
| OE3JTB-15 | 2026-09-02 01:28:11 | 48.27254 | 17.38818 | 92° | 99km/h | 10107m | -15.8m/s | 0°C | 0% | 0hPa | 0V | 00:00:00 | 00:00:00 | 00:00:00 | |
| OM5KV | 2026-09-02 01:28:08 | 48.27258 | 17.38708 | 93° | 102km/h | 10157m | -16.5m/s | 0°C | 0% | 0hPa | 0V | 00:00:00 | 00:00:00 | 00:00:00 | |
| OM5KV | 2026-09-02 01:28:07 | 48.27259 | 17.38669 | 92° | 99km/h | 10174m | -17.1m/s | 0°C | 0% | 0hPa | 0V | 00:00:00 | 00:00:00 | 00:00:00 | |
| PETON7-10 | 2026-09-02 01:28:03 | 48.27258 | 17.38521 | 91° | 97km/h | 10241m | -17.1m/s | 0°C | 0% | 0hPa | 0V | 00:00:00 | 00:00:00 | 00:00:00 | |
| OM5KV | 2026-09-02 01:28:02 | 48.27258 | 17.38485 | 93° | 99km/h | 10257m | -15.1m/s | 0°C | 0% | 0hPa | 0V | 00:00:00 | 00:00:00 | 00:00:00 | |
| OM5KV | 2026-09-02 01:27:56 | 48.27258 | 17.38267 | 92° | 91km/h | 10351m | -16.9m/s | 0°C | 0% | 0hPa | 0V | 00:00:00 | 00:00:00 | 00:00:00 | |
| OM5KV | 2026-09-02 01:27:51 | 48.27260 | 17.38084 | 90° | 102km/h | 10433m | -14.8m/s | 0°C | 0% | 0hPa | 0V | 00:00:00 | 00:00:00 | 00:00:00 | |
| OM5KV | 2026-09-02 01:27:50 | 48.27259 | 17.38046 | 88° | 102km/h | 10448m | -15.2m/s | 0°C | 0% | 0hPa | 0V | 00:00:00 | 00:00:00 | 00:00:00 | |
| OE5DXL-15 | 2026-09-02 01:27:48 | 48.27257 | 17.37969 | 89° | 106km/h | 10479m | -16.2m/s | 0°C | 0% | 0hPa | 0V | 00:00:00 | 00:00:00 | 00:00:00 | |
| PETON7-10 | 2026-09-02 01:27:47 | 48.27256 | 17.37932 | 91° | 106km/h | 10495m | -15.4m/s | 0°C | 0% | 0hPa | 0V | 00:00:00 | 00:00:00 | 00:00:00 | |
| OM5KV | 2026-09-02 01:27:45 | 48.27256 | 17.37851 | 90° | 108km/h | 10527m | -16.4m/s | 0°C | 0% | 0hPa | 0V | 00:00:00 | 00:00:00 | 00:00:00 | |
| ATIDSZ-14 | 2026-09-02 01:27:42 | 48.27251 | 17.37730 | 86° | 104km/h | 10577m | -16.8m/s | 0°C | 0% | 0hPa | 0V | 00:00:00 | 00:00:00 | 00:00:00 | |
| OM5KV | 2026-09-02 01:27:40 | 48.27248 | 17.37654 | 91° | 100km/h | 10610m | -16.1m/s | 0°C | 0% | 0hPa | 0V | 00:00:00 | 00:00:00 | 00:00:00 | |
| OE3JTB-15 | 2026-09-02 01:27:38 | 48.27249 | 17.37575 | 90° | 111km/h | 10642m | -16.3m/s | 0°C | 0% | 0hPa | 0V | 00:00:00 | 00:00:00 | 00:00:00 | |
| OE3OSB-13 | 2026-09-02 01:27:36 | 48.27246 | 17.37452 | 85° | 104km/h | 10692m | -15.8m/s | -50.3°C | 48.0% | 249.4hPa | 0V | 00:00:00 | 00:00:00 | 00:00:00 | |
| OM5KV | 2026-09-02 01:27:33 | 48.27242 | 17.37374 | 88° | 102km/h | 10725m | -16.4m/s | 0°C | 0% | 0hPa | 0V | 00:00:00 | 00:00:00 | 00:00:00 | |
| PETON7-10 | 2026-09-02 01:27:32 | 48.27241 | 17.37336 | 89° | 111km/h | 10741m | -15.9m/s | 0°C | 0% | 0hPa | 0V | 00:00:00 | 00:00:00 | 00:00:00 | |
| OM5KV | 2026-09-02 01:27:31 | 48.27240 | 17.37296 | 90° | 104km/h | 10757m | -16.0m/s | 0°C | 0% | 0hPa | 0V | 00:00:00 | 00:00:00 | 00:00:00 | |
| OM5KV | 2026-09-02 01:27:27 | 48.27240 | 17.37136 | 92° | 110km/h | 10823m | -17.2m/s | 0°C | 0% | 0hPa | 0V | 00:00:00 | 00:00:00 | 00:00:00 | |
| OM5KV | 2026-09-02 01:27:26 | 48.27241 | 17.37095 | 92° | 108km/h | 10840m | -17.4m/s | 0°C | 0% | 0hPa | 0V | 00:00:00 | 00:00:00 | 00:00:00 | |
| ATIDSZ-14 | 2026-09-02 01:27:22 | 48.27241 | 17.36923 | 89° | 115km/h | 10909m | -16.6m/s | 0°C | 0% | 0hPa | 0V | 00:00:00 | 00:00:00 | 00:00:00 | |
| OM5KV | 2026-09-02 01:27:20 | 48.27238 | 17.36838 | 87° | 110km/h | 10943m | -16.7m/s | 0°C | 0% | 0hPa | 0V | 00:00:00 | 00:00:00 | 00:00:00 | |
| OM5KV | 2026-09-02 01:27:16 | 48.27236 | 17.36666 | 90° | 120km/h | 11011m | -16.6m/s | 0°C | 0% | 0hPa | 0V | 00:00:00 | 00:00:00 | 00:00:00 | |
| OM5KV | 2026-09-02 01:27:11 | 48.27233 | 17.36442 | 90° | 122km/h | 11095m | -17.1m/s | 0°C | 0% | 0hPa | 0V | 00:00:00 | 00:00:00 | 00:00:00 | |
| OE3JTB-15 | 2026-09-02 01:27:08 | 48.27227 | 17.36304 | 88° | 124km/h | 11147m | -17.2m/s | 0°C | 0% | 0hPa | 0V | 00:00:00 | 00:00:00 | 00:00:00 | |
| OE3OSB-13 | 2026-09-02 01:27:05 | 48.27224 | 17.36116 | 86° | 126km/h | 11216m | -16.8m/s | -54.1°C | 28.5% | 229.9hPa | 0V | 00:00:00 | 00:00:00 | 00:00:00 | |
| OM5KV | 2026-09-02 01:27:02 | 48.27220 | 17.36023 | 89° | 122km/h | 11250m | -17.0m/s | 0°C | 0% | 0hPa | 0V | 00:00:00 | 00:00:00 | 00:00:00 | |
| ATIDSZ-14 | 2026-09-02 01:27:01 | 48.27219 | 17.35976 | 91° | 126km/h | 11267m | -17.2m/s | 0°C | 0% | 0hPa | 0V | 00:00:00 | 00:00:00 | 00:00:00 | |
| PETON7-10 | 2026-09-02 01:27:00 | 48.27219 | 17.35928 | 89° | 128km/h | 11285m | -16.9m/s | 0°C | 0% | 0hPa | 0V | 00:00:00 | 00:00:00 | 00:00:00 | |
| OM5KV | 2026-09-02 01:26:58 | 48.27216 | 17.35831 | 87° | 128km/h | 11320m | -17.4m/s | 0°C | 0% | 0hPa | 0V | 00:00:00 | 00:00:00 | 00:00:00 | |
| OM5KV | 2026-09-02 01:26:56 | 48.27212 | 17.35737 | 89° | 120km/h | 11354m | -17.4m/s | 0°C | 0% | 0hPa | 0V | 00:00:00 | 00:00:00 | 00:00:00 | |
| OM5KV | 2026-09-02 01:26:51 | 48.27207 | 17.35496 | 88° | 124km/h | 11441m | -16.7m/s | 0°C | 0% | 0hPa | 0V | 00:00:00 | 00:00:00 | 00:00:00 | |
| OE5DXL-15 | 2026-09-02 01:26:47 | 48.27206 | 17.35301 | 89° | 130km/h | 11510m | -17.2m/s | 0°C | 0% | 0hPa | 0V | 00:00:00 | 00:00:00 | 00:00:00 | |
| PETON7-10 | 2026-09-02 01:26:45 | 48.27203 | 17.35203 | 89° | 130km/h | 11545m | -17.0m/s | 0°C | 0% | 0hPa | 0V | 00:00:00 | 00:00:00 | 00:00:00 | |
| OM5KV | 2026-09-02 01:26:42 | 48.27205 | 17.35060 | 92° | 131km/h | 11596m | -16.8m/s | 0°C | 0% | 0hPa | 0V | 00:00:00 | 00:00:00 | 00:00:00 | |
| ATIDSZ-14 | 2026-09-02 01:26:41 | 48.27205 | 17.35010 | 90° | 131km/h | 11613m | -17.0m/s | 0°C | 0% | 0hPa | 0V | 00:00:00 | 00:00:00 | 00:00:00 | |
| OE3JTB-15 | 2026-09-02 01:26:39 | 48.27203 | 17.34913 | 91° | 128km/h | 11647m | -17.2m/s | 0°C | 0% | 0hPa | 0V | 00:00:00 | 00:00:00 | 00:00:00 | |
| OM5KV | 2026-09-02 01:26:36 | 48.27204 | 17.34766 | 90° | 133km/h | 11698m | -17.1m/s | 0°C | 0% | 0hPa | 0V | 00:00:00 | 00:00:00 | 00:00:00 | |
| OE3OSB-13 | 2026-09-02 01:26:34 | 48.27203 | 17.34619 | 90° | 130km/h | 11750m | -17.3m/s | -58.0°C | 10.9% | 211.1hPa | 0V | 00:00:00 | 00:00:00 | 00:00:00 | |
| PETON7-10 | 2026-09-02 01:26:30 | 48.27200 | 17.34467 | 87° | 128km/h | 11803m | -17.8m/s | 0°C | 0% | 0hPa | 0V | 00:00:00 | 00:00:00 | 00:00:00 | |
| OM5KV | 2026-09-02 01:26:25 | 48.27196 | 17.34223 | 91° | 133km/h | 11891m | -17.9m/s | 0°C | 0% | 0hPa | 0V | 00:00:00 | 00:00:00 | 00:00:00 | |
| ATIDSZ-14 | 2026-09-02 01:26:21 | 48.27195 | 17.34026 | 93° | 126km/h | 11964m | -17.8m/s | 0°C | 0% | 0hPa | 0V | 00:00:00 | 00:00:00 | 00:00:00 | |
| OM5KV | 2026-09-02 01:26:19 | 48.27197 | 17.33930 | 94° | 131km/h | 12000m | -18.2m/s | 0°C | 0% | 0hPa | 0V | 00:00:00 | 00:00:00 | 00:00:00 | |
| OE5DXL-15 | 2026-09-02 01:26:15 | 48.27198 | 17.33735 | 91° | 110km/h | 12075m | -19.0m/s | 0°C | 0% | 0hPa | 0V | 00:00:00 | 00:00:00 | 00:00:00 | |
| PETON7-10 | 2026-09-02 01:26:14 | 48.27198 | 17.33690 | 91° | 115km/h | 12094m | -18.5m/s | 0°C | 0% | 0hPa | 0V | 00:00:00 | 00:00:00 | 00:00:00 | |
| OM5KV | 2026-09-02 01:26:13 | 48.27199 | 17.33647 | 93° | 113km/h | 12112m | -18.5m/s | 0°C | 0% | 0hPa | 0V | 00:00:00 | 00:00:00 | 00:00:00 | |
| OE3JTB-15 | 2026-09-02 01:26:10 | 48.27203 | 17.33516 | 94° | 106km/h | 12167m | -18.2m/s | 0°C | 0% | 0hPa | 0V | 00:00:00 | 00:00:00 | 00:00:00 | |
| OM5KV | 2026-09-02 01:26:09 | 48.27205 | 17.33471 | 92° | 119km/h | 12185m | -18.3m/s | 0°C | 0% | 0hPa | 0V | 00:00:00 | 00:00:00 | 00:00:00 | |
| OE3OSB-13 | 2026-09-02 01:26:03 | 48.27194 | 17.33168 | 85° | 110km/h | 12312m | -17.6m/s | -56.5°C | 2.7% | 193.0hPa | 0V | 00:00:00 | 00:00:00 | 00:00:00 | |
| ATIDSZ-14 | 2026-09-02 01:26:01 | 48.27191 | 17.33126 | 85° | 113km/h | 12330m | -17.3m/s | 0°C | 0% | 0hPa | 0V | 00:00:00 | 00:00:00 | 00:00:00 | |
| PETON7-10 | 2026-09-02 01:25:59 | 48.27183 | 17.33042 | 81° | 104km/h | 12365m | -18.1m/s | 0°C | 0% | 0hPa | 0V | 00:00:00 | 00:00:00 | 00:00:00 | |
| OM5KV | 2026-09-02 01:25:57 | 48.27175 | 17.32962 | 85° | 108km/h | 12400m | -17.1m/s | 0°C | 0% | 0hPa | 0V | 00:00:00 | 00:00:00 | 00:00:00 | |
| OM5KV | 2026-09-02 01:25:55 | 48.27169 | 17.32879 | 83° | 110km/h | 12436m | -18.1m/s | 0°C | 0% | 0hPa | 0V | 00:00:00 | 00:00:00 | 00:00:00 | |
| OM5KV | 2026-09-02 01:25:51 | 48.27158 | 17.32722 | 86° | 102km/h | 12511m | -18.5m/s | 0°C | 0% | 0hPa | 0V | 00:00:00 | 00:00:00 | 00:00:00 | |
| OM5KV | 2026-09-02 01:25:49 | 48.27152 | 17.32647 | 84° | 95km/h | 12548m | -18.8m/s | 0°C | 0% | 0hPa | 0V | 00:00:00 | 00:00:00 | 00:00:00 | |
| OE5DXL-15 | 2026-09-02 01:25:45 | 48.27138 | 17.32501 | 78° | 102km/h | 12622m | -18.7m/s | 0°C | 0% | 0hPa | 0V | 00:00:00 | 00:00:00 | 00:00:00 | |
| PETON7-10 | 2026-09-02 01:25:44 | 48.27132 | 17.32464 | 76° | 104km/h | 12641m | -18.5m/s | 0°C | 0% | 0hPa | 0V | 00:00:00 | 00:00:00 | 00:00:00 | |
| OM5KV | 2026-09-02 01:25:43 | 48.27125 | 17.32428 | 75° | 97km/h | 12660m | -18.8m/s | 0°C | 0% | 0hPa | 0V | 00:00:00 | 00:00:00 | 00:00:00 | |
| ATIDSZ-14 | 2026-09-02 01:25:41 | 48.27112 | 17.32359 | 76° | 93km/h | 12697m | -18.3m/s | 0°C | 0% | 0hPa | 0V | 00:00:00 | 00:00:00 | 00:00:00 | |
| OM5KV | 2026-09-02 01:25:40 | 48.27106 | 17.32325 | 76° | 95km/h | 12715m | -18.3m/s | 0°C | 0% | 0hPa | 0V | 00:00:00 | 00:00:00 | 00:00:00 | |
| OM5KV | 2026-09-02 01:25:38 | 48.27092 | 17.32252 | 74° | 104km/h | 12752m | -18.6m/s | 0°C | 0% | 0hPa | 0V | 00:00:00 | 00:00:00 | 00:00:00 | |
| OM5KV | 2026-09-02 01:25:34 | 48.27059 | 17.32106 | 75° | 100km/h | 12827m | -18.6m/s | 0°C | 0% | 0hPa | 0V | 00:00:00 | 00:00:00 | 00:00:00 | |
| OE3OSB-13 | 2026-09-02 01:25:32 | 48.27036 | 17.31989 | 71° | 110km/h | 12883m | -19.4m/s | -55.8°C | 0.3% | 176.2hPa | 0V | 00:00:00 | 00:00:00 | 00:00:00 | |
| PETON7-10 | 2026-09-02 01:25:29 | 48.27019 | 17.31913 | 75° | 106km/h | 12922m | -19.5m/s | 0°C | 0% | 0hPa | 0V | 00:00:00 | 00:00:00 | 00:00:00 | |
| OM5KV | 2026-09-02 01:25:28 | 48.27013 | 17.31875 | 79° | 102km/h | 12942m | -19.4m/s | 0°C | 0% | 0hPa | 0V | 00:00:00 | 00:00:00 | 00:00:00 | |
| OM5KV | 2026-09-02 01:25:22 | 48.26992 | 17.31632 | 84° | 111km/h | 13054m | -18.0m/s | 0°C | 0% | 0hPa | 0V | 00:00:00 | 00:00:00 | 00:00:00 | |
| OM5KV | 2026-09-02 01:25:21 | 48.26988 | 17.31591 | 84° | 111km/h | 13073m | -18.6m/s | 0°C | 0% | 0hPa | 0V | 00:00:00 | 00:00:00 | 00:00:00 | |
| ATIDSZ-14 | 2026-09-02 01:25:20 | 48.26985 | 17.31549 | 84° | 108km/h | 13091m | -18.5m/s | 0°C | 0% | 0hPa | 0V | 00:00:00 | 00:00:00 | 00:00:00 | |
| OM5KV | 2026-09-02 01:25:17 | 48.26978 | 17.31431 | 86° | 102km/h | 13147m | -18.8m/s | 0°C | 0% | 0hPa | 0V | 00:00:00 | 00:00:00 | 00:00:00 | |
| OE5DXL-15 | 2026-09-02 01:25:15 | 48.26974 | 17.31355 | 88° | 99km/h | 13185m | -19.5m/s | 0°C | 0% | 0hPa | 0V | 00:00:00 | 00:00:00 | 00:00:00 | |
| PETON7-10 | 2026-09-02 01:25:13 | 48.26972 | 17.31283 | 88° | 95km/h | 13225m | -20.3m/s | 0°C | 0% | 0hPa | 0V | 00:00:00 | 00:00:00 | 00:00:00 | |
| OE3JTB-15 | 2026-09-02 01:25:10 | 48.26966 | 17.31177 | 83° | 99km/h | 13285m | -20.2m/s | 0°C | 0% | 0hPa | 0V | 00:00:00 | 00:00:00 | 00:00:00 | |
| OM5KV | 2026-09-02 01:25:08 | 48.26958 | 17.31106 | 80° | 93km/h | 13324m | -19.5m/s | 0°C | 0% | 0hPa | 0V | 00:00:00 | 00:00:00 | 00:00:00 | |
| OM5KV | 2026-09-02 01:25:05 | 48.26943 | 17.31005 | 77° | 91km/h | 13381m | -18.8m/s | 0°C | 0% | 0hPa | 0V | 00:00:00 | 00:00:00 | 00:00:00 | |
| OM5KV | 2026-09-02 01:25:03 | 48.26932 | 17.30937 | 79° | 95km/h | 13419m | -19.5m/s | 0°C | 0% | 0hPa | 0V | 00:00:00 | 00:00:00 | 00:00:00 | |
| OE3OSB-13 | 2026-09-02 01:25:01 | 48.26921 | 17.30828 | 81° | 97km/h | 13477m | -19.0m/s | -54.5°C | 0.0% | 160.4hPa | 0V | 00:00:00 | 00:00:00 | 00:00:00 | |
| ATIDSZ-14 | 2026-09-02 01:25:00 | 48.26921 | 17.30828 | 82° | 99km/h | 13477m | -19.0m/s | 0°C | 0% | 0hPa | 0V | 00:00:00 | 00:00:00 | 00:00:00 | |
| OM5KV | 2026-09-02 01:24:59 | 48.26917 | 17.30791 | 84° | 99km/h | 13496m | -19.6m/s | 0°C | 0% | 0hPa | 0V | 00:00:00 | 00:00:00 | 00:00:00 | |
| PETON7-10 | 2026-09-02 01:24:58 | 48.26914 | 17.30753 | 85° | 102km/h | 13515m | -19.2m/s | 0°C | 0% | 0hPa | 0V | 00:00:00 | 00:00:00 | 00:00:00 | |
| OM5KV | 2026-09-02 01:24:57 | 48.26913 | 17.30714 | 88° | 104km/h | 13535m | -19.8m/s | 0°C | 0% | 0hPa | 0V | 00:00:00 | 00:00:00 | 00:00:00 | |
| DO3MHA-12 | 2026-09-02 01:24:53 | 48.26912 | 17.30554 | 93° | 69km/h | 13614m | -19.4m/s | 0°C | 0% | 0hPa | 0V | 00:00:00 | 00:00:00 | 00:00:00 | |
| OM5KV | 2026-09-02 01:24:50 | 48.26919 | 17.30437 | 100° | 102km/h | 13674m | -20.1m/s | 0°C | 0% | 0hPa | 0V | 00:00:00 | 00:00:00 | 00:00:00 | |
| OM5KV | 2026-09-02 01:24:49 | 48.26923 | 17.30400 | 100° | 100km/h | 13694m | -20.4m/s | 0°C | 0% | 0hPa | 0V | 00:00:00 | 00:00:00 | 00:00:00 | |
| OE5DXL-15 | 2026-09-02 01:24:45 | 48.26933 | 17.30251 | 92° | 84km/h | 13775m | -19.6m/s | 0°C | 0% | 0hPa | 0V | 00:00:00 | 00:00:00 | 00:00:00 | |
| PETON7-10 | 2026-09-02 01:24:43 | 48.26933 | 17.30178 | 91° | 86km/h | 13814m | -19.5m/s | 0°C | 0% | 0hPa | 0V | 00:00:00 | 00:00:00 | 00:00:00 | |
| OE3JTB-15 | 2026-09-02 01:24:41 | 48.26934 | 17.30107 | 91° | 82km/h | 13853m | -20.0m/s | 0°C | 0% | 0hPa | 0V | 00:00:00 | 00:00:00 | 00:00:00 | |
| ATIDSZ-14 | 2026-09-02 01:24:39 | 48.26934 | 17.30038 | 91° | 88km/h | 13892m | -19.6m/s | 0°C | 0% | 0hPa | 0V | 00:00:00 | 00:00:00 | 00:00:00 | |
| OM5KV | 2026-09-02 01:24:32 | 48.26932 | 17.29820 | 87° | 78km/h | 14030m | -19.7m/s | 0°C | 0% | 0hPa | 0V | 00:00:00 | 00:00:00 | 00:00:00 | |
| OE3OSB-13 | 2026-09-02 01:24:30 | 48.26928 | 17.29730 | 86° | 80km/h | 14091m | -20.8m/s | -53.3°C | 0.0% | 145.6hPa | 0V | 00:00:00 | 00:00:00 | 00:00:00 | |
| PETON7-10 | 2026-09-02 01:24:28 | 48.26927 | 17.29699 | 88° | 77km/h | 14112m | -21.6m/s | 0°C | 0% | 0hPa | 0V | 00:00:00 | 00:00:00 | 00:00:00 | |
| OM5KV | 2026-09-02 01:24:26 | 48.26924 | 17.29638 | 86° | 82km/h | 14156m | -22.2m/s | 0°C | 0% | 0hPa | 0V | 00:00:00 | 00:00:00 | 00:00:00 | |
| OM5KV | 2026-09-02 01:24:22 | 48.26913 | 17.29512 | 80° | 82km/h | 14245m | -22.0m/s | 0°C | 0% | 0hPa | 0V | 00:00:00 | 00:00:00 | 00:00:00 | |
| OM5KV | 2026-09-02 01:24:21 | 48.26909 | 17.29482 | 80° | 78km/h | 14266m | -21.7m/s | 0°C | 0% | 0hPa | 0V | 00:00:00 | 00:00:00 | 00:00:00 | |
| ATIDSZ-14 | 2026-09-02 01:24:18 | 48.26898 | 17.29401 | 82° | 66km/h | 14330m | -20.4m/s | 0°C | 0% | 0hPa | 0V | 00:00:00 | 00:00:00 | 00:00:00 | |
| OM5KV | 2026-09-02 01:24:17 | 48.26896 | 17.29377 | 84° | 66km/h | 14350m | -20.1m/s | 0°C | 0% | 0hPa | 0V | 00:00:00 | 00:00:00 | 00:00:00 | |
| OE5DXL-15 | 2026-09-02 01:24:15 | 48.26892 | 17.29327 | 84° | 84km/h | 14390m | -20.3m/s | 0°C | 0% | 0hPa | 0V | 00:00:00 | 00:00:00 | 00:00:00 | |
| OE3JTB-15 | 2026-09-02 01:24:12 | 48.26878 | 17.29218 | 79° | 57km/h | 14473m | -20.4m/s | 0°C | 0% | 0hPa | 0V | 00:00:00 | 00:00:00 | 00:00:00 | |
| OM5KV | 2026-09-02 01:24:10 | 48.26874 | 17.29188 | 81° | 78km/h | 14493m | -20.2m/s | 0°C | 0% | 0hPa | 0V | 00:00:00 | 00:00:00 | 00:00:00 | |
| OM5KV | 2026-09-02 01:24:06 | 48.26860 | 17.29060 | 83° | 95km/h | 14575m | -21.0m/s | 0°C | 0% | 0hPa | 0V | 00:00:00 | 00:00:00 | 00:00:00 | |
| OM5KV | 2026-09-02 01:24:04 | 48.26853 | 17.28989 | 84° | 95km/h | 14617m | -20.4m/s | 0°C | 0% | 0hPa | 0V | 00:00:00 | 00:00:00 | 00:00:00 | |
| OM5KV | 2026-09-02 01:24:00 | 48.26846 | 17.28847 | 90° | 95km/h | 14699m | -20.6m/s | 0°C | 0% | 0hPa | 0V | 00:00:00 | 00:00:00 | 00:00:00 | |
| OM5KV | 2026-09-02 01:23:58 | 48.26846 | 17.28777 | 91° | 88km/h | 14740m | -20.2m/s | 0°C | 0% | 0hPa | 0V | 00:00:00 | 00:00:00 | 00:00:00 | |
| PETON7-10 | 2026-09-02 01:23:57 | 48.26846 | 17.28745 | 91° | 77km/h | 14760m | -20.6m/s | 0°C | 0% | 0hPa | 0V | 00:00:00 | 00:00:00 | 00:00:00 | |
| OM5KV | 2026-09-02 01:23:54 | 48.26849 | 17.28651 | 96° | 80km/h | 14822m | -21.0m/s | 0°C | 0% | 0hPa | 0V | 00:00:00 | 00:00:00 | 00:00:00 | |
| OM5KV | 2026-09-02 01:23:52 | 48.26851 | 17.28592 | 95° | 75km/h | 14864m | -21.1m/s | 0°C | 0% | 0hPa | 0V | 00:00:00 | 00:00:00 | 00:00:00 | |
| OM5KV | 2026-09-02 01:23:48 | 48.26853 | 17.28480 | 92° | 73km/h | 14949m | -21.4m/s | 0°C | 0% | 0hPa | 0V | 00:00:00 | 00:00:00 | 00:00:00 | |
| OM5KV | 2026-09-02 01:23:46 | 48.26854 | 17.28426 | 92° | 71km/h | 14993m | -21.9m/s | 0°C | 0% | 0hPa | 0V | 00:00:00 | 00:00:00 | 00:00:00 | |
| OE5DXL-15 | 2026-09-02 01:23:44 | 48.26855 | 17.28372 | 92° | 58km/h | 15037m | -21.8m/s | 0°C | 0% | 0hPa | 0V | 00:00:00 | 00:00:00 | 00:00:00 | |
| PETON7-10 | 2026-09-02 01:23:42 | 48.26856 | 17.28319 | 93° | 57km/h | 15080m | -21.9m/s | 0°C | 0% | 0hPa | 0V | 00:00:00 | 00:00:00 | 00:00:00 | |
| OM5KV | 2026-09-02 01:23:41 | 48.26857 | 17.28293 | 94° | 68km/h | 15102m | -21.6m/s | 0°C | 0% | 0hPa | 0V | 00:00:00 | 00:00:00 | 00:00:00 | |
| OM5KV | 2026-09-02 01:23:36 | 48.26860 | 17.28173 | 95° | 55km/h | 15210m | -22.0m/s | 0°C | 0% | 0hPa | 0V | 00:00:00 | 00:00:00 | 00:00:00 | |
| OM5KV | 2026-09-02 01:23:35 | 48.26861 | 17.28152 | 92° | 53km/h | 15232m | -22.4m/s | 0°C | 0% | 0hPa | 0V | 00:00:00 | 00:00:00 | 00:00:00 | |
| OM5KV | 2026-09-02 01:23:29 | 48.26858 | 17.28034 | 82° | 47km/h | 15365m | -22.5m/s | 0°C | 0% | 0hPa | 0V | 00:00:00 | 00:00:00 | 00:00:00 | |
| OE3OSB-13 | 2026-09-02 01:23:27 | 48.26854 | 17.28000 | 76° | 46km/h | 15410m | -22.4m/s | -52.7°C | 0.0% | 118.3hPa | 0V | 00:00:00 | 00:00:00 | 00:00:00 | |
| PETON7-10 | 2026-09-02 01:23:26 | 48.26851 | 17.27983 | 78° | 58km/h | 15432m | -22.1m/s | 0°C | 0% | 0hPa | 0V | 00:00:00 | 00:00:00 | 00:00:00 | |
| OM5KV | 2026-09-02 01:23:24 | 48.26845 | 17.27949 | 74° | 47km/h | 15477m | -22.5m/s | 0°C | 0% | 0hPa | 0V | 00:00:00 | 00:00:00 | 00:00:00 | |
| OM5KV | 2026-09-02 01:23:20 | 48.26826 | 17.27875 | 71° | 57km/h | 15567m | -22.4m/s | 0°C | 0% | 0hPa | 0V | 00:00:00 | 00:00:00 | 00:00:00 | |
| OM5KV | 2026-09-02 01:23:18 | 48.26817 | 17.27834 | 73° | 58km/h | 15612m | -22.4m/s | 0°C | 0% | 0hPa | 0V | 00:00:00 | 00:00:00 | 00:00:00 | |
| ATIDSZ-14 | 2026-09-02 01:23:15 | 48.26803 | 17.27765 | 77° | 69km/h | 15679m | -22.6m/s | 0°C | 0% | 0hPa | 0V | 00:00:00 | 00:00:00 | 00:00:00 | |
| OE5DXL-15 | 2026-09-02 01:23:14 | 48.26799 | 17.27740 | 79° | 64km/h | 15702m | -22.8m/s | 0°C | 0% | 0hPa | 0V | 00:00:00 | 00:00:00 | 00:00:00 | |
| OE5MMP-10 | 2026-09-02 01:23:13 | 48.26796 | 17.27714 | 80° | 64km/h | 15725m | -23.0m/s | 0°C | 0% | 0hPa | 0V | 00:00:00 | 00:00:00 | 00:00:00 | |
| OM5KV | 2026-09-02 01:23:12 | 48.26793 | 17.27687 | 83° | 71km/h | 15748m | -22.8m/s | 0°C | 0% | 0hPa | 0V | 00:00:00 | 00:00:00 | 00:00:00 | |
| PETON7-10 | 2026-09-02 01:23:11 | 48.26791 | 17.27661 | 85° | 57km/h | 15771m | -22.6m/s | 0°C | 0% | 0hPa | 0V | 00:00:00 | 00:00:00 | 00:00:00 | |
| OM5KV | 2026-09-02 01:23:08 | 48.26789 | 17.27584 | 94° | 64km/h | 15840m | -23.0m/s | 0°C | 0% | 0hPa | 0V | 00:00:00 | 00:00:00 | 00:00:00 | |
| OM5KV | 2026-09-02 01:23:06 | 48.26791 | 17.27537 | 94° | 60km/h | 15886m | -23.2m/s | 0°C | 0% | 0hPa | 0V | 00:00:00 | 00:00:00 | 00:00:00 | |
| OM5KV | 2026-09-02 01:23:03 | 48.26793 | 17.27451 | 91° | 55km/h | 15979m | -23.0m/s | 0°C | 0% | 0hPa | 0V | 00:00:00 | 00:00:00 | 00:00:00 | |
| PETON7-10 | 2026-09-02 01:22:56 | 48.26791 | 17.27340 | 89° | 57km/h | 16117m | -23.0m/s | 0°C | 0% | 0hPa | 0V | 00:00:00 | 00:00:00 | 00:00:00 | |
| ATIDSZ-14 | 2026-09-02 01:22:54 | 48.26789 | 17.27303 | 87° | 47km/h | 16164m | -24.0m/s | 0°C | 0% | 0hPa | 0V | 00:00:00 | 00:00:00 | 00:00:00 | |
| OE5MMP-10 | 2026-09-02 01:22:51 | 48.26784 | 17.27249 | 82° | 62km/h | 16238m | -25.0m/s | 0°C | 0% | 0hPa | 0V | 00:00:00 | 00:00:00 | 00:00:00 | |
| OM5KV | 2026-09-02 01:22:50 | 48.26783 | 17.27229 | 86° | 55km/h | 16263m | -25.2m/s | 0°C | 0% | 0hPa | 0V | 00:00:00 | 00:00:00 | 00:00:00 | |
| OM5KV | 2026-09-02 01:22:49 | 48.26782 | 17.27207 | 89° | 62km/h | 16289m | -25.0m/s | 0°C | 0% | 0hPa | 0V | 00:00:00 | 00:00:00 | 00:00:00 | |
| PETON7-10 | 2026-09-02 01:22:41 | 48.26793 | 17.27014 | 105° | 57km/h | 16488m | -25.2m/s | 0°C | 0% | 0hPa | 0V | 00:00:00 | 00:00:00 | 00:00:00 | |
| ATIDSZ-14 | 2026-09-02 01:22:33 | 48.26805 | 17.26858 | 91° | 60km/h | 16689m | -25.2m/s | 0°C | 0% | 0hPa | 0V | 00:00:00 | 00:00:00 | 00:00:00 | |
| OE5MMP-10 | 2026-09-02 01:22:32 | 48.26805 | 17.26813 | 93° | 60km/h | 16738m | -24.6m/s | 0°C | 0% | 0hPa | 0V | 00:00:00 | 00:00:00 | 00:00:00 | |
| OM5KV | 2026-09-02 01:22:28 | 48.26807 | 17.26745 | 90° | 58km/h | 16810m | -23.7m/s | 0°C | 0% | 0hPa | 0V | 00:00:00 | 00:00:00 | 00:00:00 | |
| PETON7-10 | 2026-09-02 01:22:26 | 48.26804 | 17.26700 | 82° | 53km/h | 16858m | -24.5m/s | 0°C | 0% | 0hPa | 0V | 00:00:00 | 00:00:00 | 00:00:00 | |
| OE3OSB-13 | 2026-09-02 01:22:25 | 48.26799 | 17.26656 | 77° | 58km/h | 16909m | -26.0m/s | -53.2°C | 0.0% | 93.3hPa | 0V | 00:00:00 | 00:00:00 | 00:00:00 | |
| OE5DXL-15 | 2026-09-02 01:22:24 | 48.26799 | 17.26656 | 78° | 47km/h | 16909m | -26.0m/s | 0°C | 0% | 0hPa | 0V | 00:00:00 | 00:00:00 | 00:00:00 | |
| OM5KV | 2026-09-02 01:22:22 | 48.26794 | 17.26611 | 83° | 57km/h | 16961m | -26.0m/s | 0°C | 0% | 0hPa | 0V | 00:00:00 | 00:00:00 | 00:00:00 | |
| OM5KV | 2026-09-02 01:22:21 | 48.26792 | 17.26590 | 84° | 53km/h | 16987m | -25.3m/s | 0°C | 0% | 0hPa | 0V | 00:00:00 | 00:00:00 | 00:00:00 | |
| OM5KV | 2026-09-02 01:22:16 | 48.26789 | 17.26494 | 90° | 47km/h | 17114m | -25.2m/s | 0°C | 0% | 0hPa | 0V | 00:00:00 | 00:00:00 | 00:00:00 | |
| OM5KV | 2026-09-02 01:22:15 | 48.26789 | 17.26476 | 88° | 46km/h | 17140m | -25.5m/s | 0°C | 0% | 0hPa | 0V | 00:00:00 | 00:00:00 | 00:00:00 | |
| ATIDSZ-14 | 2026-09-02 01:22:13 | 48.26787 | 17.26441 | 89° | 44km/h | 17191m | -25.8m/s | 0°C | 0% | 0hPa | 0V | 00:00:00 | 00:00:00 | 00:00:00 | |
| OE5MMP-10 | 2026-09-02 01:22:11 | 48.26787 | 17.26408 | 92° | 46km/h | 17243m | -25.8m/s | 0°C | 0% | 0hPa | 0V | 00:00:00 | 00:00:00 | 00:00:00 | |
| OM5KV | 2026-09-02 01:22:09 | 48.26788 | 17.26373 | 89° | 46km/h | 17296m | -26.6m/s | 0°C | 0% | 0hPa | 0V | 00:00:00 | 00:00:00 | 00:00:00 | |
| OM5KV | 2026-09-02 01:22:05 | 48.26785 | 17.26312 | 88° | 40km/h | 17405m | -27.7m/s | 0°C | 0% | 0hPa | 0V | 00:00:00 | 00:00:00 | 00:00:00 | |
| OM5KV | 2026-09-02 01:22:03 | 48.26785 | 17.26279 | 96° | 46km/h | 17461m | -27.9m/s | 0°C | 0% | 0hPa | 0V | 00:00:00 | 00:00:00 | 00:00:00 | |
| OE5MMP-10 | 2026-09-02 01:21:59 | 48.26797 | 17.26209 | 112° | 42km/h | 17571m | -27.4m/s | 0°C | 0% | 0hPa | 0V | 00:00:00 | 00:00:00 | 00:00:00 | |
| OE3JTB-15 | 2026-09-02 01:21:58 | 48.26801 | 17.26194 | 117° | 35km/h | 17599m | -27.7m/s | 0°C | 0% | 0hPa | 0V | 00:00:00 | 00:00:00 | 00:00:00 | |
| PETON7-10 | 2026-09-02 01:21:56 | 48.26812 | 17.26164 | 118° | 42km/h | 17653m | -26.6m/s | 0°C | 0% | 0hPa | 0V | 00:00:00 | 00:00:00 | 00:00:00 | |
| OM5KV | 2026-09-02 01:21:54 | 48.26821 | 17.26136 | 115° | 40km/h | 17707m | -26.9m/s | 0°C | 0% | 0hPa | 0V | 00:00:00 | 00:00:00 | 00:00:00 | |
| ATIDSZ-14 | 2026-09-02 01:21:52 | 48.26827 | 17.26108 | 100° | 38km/h | 17763m | -28.8m/s | 0°C | 0% | 0hPa | 0V | 00:00:00 | 00:00:00 | 00:00:00 | |
| OM5KV | 2026-09-02 01:21:50 | 48.26830 | 17.26081 | 97° | 33km/h | 17820m | -28.5m/s | 0°C | 0% | 0hPa | 0V | 00:00:00 | 00:00:00 | 00:00:00 | |
| OE5MMP-10 | 2026-09-02 01:21:49 | 48.26830 | 17.26068 | 99° | 46km/h | 17848m | -28.0m/s | 0°C | 0% | 0hPa | 0V | 00:00:00 | 00:00:00 | 00:00:00 | |
| OM5KV | 2026-09-02 01:21:48 | 48.26831 | 17.26053 | 95° | 40km/h | 17877m | -28.4m/s | 0°C | 0% | 0hPa | 0V | 00:00:00 | 00:00:00 | 00:00:00 | |
| OM5KV | 2026-09-02 01:21:42 | 48.26824 | 17.25958 | 82° | 47km/h | 18048m | -28.3m/s | 0°C | 0% | 0hPa | 0V | 00:00:00 | 00:00:00 | 00:00:00 | |
| PETON7-10 | 2026-09-02 01:21:41 | 48.26821 | 17.25940 | 78° | 46km/h | 18077m | -28.8m/s | 0°C | 0% | 0hPa | 0V | 00:00:00 | 00:00:00 | 00:00:00 | |
| OM5KV | 2026-09-02 01:21:40 | 48.26819 | 17.25921 | 78° | 51km/h | 18107m | -30.1m/s | 0°C | 0% | 0hPa | 0V | 00:00:00 | 00:00:00 | 00:00:00 | |
| OE5MMP-10 | 2026-09-02 01:21:39 | 48.26816 | 17.25903 | 79° | 38km/h | 18137m | -29.7m/s | 0°C | 0% | 0hPa | 0V | 00:00:00 | 00:00:00 | 00:00:00 | |
| OE5DXL-15 | 2026-09-02 01:21:38 | 48.26814 | 17.25886 | 84° | 31km/h | 18166m | -28.5m/s | 0°C | 0% | 0hPa | 0V | 00:00:00 | 00:00:00 | 00:00:00 | |
| OM5KV | 2026-09-02 01:21:36 | 48.26813 | 17.25849 | 92° | 49km/h | 18221m | -27.3m/s | 0°C | 0% | 0hPa | 0V | 00:00:00 | 00:00:00 | 00:00:00 | |
| OM5KV | 2026-09-02 01:21:34 | 48.26814 | 17.25814 | 93° | 42km/h | 18277m | -27.7m/s | 0°C | 0% | 0hPa | 0V | 00:00:00 | 00:00:00 | 00:00:00 | |
| ATIDSZ-14 | 2026-09-02 01:21:32 | 48.26817 | 17.25785 | 108° | 40km/h | 18333m | -27.8m/s | 0°C | 0% | 0hPa | 0V | 00:00:00 | 00:00:00 | 00:00:00 | |
| OM5KV | 2026-09-02 01:21:30 | 48.26822 | 17.25757 | 109° | 37km/h | 18388m | -27.2m/s | 0°C | 0% | 0hPa | 0V | 00:00:00 | 00:00:00 | 00:00:00 | |
| OM5KV | 2026-09-02 01:21:29 | 48.26825 | 17.25745 | 112° | 33km/h | 18415m | -27.9m/s | 0°C | 0% | 0hPa | 0V | 00:00:00 | 00:00:00 | 00:00:00 | |
| OE5MMP-10 | 2026-09-02 01:21:27 | 48.26831 | 17.25723 | 114° | 20km/h | 18471m | -29.4m/s | 0°C | 0% | 0hPa | 0V | 00:00:00 | 00:00:00 | 00:00:00 | |
| PETON7-10 | 2026-09-02 01:21:26 | 48.26833 | 17.25712 | 105° | 20km/h | 18502m | -30.7m/s | 0°C | 0% | 0hPa | 0V | 00:00:00 | 00:00:00 | 00:00:00 | |
| OM5KV | 2026-09-02 01:21:23 | 48.26834 | 17.25689 | 88° | 16km/h | 18592m | -29.4m/s | 0°C | 0% | 0hPa | 0V | 00:00:00 | 00:00:00 | 00:00:00 | |
| OE3JTB-15 | 2026-09-02 01:21:21 | 48.26834 | 17.25673 | 94° | 18km/h | 18651m | -29.8m/s | 0°C | 0% | 0hPa | 0V | 00:00:00 | 00:00:00 | 00:00:00 | |
| OM5KV | 2026-09-02 01:21:18 | 48.26831 | 17.25649 | 64° | 18km/h | 18740m | -29.5m/s | 0°C | 0% | 0hPa | 0V | 00:00:00 | 00:00:00 | 00:00:00 | |
| OE5MMP-10 | 2026-09-02 01:21:15 | 48.26825 | 17.25635 | 61° | 18km/h | 18828m | -28.8m/s | 0°C | 0% | 0hPa | 0V | 00:00:00 | 00:00:00 | 00:00:00 | |
| OM5KV | 2026-09-02 01:21:13 | 48.26822 | 17.25625 | 62° | 15km/h | 18886m | -28.9m/s | 0°C | 0% | 0hPa | 0V | 00:00:00 | 00:00:00 | 00:00:00 | |
| ATIDSZ-14 | 2026-09-02 01:21:12 | 48.26820 | 17.25620 | 68° | 16km/h | 18914m | -28.6m/s | 0°C | 0% | 0hPa | 0V | 00:00:00 | 00:00:00 | 00:00:00 | |
| PETON7-10 | 2026-09-02 01:21:11 | 48.26819 | 17.25614 | 75° | 16km/h | 18943m | -29.0m/s | 0°C | 0% | 0hPa | 0V | 00:00:00 | 00:00:00 | 00:00:00 | |
| OM5KV | 2026-09-02 01:21:07 | 48.26819 | 17.25583 | 101° | 26km/h | 19060m | -29.8m/s | 0°C | 0% | 0hPa | 0V | 00:00:00 | 00:00:00 | 00:00:00 | |
| OE5DXL-15 | 2026-09-02 01:21:06 | 48.26820 | 17.25573 | 99° | 20km/h | 19090m | -30.4m/s | 0°C | 0% | 0hPa | 0V | 00:00:00 | 00:00:00 | 00:00:00 | |
| OE5MMP-10 | 2026-09-02 01:21:05 | 48.26821 | 17.25563 | 93° | 15km/h | 19121m | -30.6m/s | 0°C | 0% | 0hPa | 0V | 00:00:00 | 00:00:00 | 00:00:00 | |
| OM5KV | 2026-09-02 01:21:01 | 48.26817 | 17.25534 | 43° | 9km/h | 19244m | -30.7m/s | 0°C | 0% | 0hPa | 0V | 00:00:00 | 00:00:00 | 00:00:00 | |
| OE3OSB-13 | 2026-09-02 01:20:52 | 48.26789 | 17.25511 | 54° | 18km/h | 19571m | -34.6m/s | -54.2°C | 0.0% | 60.9hPa | 0V | 00:00:00 | 00:00:00 | 00:00:00 | |
| OM5KV | 2026-09-02 01:20:51 | 48.26789 | 17.25511 | 56° | 20km/h | 19571m | -34.6m/s | 0°C | 0% | 0hPa | 0V | 00:00:00 | 00:00:00 | 00:00:00 | |
| OM5KV | 2026-09-02 01:20:50 | 48.26786 | 17.25503 | 66° | 29km/h | 19607m | -32.4m/s | 0°C | 0% | 0hPa | 0V | 00:00:00 | 00:00:00 | 00:00:00 | |
| OE5MMP-10 | 2026-09-02 01:20:44 | 48.26775 | 17.25440 | 77° | 16km/h | 19814m | -34.9m/s | 0°C | 0% | 0hPa | 0V | 00:00:00 | 00:00:00 | 00:00:00 | |
| OM5KV | 2026-09-02 01:20:42 | 48.26771 | 17.25423 | 73° | 24km/h | 19883m | -34.6m/s | 0°C | 0% | 0hPa | 0V | 00:00:00 | 00:00:00 | 00:00:00 | |
| PETON7-10 | 2026-09-02 01:20:41 | 48.26770 | 17.25415 | 80° | 15km/h | 19918m | -34.7m/s | 0°C | 0% | 0hPa | 0V | 00:00:00 | 00:00:00 | 00:00:00 | |
| OM5KV | 2026-09-02 01:20:38 | 48.26768 | 17.25406 | 337° | 7km/h | 20023m | -34.6m/s | 0°C | 0% | 0hPa | 0V | 00:00:00 | 00:00:00 | 00:00:00 | |
| OE5DXL-15 | 2026-09-02 01:20:35 | 48.26758 | 17.25408 | 6° | 15km/h | 20125m | -33.8m/s | 0°C | 0% | 0hPa | 0V | 00:00:00 | 00:00:00 | 00:00:00 | |
| OE5MMP-10 | 2026-09-02 01:20:34 | 48.26754 | 17.25407 | 11° | 16km/h | 20159m | -33.7m/s | 0°C | 0% | 0hPa | 0V | 00:00:00 | 00:00:00 | 00:00:00 | |
| ATIDSZ-14 | 2026-09-02 01:20:31 | 48.26743 | 17.25401 | 44° | 13km/h | 20259m | -32.5m/s | 0°C | 0% | 0hPa | 0V | 00:00:00 | 00:00:00 | 00:00:00 | |
| OM5KV | 2026-09-02 01:20:29 | 48.26740 | 17.25392 | 79° | 15km/h | 20323m | -32.1m/s | 0°C | 0% | 0hPa | 0V | 00:00:00 | 00:00:00 | 00:00:00 | |
| PETON7-10 | 2026-09-02 01:20:26 | 48.26740 | 17.25371 | 102° | 13km/h | 20419m | -34.8m/s | 0°C | 0% | 0hPa | 0V | 00:00:00 | 00:00:00 | 00:00:00 | |
| OE5MMP-10 | 2026-09-02 01:20:24 | 48.26741 | 17.25359 | 92° | 11km/h | 20490m | -36.1m/s | 0°C | 0% | 0hPa | 0V | 00:00:00 | 00:00:00 | 00:00:00 | |
| OM5KV | 2026-09-02 01:20:23 | 48.26741 | 17.25354 | 71° | 11km/h | 20526m | -36.4m/s | 0°C | 0% | 0hPa | 0V | 00:00:00 | 00:00:00 | 00:00:00 | |
| OE3OSB-13 | 2026-09-02 01:20:21 | 48.26737 | 17.25341 | 82° | 7km/h | 20637m | -36.8m/s | -51.6°C | 0.0% | 51.2hPa | 0V | 00:00:00 | 00:00:00 | 00:00:00 | |
| OM5KV | 2026-09-02 01:20:19 | 48.26737 | 17.25339 | 42° | 4km/h | 20673m | -36.8m/s | 0°C | 0% | 0hPa | 0V | 00:00:00 | 00:00:00 | 00:00:00 | |
| OM5KV | 2026-09-02 01:20:17 | 48.26731 | 17.25339 | 8° | 16km/h | 20747m | -37.0m/s | 0°C | 0% | 0hPa | 0V | 00:00:00 | 00:00:00 | 00:00:00 | |
| OE5MMP-10 | 2026-09-02 01:20:14 | 48.26721 | 17.25338 | 1° | 13km/h | 20852m | -33.1m/s | 0°C | 0% | 0hPa | 0V | 00:00:00 | 00:00:00 | 00:00:00 | |
| ATIDSZ-14 | 2026-09-02 01:20:11 | 48.26714 | 17.25337 | 352° | 11km/h | 20950m | -33.1m/s | 0°C | 0% | 0hPa | 0V | 00:00:00 | 00:00:00 | 00:00:00 | |
| PETON7-10 | 2026-09-02 01:20:10 | 48.26711 | 17.25337 | 9° | 22km/h | 20982m | -31.9m/s | 0°C | 0% | 0hPa | 0V | 00:00:00 | 00:00:00 | 00:00:00 | |
| OM5KV | 2026-09-02 01:20:09 | 48.26708 | 17.25336 | 14° | 13km/h | 21014m | -32.6m/s | 0°C | 0% | 0hPa | 0V | 00:00:00 | 00:00:00 | 00:00:00 | |
| OE5DXL-15 | 2026-09-02 01:20:05 | 48.26695 | 17.25330 | 43° | 22km/h | 21146m | -33.5m/s | 0°C | 0% | 0hPa | 0V | 00:00:00 | 00:00:00 | 00:00:00 | |
| OM5KV | 2026-09-02 01:20:04 | 48.26691 | 17.25325 | 43° | 20km/h | 21179m | -33.1m/s | 0°C | 0% | 0hPa | 0V | 00:00:00 | 00:00:00 | 00:00:00 | |
| OE5MMP-10 | 2026-09-02 01:20:03 | 48.26687 | 17.25320 | 43° | 29km/h | 21212m | -32.5m/s | 0°C | 0% | 0hPa | 0V | 00:00:00 | 00:00:00 | 00:00:00 | |
| OE3OSB-13 | 2026-09-02 01:19:50 | 48.26668 | 17.25178 | 98° | 18km/h | 21670m | -30.3m/s | -54.0°C | 0.0% | 43.3hPa | 0V | 00:00:00 | 00:00:00 | 00:00:00 | |
| OM5KV | 2026-09-02 01:19:46 | 48.26668 | 17.25159 | 75° | 15km/h | 21765m | -31.6m/s | 0°C | 0% | 0hPa | 0V | 00:00:00 | 00:00:00 | 00:00:00 | |
| OE3JTB-15 | 2026-09-02 01:19:44 | 48.26666 | 17.25149 | 76° | 11km/h | 21830m | -32.9m/s | 0°C | 0% | 0hPa | 0V | 00:00:00 | 00:00:00 | 00:00:00 | |
| OE5MMP-10 | 2026-09-02 01:19:41 | 48.26661 | 17.25136 | 53° | 9km/h | 21931m | -32.6m/s | 0°C | 0% | 0hPa | 0V | 00:00:00 | 00:00:00 | 00:00:00 | |
| OM5KV | 2026-09-02 01:19:40 | 48.26660 | 17.25132 | 52° | 11km/h | 21964m | -33.2m/s | 0°C | 0% | 0hPa | 0V | 00:00:00 | 00:00:00 | 00:00:00 | |
| PETON7-10 | 2026-09-02 01:19:39 | 48.26658 | 17.25130 | 31° | 9km/h | 21997m | -34.5m/s | 0°C | 0% | 0hPa | 0V | 00:00:00 | 00:00:00 | 00:00:00 | |
| OE5DXL-15 | 2026-09-02 01:19:35 | 48.26653 | 17.25127 | 68° | 11km/h | 22143m | -38.3m/s | 0°C | 0% | 0hPa | 0V | 00:00:00 | 00:00:00 | 00:00:00 | |
| OM5KV | 2026-09-02 01:19:34 | 48.26653 | 17.25125 | 86° | 7km/h | 22181m | -38.4m/s | 0°C | 0% | 0hPa | 0V | 00:00:00 | 00:00:00 | 00:00:00 | |
| OE5MMP-10 | 2026-09-02 01:19:30 | 48.26656 | 17.25108 | 120° | 11km/h | 22343m | -41.6m/s | 0°C | 0% | 0hPa | 0V | 00:00:00 | 00:00:00 | 00:00:00 | |
| OM5KV | 2026-09-02 01:19:28 | 48.26660 | 17.25103 | 177° | 9km/h | 22430m | -44.3m/s | 0°C | 0% | 0hPa | 0V | 00:00:00 | 00:00:00 | 00:00:00 | |
| OM5KV | 2026-09-02 01:19:23 | 48.26672 | 17.25102 | 177° | 15km/h | 22642m | -40.7m/s | 0°C | 0% | 0hPa | 0V | 00:00:00 | 00:00:00 | 00:00:00 | |
| PETON7-10 | 2026-09-02 01:19:22 | 48.26676 | 17.25102 | 193° | 11km/h | 22684m | -41.4m/s | 0°C | 0% | 0hPa | 0V | 00:00:00 | 00:00:00 | 00:00:00 | |
| OE5MMP-10 | 2026-09-02 01:19:20 | 48.26680 | 17.25105 | 200° | 7km/h | 22768m | -43.0m/s | 0°C | 0% | 0hPa | 0V | 00:00:00 | 00:00:00 | 00:00:00 | |
| OE3OSB-13 | 2026-09-02 01:19:19 | 48.26682 | 17.25102 | 111° | 5km/h | 22854m | -42.4m/s | -52.8°C | 0.0% | 35.7hPa | 0V | 00:00:00 | 00:00:00 | 00:00:00 | |
| OM5KV | 2026-09-02 01:19:17 | 48.26682 | 17.25100 | 101° | 4km/h | 22896m | -41.9m/s | 0°C | 0% | 0hPa | 0V | 00:00:00 | 00:00:00 | 00:00:00 | |
| OM5KV | 2026-09-02 01:19:15 | 48.26680 | 17.25099 | 9° | 9km/h | 22981m | -42.0m/s | 0°C | 0% | 0hPa | 0V | 00:00:00 | 00:00:00 | 00:00:00 | |
| OE3JTB-15 | 2026-09-02 01:19:14 | 48.26678 | 17.25097 | 35° | 15km/h | 23022m | -41.0m/s | 0°C | 0% | 0hPa | 0V | 00:00:00 | 00:00:00 | 00:00:00 | |
| OE5MMP-10 | 2026-09-02 01:19:10 | 48.26678 | 17.25082 | 113° | 13km/h | 23183m | -38.1m/s | 0°C | 0% | 0hPa | 0V | 00:00:00 | 00:00:00 | 00:00:00 | |
| ATIDSZ-14 | 2026-09-02 01:19:09 | 48.26680 | 17.25077 | 114° | 16km/h | 23222m | -40.3m/s | 0°C | 0% | 0hPa | 0V | 00:00:00 | 00:00:00 | 00:00:00 | |
| OM5KV | 2026-09-02 01:19:08 | 48.26682 | 17.25072 | 125° | 15km/h | 23262m | -39.7m/s | 0°C | 0% | 0hPa | 0V | 00:00:00 | 00:00:00 | 00:00:00 | |
| OM5KV | 2026-09-02 01:19:07 | 48.26686 | 17.25066 | 145° | 11km/h | 23342m | -41.7m/s | 0°C | 0% | 0hPa | 0V | 00:00:00 | 00:00:00 | 00:00:00 | |
| PETON7-10 | 2026-09-02 01:19:06 | 48.26686 | 17.25066 | 144° | 15km/h | 23342m | -41.7m/s | 0°C | 0% | 0hPa | 0V | 00:00:00 | 00:00:00 | 00:00:00 | |
| OE5DXL-15 | 2026-09-02 01:19:04 | 48.26692 | 17.25062 | 174° | 15km/h | 23426m | -43.1m/s | 0°C | 0% | 0hPa | 0V | 00:00:00 | 00:00:00 | 00:00:00 | |
| OM5KV | 2026-09-02 01:19:01 | 48.26701 | 17.25064 | 206° | 15km/h | 23558m | -45.4m/s | 0°C | 0% | 0hPa | 0V | 00:00:00 | 00:00:00 | 00:00:00 | |
| OE5MMP-10 | 2026-09-02 01:19:00 | 48.26704 | 17.25067 | 222° | 16km/h | 23604m | -46.6m/s | 0°C | 0% | 0hPa | 0V | 00:00:00 | 00:00:00 | 00:00:00 | |
| OE3OSB-13 | 2026-09-02 01:18:48 | 48.26738 | 17.25102 | 130° | 11km/h | 24185m | -44.8m/s | -51.7°C | 0.0% | 28.5hPa | 0V | 00:00:00 | 00:00:00 | 00:00:00 | |
| OM5KV | 2026-09-02 01:18:47 | 48.26738 | 17.25101 | 132° | 13km/h | 24185m | -44.8m/s | 0°C | 0% | 0hPa | 0V | 00:00:00 | 00:00:00 | 00:00:00 | |
| OE3JTB-15 | 2026-09-02 01:18:45 | 48.26745 | 17.25093 | 145° | 11km/h | 24278m | -47.7m/s | 0°C | 0% | 0hPa | 0V | 00:00:00 | 00:00:00 | 00:00:00 | |
| OM5KV | 2026-09-02 01:18:42 | 48.26759 | 17.25082 | 159° | 20km/h | 24420m | -47.5m/s | 0°C | 0% | 0hPa | 0V | 00:00:00 | 00:00:00 | 00:00:00 | |
| OM5KV | 2026-09-02 01:18:41 | 48.26764 | 17.25080 | 160° | 20km/h | 24468m | -47.5m/s | 0°C | 0% | 0hPa | 0V | 00:00:00 | 00:00:00 | 00:00:00 | |
| OE5MMP-10 | 2026-09-02 01:18:37 | 48.26780 | 17.25069 | 160° | 15km/h | 24656m | -46.0m/s | 0°C | 0% | 0hPa | 0V | 00:00:00 | 00:00:00 | 00:00:00 | |
| PETON7-10 | 2026-09-02 01:18:36 | 48.26784 | 17.25067 | 174° | 9km/h | 24702m | -45.9m/s | 0°C | 0% | 0hPa | 0V | 00:00:00 | 00:00:00 | 00:00:00 | |
| OM5KV | 2026-09-02 01:18:35 | 48.26789 | 17.25067 | 187° | 16km/h | 24748m | -46.3m/s | 0°C | 0% | 0hPa | 0V | 00:00:00 | 00:00:00 | 00:00:00 | |
| OM5KV | 2026-09-02 01:18:29 | 48.26811 | 17.25086 | 225° | 13km/h | 25039m | -49.8m/s | 0°C | 0% | 0hPa | 0V | 00:00:00 | 00:00:00 | 00:00:00 | |
| ATIDSZ-14 | 2026-09-02 01:18:27 | 48.26814 | 17.25090 | 209° | 4km/h | 25139m | -50.3m/s | 0°C | 0% | 0hPa | 0V | 00:00:00 | 00:00:00 | 00:00:00 | |
| OE5MMP-10 | 2026-09-02 01:18:25 | 48.26814 | 17.25092 | 330° | 4km/h | 25241m | -50.8m/s | 0°C | 0% | 0hPa | 0V | 00:00:00 | 00:00:00 | 00:00:00 | |
| OM5KV | 2026-09-02 01:18:23 | 48.26813 | 17.25091 | 29° | 4km/h | 25347m | -52.1m/s | 0°C | 0% | 0hPa | 0V | 00:00:00 | 00:00:00 | 00:00:00 | |
| PETON7-10 | 2026-09-02 01:18:21 | 48.26812 | 17.25091 | 306° | 5km/h | 25448m | -49.5m/s | 0°C | 0% | 0hPa | 0V | 00:00:00 | 00:00:00 | 00:00:00 | |
| OM5KV | 2026-09-02 01:18:18 | 48.26807 | 17.25094 | 20° | 7km/h | 25602m | -53.4m/s | 0°C | 0% | 0hPa | 0V | 00:00:00 | 00:00:00 | 00:00:00 | |
| OE3OSB-13 | 2026-09-02 01:18:17 | 48.26806 | 17.25094 | 257° | 4km/h | 25710m | -54.4m/s | -50.3°C | 0.0% | 22.1hPa | 0V | 00:00:00 | 00:00:00 | 00:00:00 | |
| OE3JTB-15 | 2026-09-02 01:18:16 | 48.26806 | 17.25094 | 258° | 7km/h | 25710m | -54.4m/s | 0°C | 0% | 0hPa | 0V | 00:00:00 | 00:00:00 | 00:00:00 | |
| OE5MMP-10 | 2026-09-02 01:18:15 | 48.26806 | 17.25096 | 269° | 7km/h | 25765m | -54.0m/s | 0°C | 0% | 0hPa | 0V | 00:00:00 | 00:00:00 | 00:00:00 | |
| OM5KV | 2026-09-02 01:18:12 | 48.26802 | 17.25101 | 355° | 11km/h | 25924m | -52.7m/s | 0°C | 0% | 0hPa | 0V | 00:00:00 | 00:00:00 | 00:00:00 | |
| ATIDSZ-14 | 2026-09-02 01:18:07 | 48.26793 | 17.25097 | 129° | 5km/h | 26254m | -58.4m/s | 0°C | 0% | 0hPa | 0V | 00:00:00 | 00:00:00 | 00:00:00 | |
| PETON7-10 | 2026-09-02 01:18:06 | 48.26793 | 17.25096 | 129° | 5km/h | 26254m | -58.4m/s | 0°C | 0% | 0hPa | 0V | 00:00:00 | 00:00:00 | 00:00:00 | |
| OM5KV | 2026-09-02 01:18:05 | 48.26794 | 17.25095 | 150° | 9km/h | 26313m | -58.4m/s | 0°C | 0% | 0hPa | 0V | 00:00:00 | 00:00:00 | 00:00:00 | |
| OE5MMP-10 | 2026-09-02 01:18:04 | 48.26796 | 17.25094 | 162° | 5km/h | 26371m | -57.8m/s | 0°C | 0% | 0hPa | 0V | 00:00:00 | 00:00:00 | 00:00:00 | |
| OE5DXL-15 | 2026-09-02 01:18:03 | 48.26798 | 17.25093 | 184° | 7km/h | 26429m | -58.0m/s | 0°C | 0% | 0hPa | 0V | 00:00:00 | 00:00:00 | 00:00:00 | |
| OM5KV | 2026-09-02 01:18:01 | 48.26801 | 17.25092 | 168° | 5km/h | 26545m | -58.3m/s | 0°C | 0% | 0hPa | 0V | 00:00:00 | 00:00:00 | 00:00:00 | |
| OE3OSB-13 | 2026-09-02 01:17:46 | 48.26803 | 17.25075 | 353° | 4km/h | 27462m | -59.3m/s | -44.8°C | 0.0% | 16.4hPa | 0V | 00:00:00 | 00:00:00 | 00:00:00 | |
| ATIDSZ-14 | 2026-09-02 01:17:45 | 48.26803 | 17.25075 | 355° | 5km/h | 27462m | -59.3m/s | 0°C | 0% | 0hPa | 0V | 00:00:00 | 00:00:00 | 00:00:00 | |
| OE5MMP-10 | 2026-09-02 01:17:44 | 48.26802 | 17.25075 | 40° | 9km/h | 27521m | -58.9m/s | 0°C | 0% | 0hPa | 0V | 00:00:00 | 00:00:00 | 00:00:00 | |
| OM5KV | 2026-09-02 01:17:40 | 48.26797 | 17.25070 | 36° | 9km/h | 27760m | -61.6m/s | 0°C | 0% | 0hPa | 0V | 00:00:00 | 00:00:00 | 00:00:00 | |
| OM5KV | 2026-09-02 01:17:37 | 48.26792 | 17.25060 | 66° | 13km/h | 27945m | -60.7m/s | 0°C | 0% | 0hPa | 0V | 00:00:00 | 00:00:00 | 00:00:00 | |
| OM5KV | 2026-09-02 01:17:35 | 48.26791 | 17.25052 | 108° | 5km/h | 28069m | -64.9m/s | 0°C | 0% | 0hPa | 0V | 00:00:00 | 00:00:00 | 00:00:00 | |
| OE5MMP-10 | 2026-09-02 01:17:32 | 48.26793 | 17.25043 | 104° | 11km/h | 28262m | -63.5m/s | 0°C | 0% | 0hPa | 0V | 00:00:00 | 00:00:00 | 00:00:00 | |
| PETON7-10 | 2026-09-02 01:17:30 | 48.26795 | 17.25036 | 105° | 15km/h | 28389m | -62.4m/s | 0°C | 0% | 0hPa | 0V | 00:00:00 | 00:00:00 | 00:00:00 | |
| OM5KV | 2026-09-02 01:17:29 | 48.26797 | 17.25031 | 121° | 15km/h | 28452m | -62.5m/s | 0°C | 0% | 0hPa | 0V | 00:00:00 | 00:00:00 | 00:00:00 | |
| ATIDSZ-14 | 2026-09-02 01:17:25 | 48.26803 | 17.25013 | 116° | 11km/h | 28700m | -62.3m/s | 0°C | 0% | 0hPa | 0V | 00:00:00 | 00:00:00 | 00:00:00 | |
| OE5DXL-15 | 2026-09-02 01:17:18 | 48.26808 | 17.24981 | 98° | 13km/h | 29154m | -70.5m/s | 0°C | 0% | 0hPa | 0V | 00:00:00 | 00:00:00 | 00:00:00 | |
| OM5KV | 2026-09-02 01:17:16 | 48.26807 | 17.24972 | 87° | 15km/h | 29298m | -73.9m/s | 0°C | 0% | 0hPa | 0V | 00:00:00 | 00:00:00 | 00:00:00 | |
| PETON7-10 | 2026-09-02 01:17:15 | 48.26807 | 17.24966 | 101° | 11km/h | 29372m | -74.5m/s | 0°C | 0% | 0hPa | 0V | 00:00:00 | 00:00:00 | 00:00:00 | |
| OE3OSB-13 | 2026-09-02 01:17:14 | 48.26809 | 17.24956 | 109° | 13km/h | 29520m | -73.1m/s | -42.1°C | 0.0% | 11.5hPa | 0V | 00:00:00 | 00:00:00 | 00:00:00 | |
| OM5KV | 2026-09-02 01:17:11 | 48.26811 | 17.24947 | 122° | 13km/h | 29665m | -72.2m/s | 0°C | 0% | 0hPa | 0V | 00:00:00 | 00:00:00 | 00:00:00 | |
| OE5MMP-10 | 2026-09-02 01:17:10 | 48.26812 | 17.24943 | 104° | 9km/h | 29739m | -77.5m/s | 0°C | 0% | 0hPa | 0V | 00:00:00 | 00:00:00 | 00:00:00 | |
| SP9KGR-15 | 2026-09-02 01:17:06 | 48.26810 | 17.24930 | 93° | 5km/h | 30052m | -76.9m/s | 0°C | 0% | 0hPa | 0V | 00:00:00 | 00:00:00 | 00:00:00 | |
| OK1SLM-15 | 2026-09-02 01:17:05 | 48.26810 | 17.24926 | 67° | 15km/h | 30131m | -78.2m/s | 0°C | 0% | 0hPa | 0V | 00:00:00 | 00:00:00 | 00:00:00 | |
| ATIDSZ-14 | 2026-09-02 01:17:03 | 48.26809 | 17.24916 | 110° | 11km/h | 30286m | -78.5m/s | 0°C | 0% | 0hPa | 0V | 00:00:00 | 00:00:00 | 00:00:00 | |
| PETON7-10 | 2026-09-02 01:17:00 | 48.26805 | 17.24903 | 64° | 15km/h | 30524m | -78.2m/s | 0°C | 0% | 0hPa | 0V | 00:00:00 | 00:00:00 | 00:00:00 | |
| OK1SLM-15 | 2026-09-02 01:16:59 | 48.26803 | 17.24897 | 88° | 16km/h | 30603m | -78.6m/s | 0°C | 0% | 0hPa | 0V | 00:00:00 | 00:00:00 | 00:00:00 | |
| OK1SLM-15 | 2026-09-02 01:16:53 | 48.26805 | 17.24863 | 86° | 15km/h | 31079m | -79.7m/s | 0°C | 0% | 0hPa | 0V | 00:00:00 | 00:00:00 | 00:00:00 | |
| OM5KV | 2026-09-02 01:16:52 | 48.26805 | 17.24857 | 100° | 16km/h | 31160m | -80.5m/s | 0°C | 0% | 0hPa | 0V | 00:00:00 | 00:00:00 | 00:00:00 | |
| OM5KV | 2026-09-02 01:16:50 | 48.26806 | 17.24845 | 109° | 13km/h | 31323m | -81.6m/s | 0°C | 0% | 0hPa | 0V | 00:00:00 | 00:00:00 | 00:00:00 | |
| OE5DXL-15 | 2026-09-02 01:16:48 | 48.26808 | 17.24837 | 142° | 11km/h | 31488m | -83.3m/s | 0°C | 0% | 0hPa | 0V | 00:00:00 | 00:00:00 | 00:00:00 | |
| OM5KV | 2026-09-02 01:16:46 | 48.26811 | 17.24831 | 147° | 7km/h | 31653m | -81.2m/s | 0°C | 0% | 0hPa | 0V | 00:00:00 | 00:00:00 | 00:00:00 | |
| OE5MMP-10 | 2026-09-02 01:16:43 | 48.26813 | 17.24822 | 96° | 9km/h | 31902m | -84.9m/s | 0°C | 0% | 0hPa | 0V | 00:00:00 | 00:00:00 | 00:00:00 | |
| ATIDSZ-14 | 2026-09-02 01:16:42 | 48.26814 | 17.24820 | 83° | 7km/h | 31989m | -84.5m/s | 0°C | 0% | 0hPa | 0V | 00:00:00 | 00:00:00 | 00:00:00 | |
| OM5KV | 2026-09-02 01:16:41 | 48.26814 | 17.24818 | 69° | 7km/h | 32074m | -83.2m/s | 0°C | 0% | 0hPa | 0V | 00:00:00 | 00:00:00 | 00:00:00 | |
| OE5MMP-10 | 2026-09-02 01:16:29 | 48.26817 | 17.24795 | 58° | 11km/h | 33120m | -90.4m/s | 0°C | 0% | 0hPa | 0V | 00:00:00 | 00:00:00 | 00:00:00 | |
| OM5KV | 2026-09-02 01:16:28 | 48.26799 | 17.24792 | 65° | 9km/h | 33211m | -89.2m/s | 0°C | 0% | 0hPa | 0V | 00:00:00 | 00:00:00 | 00:00:00 | |
| PETON7-10 | 2026-09-02 01:16:25 | 48.26796 | 17.24781 | 68° | 16km/h | 33480m | -87.0m/s | 0°C | 0% | 0hPa | 0V | 00:00:00 | 00:00:00 | 00:00:00 | |
| ATIDSZ-14 | 2026-09-02 01:16:21 | 48.26792 | 17.24763 | 76° | 11km/h | 33824m | -86.2m/s | 0°C | 0% | 0hPa | 0V | 00:00:00 | 00:00:00 | 00:00:00 | |
| OE5MMP-10 | 2026-09-02 01:16:19 | 48.26791 | 17.24753 | 92° | 18km/h | 33996m | -85.2m/s | 0°C | 0% | 0hPa | 0V | 00:00:00 | 00:00:00 | 00:00:00 | |
| OE5DXL-15 | 2026-09-02 01:16:18 | 48.26792 | 17.24746 | 101° | 27km/h | 34083m | -84.7m/s | 0°C | 0% | 0hPa | 0V | 00:00:00 | 00:00:00 | 00:00:00 | |
| OM5KV | 2026-09-02 01:16:17 | 48.26792 | 17.24742 | 89° | 11km/h | 34166m | -81.8m/s | 0°C | 0% | 0hPa | 0V | 00:00:00 | 00:00:00 | 00:00:00 | |
| OM5KV | 2026-09-02 01:16:15 | 48.26793 | 17.24733 | 122° | 13km/h | 34328m | -81.1m/s | 0°C | 0% | 0hPa | 0V | 00:00:00 | 00:00:00 | 00:00:00 | |
| OE3OSB-13 | 2026-09-02 01:16:12 | 48.26811 | 17.24704 | 154° | 24km/h | 34731m | -77.3m/s | -33.5°C | 0.0% | 4.2hPa | 0V | 00:00:00 | 00:00:00 | 00:00:00 | |
| OM5KV | 2026-09-02 01:16:08 | 48.26823 | 17.24698 | 164° | 27km/h | 34880m | -71.0m/s | 0°C | 0% | 0hPa | 0V | 00:00:00 | 00:00:00 | 00:00:00 | |
| OE5MMP-10 | 2026-09-02 01:16:07 | 48.26829 | 17.24695 | 153° | 27km/h | 34948m | -65.6m/s | 0°C | 0% | 0hPa | 0V | 00:00:00 | 00:00:00 | 00:00:00 | |
| OM5KV | 2026-09-02 01:16:06 | 48.26834 | 17.24691 | 158° | 20km/h | 35012m | -63.0m/s | 0°C | 0% | 0hPa | 0V | 00:00:00 | 00:00:00 | 00:00:00 | |
| OM5KV | 2026-09-02 01:16:02 | 48.26840 | 17.24675 | 116° | 26km/h | 35246m | -54.4m/s | 0°C | 0% | 0hPa | 0V | 00:00:00 | 00:00:00 | 00:00:00 | |
| OM5KV | 2026-09-02 01:16:01 | 48.26845 | 17.24666 | 134° | 38km/h | 35298m | -49.1m/s | 0°C | 0% | 0hPa | 0V | 00:00:00 | 00:00:00 | 00:00:00 | |
| ATIDSZ-14 | 2026-09-02 01:16:00 | 48.26853 | 17.24654 | 141° | 47km/h | 35344m | -43.5m/s | 0°C | 0% | 0hPa | 0V | 00:00:00 | 00:00:00 | 00:00:00 | |
| OM5KV | 2026-09-02 01:15:57 | 48.26888 | 17.24620 | 151° | 51km/h | 35424m | -8.6m/s | 0°C | 0% | 0hPa | 0V | 00:00:00 | 00:00:00 | 00:00:00 | |
| OE5MMP-10 | 2026-09-02 01:15:56 | 48.26897 | 17.24612 | 143° | 29km/h | 35427m | 2.7m/s | 0°C | 0% | 0hPa | 0V | 00:00:00 | 00:00:00 | 00:00:00 | |
| OM5KV | 2026-09-02 01:15:54 | 48.26896 | 17.24603 | 79° | 16km/h | 35408m | 9.4m/s | 0°C | 0% | 0hPa | 0V | 00:00:00 | 00:00:00 | 00:00:00 | |
| PETON7-10 | 2026-09-02 01:15:51 | 48.26909 | 17.24564 | 135° | 26km/h | 35388m | 3.4m/s | 0°C | 0% | 0hPa | 0V | 00:00:00 | 00:00:00 | 00:00:00 | |
| OE3JTB-15 | 2026-09-02 01:15:50 | 48.26916 | 17.24555 | 152° | 26km/h | 35384m | 5.1m/s | 0°C | 0% | 0hPa | 0V | 00:00:00 | 00:00:00 | 00:00:00 | |
| OM5KV | 2026-09-02 01:15:49 | 48.26923 | 17.24552 | 181° | 22km/h | 35377m | 8.2m/s | 0°C | 0% | 0hPa | 0V | 00:00:00 | 00:00:00 | 00:00:00 | |
| OE5DXL-15 | 2026-09-02 01:15:46 | 48.26924 | 17.24568 | 321° | 26km/h | 35356m | 4.1m/s | 0°C | 0% | 0hPa | 0V | 00:00:00 | 00:00:00 | 00:00:00 | |
| OM5KV | 2026-09-02 01:15:45 | 48.26920 | 17.24570 | 12° | 16km/h | 35352m | 5.5m/s | 0°C | 0% | 0hPa | 0V | 00:00:00 | 00:00:00 | 00:00:00 | |
| OM5KV | 2026-09-02 01:15:43 | 48.26915 | 17.24555 | 91° | 35km/h | 35338m | 7.6m/s | 0°C | 0% | 0hPa | 0V | 00:00:00 | 00:00:00 | 00:00:00 | |
| OE3OSB-13 | 2026-09-02 01:15:41 | 48.26928 | 17.24515 | 141° | 35km/h | 35319m | 6.1m/s | -34.6°C | 0.0% | 3.8hPa | 0V | 00:00:00 | 00:00:00 | 00:00:00 | |
| ATIDSZ-14 | 2026-09-02 01:15:39 | 48.26934 | 17.24510 | 168° | 26km/h | 35313m | 6.6m/s | 0°C | 0% | 0hPa | 0V | 00:00:00 | 00:00:00 | 00:00:00 | |
| OM5KV | 2026-09-02 01:15:38 | 48.26940 | 17.24510 | 203° | 22km/h | 35306m | 6.7m/s | 0°C | 0% | 0hPa | 0V | 00:00:00 | 00:00:00 | 00:00:00 | |
| OE5MMP-10 | 2026-09-02 01:15:36 | 48.26947 | 17.24520 | 238° | 20km/h | 35295m | 5.2m/s | 0°C | 0% | 0hPa | 0V | 00:00:00 | 00:00:00 | 00:00:00 | |
| OM5KV | 2026-09-02 01:15:33 | 48.26949 | 17.24513 | 91° | 24km/h | 35274m | 6.9m/s | 0°C | 0% | 0hPa | 0V | 00:00:00 | 00:00:00 | 00:00:00 | |
| OM5KV | 2026-09-02 01:15:28 | 48.26964 | 17.24492 | 207° | 35km/h | 35243m | 7.1m/s | 0°C | 0% | 0hPa | 0V | 00:00:00 | 00:00:00 | 00:00:00 | |
| OM5KV | 2026-09-02 01:15:27 | 48.26973 | 17.24498 | 207° | 40km/h | 35237m | 5.3m/s | 0°C | 0% | 0hPa | 0V | 00:00:00 | 00:00:00 | 00:00:00 | |
| OE5MMP-10 | 2026-09-02 01:15:26 | 48.26982 | 17.24503 | 196° | 22km/h | 35232m | 5.0m/s | 0°C | 0% | 0hPa | 0V | 00:00:00 | 00:00:00 | 00:00:00 | |
| OM5KV | 2026-09-02 01:15:22 | 48.27008 | 17.24492 | 121° | 16km/h | 35207m | 5.0m/s | 0°C | 0% | 0hPa | 0V | 00:00:00 | 00:00:00 | 00:00:00 | |
| PETON7-10 | 2026-09-02 01:15:21 | 48.27009 | 17.24488 | 114° | 29km/h | 35202m | 6.1m/s | 0°C | 0% | 0hPa | 0V | 00:00:00 | 00:00:00 | 00:00:00 | |
| ATIDSZ-14 | 2026-09-02 01:15:19 | 48.27010 | 17.24494 | 264° | 20km/h | 35188m | 6.6m/s | 0°C | 0% | 0hPa | 0V | 00:00:00 | 00:00:00 | 00:00:00 | |
| OE5DXL-15 | 2026-09-02 01:15:16 | 48.27022 | 17.24516 | 197° | 37km/h | 35174m | 6.1m/s | 0°C | 0% | 0hPa | 0V | 00:00:00 | 00:00:00 | 00:00:00 | |
| OM5KV | 2026-09-02 01:15:15 | 48.27030 | 17.24517 | 176° | 37km/h | 35166m | 8.9m/s | 0°C | 0% | 0hPa | 0V | 00:00:00 | 00:00:00 | 00:00:00 | |
| OE3OSB-13 | 2026-09-02 01:15:10 | 48.27081 | 17.24508 | 244° | 35km/h | 35128m | 8.9m/s | -34.8°C | 0.0% | 4.0hPa | 0V | 00:00:00 | 00:00:00 | 00:00:00 | |
| OM5KV | 2026-09-02 01:15:09 | 48.27080 | 17.24508 | 245° | 37km/h | 35128m | 8.9m/s | 0°C | 0% | 0hPa | 0V | 00:00:00 | 00:00:00 | 00:00:00 | |
| OE5MMP-10 | 2026-09-02 01:15:06 | 48.27087 | 17.24545 | 246° | 35km/h | 35112m | 5.0m/s | 0°C | 0% | 0hPa | 0V | 00:00:00 | 00:00:00 | 00:00:00 | |
| PETON7-10 | 2026-09-02 01:15:05 | 48.27090 | 17.24549 | 191° | 37km/h | 35106m | 7.6m/s | 0°C | 0% | 0hPa | 0V | 00:00:00 | 00:00:00 | 00:00:00 | |
| OM5KV | 2026-09-02 01:15:04 | 48.27095 | 17.24547 | 158° | 27km/h | 35098m | 7.5m/s | 0°C | 0% | 0hPa | 0V | 00:00:00 | 00:00:00 | 00:00:00 | |
| OM5KV | 2026-09-02 01:15:03 | 48.27103 | 17.24542 | 158° | 40km/h | 35092m | 5.6m/s | 0°C | 0% | 0hPa | 0V | 00:00:00 | 00:00:00 | 00:00:00 | |
| ATIDSZ-14 | 2026-09-02 01:14:57 | 48.27158 | 17.24574 | 236° | 33km/h | 35056m | 5.6m/s | 0°C | 0% | 0hPa | 0V | 00:00:00 | 00:00:00 | 00:00:00 | |
| OE5MMP-10 | 2026-09-02 01:14:56 | 48.27162 | 17.24582 | 221° | 40km/h | 35050m | 6.1m/s | 0°C | 0% | 0hPa | 0V | 00:00:00 | 00:00:00 | 00:00:00 | |
| OM5KV | 2026-09-02 01:14:53 | 48.27182 | 17.24581 | 167° | 38km/h | 35032m | 5.1m/s | 0°C | 0% | 0hPa | 0V | 00:00:00 | 00:00:00 | 00:00:00 | |
| OE3JTB-15 | 2026-09-02 01:14:52 | 48.27192 | 17.24579 | 177° | 40km/h | 35026m | 6.7m/s | 0°C | 0% | 0hPa | 0V | 00:00:00 | 00:00:00 | 00:00:00 | |
| OM5KV | 2026-09-02 01:14:50 | 48.27216 | 17.24584 | 199° | 55km/h | 35012m | 6.6m/s | 0°C | 0% | 0hPa | 0V | 00:00:00 | 00:00:00 | 00:00:00 | |
| PETON7-10 | 2026-09-02 01:14:49 | 48.27229 | 17.24590 | 202° | 37km/h | 35007m | 4.4m/s | 0°C | 0% | 0hPa | 0V | 00:00:00 | 00:00:00 | 00:00:00 | |
| OM5KV | 2026-09-02 01:14:48 | 48.27240 | 17.24597 | 202° | 44km/h | 35003m | 3.7m/s | 0°C | 0% | 0hPa | 0V | 00:00:00 | 00:00:00 | 00:00:00 | |
| OE5MMP-10 | 2026-09-02 01:14:47 | 48.27256 | 17.24601 | 170° | 33km/h | 34991m | 8.2m/s | 0°C | 0% | 0hPa | 0V | 00:00:00 | 00:00:00 | 00:00:00 | |
| OE5DXL-15 | 2026-09-02 01:14:46 | 48.27256 | 17.24601 | 170° | 40km/h | 34991m | 8.2m/s | 0°C | 0% | 0hPa | 0V | 00:00:00 | 00:00:00 | 00:00:00 | |
| OM5KV | 2026-09-02 01:14:44 | 48.27263 | 17.24591 | 113° | 16km/h | 34977m | 4.3m/s | 0°C | 0% | 0hPa | 0V | 00:00:00 | 00:00:00 | 00:00:00 | |
| OM5KV | 2026-09-02 01:14:43 | 48.27265 | 17.24587 | 130° | 11km/h | 34974m | 3.1m/s | 0°C | 0% | 0hPa | 0V | 00:00:00 | 00:00:00 | 00:00:00 | |
| OE3OSB-13 | 2026-09-02 01:14:39 | 48.27303 | 17.24613 | 188° | 57km/h | 34945m | 3.2m/s | -35.7°C | 0.0% | 4.1hPa | 0V | 00:00:00 | 00:00:00 | 00:00:00 | |
| OE5MMP-10 | 2026-09-02 01:14:36 | 48.27329 | 17.24607 | 152° | 47km/h | 34933m | 7.9m/s | 0°C | 0% | 0hPa | 0V | 00:00:00 | 00:00:00 | 00:00:00 | |
| PETON7-10 | 2026-09-02 01:14:34 | 48.27342 | 17.24581 | 99° | 37km/h | 34919m | 5.2m/s | 0°C | 0% | 0hPa | 0V | 00:00:00 | 00:00:00 | 00:00:00 | |
| OM5KV | 2026-09-02 01:14:33 | 48.27342 | 17.24569 | 78° | 26km/h | 34914m | 4.8m/s | 0°C | 0% | 0hPa | 0V | 00:00:00 | 00:00:00 | 00:00:00 | |
| ATIDSZ-14 | 2026-09-02 01:14:32 | 48.27340 | 17.24563 | 44° | 11km/h | 34908m | 7.2m/s | 0°C | 0% | 0hPa | 0V | 00:00:00 | 00:00:00 | 00:00:00 | |
| OM5KV | 2026-09-02 01:14:28 | 48.27358 | 17.24586 | 187° | 46km/h | 34886m | 3.8m/s | 0°C | 0% | 0hPa | 0V | 00:00:00 | 00:00:00 | 00:00:00 | |
| OM5KV | 2026-09-02 01:14:27 | 48.27371 | 17.24583 | 164° | 51km/h | 34880m | 7.1m/s | 0°C | 0% | 0hPa | 0V | 00:00:00 | 00:00:00 | 00:00:00 | |
| OE5MMP-10 | 2026-09-02 01:14:26 | 48.27382 | 17.24573 | 140° | 42km/h | 34872m | 8.8m/s | 0°C | 0% | 0hPa | 0V | 00:00:00 | 00:00:00 | 00:00:00 | |
| OE3JTB-15 | 2026-09-02 01:14:23 | 48.27392 | 17.24517 | 70° | 33km/h | 34855m | 3.9m/s | 0°C | 0% | 0hPa | 0V | 00:00:00 | 00:00:00 | 00:00:00 | |
| OM5KV | 2026-09-02 01:14:21 | 48.27384 | 17.24505 | 333° | 18km/h | 34841m | 8.7m/s | 0°C | 0% | 0hPa | 0V | 00:00:00 | 00:00:00 | 00:00:00 | |
| OM5KV | 2026-09-02 01:14:20 | 48.27382 | 17.24512 | 269° | 27km/h | 34833m | 6.2m/s | 0°C | 0% | 0hPa | 0V | 00:00:00 | 00:00:00 | 00:00:00 | |
| PETON7-10 | 2026-09-02 01:14:19 | 48.27385 | 17.24522 | 232° | 29km/h | 34829m | 3.1m/s | 0°C | 0% | 0hPa | 0V | 00:00:00 | 00:00:00 | 00:00:00 | |
| OE5DXL-15 | 2026-09-02 01:14:16 | 48.27411 | 17.24519 | 135° | 35km/h | 34812m | 8.7m/s | 0°C | 0% | 0hPa | 0V | 00:00:00 | 00:00:00 | 00:00:00 | |
| OM5KV | 2026-09-02 01:14:14 | 48.27424 | 17.24477 | 100° | 66km/h | 34797m | 5.4m/s | 0°C | 0% | 0hPa | 0V | 00:00:00 | 00:00:00 | 00:00:00 | |
| OM5KV | 2026-09-02 01:14:09 | 48.27418 | 17.24429 | 280° | 13km/h | 34766m | 6.3m/s | 0°C | 0% | 0hPa | 0V | 00:00:00 | 00:00:00 | 00:00:00 | |
| ATIDSZ-14 | 2026-09-02 01:14:08 | 48.27418 | 17.24432 | 263° | 9km/h | 34761m | 5.0m/s | 0°C | 0% | 0hPa | 0V | 00:00:00 | 00:00:00 | 00:00:00 | |
| OE5MMP-10 | 2026-09-02 01:14:05 | 48.27423 | 17.24421 | 106° | 33km/h | 34742m | 7.5m/s | 0°C | 0% | 0hPa | 0V | 00:00:00 | 00:00:00 | 00:00:00 | |
| PETON7-10 | 2026-09-02 01:14:04 | 48.27425 | 17.24406 | 103° | 31km/h | 34735m | 6.9m/s | 0°C | 0% | 0hPa | 0V | 00:00:00 | 00:00:00 | 00:00:00 | |
| OM5KV | 2026-09-02 01:14:02 | 48.27430 | 17.24373 | 103° | 40km/h | 34723m | 5.9m/s | 0°C | 0% | 0hPa | 0V | 00:00:00 | 00:00:00 | 00:00:00 | |
| OM5KV | 2026-09-02 01:13:56 | 48.27430 | 17.24320 | 70° | 31km/h | 34683m | 6.6m/s | 0°C | 0% | 0hPa | 0V | 00:00:00 | 00:00:00 | 00:00:00 | |
| OE5MMP-10 | 2026-09-02 01:13:55 | 48.27427 | 17.24308 | 70° | 37km/h | 34677m | 5.8m/s | 0°C | 0% | 0hPa | 0V | 00:00:00 | 00:00:00 | 00:00:00 | |
| OE3JTB-15 | 2026-09-02 01:13:51 | 48.27420 | 17.24265 | 90° | 33km/h | 34652m | 4.8m/s | 0°C | 0% | 0hPa | 0V | 00:00:00 | 00:00:00 | 00:00:00 | |
| PETON7-10 | 2026-09-02 01:13:49 | 48.27419 | 17.24240 | 86° | 40km/h | 34641m | 7.3m/s | 0°C | 0% | 0hPa | 0V | 00:00:00 | 00:00:00 | 00:00:00 | |
| ATIDSZ-14 | 2026-09-02 01:13:48 | 48.27418 | 17.24224 | 82° | 47km/h | 34633m | 8.0m/s | 0°C | 0% | 0hPa | 0V | 00:00:00 | 00:00:00 | 00:00:00 | |
| OE5DXL-15 | 2026-09-02 01:13:46 | 48.27411 | 17.24188 | 67° | 29km/h | 34622m | 4.1m/s | 0°C | 0% | 0hPa | 0V | 00:00:00 | 00:00:00 | 00:00:00 | |
| OE5MMP-10 | 2026-09-02 01:13:45 | 48.27406 | 17.24175 | 57° | 38km/h | 34617m | 5.5m/s | 0°C | 0% | 0hPa | 0V | 00:00:00 | 00:00:00 | 00:00:00 | |
| OE3OSB-13 | 2026-09-02 01:13:37 | 48.27367 | 17.24078 | 54° | 35km/h | 34554m | 6.5m/s | -37.5°C | 0.0% | 4.5hPa | 0V | 00:00:00 | 00:00:00 | 00:00:00 | |
| OE5MMP-10 | 2026-09-02 01:13:35 | 48.27367 | 17.24078 | 55° | 31km/h | 34554m | 6.5m/s | 0°C | 0% | 0hPa | 0V | 00:00:00 | 00:00:00 | 00:00:00 | |
| PETON7-10 | 2026-09-02 01:13:34 | 48.27362 | 17.24071 | 29° | 26km/h | 34547m | 9.0m/s | 0°C | 0% | 0hPa | 0V | 00:00:00 | 00:00:00 | 00:00:00 | |
| OM5KV | 2026-09-02 01:13:28 | 48.27341 | 17.24052 | 78° | 47km/h | 34507m | 8.8m/s | 0°C | 0% | 0hPa | 0V | 00:00:00 | 00:00:00 | 00:00:00 | |
| ATIDSZ-14 | 2026-09-02 01:13:26 | 48.27334 | 17.24015 | 71° | 49km/h | 34496m | 4.2m/s | 0°C | 0% | 0hPa | 0V | 00:00:00 | 00:00:00 | 00:00:00 | |
| OE5MMP-10 | 2026-09-02 01:13:25 | 48.27330 | 17.24001 | 60° | 20km/h | 34491m | 6.0m/s | 0°C | 0% | 0hPa | 0V | 00:00:00 | 00:00:00 | 00:00:00 | |
| OE3JTB-15 | 2026-09-02 01:13:22 | 48.27316 | 17.23993 | 329° | 22km/h | 34468m | 6.8m/s | 0°C | 0% | 0hPa | 0V | 00:00:00 | 00:00:00 | 00:00:00 | |
| PETON7-10 | 2026-09-02 01:13:19 | 48.27308 | 17.23994 | 72° | 20km/h | 34448m | 6.8m/s | 0°C | 0% | 0hPa | 0V | 00:00:00 | 00:00:00 | 00:00:00 | |
| OE5DXL-15 | 2026-09-02 01:13:16 | 48.27306 | 17.23971 | 85° | 26km/h | 34428m | 7.0m/s | 0°C | 0% | 0hPa | 0V | 00:00:00 | 00:00:00 | 00:00:00 | |
| OE5MMP-10 | 2026-09-02 01:13:15 | 48.27305 | 17.23963 | 72° | 20km/h | 34422m | 5.9m/s | 0°C | 0% | 0hPa | 0V | 00:00:00 | 00:00:00 | 00:00:00 | |
| OM5KV | 2026-09-02 01:13:11 | 48.27290 | 17.23930 | 43° | 26km/h | 34395m | 5.6m/s | 0°C | 0% | 0hPa | 0V | 00:00:00 | 00:00:00 | 00:00:00 | |
| OE3OSB-13 | 2026-09-02 01:13:06 | 48.27284 | 17.23930 | 129° | 20km/h | 34360m | 7.0m/s | -38.0°C | 0.0% | 4.7hPa | 0V | 00:00:00 | 00:00:00 | 00:00:00 | |
| OE5MMP-10 | 2026-09-02 01:13:05 | 48.27284 | 17.23930 | 130° | 29km/h | 34360m | 7.0m/s | 0°C | 0% | 0hPa | 0V | 00:00:00 | 00:00:00 | 00:00:00 | |
| OE5MMP-10 | 2026-09-02 01:12:55 | 48.27276 | 17.23894 | 159° | 33km/h | 34299m | 6.9m/s | 0°C | 0% | 0hPa | 0V | 00:00:00 | 00:00:00 | 00:00:00 | |
| OE3JTB-15 | 2026-09-02 01:12:53 | 48.27282 | 17.23875 | 99° | 27km/h | 34282m | 8.1m/s | 0°C | 0% | 0hPa | 0V | 00:00:00 | 00:00:00 | 00:00:00 | |
| PETON7-10 | 2026-09-02 01:12:49 | 48.27267 | 17.23818 | 12° | 27km/h | 34259m | 8.1m/s | 0°C | 0% | 0hPa | 0V | 00:00:00 | 00:00:00 | 00:00:00 | |
| OE5DXL-15 | 2026-09-02 01:12:46 | 48.27255 | 17.23834 | 268° | 24km/h | 34240m | 5.1m/s | 0°C | 0% | 0hPa | 0V | 00:00:00 | 00:00:00 | 00:00:00 | |
| OE3OSB-13 | 2026-09-02 01:12:35 | 48.27244 | 17.23783 | 80° | 15km/h | 34161m | 7.4m/s | -37.7°C | 0.0% | 4.9hPa | 0V | 00:00:00 | 00:00:00 | 00:00:00 | |
| PETON7-10 | 2026-09-02 01:12:34 | 48.27244 | 17.23783 | 81° | 22km/h | 34161m | 7.3m/s | 0°C | 0% | 0hPa | 0V | 00:00:00 | 00:00:00 | 00:00:00 | |
| OE5MMP-10 | 2026-09-02 01:12:24 | 48.27214 | 17.23720 | 49° | 27km/h | 34096m | 5.6m/s | 0°C | 0% | 0hPa | 0V | 00:00:00 | 00:00:00 | 00:00:00 | |
| ATIDSZ-14 | 2026-09-02 01:12:23 | 48.27211 | 17.23715 | 45° | 16km/h | 34090m | 5.9m/s | 0°C | 0% | 0hPa | 0V | 00:00:00 | 00:00:00 | 00:00:00 | |
| PETON7-10 | 2026-09-02 01:12:18 | 48.27187 | 17.23707 | 24° | 29km/h | 34058m | 5.5m/s | 0°C | 0% | 0hPa | 0V | 00:00:00 | 00:00:00 | 00:00:00 | |
| OE5DXL-15 | 2026-09-02 01:12:16 | 48.27174 | 17.23691 | 51° | 26km/h | 34043m | 8.1m/s | 0°C | 0% | 0hPa | 0V | 00:00:00 | 00:00:00 | 00:00:00 | |
| OE5MMP-10 | 2026-09-02 01:12:14 | 48.27160 | 17.23666 | 42° | 29km/h | 34032m | 3.6m/s | 0°C | 0% | 0hPa | 0V | 00:00:00 | 00:00:00 | 00:00:00 | |
| OE3OSB-13 | 2026-09-02 01:12:04 | 48.27105 | 17.23636 | 23° | 37km/h | 33960m | 7.3m/s | -37.7°C | 0.0% | 5.1hPa | 0V | 00:00:00 | 00:00:00 | 00:00:00 | |
| ATIDSZ-14 | 2026-09-02 01:12:03 | 48.27105 | 17.23636 | 24° | 38km/h | 33960m | 7.3m/s | 0°C | 0% | 0hPa | 0V | 00:00:00 | 00:00:00 | 00:00:00 | |
| PETON7-10 | 2026-09-02 01:11:56 | 48.27077 | 17.23649 | 107° | 22km/h | 33914m | 6.1m/s | 0°C | 0% | 0hPa | 0V | 00:00:00 | 00:00:00 | 00:00:00 | |
| OE3JTB-15 | 2026-09-02 01:11:55 | 48.27078 | 17.23643 | 88° | 20km/h | 33907m | 6.2m/s | 0°C | 0% | 0hPa | 0V | 00:00:00 | 00:00:00 | 00:00:00 | |
| OE5MMP-10 | 2026-09-02 01:11:54 | 48.27076 | 17.23638 | 46° | 20km/h | 33901m | 6.8m/s | 0°C | 0% | 0hPa | 0V | 00:00:00 | 00:00:00 | 00:00:00 | |
| OE5DXL-15 | 2026-09-02 01:11:46 | 48.27040 | 17.23626 | 65° | 20km/h | 33847m | 5.4m/s | 0°C | 0% | 0hPa | 0V | 00:00:00 | 00:00:00 | 00:00:00 | |
| OE5MMP-10 | 2026-09-02 01:11:43 | 48.27034 | 17.23633 | 312° | 22km/h | 33825m | 6.7m/s | 0°C | 0% | 0hPa | 0V | 00:00:00 | 00:00:00 | 00:00:00 | |
| PETON7-10 | 2026-09-02 01:11:39 | 48.27010 | 17.23645 | 29° | 18km/h | 33797m | 6.8m/s | 0°C | 0% | 0hPa | 0V | 00:00:00 | 00:00:00 | 00:00:00 | |
| OE3OSB-13 | 2026-09-02 01:11:33 | 48.26994 | 17.23650 | 297° | 9km/h | 33749m | 7.3m/s | -37.8°C | 0.0% | 5.3hPa | 0V | 00:00:00 | 00:00:00 | 00:00:00 | |
| OE3JTB-15 | 2026-09-02 01:11:26 | 48.26963 | 17.23669 | 338° | 18km/h | 33710m | 4.2m/s | 0°C | 0% | 0hPa | 0V | 00:00:00 | 00:00:00 | 00:00:00 | |
| PETON7-10 | 2026-09-02 01:11:24 | 48.26955 | 17.23670 | 39° | 22km/h | 33698m | 8.9m/s | 0°C | 0% | 0hPa | 0V | 00:00:00 | 00:00:00 | 00:00:00 | |
| OE5MMP-10 | 2026-09-02 01:11:22 | 48.26956 | 17.23659 | 126° | 26km/h | 33682m | 5.1m/s | 0°C | 0% | 0hPa | 0V | 00:00:00 | 00:00:00 | 00:00:00 | |
| OE5DXL-15 | 2026-09-02 01:11:13 | 48.26927 | 17.23675 | 78° | 16km/h | 33623m | 5.6m/s | 0°C | 0% | 0hPa | 0V | 00:00:00 | 00:00:00 | 00:00:00 | |
| OE5MMP-10 | 2026-09-02 01:11:12 | 48.26927 | 17.23666 | 99° | 20km/h | 33618m | 5.2m/s | 0°C | 0% | 0hPa | 0V | 00:00:00 | 00:00:00 | 00:00:00 | |
| PETON7-10 | 2026-09-02 01:11:05 | 48.26912 | 17.23688 | 4° | 15km/h | 33570m | 7.3m/s | 0°C | 0% | 0hPa | 0V | 00:00:00 | 00:00:00 | 00:00:00 | |
| OE5MMP-10 | 2026-09-02 01:11:02 | 48.26901 | 17.23676 | 54° | 7km/h | 33550m | 6.7m/s | 0°C | 0% | 0hPa | 0V | 00:00:00 | 00:00:00 | 00:00:00 | |
| ATIDSZ-14 | 2026-09-02 01:11:01 | 48.26899 | 17.23673 | 42° | 5km/h | 33543m | 7.0m/s | 0°C | 0% | 0hPa | 0V | 00:00:00 | 00:00:00 | 00:00:00 | |
| OE3JTB-15 | 2026-09-02 01:10:57 | 48.26898 | 17.23676 | 66° | 18km/h | 33510m | 7.0m/s | 0°C | 0% | 0hPa | 0V | 00:00:00 | 00:00:00 | 00:00:00 | |
| OE5MMP-10 | 2026-09-02 01:10:52 | 48.26890 | 17.23680 | 312° | 20km/h | 33483m | 6.0m/s | 0°C | 0% | 0hPa | 0V | 00:00:00 | 00:00:00 | 00:00:00 | |
| PETON7-10 | 2026-09-02 01:10:50 | 48.26886 | 17.23684 | 44° | 22km/h | 33472m | 6.1m/s | 0°C | 0% | 0hPa | 0V | 00:00:00 | 00:00:00 | 00:00:00 | |
| OE5DXL-15 | 2026-09-02 01:10:43 | 48.26892 | 17.23649 | 294° | 20km/h | 33423m | 6.5m/s | 0°C | 0% | 0hPa | 0V | 00:00:00 | 00:00:00 | 00:00:00 | |
| ATIDSZ-14 | 2026-09-02 01:10:41 | 48.26886 | 17.23658 | 349° | 16km/h | 33412m | 6.0m/s | 0°C | 0% | 0hPa | 0V | 00:00:00 | 00:00:00 | 00:00:00 | |
| OE5MMP-10 | 2026-09-02 01:10:39 | 48.26878 | 17.23667 | 71° | 24km/h | 33397m | 8.0m/s | 0°C | 0% | 0hPa | 0V | 00:00:00 | 00:00:00 | 00:00:00 | |
| PETON7-10 | 2026-09-02 01:10:35 | 48.26885 | 17.23611 | 152° | 15km/h | 33370m | 6.9m/s | 0°C | 0% | 0hPa | 0V | 00:00:00 | 00:00:00 | 00:00:00 | |
| OE3OSB-13 | 2026-09-02 01:10:31 | 48.26882 | 17.23603 | 53° | 26km/h | 33336m | 6.5m/s | -38.5°C | 0.0% | 5.8hPa | 0V | 00:00:00 | 00:00:00 | 00:00:00 | |
| OE5MMP-10 | 2026-09-02 01:10:29 | 48.26878 | 17.23594 | 57° | 18km/h | 33330m | 5.1m/s | 0°C | 0% | 0hPa | 0V | 00:00:00 | 00:00:00 | 00:00:00 | |
| OE3JTB-15 | 2026-09-02 01:10:28 | 48.26873 | 17.23579 | 69° | 22km/h | 33317m | 8.1m/s | 0°C | 0% | 0hPa | 0V | 00:00:00 | 00:00:00 | 00:00:00 | |
| ATIDSZ-14 | 2026-09-02 01:10:21 | 48.26871 | 17.23555 | 57° | 27km/h | 33277m | 6.8m/s | 0°C | 0% | 0hPa | 0V | 00:00:00 | 00:00:00 | 00:00:00 | |
| OE5MMP-10 | 2026-09-02 01:10:19 | 48.26860 | 17.23540 | 26° | 27km/h | 33263m | 7.5m/s | 0°C | 0% | 0hPa | 0V | 00:00:00 | 00:00:00 | 00:00:00 | |
| OE5DXL-15 | 2026-09-02 01:10:13 | 48.26824 | 17.23527 | 52° | 22km/h | 33224m | 6.6m/s | 0°C | 0% | 0hPa | 0V | 00:00:00 | 00:00:00 | 00:00:00 | |
| OE5MMP-10 | 2026-09-02 01:10:09 | 48.26807 | 17.23514 | 340° | 22km/h | 33197m | 7.3m/s | 0°C | 0% | 0hPa | 0V | 00:00:00 | 00:00:00 | 00:00:00 | |
| PETON7-10 | 2026-09-02 01:10:04 | 48.26782 | 17.23504 | 51° | 22km/h | 33163m | 5.0m/s | 0°C | 0% | 0hPa | 0V | 00:00:00 | 00:00:00 | 00:00:00 | |
| ATIDSZ-14 | 2026-09-02 01:10:01 | 48.26767 | 17.23492 | 344° | 22km/h | 33143m | 7.8m/s | 0°C | 0% | 0hPa | 0V | 00:00:00 | 00:00:00 | 00:00:00 | |
| OE3OSB-13 | 2026-09-02 01:10:00 | 48.26758 | 17.23500 | 332° | 18km/h | 33130m | 5.7m/s | -39.0°C | 0.0% | 6.0hPa | 0V | 00:00:00 | 00:00:00 | 00:00:00 | |
| OE5MMP-10 | 2026-09-02 01:09:59 | 48.26757 | 17.23499 | 333° | 22km/h | 33130m | 5.7m/s | 0°C | 0% | 0hPa | 0V | 00:00:00 | 00:00:00 | 00:00:00 | |
| OE5MMP-10 | 2026-09-02 01:09:49 | 48.26705 | 17.23500 | 20° | 20km/h | 33062m | 7.7m/s | 0°C | 0% | 0hPa | 0V | 00:00:00 | 00:00:00 | 00:00:00 | |
| PETON7-10 | 2026-09-02 01:09:46 | 48.26692 | 17.23490 | 6° | 20km/h | 33045m | 7.2m/s | 0°C | 0% | 0hPa | 0V | 00:00:00 | 00:00:00 | 00:00:00 | |
| OE5DXL-15 | 2026-09-02 01:09:43 | 48.26677 | 17.23504 | 310° | 16km/h | 33023m | 5.3m/s | 0°C | 0% | 0hPa | 0V | 00:00:00 | 00:00:00 | 00:00:00 | |
| ATIDSZ-14 | 2026-09-02 01:09:41 | 48.26670 | 17.23515 | 339° | 15km/h | 33011m | 7.9m/s | 0°C | 0% | 0hPa | 0V | 00:00:00 | 00:00:00 | 00:00:00 | |
| OE5MMP-10 | 2026-09-02 01:09:39 | 48.26663 | 17.23510 | 46° | 20km/h | 32996m | 6.5m/s | 0°C | 0% | 0hPa | 0V | 00:00:00 | 00:00:00 | 00:00:00 | |
| PETON7-10 | 2026-09-02 01:09:31 | 48.26629 | 17.23537 | 297° | 15km/h | 32943m | 7.4m/s | 0°C | 0% | 0hPa | 0V | 00:00:00 | 00:00:00 | 00:00:00 | |
| OE3JTB-15 | 2026-09-02 01:09:30 | 48.26628 | 17.23537 | 39° | 16km/h | 32937m | 6.0m/s | 0°C | 0% | 0hPa | 0V | 00:00:00 | 00:00:00 | 00:00:00 | |
| OE5MMP-10 | 2026-09-02 01:09:29 | 48.26627 | 17.23536 | 5° | 15km/h | 32930m | 6.9m/s | 0°C | 0% | 0hPa | 0V | 00:00:00 | 00:00:00 | 00:00:00 | |
| OE3OSB-13 | 2026-09-02 01:09:28 | 48.26624 | 17.23537 | 341° | 13km/h | 32923m | 7.9m/s | -38.8°C | 0.0% | 6.3hPa | 0V | 00:00:00 | 00:00:00 | 00:00:00 | |
| ATIDSZ-14 | 2026-09-02 01:09:21 | 48.26606 | 17.23562 | 270° | 15km/h | 32877m | 6.7m/s | 0°C | 0% | 0hPa | 0V | 00:00:00 | 00:00:00 | 00:00:00 | |
| OE5MMP-10 | 2026-09-02 01:09:19 | 48.26605 | 17.23579 | 278° | 16km/h | 32861m | 7.5m/s | 0°C | 0% | 0hPa | 0V | 00:00:00 | 00:00:00 | 00:00:00 | |
| PETON7-10 | 2026-09-02 01:09:15 | 48.26602 | 17.23607 | 160° | 15km/h | 32835m | 9.3m/s | 0°C | 0% | 0hPa | 0V | 00:00:00 | 00:00:00 | 00:00:00 | |
| OE5DXL-15 | 2026-09-02 01:09:13 | 48.26604 | 17.23599 | 103° | 18km/h | 32821m | 4.8m/s | 0°C | 0% | 0hPa | 0V | 00:00:00 | 00:00:00 | 00:00:00 | |
| OE5MMP-10 | 2026-09-02 01:09:09 | 48.26600 | 17.23615 | 271° | 16km/h | 32795m | 5.7m/s | 0°C | 0% | 0hPa | 0V | 00:00:00 | 00:00:00 | 00:00:00 | |
| ATIDSZ-14 | 2026-09-02 01:09:01 | 48.26615 | 17.23645 | 337° | 11km/h | 32739m | 5.3m/s | 0°C | 0% | 0hPa | 0V | 00:00:00 | 00:00:00 | 00:00:00 | |
| OE3OSB-13 | 2026-09-02 01:08:57 | 48.26632 | 17.23674 | 224° | 33km/h | 32706m | 5.7m/s | -38.8°C | 0.0% | 6.5hPa | 0V | 00:00:00 | 00:00:00 | 00:00:00 | |
| OE5MMP-10 | 2026-09-02 01:08:48 | 48.26634 | 17.23678 | 204° | 16km/h | 32652m | 7.3m/s | 0°C | 0% | 0hPa | 0V | 00:00:00 | 00:00:00 | 00:00:00 | |
| PETON7-10 | 2026-09-02 01:08:44 | 48.26635 | 17.23704 | 247° | 20km/h | 32624m | 5.6m/s | 0°C | 0% | 0hPa | 0V | 00:00:00 | 00:00:00 | 00:00:00 | |
| OE5DXL-15 | 2026-09-02 01:08:40 | 48.26645 | 17.23696 | 92° | 16km/h | 32597m | 5.5m/s | 0°C | 0% | 0hPa | 0V | 00:00:00 | 00:00:00 | 00:00:00 | |
| OE5MMP-10 | 2026-09-02 01:08:38 | 48.26640 | 17.23686 | 12° | 18km/h | 32583m | 7.3m/s | 0°C | 0% | 0hPa | 0V | 00:00:00 | 00:00:00 | 00:00:00 | |
| OE3JTB-15 | 2026-09-02 01:08:32 | 48.26643 | 17.23708 | 186° | 16km/h | 32543m | 5.2m/s | 0°C | 0% | 0hPa | 0V | 00:00:00 | 00:00:00 | 00:00:00 | |
| OE5MMP-10 | 2026-09-02 01:08:28 | 48.26641 | 17.23696 | 34° | 16km/h | 32515m | 5.6m/s | 0°C | 0% | 0hPa | 0V | 00:00:00 | 00:00:00 | 00:00:00 | |
| OE3OSB-13 | 2026-09-02 01:08:26 | 48.26633 | 17.23682 | 120° | 7km/h | 32496m | 7.4m/s | -38.9°C | 0.0% | 6.8hPa | 0V | 00:00:00 | 00:00:00 | 00:00:00 | |
| ATIDSZ-14 | 2026-09-02 01:08:19 | 48.26628 | 17.23697 | 5° | 13km/h | 32455m | 6.8m/s | 0°C | 0% | 0hPa | 0V | 00:00:00 | 00:00:00 | 00:00:00 | |
| OE5MMP-10 | 2026-09-02 01:08:18 | 48.26625 | 17.23696 | 41° | 16km/h | 32448m | 8.3m/s | 0°C | 0% | 0hPa | 0V | 00:00:00 | 00:00:00 | 00:00:00 | |
| PETON7-10 | 2026-09-02 01:08:13 | 48.26610 | 17.23680 | 352° | 18km/h | 32413m | 5.9m/s | 0°C | 0% | 0hPa | 0V | 00:00:00 | 00:00:00 | 00:00:00 | |
| OE5DXL-15 | 2026-09-02 01:08:10 | 48.26602 | 17.23691 | 263° | 15km/h | 32392m | 7.6m/s | 0°C | 0% | 0hPa | 0V | 00:00:00 | 00:00:00 | 00:00:00 | |
| OE5MMP-10 | 2026-09-02 01:08:08 | 48.26602 | 17.23697 | 323° | 18km/h | 32380m | 5.2m/s | 0°C | 0% | 0hPa | 0V | 00:00:00 | 00:00:00 | 00:00:00 | |
| OE3JTB-15 | 2026-09-02 01:08:03 | 48.26571 | 17.23693 | 307° | 11km/h | 32340m | 8.3m/s | 0°C | 0% | 0hPa | 0V | 00:00:00 | 00:00:00 | 00:00:00 | |
| OE3OSB-13 | 2026-09-02 01:07:57 | 48.26559 | 17.23711 | 62° | 5km/h | 32285m | 7.4m/s | -38.7°C | 0.0% | 7.1hPa | 0V | 00:00:00 | 00:00:00 | 00:00:00 | |
| PETON7-10 | 2026-09-02 01:07:55 | 48.26560 | 17.23713 | 31° | 11km/h | 32293m | 8.2m/s | 0°C | 0% | 0hPa | 0V | 00:00:00 | 00:00:00 | 00:00:00 | |
| OE5MMP-10 | 2026-09-02 01:07:48 | 48.26545 | 17.23723 | 300° | 13km/h | 32247m | 5.4m/s | 0°C | 0% | 0hPa | 0V | 00:00:00 | 00:00:00 | 00:00:00 | |
| PETON7-10 | 2026-09-02 01:07:40 | 48.26546 | 17.23711 | 339° | 13km/h | 32192m | 5.8m/s | 0°C | 0% | 0hPa | 0V | 00:00:00 | 00:00:00 | 00:00:00 | |
| ATIDSZ-14 | 2026-09-02 01:07:39 | 48.26544 | 17.23713 | 300° | 7km/h | 32185m | 8.2m/s | 0°C | 0% | 0hPa | 0V | 00:00:00 | 00:00:00 | 00:00:00 | |
| OE5MMP-10 | 2026-09-02 01:07:38 | 48.26544 | 17.23715 | 220° | 11km/h | 32177m | 7.5m/s | 0°C | 0% | 0hPa | 0V | 00:00:00 | 00:00:00 | 00:00:00 | |
| OE3JTB-15 | 2026-09-02 01:07:33 | 48.26547 | 17.23713 | 44° | 15km/h | 32143m | 5.9m/s | 0°C | 0% | 0hPa | 0V | 00:00:00 | 00:00:00 | 00:00:00 | |
| OE5MMP-10 | 2026-09-02 01:07:28 | 48.26549 | 17.23697 | 219° | 16km/h | 32112m | 6.3m/s | 0°C | 0% | 0hPa | 0V | 00:00:00 | 00:00:00 | 00:00:00 | |
| PETON7-10 | 2026-09-02 01:07:24 | 48.26544 | 17.23717 | 294° | 16km/h | 32086m | 4.3m/s | 0°C | 0% | 0hPa | 0V | 00:00:00 | 00:00:00 | 00:00:00 | |
| OE5MMP-10 | 2026-09-02 01:07:17 | 48.26556 | 17.23692 | 12° | 11km/h | 32037m | 6.3m/s | 0°C | 0% | 0hPa | 0V | 00:00:00 | 00:00:00 | 00:00:00 | |
| ATIDSZ-14 | 2026-09-02 01:07:16 | 48.26554 | 17.23692 | 330° | 7km/h | 32030m | 7.2m/s | 0°C | 0% | 0hPa | 0V | 00:00:00 | 00:00:00 | 00:00:00 | |
| OE5DXL-15 | 2026-09-02 01:07:09 | 48.26560 | 17.23697 | 105° | 18km/h | 31983m | 6.0m/s | 0°C | 0% | 0hPa | 0V | 00:00:00 | 00:00:00 | 00:00:00 | |
| PETON7-10 | 2026-09-02 01:07:08 | 48.26562 | 17.23689 | 115° | 16km/h | 31976m | 8.3m/s | 0°C | 0% | 0hPa | 0V | 00:00:00 | 00:00:00 | 00:00:00 | |
| OE5MMP-10 | 2026-09-02 01:07:06 | 48.26569 | 17.23673 | 135° | 26km/h | 31963m | 4.3m/s | 0°C | 0% | 0hPa | 0V | 00:00:00 | 00:00:00 | 00:00:00 | |
| OE3JTB-15 | 2026-09-02 01:07:05 | 48.26570 | 17.23672 | 320° | 18km/h | 31943m | 7.9m/s | 0°C | 0% | 0hPa | 0V | 00:00:00 | 00:00:00 | 00:00:00 | |
| OE3OSB-13 | 2026-09-02 01:06:53 | 48.26589 | 17.23645 | 253° | 7km/h | 31872m | 8.1m/s | -38.5°C | 0.0% | 7.7hPa | 0V | 00:00:00 | 00:00:00 | 00:00:00 | |
| PETON7-10 | 2026-09-02 01:06:47 | 48.26597 | 17.23656 | 115° | 24km/h | 31838m | 6.3m/s | 0°C | 0% | 0hPa | 0V | 00:00:00 | 00:00:00 | 00:00:00 | |
| OE5MMP-10 | 2026-09-02 01:06:44 | 48.26609 | 17.23638 | 157° | 18km/h | 31818m | 7.9m/s | 0°C | 0% | 0hPa | 0V | 00:00:00 | 00:00:00 | 00:00:00 | |
| OE5DXL-15 | 2026-09-02 01:06:39 | 48.26622 | 17.23642 | 336° | 18km/h | 31785m | 5.4m/s | 0°C | 0% | 0hPa | 0V | 00:00:00 | 00:00:00 | 00:00:00 | |
| ATIDSZ-14 | 2026-09-02 01:06:36 | 48.26622 | 17.23648 | 196° | 18km/h | 31768m | 7.7m/s | 0°C | 0% | 0hPa | 0V | 00:00:00 | 00:00:00 | 00:00:00 | |
| OE5MMP-10 | 2026-09-02 01:06:34 | 48.26636 | 17.23647 | 165° | 20km/h | 31755m | 5.3m/s | 0°C | 0% | 0hPa | 0V | 00:00:00 | 00:00:00 | 00:00:00 | |
| PETON7-10 | 2026-09-02 01:06:32 | 48.26652 | 17.23635 | 136° | 20km/h | 31742m | 7.6m/s | 0°C | 0% | 0hPa | 0V | 00:00:00 | 00:00:00 | 00:00:00 | |
| OE5MMP-10 | 2026-09-02 01:06:23 | 48.26676 | 17.23627 | 114° | 20km/h | 31684m | 6.6m/s | 0°C | 0% | 0hPa | 0V | 00:00:00 | 00:00:00 | 00:00:00 | |
| OE3OSB-13 | 2026-09-02 01:06:22 | 48.26680 | 17.23610 | 112° | 27km/h | 31672m | 6.3m/s | -39.2°C | 0.0% | 8.0hPa | 0V | 00:00:00 | 00:00:00 | 00:00:00 | |
| PETON7-10 | 2026-09-02 01:06:17 | 48.26695 | 17.23583 | 126° | 18km/h | 31648m | 6.6m/s | 0°C | 0% | 0hPa | 0V | 00:00:00 | 00:00:00 | 00:00:00 | |
| OE5MMP-10 | 2026-09-02 01:06:13 | 48.26694 | 17.23563 | 93° | 26km/h | 31621m | 7.2m/s | 0°C | 0% | 0hPa | 0V | 00:00:00 | 00:00:00 | 00:00:00 | |
| OE5DXL-15 | 2026-09-02 01:06:09 | 48.26701 | 17.23542 | 99° | 33km/h | 31598m | 7.8m/s | 0°C | 0% | 0hPa | 0V | 00:00:00 | 00:00:00 | 00:00:00 | |
| OE3JTB-15 | 2026-09-02 01:06:06 | 48.26699 | 17.23496 | 83° | 29km/h | 31577m | 4.1m/s | 0°C | 0% | 0hPa | 0V | 00:00:00 | 00:00:00 | 00:00:00 | |
| OE5MMP-10 | 2026-09-02 01:06:04 | 48.26699 | 17.23468 | 130° | 26km/h | 31557m | 5.8m/s | 0°C | 0% | 0hPa | 0V | 00:00:00 | 00:00:00 | 00:00:00 | |
| PETON7-10 | 2026-09-02 01:06:03 | 48.26701 | 17.23464 | 120° | 20km/h | 31552m | 4.6m/s | 0°C | 0% | 0hPa | 0V | 00:00:00 | 00:00:00 | 00:00:00 | |
| OE3OSB-13 | 2026-09-02 01:05:51 | 48.26672 | 17.23334 | 61° | 27km/h | 31474m | 6.0m/s | -40.4°C | 0.0% | 8.3hPa | 0V | 00:00:00 | 00:00:00 | 00:00:00 | |
| PETON7-10 | 2026-09-02 01:05:47 | 48.26669 | 17.23309 | 94° | 38km/h | 31454m | 4.9m/s | 0°C | 0% | 0hPa | 0V | 00:00:00 | 00:00:00 | 00:00:00 | |
| OE5MMP-10 | 2026-09-02 01:05:43 | 48.26656 | 17.23248 | 59° | 46km/h | 31429m | 3.1m/s | 0°C | 0% | 0hPa | 0V | 00:00:00 | 00:00:00 | 00:00:00 | |
| OE5DXL-15 | 2026-09-02 01:05:39 | 48.26643 | 17.23210 | 123° | 29km/h | 31404m | 5.8m/s | 0°C | 0% | 0hPa | 0V | 00:00:00 | 00:00:00 | 00:00:00 | |
| EDDB2-11 | 2026-09-02 01:05:38 | 48.26647 | 17.23186 | 80° | 35km/h | 31387m | 7.1m/s | -40.5°C | 0.0% | 8.4hPa | 0V | 00:00:00 | 00:00:00 | 00:00:00 | |
| OE3JTB-15 | 2026-09-02 01:05:36 | 48.26647 | 17.23186 | 81° | 31km/h | 31387m | 7.0m/s | 0°C | 0% | 0hPa | 0V | 00:00:00 | 00:00:00 | 00:00:00 | |
| PETON7-10 | 2026-09-02 01:05:32 | 48.26626 | 17.23127 | 47° | 31km/h | 31361m | 6.4m/s | 0°C | 0% | 0hPa | 0V | 00:00:00 | 00:00:00 | 00:00:00 | |
| OE5MMP-10 | 2026-09-02 01:05:31 | 48.26620 | 17.23119 | 43° | 29km/h | 31355m | 5.4m/s | 0°C | 0% | 0hPa | 0V | 00:00:00 | 00:00:00 | 00:00:00 | |
| OE5MMP-10 | 2026-09-02 01:05:21 | 48.26588 | 17.23029 | 52° | 26km/h | 31292m | 5.4m/s | 0°C | 0% | 0hPa | 0V | 00:00:00 | 00:00:00 | 00:00:00 | |
| OE3OSB-13 | 2026-09-02 01:05:20 | 48.26578 | 17.23007 | 57° | 44km/h | 31277m | 6.8m/s | -40.7°C | 0.0% | 8.6hPa | 0V | 00:00:00 | 00:00:00 | 00:00:00 | |
| PETON7-10 | 2026-09-02 01:05:17 | 48.26567 | 17.22980 | 61° | 24km/h | 31267m | 5.0m/s | 0°C | 0% | 0hPa | 0V | 00:00:00 | 00:00:00 | 00:00:00 | |
| OE5MMP-10 | 2026-09-02 01:05:11 | 48.26560 | 17.22934 | 81° | 27km/h | 31227m | 6.9m/s | 0°C | 0% | 0hPa | 0V | 00:00:00 | 00:00:00 | 00:00:00 | |
| OE5DXL-15 | 2026-09-02 01:05:09 | 48.26556 | 17.22907 | 69° | 20km/h | 31215m | 6.0m/s | 0°C | 0% | 0hPa | 0V | 00:00:00 | 00:00:00 | 00:00:00 | |
| EDDB2-11 | 2026-09-02 01:05:07 | 48.26547 | 17.22879 | 64° | 18km/h | 31195m | 5.6m/s | -40.8°C | 0.0% | 8.7hPa | 0V | 00:00:00 | 00:00:00 | 00:00:00 | |
| ATIDSZ-14 | 2026-09-02 01:05:06 | 48.26547 | 17.22879 | 66° | 20km/h | 31196m | 5.6m/s | 0°C | 0% | 0hPa | 0V | 00:00:00 | 00:00:00 | 00:00:00 | |
| PETON7-10 | 2026-09-02 01:05:01 | 48.26540 | 17.22839 | 75° | 16km/h | 31166m | 6.6m/s | 0°C | 0% | 0hPa | 0V | 00:00:00 | 00:00:00 | 00:00:00 | |
| OE3OSB-13 | 2026-09-02 01:04:49 | 48.26523 | 17.22777 | 90° | 11km/h | 31083m | 7.3m/s | -40.9°C | 0.0% | 8.9hPa | 0V | 00:00:00 | 00:00:00 | 00:00:00 | |
| PETON7-10 | 2026-09-02 01:04:46 | 48.26521 | 17.22762 | 68° | 24km/h | 31069m | 5.6m/s | 0°C | 0% | 0hPa | 0V | 00:00:00 | 00:00:00 | 00:00:00 | |
| ATIDSZ-14 | 2026-09-02 01:04:45 | 48.26518 | 17.22753 | 59° | 27km/h | 31063m | 7.7m/s | 0°C | 0% | 0hPa | 0V | 00:00:00 | 00:00:00 | 00:00:00 | |
| OE5MMP-10 | 2026-09-02 01:04:41 | 48.26508 | 17.22725 | 90° | 22km/h | 31036m | 8.3m/s | 0°C | 0% | 0hPa | 0V | 00:00:00 | 00:00:00 | 00:00:00 | |
| OE3JTB-15 | 2026-09-02 01:04:39 | 48.26512 | 17.22703 | 114° | 18km/h | 31016m | 7.5m/s | 0°C | 0% | 0hPa | 0V | 00:00:00 | 00:00:00 | 00:00:00 | |
| EDDB2-11 | 2026-09-02 01:04:36 | 48.26510 | 17.22694 | 57° | 15km/h | 30997m | 5.0m/s | -41.2°C | 0.0% | 9.0hPa | 0V | 00:00:00 | 00:00:00 | 00:00:00 | |
| OE5MMP-10 | 2026-09-02 01:04:31 | 48.26507 | 17.22649 | 95° | 20km/h | 30970m | 4.6m/s | 0°C | 0% | 0hPa | 0V | 00:00:00 | 00:00:00 | 00:00:00 | |
| PETON7-10 | 2026-09-02 01:04:30 | 48.26507 | 17.22638 | 97° | 24km/h | 30964m | 7.9m/s | 0°C | 0% | 0hPa | 0V | 00:00:00 | 00:00:00 | 00:00:00 | |
| ATIDSZ-14 | 2026-09-02 01:04:24 | 48.26517 | 17.22613 | 104° | 29km/h | 30924m | 5.8m/s | 0°C | 0% | 0hPa | 0V | 00:00:00 | 00:00:00 | 00:00:00 | |
| OE5MMP-10 | 2026-09-02 01:04:21 | 48.26516 | 17.22581 | 65° | 18km/h | 30904m | 7.3m/s | 0°C | 0% | 0hPa | 0V | 00:00:00 | 00:00:00 | 00:00:00 | |
| OE3OSB-13 | 2026-09-02 01:04:18 | 48.26508 | 17.22556 | 87° | 22km/h | 30878m | 7.0m/s | -41.6°C | 0.0% | 9.2hPa | 0V | 00:00:00 | 00:00:00 | 00:00:00 | |
| OE5MMP-10 | 2026-09-02 01:04:11 | 48.26503 | 17.22527 | 19° | 20km/h | 30841m | 5.2m/s | 0°C | 0% | 0hPa | 0V | 00:00:00 | 00:00:00 | 00:00:00 | |
| OE5DXL-15 | 2026-09-02 01:04:09 | 48.26499 | 17.22519 | 77° | 18km/h | 30829m | 8.3m/s | 0°C | 0% | 0hPa | 0V | 00:00:00 | 00:00:00 | 00:00:00 | |
| EDDB2-11 | 2026-09-02 01:04:05 | 48.26490 | 17.22472 | 25° | 18km/h | 30797m | 6.9m/s | -41.5°C | 0.0% | 9.4hPa | 0V | 00:00:00 | 00:00:00 | 00:00:00 | |
| ATIDSZ-14 | 2026-09-02 01:04:04 | 48.26490 | 17.22472 | 27° | 20km/h | 30797m | 6.9m/s | 0°C | 0% | 0hPa | 0V | 00:00:00 | 00:00:00 | 00:00:00 | |
| OE5MMP-10 | 2026-09-02 01:04:01 | 48.26479 | 17.22470 | 45° | 16km/h | 30777m | 6.6m/s | 0°C | 0% | 0hPa | 0V | 00:00:00 | 00:00:00 | 00:00:00 | |
| OE3OSB-13 | 2026-09-02 01:03:47 | 48.26457 | 17.22405 | 59° | 20km/h | 30680m | 8.3m/s | -41.5°C | 0.0% | 9.6hPa | 0V | 00:00:00 | 00:00:00 | 00:00:00 | |
| ATIDSZ-14 | 2026-09-02 01:03:44 | 48.26453 | 17.22387 | 75° | 27km/h | 30666m | 5.7m/s | 0°C | 0% | 0hPa | 0V | 00:00:00 | 00:00:00 | 00:00:00 | |
| PETON7-10 | 2026-09-02 01:03:42 | 48.26448 | 17.22371 | 49° | 16km/h | 30652m | 7.2m/s | 0°C | 0% | 0hPa | 0V | 00:00:00 | 00:00:00 | 00:00:00 | |
| OE5MMP-10 | 2026-09-02 01:03:41 | 48.26445 | 17.22367 | 46° | 15km/h | 30646m | 5.9m/s | 0°C | 0% | 0hPa | 0V | 00:00:00 | 00:00:00 | 00:00:00 | |
| OE3JTB-15 | 2026-09-02 01:03:40 | 48.26443 | 17.22364 | 49° | 20km/h | 30639m | 5.9m/s | 0°C | 0% | 0hPa | 0V | 00:00:00 | 00:00:00 | 00:00:00 | |
| OE5DXL-15 | 2026-09-02 01:03:39 | 48.26443 | 17.22361 | 106° | 20km/h | 30632m | 8.2m/s | 0°C | 0% | 0hPa | 0V | 00:00:00 | 00:00:00 | 00:00:00 | |
| EDDB2-11 | 2026-09-02 01:03:34 | 48.26442 | 17.22333 | 37° | 20km/h | 30592m | 5.8m/s | -41.7°C | 0.0% | 9.7hPa | 0V | 00:00:00 | 00:00:00 | 00:00:00 | |
| OE5MMP-10 | 2026-09-02 01:03:31 | 48.26436 | 17.22319 | 76° | 18km/h | 30579m | 8.3m/s | 0°C | 0% | 0hPa | 0V | 00:00:00 | 00:00:00 | 00:00:00 | |
| ATIDSZ-14 | 2026-09-02 01:03:24 | 48.26428 | 17.22285 | 53° | 16km/h | 30525m | 6.8m/s | 0°C | 0% | 0hPa | 0V | 00:00:00 | 00:00:00 | 00:00:00 | |
| PETON7-10 | 2026-09-02 01:03:23 | 48.26428 | 17.22285 | 53° | 26km/h | 30525m | 6.8m/s | 0°C | 0% | 0hPa | 0V | 00:00:00 | 00:00:00 | 00:00:00 | |
| OE5MMP-10 | 2026-09-02 01:03:21 | 48.26422 | 17.22269 | 55° | 24km/h | 30510m | 7.8m/s | 0°C | 0% | 0hPa | 0V | 00:00:00 | 00:00:00 | 00:00:00 | |
| OE3OSB-13 | 2026-09-02 01:03:16 | 48.26405 | 17.22208 | 99° | 13km/h | 30471m | 4.5m/s | -42.1°C | 0.0% | 9.9hPa | 0V | 00:00:00 | 00:00:00 | 00:00:00 | |
| OE3JTB-15 | 2026-09-02 01:03:11 | 48.26388 | 17.22203 | 15° | 22km/h | 30445m | 4.8m/s | 0°C | 0% | 0hPa | 0V | 00:00:00 | 00:00:00 | 00:00:00 | |
| OE5DXL-15 | 2026-09-02 01:03:09 | 48.26376 | 17.22190 | 62° | 22km/h | 30431m | 8.0m/s | 0°C | 0% | 0hPa | 0V | 00:00:00 | 00:00:00 | 00:00:00 | |
| PETON7-10 | 2026-09-02 01:03:06 | 48.26373 | 17.22160 | 97° | 16km/h | 30410m | 7.5m/s | 0°C | 0% | 0hPa | 0V | 00:00:00 | 00:00:00 | 00:00:00 | |
| EDDB2-11 | 2026-09-02 01:03:03 | 48.26381 | 17.22153 | 201° | 5km/h | 30383m | 5.7m/s | -42.2°C | 0.0% | 10.1hPa | 0V | 00:00:00 | 00:00:00 | 00:00:00 | |
| ATIDSZ-14 | 2026-09-02 01:03:02 | 48.26381 | 17.22153 | 203° | 5km/h | 30383m | 5.7m/s | 0°C | 0% | 0hPa | 0V | 00:00:00 | 00:00:00 | 00:00:00 | |
| OE3OSB-13 | 2026-09-02 01:02:45 | 48.26374 | 17.22059 | 134° | 31km/h | 30265m | 7.3m/s | -42.5°C | 0.0% | 10.3hPa | 0V | 00:00:00 | 00:00:00 | 00:00:00 | |
| ATIDSZ-14 | 2026-09-02 01:02:41 | 48.26380 | 17.22046 | 34° | 9km/h | 30244m | 7.1m/s | 0°C | 0% | 0hPa | 0V | 00:00:00 | 00:00:00 | 00:00:00 | |
| OE5DXL-15 | 2026-09-02 01:02:39 | 48.26373 | 17.22037 | 51° | 16km/h | 30230m | 6.8m/s | 0°C | 0% | 0hPa | 0V | 00:00:00 | 00:00:00 | 00:00:00 | |
| OE5MMP-10 | 2026-09-02 01:02:37 | 48.26367 | 17.22019 | 74° | 15km/h | 30218m | 5.3m/s | 0°C | 0% | 0hPa | 0V | 00:00:00 | 00:00:00 | 00:00:00 | |
| PETON7-10 | 2026-09-02 01:02:36 | 48.26366 | 17.22011 | 80° | 15km/h | 30212m | 6.0m/s | 0°C | 0% | 0hPa | 0V | 00:00:00 | 00:00:00 | 00:00:00 | |
| EDDB2-11 | 2026-09-02 01:02:32 | 48.26367 | 17.21995 | 89° | 18km/h | 30178m | 8.4m/s | -42.5°C | 0.0% | 10.5hPa | 0V | 00:00:00 | 00:00:00 | 00:00:00 | |
| OE5MMP-10 | 2026-09-02 01:02:27 | 48.26363 | 17.21963 | 63° | 11km/h | 30151m | 7.6m/s | 0°C | 0% | 0hPa | 0V | 00:00:00 | 00:00:00 | 00:00:00 | |
| PETON7-10 | 2026-09-02 01:02:21 | 48.26365 | 17.21938 | 112° | 18km/h | 30111m | 7.4m/s | 0°C | 0% | 0hPa | 0V | 00:00:00 | 00:00:00 | 00:00:00 | |
| OE5MMP-10 | 2026-09-02 01:02:17 | 48.26363 | 17.21923 | 71° | 16km/h | 30084m | 8.4m/s | 0°C | 0% | 0hPa | 0V | 00:00:00 | 00:00:00 | 00:00:00 | |
| OE3OSB-13 | 2026-09-02 01:02:14 | 48.26364 | 17.21891 | 142° | 11km/h | 30058m | 9.0m/s | -42.5°C | 0.0% | 10.7hPa | 0V | 00:00:00 | 00:00:00 | 00:00:00 | |
| OE3JTB-15 | 2026-09-02 01:02:12 | 48.26375 | 17.21892 | 119° | 18km/h | 30033m | 7.3m/s | 0°C | 0% | 0hPa | 0V | 00:00:00 | 00:00:00 | 00:00:00 | |
| OE5DXL-15 | 2026-09-02 01:02:10 | 48.26375 | 17.21892 | 119° | 16km/h | 30033m | 7.3m/s | 0°C | 0% | 0hPa | 0V | 00:00:00 | 00:00:00 | 00:00:00 | |
| PETON7-10 | 2026-09-02 01:02:06 | 48.26371 | 17.21865 | 67° | 18km/h | 30012m | 4.9m/s | 0°C | 0% | 0hPa | 0V | 00:00:00 | 00:00:00 | 00:00:00 | |
| OE5MMP-10 | 2026-09-02 01:02:05 | 48.26369 | 17.21856 | 65° | 13km/h | 30006m | 6.5m/s | 0°C | 0% | 0hPa | 0V | 00:00:00 | 00:00:00 | 00:00:00 | |
| EDDB2-11 | 2026-09-02 01:02:01 | 48.26377 | 17.21843 | 119° | 16km/h | 29966m | 5.9m/s | -43.1°C | 0.0% | 10.9hPa | 0V | 00:00:00 | 00:00:00 | 00:00:00 | |
| OE3OSB-13 | 2026-09-02 01:01:43 | 48.26380 | 17.21747 | 97° | 24km/h | 29856m | 7.3m/s | -43.1°C | 0.0% | 11.1hPa | 0V | 00:00:00 | 00:00:00 | 00:00:00 | |
| ATIDSZ-14 | 2026-09-02 01:01:40 | 48.26380 | 17.21734 | 89° | 13km/h | 29844m | 5.3m/s | 0°C | 0% | 0hPa | 0V | 00:00:00 | 00:00:00 | 00:00:00 | |
| OE5DXL-15 | 2026-09-02 01:01:39 | 48.26380 | 17.21728 | 104° | 26km/h | 29837m | 6.6m/s | 0°C | 0% | 0hPa | 0V | 00:00:00 | 00:00:00 | 00:00:00 | |
| OE5MMP-10 | 2026-09-02 01:01:35 | 48.26399 | 17.21698 | 142° | 27km/h | 29811m | 6.9m/s | 0°C | 0% | 0hPa | 0V | 00:00:00 | 00:00:00 | 00:00:00 | |
| OE5MMP-10 | 2026-09-02 01:01:25 | 48.26430 | 17.21608 | 143° | 24km/h | 29746m | 6.2m/s | 0°C | 0% | 0hPa | 0V | 00:00:00 | 00:00:00 | 00:00:00 | |
| ATIDSZ-14 | 2026-09-02 01:01:20 | 48.26446 | 17.21569 | 85° | 20km/h | 29712m | 7.2m/s | 0°C | 0% | 0hPa | 0V | 00:00:00 | 00:00:00 | 00:00:00 | |
| PETON7-10 | 2026-09-02 01:01:19 | 48.26445 | 17.21561 | 80° | 22km/h | 29706m | 5.3m/s | 0°C | 0% | 0hPa | 0V | 00:00:00 | 00:00:00 | 00:00:00 | |
| OE5MMP-10 | 2026-09-02 01:01:15 | 48.26452 | 17.21524 | 136° | 24km/h | 29681m | 5.6m/s | 0°C | 0% | 0hPa | 0V | 00:00:00 | 00:00:00 | 00:00:00 | |
| OE3JTB-15 | 2026-09-02 01:01:14 | 48.26464 | 17.21518 | 188° | 18km/h | 29661m | 4.4m/s | 0°C | 0% | 0hPa | 0V | 00:00:00 | 00:00:00 | 00:00:00 | |
| OE3OSB-13 | 2026-09-02 01:01:12 | 48.26466 | 17.21517 | 138° | 7km/h | 29657m | 3.9m/s | -43.8°C | 0.0% | 11.5hPa | 0V | 00:00:00 | 00:00:00 | 00:00:00 | |
| OE5DXL-15 | 2026-09-02 01:01:09 | 48.26469 | 17.21505 | 99° | 20km/h | 29644m | 6.8m/s | 0°C | 0% | 0hPa | 0V | 00:00:00 | 00:00:00 | 00:00:00 | |
| OE5MMP-10 | 2026-09-02 01:01:05 | 48.26466 | 17.21462 | 54° | 16km/h | 29620m | 7.6m/s | 0°C | 0% | 0hPa | 0V | 00:00:00 | 00:00:00 | 00:00:00 | |
| PETON7-10 | 2026-09-02 01:01:03 | 48.26464 | 17.21460 | 221° | 18km/h | 29608m | 5.8m/s | 0°C | 0% | 0hPa | 0V | 00:00:00 | 00:00:00 | 00:00:00 | |
| ATIDSZ-14 | 2026-09-02 01:01:00 | 48.26474 | 17.21453 | 140° | 26km/h | 29588m | 4.9m/s | 0°C | 0% | 0hPa | 0V | 00:00:00 | 00:00:00 | 00:00:00 | |
| OE5MMP-10 | 2026-09-02 01:00:55 | 48.26473 | 17.21420 | 56° | 16km/h | 29558m | 5.9m/s | 0°C | 0% | 0hPa | 0V | 00:00:00 | 00:00:00 | 00:00:00 | |
| DO3MHA-12 | 2026-09-02 01:00:48 | 48.26475 | 17.21383 | 151° | 16km/h | 29513m | 5.9m/s | 0°C | 0% | 0hPa | 0V | 00:00:00 | 00:00:00 | 00:00:00 | |
| OE3JTB-15 | 2026-09-02 01:00:45 | 48.26465 | 17.21335 | 57° | 20km/h | 29475m | 4.7m/s | 0°C | 0% | 0hPa | 0V | 00:00:00 | 00:00:00 | 00:00:00 | |
| OE3OSB-13 | 2026-09-02 01:00:41 | 48.26462 | 17.21318 | 95° | 26km/h | 29463m | 7.1m/s | -44.5°C | 0.0% | 11.9hPa | 0V | 00:00:00 | 00:00:00 | 00:00:00 | |
| OE5DXL-15 | 2026-09-02 01:00:39 | 48.26463 | 17.21309 | 115° | 20km/h | 29457m | 4.9m/s | 0°C | 0% | 0hPa | 0V | 00:00:00 | 00:00:00 | 00:00:00 | |
| OE5MMP-10 | 2026-09-02 01:00:33 | 48.26463 | 17.21287 | 73° | 22km/h | 29421m | 7.7m/s | 0°C | 0% | 0hPa | 0V | 00:00:00 | 00:00:00 | 00:00:00 | |
| DO3MHA-12 | 2026-09-02 01:00:31 | 48.26459 | 17.21263 | 78° | 20km/h | 29407m | 5.6m/s | 0°C | 0% | 0hPa | 0V | 00:00:00 | 00:00:00 | 00:00:00 | |
| OE5MMP-10 | 2026-09-02 01:00:23 | 48.26456 | 17.21214 | 88° | 22km/h | 29361m | 4.5m/s | 0°C | 0% | 0hPa | 0V | 00:00:00 | 00:00:00 | 00:00:00 | |
| DO3MHA-12 | 2026-09-02 01:00:22 | 48.26451 | 17.21203 | 36° | 15km/h | 29348m | 6.4m/s | 0°C | 0% | 0hPa | 0V | 00:00:00 | 00:00:00 | 00:00:00 | |
| ATIDSZ-14 | 2026-09-02 01:00:19 | 48.26442 | 17.21194 | 48° | 20km/h | 29337m | 5.7m/s | 0°C | 0% | 0hPa | 0V | 00:00:00 | 00:00:00 | 00:00:00 | |
| OE3JTB-15 | 2026-09-02 01:00:17 | 48.26437 | 17.21152 | 68° | 22km/h | 29304m | 6.0m/s | 0°C | 0% | 0hPa | 0V | 00:00:00 | 00:00:00 | 00:00:00 | |
| OE5MMP-10 | 2026-09-02 01:00:13 | 48.26434 | 17.21142 | 65° | 22km/h | 29298m | 5.3m/s | 0°C | 0% | 0hPa | 0V | 00:00:00 | 00:00:00 | 00:00:00 | |
| OE5DXL-15 | 2026-09-02 01:00:09 | 48.26425 | 17.21107 | 55° | 20km/h | 29274m | 5.6m/s | 0°C | 0% | 0hPa | 0V | 00:00:00 | 00:00:00 | 00:00:00 | |
| PETON7-10 | 2026-09-02 01:00:01 | 48.26408 | 17.21057 | 67° | 22km/h | 29226m | 7.1m/s | 0°C | 0% | 0hPa | 0V | 00:00:00 | 00:00:00 | 00:00:00 | |
| ATIDSZ-14 | 2026-09-02 00:59:59 | 48.26398 | 17.21041 | 34° | 35km/h | 29213m | 5.7m/s | 0°C | 0% | 0hPa | 0V | 00:00:00 | 00:00:00 | 00:00:00 | |
| OE5MMP-10 | 2026-09-02 00:59:52 | 48.26375 | 17.21008 | 64° | 20km/h | 29169m | 4.9m/s | 0°C | 0% | 0hPa | 0V | 00:00:00 | 00:00:00 | 00:00:00 | |
| OE3JTB-15 | 2026-09-02 00:59:47 | 48.26359 | 17.20965 | 45° | 15km/h | 29128m | 4.6m/s | 0°C | 0% | 0hPa | 0V | 00:00:00 | 00:00:00 | 00:00:00 | |
| PETON7-10 | 2026-09-02 00:59:45 | 48.26359 | 17.20965 | 45° | 16km/h | 29128m | 4.6m/s | 0°C | 0% | 0hPa | 0V | 00:00:00 | 00:00:00 | 00:00:00 | |
| OE5MMP-10 | 2026-09-02 00:59:42 | 48.26353 | 17.20945 | 120° | 18km/h | 29110m | 8.0m/s | 0°C | 0% | 0hPa | 0V | 00:00:00 | 00:00:00 | 00:00:00 | |
| OE5DXL-15 | 2026-09-02 00:59:39 | 48.26362 | 17.20936 | 134° | 15km/h | 29090m | 6.0m/s | 0°C | 0% | 0hPa | 0V | 00:00:00 | 00:00:00 | 00:00:00 | |
| OE3OSB-13 | 2026-09-02 00:59:38 | 48.26362 | 17.20931 | 42° | 9km/h | 29079m | 5.4m/s | -45.2°C | 0.0% | 12.7hPa | 0V | 00:00:00 | 00:00:00 | 00:00:00 | |
| ATIDSZ-14 | 2026-09-02 00:59:36 | 48.26360 | 17.20929 | 33° | 11km/h | 29073m | 6.8m/s | 0°C | 0% | 0hPa | 0V | 00:00:00 | 00:00:00 | 00:00:00 | |
| PETON7-10 | 2026-09-02 00:59:29 | 48.26349 | 17.20890 | 90° | 15km/h | 29031m | 5.8m/s | 0°C | 0% | 0hPa | 0V | 00:00:00 | 00:00:00 | 00:00:00 | |
| OE5MMP-10 | 2026-09-02 00:59:26 | 48.26357 | 17.20894 | 225° | 16km/h | 29011m | 2.9m/s | 0°C | 0% | 0hPa | 0V | 00:00:00 | 00:00:00 | 00:00:00 | |
| OE3JTB-15 | 2026-09-02 00:59:18 | 48.26354 | 17.20866 | 225° | 13km/h | 28950m | 6.6m/s | 0°C | 0% | 0hPa | 0V | 00:00:00 | 00:00:00 | 00:00:00 | |
| OE5MMP-10 | 2026-09-02 00:59:16 | 48.26354 | 17.20866 | 225° | 11km/h | 28950m | 6.6m/s | 0°C | 0% | 0hPa | 0V | 00:00:00 | 00:00:00 | 00:00:00 | |
| PETON7-10 | 2026-09-02 00:59:13 | 48.26354 | 17.20866 | 93° | 15km/h | 28933m | 6.6m/s | 0°C | 0% | 0hPa | 0V | 00:00:00 | 00:00:00 | 00:00:00 | |
| OE5DXL-15 | 2026-09-02 00:59:09 | 48.26355 | 17.20843 | 49° | 15km/h | 28909m | 8.5m/s | 0°C | 0% | 0hPa | 0V | 00:00:00 | 00:00:00 | 00:00:00 | |
| OE3OSB-13 | 2026-09-02 00:59:07 | 48.26351 | 17.20840 | 88° | 7km/h | 28889m | 8.0m/s | -45.3°C | 0.0% | 13.2hPa | 0V | 00:00:00 | 00:00:00 | 00:00:00 | |
| OE5MMP-10 | 2026-09-02 00:59:06 | 48.26351 | 17.20840 | 89° | 13km/h | 28889m | 8.0m/s | 0°C | 0% | 0hPa | 0V | 00:00:00 | 00:00:00 | 00:00:00 | |
| PETON7-10 | 2026-09-02 00:58:58 | 48.26357 | 17.20802 | 114° | 16km/h | 28835m | 6.1m/s | 0°C | 0% | 0hPa | 0V | 00:00:00 | 00:00:00 | 00:00:00 | |
| OE5MMP-10 | 2026-09-02 00:58:56 | 48.26359 | 17.20796 | 101° | 9km/h | 28822m | 8.2m/s | 0°C | 0% | 0hPa | 0V | 00:00:00 | 00:00:00 | 00:00:00 | |
| OE3JTB-15 | 2026-09-02 00:58:49 | 48.26367 | 17.20752 | 24° | 18km/h | 28758m | 6.5m/s | 0°C | 0% | 0hPa | 0V | 00:00:00 | 00:00:00 | 00:00:00 | |
| OE5MMP-10 | 2026-09-02 00:58:46 | 48.26367 | 17.20752 | 24° | 18km/h | 28758m | 6.5m/s | 0°C | 0% | 0hPa | 0V | 00:00:00 | 00:00:00 | 00:00:00 | |
| PETON7-10 | 2026-09-02 00:58:43 | 48.26359 | 17.20737 | 76° | 18km/h | 28740m | 4.7m/s | 0°C | 0% | 0hPa | 0V | 00:00:00 | 00:00:00 | 00:00:00 | |
| OE5DXL-15 | 2026-09-02 00:58:39 | 48.26364 | 17.20712 | 122° | 16km/h | 28714m | 4.9m/s | 0°C | 0% | 0hPa | 0V | 00:00:00 | 00:00:00 | 00:00:00 | |
| OE5MMP-10 | 2026-09-02 00:58:36 | 48.26366 | 17.20684 | 80° | 20km/h | 28695m | 6.3m/s | 0°C | 0% | 0hPa | 0V | 00:00:00 | 00:00:00 | 00:00:00 | |
| ATIDSZ-14 | 2026-09-02 00:58:35 | 48.26364 | 17.20673 | 73° | 29km/h | 28689m | 4.8m/s | 0°C | 0% | 0hPa | 0V | 00:00:00 | 00:00:00 | 00:00:00 | |
| PETON7-10 | 2026-09-02 00:58:27 | 48.26372 | 17.20636 | 109° | 16km/h | 28639m | 5.5m/s | 0°C | 0% | 0hPa | 0V | 00:00:00 | 00:00:00 | 00:00:00 | |
| OE5MMP-10 | 2026-09-02 00:58:26 | 48.26375 | 17.20627 | 115° | 16km/h | 28633m | 7.0m/s | 0°C | 0% | 0hPa | 0V | 00:00:00 | 00:00:00 | 00:00:00 | |
| OE3JTB-15 | 2026-09-02 00:58:20 | 48.26397 | 17.20586 | 131° | 13km/h | 28573m | 6.1m/s | 0°C | 0% | 0hPa | 0V | 00:00:00 | 00:00:00 | 00:00:00 | |
| OE5MMP-10 | 2026-09-02 00:58:16 | 48.26397 | 17.20583 | 97° | 15km/h | 28567m | 5.9m/s | 0°C | 0% | 0hPa | 0V | 00:00:00 | 00:00:00 | 00:00:00 | |
| ATIDSZ-14 | 2026-09-02 00:58:15 | 48.26397 | 17.20579 | 98° | 15km/h | 28560m | 7.6m/s | 0°C | 0% | 0hPa | 0V | 00:00:00 | 00:00:00 | 00:00:00 | |
| PETON7-10 | 2026-09-02 00:58:12 | 48.26402 | 17.20560 | 125° | 15km/h | 28541m | 7.8m/s | 0°C | 0% | 0hPa | 0V | 00:00:00 | 00:00:00 | 00:00:00 | |
| OE5DXL-15 | 2026-09-02 00:58:09 | 48.26406 | 17.20553 | 95° | 13km/h | 28522m | 5.0m/s | 0°C | 0% | 0hPa | 0V | 00:00:00 | 00:00:00 | 00:00:00 | |
| OE5MMP-10 | 2026-09-02 00:58:06 | 48.26405 | 17.20532 | 87° | 15km/h | 28502m | 5.6m/s | 0°C | 0% | 0hPa | 0V | 00:00:00 | 00:00:00 | 00:00:00 | |
| OE3OSB-13 | 2026-09-02 00:58:05 | 48.26404 | 17.20517 | 91° | 11km/h | 28489m | 7.9m/s | -45.8°C | 0.0% | 14.1hPa | 0V | 00:00:00 | 00:00:00 | 00:00:00 | |
| PETON7-10 | 2026-09-02 00:57:56 | 48.26414 | 17.20490 | 101° | 11km/h | 28438m | 7.6m/s | 0°C | 0% | 0hPa | 0V | 00:00:00 | 00:00:00 | 00:00:00 | |
| ATIDSZ-14 | 2026-09-02 00:57:54 | 48.26414 | 17.20489 | 0° | 0km/h | 28425m | 5.8m/s | 0°C | 0% | 0hPa | 0V | 00:00:00 | 00:00:00 | 00:00:00 | |
| OE3JTB-15 | 2026-09-02 00:57:50 | 48.26414 | 17.20466 | 122° | 11km/h | 28385m | 6.7m/s | 0°C | 0% | 0hPa | 0V | 00:00:00 | 00:00:00 | 00:00:00 | |
| OE5MMP-10 | 2026-09-02 00:57:45 | 48.26415 | 17.20459 | 86° | 13km/h | 28366m | 8.2m/s | 0°C | 0% | 0hPa | 0V | 00:00:00 | 00:00:00 | 00:00:00 | |
| PETON7-10 | 2026-09-02 00:57:41 | 48.26405 | 17.20439 | 357° | 9km/h | 28340m | 7.6m/s | 0°C | 0% | 0hPa | 0V | 00:00:00 | 00:00:00 | 00:00:00 | |
| OE5DXL-15 | 2026-09-02 00:57:39 | 48.26401 | 17.20445 | 294° | 11km/h | 28327m | 6.2m/s | 0°C | 0% | 0hPa | 0V | 00:00:00 | 00:00:00 | 00:00:00 | |
| OE5MMP-10 | 2026-09-02 00:57:34 | 48.26403 | 17.20437 | 123° | 11km/h | 28294m | 6.9m/s | 0°C | 0% | 0hPa | 0V | 00:00:00 | 00:00:00 | 00:00:00 | |
| PETON7-10 | 2026-09-02 00:57:26 | 48.26389 | 17.20417 | 307° | 13km/h | 28241m | 6.8m/s | 0°C | 0% | 0hPa | 0V | 00:00:00 | 00:00:00 | 00:00:00 | |
| OE5MMP-10 | 2026-09-02 00:57:24 | 48.26386 | 17.20425 | 295° | 13km/h | 28229m | 6.3m/s | 0°C | 0% | 0hPa | 0V | 00:00:00 | 00:00:00 | 00:00:00 | |
| OE3JTB-15 | 2026-09-02 00:57:21 | 48.26388 | 17.20404 | 81° | 13km/h | 28197m | 7.0m/s | 0°C | 0% | 0hPa | 0V | 00:00:00 | 00:00:00 | 00:00:00 | |
| OE5MMP-10 | 2026-09-02 00:57:14 | 48.26371 | 17.20410 | 7° | 13km/h | 28165m | 4.4m/s | 0°C | 0% | 0hPa | 0V | 00:00:00 | 00:00:00 | 00:00:00 | |
| PETON7-10 | 2026-09-02 00:57:11 | 48.26363 | 17.20411 | 338° | 11km/h | 28146m | 6.1m/s | 0°C | 0% | 0hPa | 0V | 00:00:00 | 00:00:00 | 00:00:00 | |
| OE5DXL-15 | 2026-09-02 00:57:08 | 48.26364 | 17.20403 | 83° | 15km/h | 28126m | 6.5m/s | 0°C | 0% | 0hPa | 0V | 00:00:00 | 00:00:00 | 00:00:00 | |
| OE3OSB-13 | 2026-09-02 00:57:03 | 48.26362 | 17.20407 | 325° | 11km/h | 28088m | 7.5m/s | -46.0°C | 0.0% | 15.1hPa | 0V | 00:00:00 | 00:00:00 | 00:00:00 | |
| OE5MMP-10 | 2026-09-02 00:57:00 | 48.26356 | 17.20404 | 56° | 13km/h | 28075m | 6.0m/s | 0°C | 0% | 0hPa | 0V | 00:00:00 | 00:00:00 | 00:00:00 | |
| PETON7-10 | 2026-09-02 00:56:56 | 48.26359 | 17.20382 | 120° | 15km/h | 28049m | 5.2m/s | 0°C | 0% | 0hPa | 0V | 00:00:00 | 00:00:00 | 00:00:00 | |
| ATIDSZ-14 | 2026-09-02 00:56:53 | 48.26357 | 17.20375 | 341° | 11km/h | 28030m | 6.1m/s | 0°C | 0% | 0hPa | 0V | 00:00:00 | 00:00:00 | 00:00:00 | |
| OE3JTB-15 | 2026-09-02 00:56:51 | 48.26351 | 17.20388 | 12° | 15km/h | 28004m | 7.3m/s | 0°C | 0% | 0hPa | 0V | 00:00:00 | 00:00:00 | 00:00:00 | |
| OE5MMP-10 | 2026-09-02 00:56:49 | 48.26351 | 17.20388 | 12° | 15km/h | 28004m | 7.3m/s | 0°C | 0% | 0hPa | 0V | 00:00:00 | 00:00:00 | 00:00:00 | |
| PETON7-10 | 2026-09-02 00:56:40 | 48.26347 | 17.20343 | 338° | 18km/h | 27945m | 5.7m/s | 0°C | 0% | 0hPa | 0V | 00:00:00 | 00:00:00 | 00:00:00 | |
| OE5DXL-15 | 2026-09-02 00:56:38 | 48.26340 | 17.20350 | 309° | 16km/h | 27932m | 5.7m/s | 0°C | 0% | 0hPa | 0V | 00:00:00 | 00:00:00 | 00:00:00 | |
| OE5MMP-10 | 2026-09-02 00:56:37 | 48.26338 | 17.20353 | 340° | 16km/h | 27927m | 4.2m/s | 0°C | 0% | 0hPa | 0V | 00:00:00 | 00:00:00 | 00:00:00 | |
| OE3OSB-13 | 2026-09-02 00:56:32 | 48.26331 | 17.20322 | 225° | 2km/h | 27889m | 6.5m/s | -46.9°C | 0.0% | 15.6hPa | 0V | 00:00:00 | 00:00:00 | 00:00:00 | |
| OE5MMP-10 | 2026-09-02 00:56:27 | 48.26322 | 17.20345 | 331° | 15km/h | 27863m | 6.0m/s | 0°C | 0% | 0hPa | 0V | 00:00:00 | 00:00:00 | 00:00:00 | |
| PETON7-10 | 2026-09-02 00:56:25 | 48.26310 | 17.20352 | 342° | 18km/h | 27852m | 6.6m/s | 0°C | 0% | 0hPa | 0V | 00:00:00 | 00:00:00 | 00:00:00 | |
| OE3JTB-15 | 2026-09-02 00:56:20 | 48.26297 | 17.20352 | 355° | 16km/h | 27814m | 3.9m/s | 0°C | 0% | 0hPa | 0V | 00:00:00 | 00:00:00 | 00:00:00 | |
| OE5MMP-10 | 2026-09-02 00:56:17 | 48.26290 | 17.20360 | 294° | 18km/h | 27802m | 8.3m/s | 0°C | 0% | 0hPa | 0V | 00:00:00 | 00:00:00 | 00:00:00 | |
| ATIDSZ-14 | 2026-09-02 00:56:12 | 48.26276 | 17.20392 | 347° | 18km/h | 27771m | 5.0m/s | 0°C | 0% | 0hPa | 0V | 00:00:00 | 00:00:00 | 00:00:00 | |
| OE5DXL-15 | 2026-09-02 00:56:08 | 48.26269 | 17.20403 | 297° | 15km/h | 27746m | 6.8m/s | 0°C | 0% | 0hPa | 0V | 00:00:00 | 00:00:00 | 00:00:00 | |
| OE5MMP-10 | 2026-09-02 00:56:07 | 48.26267 | 17.20405 | 325° | 15km/h | 27739m | 6.7m/s | 0°C | 0% | 0hPa | 0V | 00:00:00 | 00:00:00 | 00:00:00 | |
| OE3OSB-13 | 2026-09-02 00:56:01 | 48.26262 | 17.20440 | 11° | 11km/h | 27697m | 7.8m/s | -46.7°C | 0.0% | 16.1hPa | 0V | 00:00:00 | 00:00:00 | 00:00:00 | |
| OE5MMP-10 | 2026-09-02 00:55:57 | 48.26253 | 17.20432 | 15° | 15km/h | 27679m | 6.4m/s | 0°C | 0% | 0hPa | 0V | 00:00:00 | 00:00:00 | 00:00:00 | |
| ATIDSZ-14 | 2026-09-02 00:55:51 | 48.26251 | 17.20468 | 287° | 20km/h | 27645m | 5.2m/s | 0°C | 0% | 0hPa | 0V | 00:00:00 | 00:00:00 | 00:00:00 | |
| PETON7-10 | 2026-09-02 00:55:50 | 48.26251 | 17.20475 | 267° | 11km/h | 27639m | 7.3m/s | 0°C | 0% | 0hPa | 0V | 00:00:00 | 00:00:00 | 00:00:00 | |
| OE5MMP-10 | 2026-09-02 00:55:47 | 48.26253 | 17.20487 | 221° | 16km/h | 27622m | 7.4m/s | 0°C | 0% | 0hPa | 0V | 00:00:00 | 00:00:00 | 00:00:00 | |
| OE5DXL-15 | 2026-09-02 00:55:38 | 48.26252 | 17.20529 | 284° | 11km/h | 27563m | 4.5m/s | 0°C | 0% | 0hPa | 0V | 00:00:00 | 00:00:00 | 00:00:00 | |
| OE5MMP-10 | 2026-09-02 00:55:35 | 48.26255 | 17.20546 | 214° | 13km/h | 27545m | 4.9m/s | 0°C | 0% | 0hPa | 0V | 00:00:00 | 00:00:00 | 00:00:00 | |
| ATIDSZ-14 | 2026-09-02 00:55:31 | 48.26251 | 17.20543 | 349° | 4km/h | 27520m | 5.6m/s | 0°C | 0% | 0hPa | 0V | 00:00:00 | 00:00:00 | 00:00:00 | |
| OE3OSB-13 | 2026-09-02 00:55:30 | 48.26253 | 17.20549 | 251° | 16km/h | 27507m | 5.6m/s | -47.1°C | 0.0% | 16.7hPa | 0V | 00:00:00 | 00:00:00 | 00:00:00 | |
| OE5MMP-10 | 2026-09-02 00:55:25 | 48.26249 | 17.20577 | 322° | 9km/h | 27484m | 5.0m/s | 0°C | 0% | 0hPa | 0V | 00:00:00 | 00:00:00 | 00:00:00 | |
| OE3JTB-15 | 2026-09-02 00:55:22 | 48.26248 | 17.20575 | 107° | 11km/h | 27464m | 5.3m/s | 0°C | 0% | 0hPa | 0V | 00:00:00 | 00:00:00 | 00:00:00 | |
| OE5MMP-10 | 2026-09-02 00:55:15 | 48.26249 | 17.20581 | 236° | 13km/h | 27421m | 4.6m/s | 0°C | 0% | 0hPa | 0V | 00:00:00 | 00:00:00 | 00:00:00 | |
| OE5DXL-15 | 2026-09-02 00:55:08 | 48.26247 | 17.20581 | 160° | 11km/h | 27380m | 5.8m/s | 0°C | 0% | 0hPa | 0V | 00:00:00 | 00:00:00 | 00:00:00 | |
| OE5MMP-10 | 2026-09-02 00:55:05 | 48.26258 | 17.20570 | 102° | 7km/h | 27362m | 6.3m/s | 0°C | 0% | 0hPa | 0V | 00:00:00 | 00:00:00 | 00:00:00 | |
| OE3OSB-13 | 2026-09-02 00:54:59 | 48.26253 | 17.20572 | 329° | 7km/h | 27319m | 6.1m/s | -47.5°C | 0.0% | 17.2hPa | 0V | 00:00:00 | 00:00:00 | 00:00:00 | |
| OE5MMP-10 | 2026-09-02 00:54:55 | 48.26254 | 17.20568 | 147° | 13km/h | 27301m | 8.0m/s | 0°C | 0% | 0hPa | 0V | 00:00:00 | 00:00:00 | 00:00:00 | |
| OE3JTB-15 | 2026-09-02 00:54:53 | 48.26260 | 17.20562 | 139° | 15km/h | 27290m | 4.2m/s | 0°C | 0% | 0hPa | 0V | 00:00:00 | 00:00:00 | 00:00:00 | |
| ATIDSZ-14 | 2026-09-02 00:54:50 | 48.26253 | 17.20557 | 357° | 24km/h | 27270m | 6.4m/s | 0°C | 0% | 0hPa | 0V | 00:00:00 | 00:00:00 | 00:00:00 | |
| OE5MMP-10 | 2026-09-02 00:54:45 | 48.26241 | 17.20568 | 107° | 16km/h | 27238m | 6.9m/s | 0°C | 0% | 0hPa | 0V | 00:00:00 | 00:00:00 | 00:00:00 | |
| OE5DXL-15 | 2026-09-02 00:54:38 | 48.26236 | 17.20567 | 9° | 18km/h | 27196m | 8.0m/s | 0°C | 0% | 0hPa | 0V | 00:00:00 | 00:00:00 | 00:00:00 | |
| OE5MMP-10 | 2026-09-02 00:54:35 | 48.26215 | 17.20560 | 6° | 11km/h | 27178m | 5.8m/s | 0°C | 0% | 0hPa | 0V | 00:00:00 | 00:00:00 | 00:00:00 | |
| ATIDSZ-14 | 2026-09-02 00:54:30 | 48.26215 | 17.20556 | 128° | 13km/h | 27145m | 5.4m/s | 0°C | 0% | 0hPa | 0V | 00:00:00 | 00:00:00 | 00:00:00 | |
| OE3OSB-13 | 2026-09-02 00:54:28 | 48.26214 | 17.20552 | 333° | 15km/h | 27126m | 6.6m/s | -48.6°C | 0.0% | 17.8hPa | 0V | 00:00:00 | 00:00:00 | 00:00:00 | |
| OE5MMP-10 | 2026-09-02 00:54:25 | 48.26202 | 17.20559 | 347° | 18km/h | 27113m | 7.7m/s | 0°C | 0% | 0hPa | 0V | 00:00:00 | 00:00:00 | 00:00:00 | |
| OE3JTB-15 | 2026-09-02 00:54:18 | 48.26193 | 17.20564 | 167° | 11km/h | 27068m | 6.6m/s | 0°C | 0% | 0hPa | 0V | 00:00:00 | 00:00:00 | 00:00:00 | |
| OE5MMP-10 | 2026-09-02 00:54:15 | 48.26192 | 17.20562 | 331° | 13km/h | 27049m | 7.8m/s | 0°C | 0% | 0hPa | 0V | 00:00:00 | 00:00:00 | 00:00:00 | |
| ATIDSZ-14 | 2026-09-02 00:54:09 | 48.26176 | 17.20562 | 115° | 5km/h | 27012m | 6.4m/s | 0°C | 0% | 0hPa | 0V | 00:00:00 | 00:00:00 | 00:00:00 | |
| OE5DXL-15 | 2026-09-02 00:54:08 | 48.26177 | 17.20561 | 189° | 13km/h | 27005m | 7.5m/s | 0°C | 0% | 0hPa | 0V | 00:00:00 | 00:00:00 | 00:00:00 | |
| OE5MMP-10 | 2026-09-02 00:54:05 | 48.26184 | 17.20564 | 168° | 7km/h | 26985m | 7.2m/s | 0°C | 0% | 0hPa | 0V | 00:00:00 | 00:00:00 | 00:00:00 | |
| PETON7-10 | 2026-09-02 00:54:01 | 48.26187 | 17.20567 | 293° | 15km/h | 26960m | 6.5m/s | 0°C | 0% | 0hPa | 0V | 00:00:00 | 00:00:00 | 00:00:00 | |
| OE3OSB-13 | 2026-09-02 00:53:56 | 48.26187 | 17.20567 | 128° | 9km/h | 26931m | 4.6m/s | -49.7°C | 0.0% | 18.4hPa | 0V | 00:00:00 | 00:00:00 | 00:00:00 | |
| OE5MMP-10 | 2026-09-02 00:53:55 | 48.26188 | 17.20565 | 167° | 16km/h | 26925m | 6.4m/s | 0°C | 0% | 0hPa | 0V | 00:00:00 | 00:00:00 | 00:00:00 | |
| OE3JTB-15 | 2026-09-02 00:53:49 | 48.26174 | 17.20582 | 16° | 16km/h | 26886m | 5.3m/s | 0°C | 0% | 0hPa | 0V | 00:00:00 | 00:00:00 | 00:00:00 | |
| OE5MMP-10 | 2026-09-02 00:53:45 | 48.26161 | 17.20585 | 264° | 15km/h | 26861m | 7.2m/s | 0°C | 0% | 0hPa | 0V | 00:00:00 | 00:00:00 | 00:00:00 | |
| OE5DXL-15 | 2026-09-02 00:53:37 | 48.26149 | 17.20612 | 15° | 13km/h | 26811m | 6.9m/s | 0°C | 0% | 0hPa | 0V | 00:00:00 | 00:00:00 | 00:00:00 | |
| OE5MMP-10 | 2026-09-02 00:53:35 | 48.26143 | 17.20606 | 52° | 16km/h | 26799m | 4.7m/s | 0°C | 0% | 0hPa | 0V | 00:00:00 | 00:00:00 | 00:00:00 | |
| PETON7-10 | 2026-09-02 00:53:30 | 48.26153 | 17.20624 | 212° | 13km/h | 26767m | 5.3m/s | 0°C | 0% | 0hPa | 0V | 00:00:00 | 00:00:00 | 00:00:00 | |
| ATIDSZ-14 | 2026-09-02 00:53:29 | 48.26156 | 17.20627 | 210° | 9km/h | 26762m | 4.7m/s | 0°C | 0% | 0hPa | 0V | 00:00:00 | 00:00:00 | 00:00:00 | |
| OE3OSB-13 | 2026-09-02 00:53:26 | 48.26146 | 17.20631 | 354° | 16km/h | 26736m | 4.4m/s | -50.0°C | 0.0% | 19.0hPa | 0V | 00:00:00 | 00:00:00 | 00:00:00 | |
| OE5MMP-10 | 2026-09-02 00:53:24 | 48.26143 | 17.20630 | 28° | 16km/h | 26731m | 5.4m/s | 0°C | 0% | 0hPa | 0V | 00:00:00 | 00:00:00 | 00:00:00 | |
| PETON7-10 | 2026-09-02 00:53:15 | 48.26153 | 17.20636 | 32° | 11km/h | 26676m | 6.6m/s | 0°C | 0% | 0hPa | 0V | 00:00:00 | 00:00:00 | 00:00:00 | |
| OE5MMP-10 | 2026-09-02 00:53:14 | 48.26149 | 17.20631 | 52° | 11km/h | 26670m | 5.5m/s | 0°C | 0% | 0hPa | 0V | 00:00:00 | 00:00:00 | 00:00:00 | |
| ATIDSZ-14 | 2026-09-02 00:53:09 | 48.26145 | 17.20623 | 316° | 4km/h | 26640m | 7.2m/s | 0°C | 0% | 0hPa | 0V | 00:00:00 | 00:00:00 | 00:00:00 | |
| OE5DXL-15 | 2026-09-02 00:53:06 | 48.26139 | 17.20627 | 328° | 9km/h | 26621m | 6.1m/s | 0°C | 0% | 0hPa | 0V | 00:00:00 | 00:00:00 | 00:00:00 | |
| OE5MMP-10 | 2026-09-02 00:53:04 | 48.26134 | 17.20634 | 305° | 7km/h | 26608m | 5.6m/s | 0°C | 0% | 0hPa | 0V | 00:00:00 | 00:00:00 | 00:00:00 | |
| PETON7-10 | 2026-09-02 00:53:00 | 48.26133 | 17.20625 | 117° | 7km/h | 26583m | 5.7m/s | 0°C | 0% | 0hPa | 0V | 00:00:00 | 00:00:00 | 00:00:00 | |
| OE5MMP-10 | 2026-09-02 00:52:54 | 48.26136 | 17.20627 | 10° | 9km/h | 26544m | 4.9m/s | 0°C | 0% | 0hPa | 0V | 00:00:00 | 00:00:00 | 00:00:00 | |
| ATIDSZ-14 | 2026-09-02 00:52:49 | 48.26134 | 17.20630 | 167° | 7km/h | 26511m | 6.3m/s | 0°C | 0% | 0hPa | 0V | 00:00:00 | 00:00:00 | 00:00:00 | |
| OE5MMP-10 | 2026-09-02 00:52:44 | 48.26140 | 17.20639 | 313° | 5km/h | 26479m | 7.6m/s | 0°C | 0% | 0hPa | 0V | 00:00:00 | 00:00:00 | 00:00:00 | |
| PETON7-10 | 2026-09-02 00:52:43 | 48.26138 | 17.20638 | 32° | 9km/h | 26472m | 7.8m/s | 0°C | 0% | 0hPa | 0V | 00:00:00 | 00:00:00 | 00:00:00 | |
| OE3JTB-15 | 2026-09-02 00:52:37 | 48.26130 | 17.20626 | 122° | 7km/h | 26429m | 5.5m/s | 0°C | 0% | 0hPa | 0V | 00:00:00 | 00:00:00 | 00:00:00 | |
| OE5MMP-10 | 2026-09-02 00:52:34 | 48.26132 | 17.20625 | 239° | 9km/h | 26416m | 8.0m/s | 0°C | 0% | 0hPa | 0V | 00:00:00 | 00:00:00 | 00:00:00 | |
| OE5DXL-15 | 2026-09-02 00:52:32 | 48.26132 | 17.20631 | 290° | 9km/h | 26404m | 4.5m/s | 0°C | 0% | 0hPa | 0V | 00:00:00 | 00:00:00 | 00:00:00 | |
| OE5MMP-10 | 2026-09-02 00:52:24 | 48.26126 | 17.20622 | 195° | 9km/h | 26355m | 7.3m/s | 0°C | 0% | 0hPa | 0V | 00:00:00 | 00:00:00 | 00:00:00 | |
| OE3OSB-13 | 2026-09-02 00:52:23 | 48.26127 | 17.20619 | 70° | 7km/h | 26341m | 5.8m/s | -49.6°C | 0.0% | 20.3hPa | 0V | 00:00:00 | 00:00:00 | 00:00:00 | |
| OE5MMP-10 | 2026-09-02 00:52:14 | 48.26121 | 17.20609 | 174° | 13km/h | 26293m | 7.0m/s | 0°C | 0% | 0hPa | 0V | 00:00:00 | 00:00:00 | 00:00:00 | |
| PETON7-10 | 2026-09-02 00:52:13 | 48.26122 | 17.20609 | 179° | 7km/h | 26287m | 5.6m/s | 0°C | 0% | 0hPa | 0V | 00:00:00 | 00:00:00 | 00:00:00 | |
| ATIDSZ-14 | 2026-09-02 00:52:08 | 48.26106 | 17.20606 | 12° | 18km/h | 26257m | 5.5m/s | 0°C | 0% | 0hPa | 0V | 00:00:00 | 00:00:00 | 00:00:00 | |
| OE5MMP-10 | 2026-09-02 00:52:04 | 48.26101 | 17.20607 | 130° | 9km/h | 26231m | 7.3m/s | 0°C | 0% | 0hPa | 0V | 00:00:00 | 00:00:00 | 00:00:00 | |
| OE5DXL-15 | 2026-09-02 00:52:02 | 48.26102 | 17.20603 | 75° | 11km/h | 26220m | 4.8m/s | 0°C | 0% | 0hPa | 0V | 00:00:00 | 00:00:00 | 00:00:00 | |
| OE3OSB-13 | 2026-09-02 00:51:52 | 48.26087 | 17.20603 | 9° | 5km/h | 26150m | 6.0m/s | -50.3°C | 0.0% | 20.9hPa | 0V | 00:00:00 | 00:00:00 | 00:00:00 | |
| ATIDSZ-14 | 2026-09-02 00:51:47 | 48.26081 | 17.20603 | 315° | 7km/h | 26127m | 6.1m/s | 0°C | 0% | 0hPa | 0V | 00:00:00 | 00:00:00 | 00:00:00 | |
| OE5MMP-10 | 2026-09-02 00:51:44 | 48.26075 | 17.20611 | 342° | 11km/h | 26108m | 6.8m/s | 0°C | 0% | 0hPa | 0V | 00:00:00 | 00:00:00 | 00:00:00 | |
| PETON7-10 | 2026-09-02 00:51:43 | 48.26071 | 17.20611 | 17° | 11km/h | 26102m | 5.8m/s | 0°C | 0% | 0hPa | 0V | 00:00:00 | 00:00:00 | 00:00:00 | |
| OE5DXL-15 | 2026-09-02 00:51:32 | 48.26049 | 17.20646 | 337° | 11km/h | 26033m | 7.6m/s | 0°C | 0% | 0hPa | 0V | 00:00:00 | 00:00:00 | 00:00:00 | |
| PETON7-10 | 2026-09-02 00:51:26 | 48.26042 | 17.20651 | 283° | 7km/h | 25996m | 6.5m/s | 0°C | 0% | 0hPa | 0V | 00:00:00 | 00:00:00 | 00:00:00 | |
| OE5MMP-10 | 2026-09-02 00:51:24 | 48.26040 | 17.20653 | 352° | 13km/h | 25983m | 5.2m/s | 0°C | 0% | 0hPa | 0V | 00:00:00 | 00:00:00 | 00:00:00 | |
| OE3JTB-15 | 2026-09-02 00:51:23 | 48.26037 | 17.20655 | 315° | 11km/h | 25977m | 6.8m/s | 0°C | 0% | 0hPa | 0V | 00:00:00 | 00:00:00 | 00:00:00 | |
| OE3OSB-13 | 2026-09-02 00:51:21 | 48.26027 | 17.20668 | 340° | 15km/h | 25959m | 6.7m/s | -50.6°C | 0.0% | 21.6hPa | 0V | 00:00:00 | 00:00:00 | 00:00:00 | |
| OE5MMP-10 | 2026-09-02 00:51:14 | 48.26017 | 17.20675 | 264° | 13km/h | 25920m | 5.5m/s | 0°C | 0% | 0hPa | 0V | 00:00:00 | 00:00:00 | 00:00:00 | |
| ATIDSZ-14 | 2026-09-02 00:51:06 | 48.25997 | 17.20695 | 28° | 11km/h | 25869m | 5.4m/s | 0°C | 0% | 0hPa | 0V | 00:00:00 | 00:00:00 | 00:00:00 | |
| OE5MMP-10 | 2026-09-02 00:51:04 | 48.25995 | 17.20696 | 277° | 7km/h | 25857m | 7.8m/s | 0°C | 0% | 0hPa | 0V | 00:00:00 | 00:00:00 | 00:00:00 | |
| OE5DXL-15 | 2026-09-02 00:51:02 | 48.25996 | 17.20703 | 258° | 11km/h | 25844m | 5.5m/s | 0°C | 0% | 0hPa | 0V | 00:00:00 | 00:00:00 | 00:00:00 | |
| OE3OSB-13 | 2026-09-02 00:50:50 | 48.25984 | 17.20723 | 293° | 5km/h | 25762m | 6.9m/s | -51.3°C | 0.0% | 22.3hPa | 0V | 00:00:00 | 00:00:00 | 00:00:00 | |
| OE3JTB-15 | 2026-09-02 00:50:49 | 48.25980 | 17.20725 | 17° | 16km/h | 25749m | 4.9m/s | 0°C | 0% | 0hPa | 0V | 00:00:00 | 00:00:00 | 00:00:00 | |
| ATIDSZ-14 | 2026-09-02 00:50:46 | 48.25977 | 17.20725 | 341° | 13km/h | 25743m | 7.2m/s | 0°C | 0% | 0hPa | 0V | 00:00:00 | 00:00:00 | 00:00:00 | |
| OE5MMP-10 | 2026-09-02 00:50:41 | 48.25965 | 17.20740 | 313° | 15km/h | 25711m | 4.0m/s | 0°C | 0% | 0hPa | 0V | 00:00:00 | 00:00:00 | 00:00:00 | |
| OE5DXL-15 | 2026-09-02 00:50:32 | 48.25938 | 17.20782 | 300° | 15km/h | 25655m | 5.3m/s | 0°C | 0% | 0hPa | 0V | 00:00:00 | 00:00:00 | 00:00:00 | |
| OE5MMP-10 | 2026-09-02 00:50:29 | 48.25937 | 17.20791 | 224° | 18km/h | 25636m | 6.1m/s | 0°C | 0% | 0hPa | 0V | 00:00:00 | 00:00:00 | 00:00:00 | |
| ATIDSZ-14 | 2026-09-02 00:50:26 | 48.25937 | 17.20800 | 306° | 15km/h | 25618m | 5.5m/s | 0°C | 0% | 0hPa | 0V | 00:00:00 | 00:00:00 | 00:00:00 | |
| OE3OSB-13 | 2026-09-02 00:50:19 | 48.25902 | 17.20810 | 289° | 5km/h | 25571m | 6.7m/s | -51.1°C | 0.0% | 23.1hPa | 0V | 00:00:00 | 00:00:00 | 00:00:00 | |
| OE5MMP-10 | 2026-09-02 00:50:18 | 48.25902 | 17.20810 | 290° | 13km/h | 25572m | 6.6m/s | 0°C | 0% | 0hPa | 0V | 00:00:00 | 00:00:00 | 00:00:00 | |
| OE3JTB-15 | 2026-09-02 00:50:16 | 48.25903 | 17.20816 | 301° | 16km/h | 25540m | 5.6m/s | 0°C | 0% | 0hPa | 0V | 00:00:00 | 00:00:00 | 00:00:00 | |
| OE5MMP-10 | 2026-09-02 00:50:08 | 48.25880 | 17.20834 | 314° | 16km/h | 25510m | 6.5m/s | 0°C | 0% | 0hPa | 0V | 00:00:00 | 00:00:00 | 00:00:00 | |
| ATIDSZ-14 | 2026-09-02 00:50:05 | 48.25878 | 17.20849 | 234° | 9km/h | 25491m | 7.0m/s | 0°C | 0% | 0hPa | 0V | 00:00:00 | 00:00:00 | 00:00:00 | |
| OE5DXL-15 | 2026-09-02 00:50:02 | 48.25880 | 17.20858 | 289° | 15km/h | 25474m | 6.5m/s | 0°C | 0% | 0hPa | 0V | 00:00:00 | 00:00:00 | 00:00:00 | |
| OE3OSB-13 | 2026-09-02 00:49:48 | 48.25859 | 17.20925 | 342° | 13km/h | 25381m | 6.7m/s | -50.6°C | 0.0% | 23.8hPa | 0V | 00:00:00 | 00:00:00 | 00:00:00 | |
| OE5MMP-10 | 2026-09-02 00:49:46 | 48.25857 | 17.20927 | 323° | 13km/h | 25376m | 4.8m/s | 0°C | 0% | 0hPa | 0V | 00:00:00 | 00:00:00 | 00:00:00 | |
| ATIDSZ-14 | 2026-09-02 00:49:45 | 48.25856 | 17.20929 | 257° | 7km/h | 25370m | 5.5m/s | 0°C | 0% | 0hPa | 0V | 00:00:00 | 00:00:00 | 00:00:00 | |
| PETON7-10 | 2026-09-02 00:49:42 | 48.25865 | 17.20946 | 221° | 15km/h | 25351m | 5.4m/s | 0°C | 0% | 0hPa | 0V | 00:00:00 | 00:00:00 | 00:00:00 | |
| OE5MMP-10 | 2026-09-02 00:49:36 | 48.25868 | 17.20962 | 308° | 13km/h | 25316m | 4.6m/s | 0°C | 0% | 0hPa | 0V | 00:00:00 | 00:00:00 | 00:00:00 | |
| OE5DXL-15 | 2026-09-02 00:49:32 | 48.25870 | 17.20967 | 168° | 20km/h | 25294m | 5.0m/s | 0°C | 0% | 0hPa | 0V | 00:00:00 | 00:00:00 | 00:00:00 | |
| PETON7-10 | 2026-09-02 00:49:27 | 48.25893 | 17.20978 | 207° | 16km/h | 25266m | 6.1m/s | 0°C | 0% | 0hPa | 0V | 00:00:00 | 00:00:00 | 00:00:00 | |
| OE5MMP-10 | 2026-09-02 00:49:26 | 48.25894 | 17.20979 | 183° | 20km/h | 25261m | 5.1m/s | 0°C | 0% | 0hPa | 0V | 00:00:00 | 00:00:00 | 00:00:00 | |
| ATIDSZ-14 | 2026-09-02 00:49:24 | 48.25895 | 17.20986 | 271° | 13km/h | 25249m | 7.0m/s | 0°C | 0% | 0hPa | 0V | 00:00:00 | 00:00:00 | 00:00:00 | |
| OE3OSB-13 | 2026-09-02 00:49:17 | 48.25933 | 17.21000 | 190° | 22km/h | 25202m | 4.5m/s | -50.6°C | 0.0% | 24.5hPa | 0V | 00:00:00 | 00:00:00 | 00:00:00 | |
| OE5MMP-10 | 2026-09-02 00:49:15 | 48.25938 | 17.21001 | 195° | 16km/h | 25196m | 7.4m/s | 0°C | 0% | 0hPa | 0V | 00:00:00 | 00:00:00 | 00:00:00 | |
| PETON7-10 | 2026-09-02 00:49:12 | 48.25937 | 17.21009 | 285° | 20km/h | 25176m | 6.2m/s | 0°C | 0% | 0hPa | 0V | 00:00:00 | 00:00:00 | 00:00:00 | |
| OE3JTB-15 | 2026-09-02 00:49:11 | 48.25943 | 17.21019 | 178° | 15km/h | 25162m | 6.8m/s | 0°C | 0% | 0hPa | 0V | 00:00:00 | 00:00:00 | 00:00:00 | |
| OE5MMP-10 | 2026-09-02 00:49:06 | 48.25971 | 17.21011 | 179° | 15km/h | 25137m | 5.5m/s | 0°C | 0% | 0hPa | 0V | 00:00:00 | 00:00:00 | 00:00:00 | |
| ATIDSZ-14 | 2026-09-02 00:49:05 | 48.25977 | 17.21012 | 196° | 24km/h | 25133m | 4.2m/s | 0°C | 0% | 0hPa | 0V | 00:00:00 | 00:00:00 | 00:00:00 | |
| OE5DXL-15 | 2026-09-02 00:49:02 | 48.25985 | 17.21014 | 197° | 13km/h | 25120m | 6.8m/s | 0°C | 0% | 0hPa | 0V | 00:00:00 | 00:00:00 | 00:00:00 | |
| OE3OSB-13 | 2026-09-02 00:48:46 | 48.26029 | 17.21051 | 198° | 7km/h | 25022m | 5.4m/s | -50.9°C | 0.0% | 25.3hPa | 0V | 00:00:00 | 00:00:00 | 00:00:00 | |
| ATIDSZ-14 | 2026-09-02 00:48:44 | 48.26031 | 17.21050 | 162° | 11km/h | 25015m | 7.7m/s | 0°C | 0% | 0hPa | 0V | 00:00:00 | 00:00:00 | 00:00:00 | |
| PETON7-10 | 2026-09-02 00:48:42 | 48.26037 | 17.21047 | 172° | 11km/h | 25004m | 4.5m/s | 0°C | 0% | 0hPa | 0V | 00:00:00 | 00:00:00 | 00:00:00 | |
| OE5MMP-10 | 2026-09-02 00:48:41 | 48.26039 | 17.21047 | 227° | 13km/h | 24998m | 6.9m/s | 0°C | 0% | 0hPa | 0V | 00:00:00 | 00:00:00 | 00:00:00 | |
| OE3JTB-15 | 2026-09-02 00:48:39 | 48.26041 | 17.21073 | 221° | 9km/h | 24968m | 5.4m/s | 0°C | 0% | 0hPa | 0V | 00:00:00 | 00:00:00 | 00:00:00 | |
| OE5DXL-15 | 2026-09-02 00:48:32 | 48.26049 | 17.21087 | 268° | 9km/h | 24945m | 6.0m/s | 0°C | 0% | 0hPa | 0V | 00:00:00 | 00:00:00 | 00:00:00 | |
| OE5MMP-10 | 2026-09-02 00:48:30 | 48.26049 | 17.21095 | 262° | 5km/h | 24935m | 5.8m/s | 0°C | 0% | 0hPa | 0V | 00:00:00 | 00:00:00 | 00:00:00 | |
| PETON7-10 | 2026-09-02 00:48:27 | 48.26052 | 17.21098 | 223° | 7km/h | 24918m | 5.2m/s | 0°C | 0% | 0hPa | 0V | 00:00:00 | 00:00:00 | 00:00:00 | |
| ATIDSZ-14 | 2026-09-02 00:48:24 | 48.26049 | 17.21100 | 10° | 7km/h | 24900m | 5.4m/s | 0°C | 0% | 0hPa | 0V | 00:00:00 | 00:00:00 | 00:00:00 | |
| OE5MMP-10 | 2026-09-02 00:48:20 | 48.26051 | 17.21101 | 220° | 9km/h | 24876m | 7.1m/s | 0°C | 0% | 0hPa | 0V | 00:00:00 | 00:00:00 | 00:00:00 | |
| OE3OSB-13 | 2026-09-02 00:48:15 | 48.26064 | 17.21107 | 88° | 2km/h | 24840m | 6.2m/s | -51.2°C | 0.0% | 26.0hPa | 0V | 00:00:00 | 00:00:00 | 00:00:00 | |
| OE3JTB-15 | 2026-09-02 00:48:05 | 48.26090 | 17.21110 | 161° | 13km/h | 24776m | 6.0m/s | 0°C | 0% | 0hPa | 0V | 00:00:00 | 00:00:00 | 00:00:00 | |
| ATIDSZ-14 | 2026-09-02 00:48:03 | 48.26090 | 17.21110 | 161° | 11km/h | 24776m | 6.0m/s | 0°C | 0% | 0hPa | 0V | 00:00:00 | 00:00:00 | 00:00:00 | |
| OE5DXL-15 | 2026-09-02 00:48:02 | 48.26092 | 17.21108 | 130° | 13km/h | 24769m | 6.4m/s | 0°C | 0% | 0hPa | 0V | 00:00:00 | 00:00:00 | 00:00:00 | |
| OE5MMP-10 | 2026-09-02 00:48:00 | 48.26093 | 17.21103 | 107° | 13km/h | 24759m | 3.9m/s | 0°C | 0% | 0hPa | 0V | 00:00:00 | 00:00:00 | 00:00:00 | |
| OE3OSB-13 | 2026-09-02 00:47:44 | 48.26122 | 17.21049 | 144° | 5km/h | 24662m | 7.3m/s | -51.8°C | 0.0% | 26.8hPa | 0V | 00:00:00 | 00:00:00 | 00:00:00 | |
| ATIDSZ-14 | 2026-09-02 00:47:42 | 48.26122 | 17.21049 | 287° | 4km/h | 24655m | 6.6m/s | 0°C | 0% | 0hPa | 0V | 00:00:00 | 00:00:00 | 00:00:00 | |
| OE5MMP-10 | 2026-09-02 00:47:38 | 48.26121 | 17.21049 | 95° | 13km/h | 24632m | 5.2m/s | 0°C | 0% | 0hPa | 0V | 00:00:00 | 00:00:00 | 00:00:00 | |
| OE3JTB-15 | 2026-09-02 00:47:35 | 48.26116 | 17.21018 | 69° | 13km/h | 24609m | 4.7m/s | 0°C | 0% | 0hPa | 0V | 00:00:00 | 00:00:00 | 00:00:00 | |
| OE5DXL-15 | 2026-09-02 00:47:32 | 48.26117 | 17.21008 | 136° | 11km/h | 24597m | 7.2m/s | 0°C | 0% | 0hPa | 0V | 00:00:00 | 00:00:00 | 00:00:00 | |
| OE5MMP-10 | 2026-09-02 00:47:26 | 48.26116 | 17.21014 | 12° | 9km/h | 24560m | 6.6m/s | 0°C | 0% | 0hPa | 0V | 00:00:00 | 00:00:00 | 00:00:00 | |
| PETON7-10 | 2026-09-02 00:47:23 | 48.26112 | 17.21006 | 40° | 13km/h | 24542m | 7.5m/s | 0°C | 0% | 0hPa | 0V | 00:00:00 | 00:00:00 | 00:00:00 | |
| ATIDSZ-14 | 2026-09-02 00:47:22 | 48.26109 | 17.21003 | 38° | 11km/h | 24536m | 4.8m/s | 0°C | 0% | 0hPa | 0V | 00:00:00 | 00:00:00 | 00:00:00 | |
| OE5MMP-10 | 2026-09-02 00:47:16 | 48.26113 | 17.20998 | 329° | 15km/h | 24500m | 5.8m/s | 0°C | 0% | 0hPa | 0V | 00:00:00 | 00:00:00 | 00:00:00 | |
| OE3OSB-13 | 2026-09-02 00:47:13 | 48.26109 | 17.20999 | 54° | 9km/h | 24477m | 6.0m/s | -51.9°C | 0.0% | 27.6hPa | 0V | 00:00:00 | 00:00:00 | 00:00:00 | |
| PETON7-10 | 2026-09-02 00:47:07 | 48.26115 | 17.20972 | 164° | 13km/h | 24446m | 5.8m/s | 0°C | 0% | 0hPa | 0V | 00:00:00 | 00:00:00 | 00:00:00 | |
| OE5MMP-10 | 2026-09-02 00:47:06 | 48.26120 | 17.20969 | 149° | 11km/h | 24441m | 6.0m/s | 0°C | 0% | 0hPa | 0V | 00:00:00 | 00:00:00 | 00:00:00 | |
| OE3JTB-15 | 2026-09-02 00:47:04 | 48.26126 | 17.20962 | 128° | 11km/h | 24418m | 6.9m/s | 0°C | 0% | 0hPa | 0V | 00:00:00 | 00:00:00 | 00:00:00 | |
| OE5DXL-15 | 2026-09-02 00:47:02 | 48.26126 | 17.20962 | 128° | 11km/h | 24418m | 6.9m/s | 0°C | 0% | 0hPa | 0V | 00:00:00 | 00:00:00 | 00:00:00 | |
| ATIDSZ-14 | 2026-09-02 00:47:01 | 48.26127 | 17.20960 | 163° | 7km/h | 24413m | 5.0m/s | 0°C | 0% | 0hPa | 0V | 00:00:00 | 00:00:00 | 00:00:00 | |
| OE5MMP-10 | 2026-09-02 00:46:56 | 48.26129 | 17.20938 | 118° | 15km/h | 24382m | 7.1m/s | 0°C | 0% | 0hPa | 0V | 00:00:00 | 00:00:00 | 00:00:00 | |
| PETON7-10 | 2026-09-02 00:46:52 | 48.26136 | 17.20920 | 29° | 11km/h | 24358m | 6.1m/s | 0°C | 0% | 0hPa | 0V | 00:00:00 | 00:00:00 | 00:00:00 | |
| OE5MMP-10 | 2026-09-02 00:46:46 | 48.26123 | 17.20919 | 77° | 9km/h | 24323m | 5.6m/s | 0°C | 0% | 0hPa | 0V | 00:00:00 | 00:00:00 | 00:00:00 | |
| OE3OSB-13 | 2026-09-02 00:46:42 | 48.26132 | 17.20897 | 126° | 7km/h | 24294m | 5.9m/s | -51.9°C | 0.0% | 28.5hPa | 0V | 00:00:00 | 00:00:00 | 00:00:00 | |
| ATIDSZ-14 | 2026-09-02 00:46:40 | 48.26132 | 17.20895 | 102° | 4km/h | 24289m | 5.9m/s | 0°C | 0% | 0hPa | 0V | 00:00:00 | 00:00:00 | 00:00:00 | |
| PETON7-10 | 2026-09-02 00:46:37 | 48.26129 | 17.20895 | 314° | 9km/h | 24271m | 6.6m/s | 0°C | 0% | 0hPa | 0V | 00:00:00 | 00:00:00 | 00:00:00 | |
| OE5MMP-10 | 2026-09-02 00:46:36 | 48.26127 | 17.20899 | 296° | 7km/h | 24265m | 4.9m/s | 0°C | 0% | 0hPa | 0V | 00:00:00 | 00:00:00 | 00:00:00 | |
| OE5DXL-15 | 2026-09-02 00:46:32 | 48.26123 | 17.20896 | 94° | 11km/h | 24241m | 5.9m/s | 0°C | 0% | 0hPa | 0V | 00:00:00 | 00:00:00 | 00:00:00 | |
| OE3JTB-15 | 2026-09-02 00:46:30 | 48.26127 | 17.20890 | 316° | 16km/h | 24214m | 5.0m/s | 0°C | 0% | 0hPa | 0V | 00:00:00 | 00:00:00 | 00:00:00 | |
| OE5MMP-10 | 2026-09-02 00:46:26 | 48.26127 | 17.20891 | 349° | 11km/h | 24209m | 4.7m/s | 0°C | 0% | 0hPa | 0V | 00:00:00 | 00:00:00 | 00:00:00 | |
| PETON7-10 | 2026-09-02 00:46:20 | 48.26121 | 17.20917 | 352° | 15km/h | 24173m | 5.7m/s | 0°C | 0% | 0hPa | 0V | 00:00:00 | 00:00:00 | 00:00:00 | |
| OE5MMP-10 | 2026-09-02 00:46:16 | 48.26120 | 17.20922 | 232° | 15km/h | 24150m | 5.2m/s | 0°C | 0% | 0hPa | 0V | 00:00:00 | 00:00:00 | 00:00:00 | |
| OE3OSB-13 | 2026-09-02 00:46:11 | 48.26121 | 17.20957 | 253° | 24km/h | 24115m | 4.3m/s | -52.4°C | 0.0% | 29.4hPa | 0V | 00:00:00 | 00:00:00 | 00:00:00 | |
| OE5MMP-10 | 2026-09-02 00:46:06 | 48.26121 | 17.20979 | 270° | 20km/h | 24091m | 6.7m/s | 0°C | 0% | 0hPa | 0V | 00:00:00 | 00:00:00 | 00:00:00 | |
| OE5DXL-15 | 2026-09-02 00:46:02 | 48.26129 | 17.21000 | 244° | 24km/h | 24067m | 7.3m/s | 0°C | 0% | 0hPa | 0V | 00:00:00 | 00:00:00 | 00:00:00 | |
| PETON7-10 | 2026-09-02 00:46:01 | 48.26131 | 17.21006 | 250° | 22km/h | 24061m | 5.4m/s | 0°C | 0% | 0hPa | 0V | 00:00:00 | 00:00:00 | 00:00:00 | |
| ATIDSZ-14 | 2026-09-02 00:45:59 | 48.26136 | 17.21019 | 237° | 22km/h | 24049m | 7.4m/s | 0°C | 0% | 0hPa | 0V | 00:00:00 | 00:00:00 | 00:00:00 | |
| OE5MMP-10 | 2026-09-02 00:45:55 | 48.26148 | 17.21050 | 262° | 22km/h | 24026m | 5.6m/s | 0°C | 0% | 0hPa | 0V | 00:00:00 | 00:00:00 | 00:00:00 | |
| OE5MMP-10 | 2026-09-02 00:45:45 | 48.26189 | 17.21103 | 240° | 27km/h | 23967m | 5.8m/s | 0°C | 0% | 0hPa | 0V | 00:00:00 | 00:00:00 | 00:00:00 | |
| PETON7-10 | 2026-09-02 00:45:44 | 48.26192 | 17.21114 | 254° | 26km/h | 23961m | 7.2m/s | 0°C | 0% | 0hPa | 0V | 00:00:00 | 00:00:00 | 00:00:00 | |
| OE3OSB-13 | 2026-09-02 00:45:39 | 48.26207 | 17.21148 | 172° | 20km/h | 23932m | 6.8m/s | -52.3°C | 0.0% | 30.2hPa | 0V | 00:00:00 | 00:00:00 | 00:00:00 | |
| ATIDSZ-14 | 2026-09-02 00:45:38 | 48.26212 | 17.21145 | 156° | 24km/h | 23925m | 6.8m/s | 0°C | 0% | 0hPa | 0V | 00:00:00 | 00:00:00 | 00:00:00 | |
| OE5MMP-10 | 2026-09-02 00:45:35 | 48.26230 | 17.21140 | 200° | 18km/h | 23907m | 5.5m/s | 0°C | 0% | 0hPa | 0V | 00:00:00 | 00:00:00 | 00:00:00 | |
| OE5DXL-15 | 2026-09-02 00:45:32 | 48.26241 | 17.21157 | 260° | 11km/h | 23890m | 5.5m/s | 0°C | 0% | 0hPa | 0V | 00:00:00 | 00:00:00 | 00:00:00 | |
| OE3JTB-15 | 2026-09-02 00:45:29 | 48.26260 | 17.21156 | 138° | 11km/h | 23855m | 5.7m/s | 0°C | 0% | 0hPa | 0V | 00:00:00 | 00:00:00 | 00:00:00 | |
| OE5MMP-10 | 2026-09-02 00:45:25 | 48.26264 | 17.21152 | 156° | 9km/h | 23849m | 5.0m/s | 0°C | 0% | 0hPa | 0V | 00:00:00 | 00:00:00 | 00:00:00 | |
| PETON7-10 | 2026-09-02 00:45:24 | 48.26267 | 17.21151 | 184° | 9km/h | 23843m | 7.4m/s | 0°C | 0% | 0hPa | 0V | 00:00:00 | 00:00:00 | 00:00:00 | |
| ATIDSZ-14 | 2026-09-02 00:45:18 | 48.26276 | 17.21165 | 158° | 7km/h | 23807m | 7.0m/s | 0°C | 0% | 0hPa | 0V | 00:00:00 | 00:00:00 | 00:00:00 | |
| OE5MMP-10 | 2026-09-02 00:45:15 | 48.26282 | 17.21154 | 100° | 9km/h | 23790m | 7.2m/s | 0°C | 0% | 0hPa | 0V | 00:00:00 | 00:00:00 | 00:00:00 | |
| OE3OSB-13 | 2026-09-02 00:45:08 | 48.26279 | 17.21147 | 339° | 7km/h | 23746m | 4.9m/s | -53.0°C | 0.0% | 31.2hPa | 0V | 00:00:00 | 00:00:00 | 00:00:00 | |
| PETON7-10 | 2026-09-02 00:45:07 | 48.26277 | 17.21147 | 22° | 5km/h | 23741m | 5.9m/s | 0°C | 0% | 0hPa | 0V | 00:00:00 | 00:00:00 | 00:00:00 | |
| OE5MMP-10 | 2026-09-02 00:45:03 | 48.26278 | 17.21130 | 81° | 7km/h | 23715m | 5.8m/s | 0°C | 0% | 0hPa | 0V | 00:00:00 | 00:00:00 | 00:00:00 | |
| OE3JTB-15 | 2026-09-02 00:44:59 | 48.26283 | 17.21125 | 172° | 13km/h | 23674m | 4.2m/s | 0°C | 0% | 0hPa | 0V | 00:00:00 | 00:00:00 | 00:00:00 | |
| ATIDSZ-14 | 2026-09-02 00:44:56 | 48.26283 | 17.21125 | 0° | 0km/h | 23674m | 4.2m/s | 0°C | 0% | 0hPa | 0V | 00:00:00 | 00:00:00 | 00:00:00 | |
| OE5MMP-10 | 2026-09-02 00:44:53 | 48.26288 | 17.21118 | 126° | 13km/h | 23657m | 4.7m/s | 0°C | 0% | 0hPa | 0V | 00:00:00 | 00:00:00 | 00:00:00 | |
| PETON7-10 | 2026-09-02 00:44:49 | 48.26291 | 17.21110 | 204° | 16km/h | 23634m | 6.2m/s | 0°C | 0% | 0hPa | 0V | 00:00:00 | 00:00:00 | 00:00:00 | |
| OE5MMP-10 | 2026-09-02 00:44:43 | 48.26309 | 17.21107 | 136° | 13km/h | 23602m | 5.0m/s | 0°C | 0% | 0hPa | 0V | 00:00:00 | 00:00:00 | 00:00:00 | |
| OE3OSB-13 | 2026-09-02 00:44:37 | 48.26329 | 17.21100 | 182° | 9km/h | 23559m | 6.4m/s | -53.1°C | 0.0% | 32.1hPa | 0V | 00:00:00 | 00:00:00 | 00:00:00 | |
| ATIDSZ-14 | 2026-09-02 00:44:35 | 48.26332 | 17.21099 | 168° | 15km/h | 23554m | 4.7m/s | 0°C | 0% | 0hPa | 0V | 00:00:00 | 00:00:00 | 00:00:00 | |
| OE5MMP-10 | 2026-09-02 00:44:33 | 48.26337 | 17.21094 | 119° | 16km/h | 23542m | 6.4m/s | 0°C | 0% | 0hPa | 0V | 00:00:00 | 00:00:00 | 00:00:00 | |
| OE5DXL-15 | 2026-09-02 00:44:32 | 48.26339 | 17.21089 | 110° | 20km/h | 23536m | 4.6m/s | 0°C | 0% | 0hPa | 0V | 00:00:00 | 00:00:00 | 00:00:00 | |
| PG1ADW-2 | 2026-09-02 00:44:27 | 48.26357 | 17.21059 | 128° | 24km/h | 23510m | 6.2m/s | 0°C | 0% | 0hPa | 0V | 00:00:00 | 00:00:00 | 00:00:00 | |
| OE5MMP-10 | 2026-09-02 00:44:23 | 48.26361 | 17.21041 | 114° | 20km/h | 23486m | 6.5m/s | 0°C | 0% | 0hPa | 0V | 00:00:00 | 00:00:00 | 00:00:00 | |
| OE5MMP-10 | 2026-09-02 00:44:13 | 48.26391 | 17.20982 | 101° | 20km/h | 23431m | 4.8m/s | 0°C | 0% | 0hPa | 0V | 00:00:00 | 00:00:00 | 00:00:00 | |
| PETON7-10 | 2026-09-02 00:44:06 | 48.26415 | 17.20963 | 125° | 20km/h | 23392m | 5.2m/s | 0°C | 0% | 0hPa | 0V | 00:00:00 | 00:00:00 | 00:00:00 | |
| OE5MMP-10 | 2026-09-02 00:44:03 | 48.26429 | 17.20935 | 128° | 18km/h | 23375m | 4.2m/s | 0°C | 0% | 0hPa | 0V | 00:00:00 | 00:00:00 | 00:00:00 | |
| OE5DXL-15 | 2026-09-02 00:44:02 | 48.26432 | 17.20927 | 119° | 16km/h | 23369m | 6.7m/s | 0°C | 0% | 0hPa | 0V | 00:00:00 | 00:00:00 | 00:00:00 | |
| OE3JTB-15 | 2026-09-02 00:43:59 | 48.26444 | 17.20913 | 158° | 16km/h | 23340m | 5.1m/s | 0°C | 0% | 0hPa | 0V | 00:00:00 | 00:00:00 | 00:00:00 | |
| OE5MMP-10 | 2026-09-02 00:43:53 | 48.26458 | 17.20886 | 117° | 20km/h | 23318m | 5.1m/s | 0°C | 0% | 0hPa | 0V | 00:00:00 | 00:00:00 | 00:00:00 | |
| PETON7-10 | 2026-09-02 00:43:50 | 48.26468 | 17.20861 | 113° | 20km/h | 23301m | 6.2m/s | 0°C | 0% | 0hPa | 0V | 00:00:00 | 00:00:00 | 00:00:00 | |
| OE5MMP-10 | 2026-09-02 00:43:43 | 48.26480 | 17.20826 | 103° | 18km/h | 23261m | 5.7m/s | 0°C | 0% | 0hPa | 0V | 00:00:00 | 00:00:00 | 00:00:00 | |
| PETON7-10 | 2026-09-02 00:43:35 | 48.26493 | 17.20774 | 319° | 7km/h | 23217m | 6.0m/s | 0°C | 0% | 0hPa | 0V | 00:00:00 | 00:00:00 | 00:00:00 | |
| OE5MMP-10 | 2026-09-02 00:43:33 | 48.26493 | 17.20774 | 130° | 16km/h | 23205m | 4.7m/s | 0°C | 0% | 0hPa | 0V | 00:00:00 | 00:00:00 | 00:00:00 | |
| OE5DXL-15 | 2026-09-02 00:43:32 | 48.26494 | 17.20770 | 96° | 11km/h | 23200m | 6.1m/s | 0°C | 0% | 0hPa | 0V | 00:00:00 | 00:00:00 | 00:00:00 | |
| OE3JTB-15 | 2026-09-02 00:43:28 | 48.26502 | 17.20732 | 149° | 9km/h | 23167m | 4.8m/s | 0°C | 0% | 0hPa | 0V | 00:00:00 | 00:00:00 | 00:00:00 | |
| OE5MMP-10 | 2026-09-02 00:43:23 | 48.26504 | 17.20727 | 39° | 9km/h | 23150m | 5.6m/s | 0°C | 0% | 0hPa | 0V | 00:00:00 | 00:00:00 | 00:00:00 | |
| PETON7-10 | 2026-09-02 00:43:20 | 48.26504 | 17.20723 | 90° | 11km/h | 23132m | 5.9m/s | 0°C | 0% | 0hPa | 0V | 00:00:00 | 00:00:00 | 00:00:00 | |
| ATIDSZ-14 | 2026-09-02 00:43:14 | 48.26500 | 17.20701 | 12° | 13km/h | 23094m | 7.0m/s | 0°C | 0% | 0hPa | 0V | 00:00:00 | 00:00:00 | 00:00:00 | |
| OE5MMP-10 | 2026-09-02 00:43:13 | 48.26496 | 17.20717 | 7° | 11km/h | 23088m | 4.5m/s | 0°C | 0% | 0hPa | 0V | 00:00:00 | 00:00:00 | 00:00:00 | |
| PETON7-10 | 2026-09-02 00:43:05 | 48.26479 | 17.20692 | 46° | 9km/h | 23049m | 6.7m/s | 0°C | 0% | 0hPa | 0V | 00:00:00 | 00:00:00 | 00:00:00 | |
| OE3OSB-13 | 2026-09-02 00:43:04 | 48.26476 | 17.20685 | 59° | 11km/h | 23037m | 4.7m/s | -53.7°C | 0.0% | 35.0hPa | 0V | 00:00:00 | 00:00:00 | 00:00:00 | |
| OE5DXL-15 | 2026-09-02 00:43:02 | 48.26474 | 17.20681 | 51° | 11km/h | 23031m | 6.4m/s | 0°C | 0% | 0hPa | 0V | 00:00:00 | 00:00:00 | 00:00:00 | |
| OE3JTB-15 | 2026-09-02 00:42:58 | 48.26471 | 17.20676 | 24° | 13km/h | 22993m | 6.1m/s | 0°C | 0% | 0hPa | 0V | 00:00:00 | 00:00:00 | 00:00:00 | |
| ATIDSZ-14 | 2026-09-02 00:42:53 | 48.26465 | 17.20669 | 44° | 18km/h | 22983m | 4.3m/s | 0°C | 0% | 0hPa | 0V | 00:00:00 | 00:00:00 | 00:00:00 | |
| OE5MMP-10 | 2026-09-02 00:42:52 | 48.26462 | 17.20665 | 68° | 9km/h | 22978m | 5.6m/s | 0°C | 0% | 0hPa | 0V | 00:00:00 | 00:00:00 | 00:00:00 | |
| PETON7-10 | 2026-09-02 00:42:50 | 48.26465 | 17.20658 | 149° | 15km/h | 22966m | 5.5m/s | 0°C | 0% | 0hPa | 0V | 00:00:00 | 00:00:00 | 00:00:00 | |
| OE5MMP-10 | 2026-09-02 00:42:41 | 48.26467 | 17.20665 | 83° | 15km/h | 22917m | 5.6m/s | 0°C | 0% | 0hPa | 0V | 00:00:00 | 00:00:00 | 00:00:00 | |
| PETON7-10 | 2026-09-02 00:42:34 | 48.26489 | 17.20649 | 275° | 11km/h | 22878m | 5.2m/s | 0°C | 0% | 0hPa | 0V | 00:00:00 | 00:00:00 | 00:00:00 | |
| OE3OSB-13 | 2026-09-02 00:42:33 | 48.26488 | 17.20656 | 262° | 5km/h | 22869m | 5.1m/s | -53.6°C | 0.0% | 36.0hPa | 0V | 00:00:00 | 00:00:00 | 00:00:00 | |
| OE5DXL-15 | 2026-09-02 00:42:32 | 48.26488 | 17.20655 | 263° | 16km/h | 22869m | 5.1m/s | 0°C | 0% | 0hPa | 0V | 00:00:00 | 00:00:00 | 00:00:00 | |
| OE5MMP-10 | 2026-09-02 00:42:31 | 48.26489 | 17.20658 | 210° | 15km/h | 22863m | 5.7m/s | 0°C | 0% | 0hPa | 0V | 00:00:00 | 00:00:00 | 00:00:00 | |
| OE3JTB-15 | 2026-09-02 00:42:29 | 48.26505 | 17.20649 | 155° | 16km/h | 22836m | 3.9m/s | 0°C | 0% | 0hPa | 0V | 00:00:00 | 00:00:00 | 00:00:00 | |
| OE5MMP-10 | 2026-09-02 00:42:21 | 48.26522 | 17.20652 | 180° | 16km/h | 22807m | 6.0m/s | 0°C | 0% | 0hPa | 0V | 00:00:00 | 00:00:00 | 00:00:00 | |
| PETON7-10 | 2026-09-02 00:42:18 | 48.26531 | 17.20650 | 168° | 18km/h | 22789m | 5.7m/s | 0°C | 0% | 0hPa | 0V | 00:00:00 | 00:00:00 | 00:00:00 | |
| ATIDSZ-14 | 2026-09-02 00:42:12 | 48.26560 | 17.20639 | 194° | 22km/h | 22754m | 5.4m/s | 0°C | 0% | 0hPa | 0V | 00:00:00 | 00:00:00 | 00:00:00 | |
| OE5MMP-10 | 2026-09-02 00:42:11 | 48.26565 | 17.20641 | 200° | 18km/h | 22748m | 5.4m/s | 0°C | 0% | 0hPa | 0V | 00:00:00 | 00:00:00 | 00:00:00 | |
| PETON7-10 | 2026-09-02 00:42:03 | 48.26595 | 17.20640 | 141° | 18km/h | 22704m | 5.1m/s | 0°C | 0% | 0hPa | 0V | 00:00:00 | 00:00:00 | 00:00:00 | |
| OE3OSB-13 | 2026-09-02 00:42:02 | 48.26606 | 17.20632 | 161° | 22km/h | 22692m | 6.2m/s | -53.9°C | 0.0% | 37.0hPa | 0V | 00:00:00 | 00:00:00 | 00:00:00 | |
| OE5MMP-10 | 2026-09-02 00:42:01 | 48.26605 | 17.20632 | 162° | 18km/h | 22692m | 6.2m/s | 0°C | 0% | 0hPa | 0V | 00:00:00 | 00:00:00 | 00:00:00 | |
| OE3JTB-15 | 2026-09-02 00:42:00 | 48.26623 | 17.20621 | 144° | 16km/h | 22670m | 4.1m/s | 0°C | 0% | 0hPa | 0V | 00:00:00 | 00:00:00 | 00:00:00 | |
| ATIDSZ-14 | 2026-09-02 00:41:52 | 48.26647 | 17.20603 | 121° | 9km/h | 22636m | 4.9m/s | 0°C | 0% | 0hPa | 0V | 00:00:00 | 00:00:00 | 00:00:00 | |
| OE5MMP-10 | 2026-09-02 00:41:51 | 48.26647 | 17.20603 | 121° | 15km/h | 22636m | 4.9m/s | 0°C | 0% | 0hPa | 0V | 00:00:00 | 00:00:00 | 00:00:00 | |
| PETON7-10 | 2026-09-02 00:41:47 | 48.26657 | 17.20593 | 141° | 16km/h | 22613m | 6.5m/s | 0°C | 0% | 0hPa | 0V | 00:00:00 | 00:00:00 | 00:00:00 | |
| OE5MMP-10 | 2026-09-02 00:41:41 | 48.26677 | 17.20573 | 103° | 18km/h | 22578m | 7.4m/s | 0°C | 0% | 0hPa | 0V | 00:00:00 | 00:00:00 | 00:00:00 | |
| OE5DXL-15 | 2026-09-02 00:41:32 | 48.26691 | 17.20521 | 148° | 20km/h | 22524m | 5.9m/s | 0°C | 0% | 0hPa | 0V | 00:00:00 | 00:00:00 | 00:00:00 | |
| OE3OSB-13 | 2026-09-02 00:41:31 | 48.26697 | 17.20513 | 117° | 15km/h | 22513m | 7.2m/s | -53.7°C | 0.0% | 38.1hPa | 0V | 00:00:00 | 00:00:00 | 00:00:00 | |
| ATIDSZ-14 | 2026-09-02 00:41:30 | 48.26697 | 17.20513 | 118° | 15km/h | 22513m | 7.2m/s | 0°C | 0% | 0hPa | 0V | 00:00:00 | 00:00:00 | 00:00:00 | |
| PETON7-10 | 2026-09-02 00:41:29 | 48.26698 | 17.20508 | 104° | 16km/h | 22506m | 6.0m/s | 0°C | 0% | 0hPa | 0V | 00:00:00 | 00:00:00 | 00:00:00 | |
| OE5MMP-10 | 2026-09-02 00:41:21 | 48.26710 | 17.20462 | 136° | 22km/h | 22458m | 6.2m/s | 0°C | 0% | 0hPa | 0V | 00:00:00 | 00:00:00 | 00:00:00 | |
| OE5MMP-10 | 2026-09-02 00:41:11 | 48.26727 | 17.20386 | 85° | 26km/h | 22401m | 5.0m/s | 0°C | 0% | 0hPa | 0V | 00:00:00 | 00:00:00 | 00:00:00 | |
| ATIDSZ-14 | 2026-09-02 00:41:10 | 48.26727 | 17.20379 | 98° | 16km/h | 22395m | 6.9m/s | 0°C | 0% | 0hPa | 0V | 00:00:00 | 00:00:00 | 00:00:00 | |
| OE5DXL-15 | 2026-09-02 00:41:02 | 48.26739 | 17.20308 | 108° | 18km/h | 22350m | 5.7m/s | 0°C | 0% | 0hPa | 0V | 00:00:00 | 00:00:00 | 00:00:00 | |
| OE5MMP-10 | 2026-09-02 00:41:01 | 48.26740 | 17.20299 | 91° | 22km/h | 22344m | 6.0m/s | 0°C | 0% | 0hPa | 0V | 00:00:00 | 00:00:00 | 00:00:00 | |
| OE3OSB-13 | 2026-09-02 00:41:00 | 48.26739 | 17.20283 | 80° | 16km/h | 22332m | 6.8m/s | -53.5°C | 0.0% | 39.3hPa | 0V | 00:00:00 | 00:00:00 | 00:00:00 | |
| PETON7-10 | 2026-09-02 00:40:55 | 48.26735 | 17.20254 | 82° | 20km/h | 22309m | 4.7m/s | 0°C | 0% | 0hPa | 0V | 00:00:00 | 00:00:00 | 00:00:00 | |
| OE5MMP-10 | 2026-09-02 00:40:51 | 48.26742 | 17.20219 | 129° | 16km/h | 22289m | 4.4m/s | 0°C | 0% | 0hPa | 0V | 00:00:00 | 00:00:00 | 00:00:00 | |
| ATIDSZ-14 | 2026-09-02 00:40:49 | 48.26743 | 17.20208 | 64° | 15km/h | 22277m | 6.7m/s | 0°C | 0% | 0hPa | 0V | 00:00:00 | 00:00:00 | 00:00:00 | |
| PETON7-10 | 2026-09-02 00:40:40 | 48.26732 | 17.20160 | 114° | 13km/h | 22224m | 5.5m/s | 0°C | 0% | 0hPa | 0V | 00:00:00 | 00:00:00 | 00:00:00 | |
| OE5DXL-15 | 2026-09-02 00:40:32 | 48.26717 | 17.20145 | 54° | 11km/h | 22180m | 6.3m/s | 0°C | 0% | 0hPa | 0V | 00:00:00 | 00:00:00 | 00:00:00 | |
| OE5MMP-10 | 2026-09-02 00:40:30 | 48.26715 | 17.20140 | 71° | 11km/h | 22168m | 4.8m/s | 0°C | 0% | 0hPa | 0V | 00:00:00 | 00:00:00 | 00:00:00 | |
| OE3OSB-13 | 2026-09-02 00:40:29 | 48.26715 | 17.20135 | 102° | 2km/h | 22156m | 5.0m/s | -53.0°C | 0.0% | 40.4hPa | 0V | 00:00:00 | 00:00:00 | 00:00:00 | |
| PETON7-10 | 2026-09-02 00:40:23 | 48.26701 | 17.20132 | 344° | 13km/h | 22129m | 5.8m/s | 0°C | 0% | 0hPa | 0V | 00:00:00 | 00:00:00 | 00:00:00 | |
| OE5MMP-10 | 2026-09-02 00:40:20 | 48.26692 | 17.20136 | 358° | 11km/h | 22113m | 5.7m/s | 0°C | 0% | 0hPa | 0V | 00:00:00 | 00:00:00 | 00:00:00 | |
| OE5MMP-10 | 2026-09-02 00:40:10 | 48.26670 | 17.20141 | 328° | 13km/h | 22058m | 4.3m/s | 0°C | 0% | 0hPa | 0V | 00:00:00 | 00:00:00 | 00:00:00 | |
| ATIDSZ-14 | 2026-09-02 00:40:09 | 48.26666 | 17.20143 | 343° | 16km/h | 22053m | 4.7m/s | 0°C | 0% | 0hPa | 0V | 00:00:00 | 00:00:00 | 00:00:00 | |
| PETON7-10 | 2026-09-02 00:40:08 | 48.26662 | 17.20144 | 360° | 13km/h | 22048m | 6.5m/s | 0°C | 0% | 0hPa | 0V | 00:00:00 | 00:00:00 | 00:00:00 | |
| OE5DXL-15 | 2026-09-02 00:40:02 | 48.26645 | 17.20142 | 77° | 18km/h | 22016m | 6.8m/s | 0°C | 0% | 0hPa | 0V | 00:00:00 | 00:00:00 | 00:00:00 | |
| OE5MMP-10 | 2026-09-02 00:40:00 | 48.26642 | 17.20135 | 41° | 15km/h | 22004m | 4.2m/s | 0°C | 0% | 0hPa | 0V | 00:00:00 | 00:00:00 | 00:00:00 | |
| OE3OSB-13 | 2026-09-02 00:39:58 | 48.26631 | 17.20129 | 9° | 15km/h | 21988m | 4.8m/s | -52.8°C | 0.0% | 41.5hPa | 0V | 00:00:00 | 00:00:00 | 00:00:00 | |
| PETON7-10 | 2026-09-02 00:39:53 | 48.26616 | 17.20117 | 58° | 18km/h | 21967m | 5.9m/s | 0°C | 0% | 0hPa | 0V | 00:00:00 | 00:00:00 | 00:00:00 | |
| OE5MMP-10 | 2026-09-02 00:39:50 | 48.26617 | 17.20107 | 97° | 24km/h | 21951m | 6.1m/s | 0°C | 0% | 0hPa | 0V | 00:00:00 | 00:00:00 | 00:00:00 | |
| ATIDSZ-14 | 2026-09-02 00:39:48 | 48.26615 | 17.20098 | 62° | 18km/h | 21940m | 5.0m/s | 0°C | 0% | 0hPa | 0V | 00:00:00 | 00:00:00 | 00:00:00 | |
| OE5MMP-10 | 2026-09-02 00:39:40 | 48.26598 | 17.20022 | 96° | 20km/h | 21897m | 5.0m/s | 0°C | 0% | 0hPa | 0V | 00:00:00 | 00:00:00 | 00:00:00 | |
| PETON7-10 | 2026-09-02 00:39:38 | 48.26599 | 17.20007 | 85° | 18km/h | 21887m | 5.1m/s | 0°C | 0% | 0hPa | 0V | 00:00:00 | 00:00:00 | 00:00:00 | |
| OE5DXL-15 | 2026-09-02 00:39:32 | 48.26587 | 17.19965 | 82° | 18km/h | 21855m | 5.0m/s | 0°C | 0% | 0hPa | 0V | 00:00:00 | 00:00:00 | 00:00:00 | |
| OE5MMP-10 | 2026-09-02 00:39:29 | 48.26583 | 17.19943 | 78° | 15km/h | 21840m | 5.2m/s | 0°C | 0% | 0hPa | 0V | 00:00:00 | 00:00:00 | 00:00:00 | |
| ATIDSZ-14 | 2026-09-02 00:39:27 | 48.26582 | 17.19932 | 79° | 11km/h | 21828m | 4.8m/s | 0°C | 0% | 0hPa | 0V | 00:00:00 | 00:00:00 | 00:00:00 | |
| OE3OSB-13 | 2026-09-02 00:39:26 | 48.26581 | 17.19928 | 54° | 13km/h | 21823m | 5.9m/s | -53.2°C | 0.0% | 42.7hPa | 0V | 00:00:00 | 00:00:00 | 00:00:00 | |
| PETON7-10 | 2026-09-02 00:39:23 | 48.26571 | 17.19919 | 24° | 20km/h | 21807m | 6.0m/s | 0°C | 0% | 0hPa | 0V | 00:00:00 | 00:00:00 | 00:00:00 | |
| OE5MMP-10 | 2026-09-02 00:39:19 | 48.26568 | 17.19899 | 88° | 20km/h | 21785m | 4.9m/s | 0°C | 0% | 0hPa | 0V | 00:00:00 | 00:00:00 | 00:00:00 | |
| OE5MMP-10 | 2026-09-02 00:39:09 | 48.26559 | 17.19827 | 106° | 20km/h | 21732m | 4.5m/s | 0°C | 0% | 0hPa | 0V | 00:00:00 | 00:00:00 | 00:00:00 | |
| ATIDSZ-14 | 2026-09-02 00:39:07 | 48.26561 | 17.19810 | 96° | 22km/h | 21721m | 5.2m/s | 0°C | 0% | 0hPa | 0V | 00:00:00 | 00:00:00 | 00:00:00 | |
| OE3JTB-15 | 2026-09-02 00:39:04 | 48.26551 | 17.19785 | 36° | 31km/h | 21695m | 5.4m/s | 0°C | 0% | 0hPa | 0V | 00:00:00 | 00:00:00 | 00:00:00 | |
| OE5DXL-15 | 2026-09-02 00:39:02 | 48.26551 | 17.19785 | 36° | 29km/h | 21695m | 5.4m/s | 0°C | 0% | 0hPa | 0V | 00:00:00 | 00:00:00 | 00:00:00 | |
| OE3OSB-13 | 2026-09-02 00:38:55 | 48.26556 | 17.19714 | 102° | 18km/h | 21653m | 5.7m/s | -53.8°C | 0.0% | 43.8hPa | 0V | 00:00:00 | 00:00:00 | 00:00:00 | |
| OE5MMP-10 | 2026-09-02 00:38:49 | 48.26547 | 17.19675 | 67° | 31km/h | 21627m | 5.6m/s | 0°C | 0% | 0hPa | 0V | 00:00:00 | 00:00:00 | 00:00:00 | |
| ATIDSZ-14 | 2026-09-02 00:38:46 | 48.26545 | 17.19645 | 95° | 35km/h | 21612m | 6.4m/s | 0°C | 0% | 0hPa | 0V | 00:00:00 | 00:00:00 | 00:00:00 | |
| OE5MMP-10 | 2026-09-02 00:38:38 | 48.26556 | 17.19549 | 77° | 31km/h | 21570m | 6.7m/s | 0°C | 0% | 0hPa | 0V | 00:00:00 | 00:00:00 | 00:00:00 | |
| OE5DXL-15 | 2026-09-02 00:38:32 | 48.26548 | 17.19469 | 91° | 35km/h | 21538m | 6.3m/s | 0°C | 0% | 0hPa | 0V | 00:00:00 | 00:00:00 | 00:00:00 | |
| OE5MMP-10 | 2026-09-02 00:38:28 | 48.26543 | 17.19427 | 65° | 33km/h | 21517m | 5.4m/s | 0°C | 0% | 0hPa | 0V | 00:00:00 | 00:00:00 | 00:00:00 | |
| ATIDSZ-14 | 2026-09-02 00:38:26 | 48.26536 | 17.19403 | 67° | 37km/h | 21507m | 5.6m/s | 0°C | 0% | 0hPa | 0V | 00:00:00 | 00:00:00 | 00:00:00 | |
| PETON7-10 | 2026-09-02 00:38:24 | 48.26530 | 17.19380 | 68° | 33km/h | 21497m | 4.5m/s | 0°C | 0% | 0hPa | 0V | 00:00:00 | 00:00:00 | 00:00:00 | |
| OE5MMP-10 | 2026-09-02 00:38:18 | 48.26509 | 17.19313 | 70° | 37km/h | 21464m | 6.6m/s | 0°C | 0% | 0hPa | 0V | 00:00:00 | 00:00:00 | 00:00:00 | |
| OE5MMP-10 | 2026-09-02 00:38:08 | 48.26471 | 17.19189 | 71° | 33km/h | 21409m | 3.8m/s | 0°C | 0% | 0hPa | 0V | 00:00:00 | 00:00:00 | 00:00:00 | |
| ATIDSZ-14 | 2026-09-02 00:38:06 | 48.26465 | 17.19164 | 79° | 40km/h | 21397m | 5.4m/s | 0°C | 0% | 0hPa | 0V | 00:00:00 | 00:00:00 | 00:00:00 | |
| OE5DXL-15 | 2026-09-02 00:38:02 | 48.26454 | 17.19111 | 59° | 27km/h | 21377m | 4.9m/s | 0°C | 0% | 0hPa | 0V | 00:00:00 | 00:00:00 | 00:00:00 | |
| OE3OSB-13 | 2026-09-02 00:37:53 | 48.26407 | 17.19017 | 57° | 37km/h | 21322m | 4.6m/s | -53.8°C | 0.0% | 46.2hPa | 0V | 00:00:00 | 00:00:00 | 00:00:00 | |
| PETON7-10 | 2026-09-02 00:37:51 | 48.26402 | 17.19006 | 54° | 24km/h | 21317m | 6.0m/s | 0°C | 0% | 0hPa | 0V | 00:00:00 | 00:00:00 | 00:00:00 | |
| OE5MMP-10 | 2026-09-02 00:37:47 | 48.26382 | 17.18977 | 43° | 26km/h | 21296m | 5.1m/s | 0°C | 0% | 0hPa | 0V | 00:00:00 | 00:00:00 | 00:00:00 | |
| ATIDSZ-14 | 2026-09-02 00:37:45 | 48.26371 | 17.18960 | 54° | 27km/h | 21285m | 6.3m/s | 0°C | 0% | 0hPa | 0V | 00:00:00 | 00:00:00 | 00:00:00 | |
| OE5MMP-10 | 2026-09-02 00:37:36 | 48.26328 | 17.18919 | 17° | 20km/h | 21238m | 5.3m/s | 0°C | 0% | 0hPa | 0V | 00:00:00 | 00:00:00 | 00:00:00 | |
| PG1ADW-2 | 2026-09-02 00:37:34 | 48.26318 | 17.18913 | 27° | 20km/h | 21227m | 3.7m/s | 0°C | 0% | 0hPa | 0V | 00:00:00 | 00:00:00 | 00:00:00 | |
| OE5DXL-15 | 2026-09-02 00:37:32 | 48.26309 | 17.18906 | 27° | 16km/h | 21217m | 6.3m/s | 0°C | 0% | 0hPa | 0V | 00:00:00 | 00:00:00 | 00:00:00 | |
| OE5MMP-10 | 2026-09-02 00:37:26 | 48.26282 | 17.18902 | 7° | 18km/h | 21184m | 6.1m/s | 0°C | 0% | 0hPa | 0V | 00:00:00 | 00:00:00 | 00:00:00 | |
| ATIDSZ-14 | 2026-09-02 00:37:25 | 48.26279 | 17.18901 | 15° | 11km/h | 21179m | 4.8m/s | 0°C | 0% | 0hPa | 0V | 00:00:00 | 00:00:00 | 00:00:00 | |
| OE3OSB-13 | 2026-09-02 00:37:22 | 48.26262 | 17.18894 | 13° | 22km/h | 21157m | 4.7m/s | -53.4°C | 0.0% | 47.5hPa | 0V | 00:00:00 | 00:00:00 | 00:00:00 | |
| PETON7-10 | 2026-09-02 00:37:19 | 48.26252 | 17.18891 | 8° | 13km/h | 21146m | 4.9m/s | 0°C | 0% | 0hPa | 0V | 00:00:00 | 00:00:00 | 00:00:00 | |
| OE5MMP-10 | 2026-09-02 00:37:15 | 48.26235 | 17.18895 | 348° | 15km/h | 21123m | 5.9m/s | 0°C | 0% | 0hPa | 0V | 00:00:00 | 00:00:00 | 00:00:00 | |
| PG1ADW-2 | 2026-09-02 00:37:06 | 48.26207 | 17.18896 | 312° | 13km/h | 21071m | 6.9m/s | 0°C | 0% | 0hPa | 0V | 00:00:00 | 00:00:00 | 00:00:00 | |
| OE5MMP-10 | 2026-09-02 00:37:05 | 48.26204 | 17.18901 | 310° | 13km/h | 21065m | 4.4m/s | 0°C | 0% | 0hPa | 0V | 00:00:00 | 00:00:00 | 00:00:00 | |
| ATIDSZ-14 | 2026-09-02 00:37:04 | 48.26201 | 17.18906 | 302° | 16km/h | 21060m | 4.7m/s | 0°C | 0% | 0hPa | 0V | 00:00:00 | 00:00:00 | 00:00:00 | |
| OE5DXL-15 | 2026-09-02 00:37:02 | 48.26199 | 17.18914 | 296° | 13km/h | 21049m | 5.1m/s | 0°C | 0% | 0hPa | 0V | 00:00:00 | 00:00:00 | 00:00:00 | |
| OE3OSB-13 | 2026-09-02 00:36:51 | 48.26181 | 17.18930 | 156° | 2km/h | 20983m | 4.0m/s | -53.1°C | 0.2% | 48.9hPa | 0V | 00:00:00 | 00:00:00 | 00:00:00 | |
| PG1ADW-2 | 2026-09-02 00:36:46 | 48.26166 | 17.18934 | 354° | 13km/h | 20961m | 5.5m/s | 0°C | 0% | 0hPa | 0V | 00:00:00 | 00:00:00 | 00:00:00 | |
| OE5MMP-10 | 2026-09-02 00:36:44 | 48.26156 | 17.18934 | 11° | 13km/h | 20950m | 5.5m/s | 0°C | 0% | 0hPa | 0V | 00:00:00 | 00:00:00 | 00:00:00 | |
| ATIDSZ-14 | 2026-09-02 00:36:43 | 48.26153 | 17.18933 | 18° | 7km/h | 20945m | 4.6m/s | 0°C | 0% | 0hPa | 0V | 00:00:00 | 00:00:00 | 00:00:00 | |
| OE5MMP-10 | 2026-09-02 00:36:34 | 48.26127 | 17.18927 | 360° | 11km/h | 20895m | 5.2m/s | 0°C | 0% | 0hPa | 0V | 00:00:00 | 00:00:00 | 00:00:00 | |
| OE5DXL-15 | 2026-09-02 00:36:32 | 48.26118 | 17.18928 | 353° | 9km/h | 20884m | 6.1m/s | 0°C | 0% | 0hPa | 0V | 00:00:00 | 00:00:00 | 00:00:00 | |
| ATIDSZ-14 | 2026-09-02 00:36:23 | 48.26102 | 17.18931 | 27° | 13km/h | 20834m | 6.6m/s | 0°C | 0% | 0hPa | 0V | 00:00:00 | 00:00:00 | 00:00:00 | |
| PETON7-10 | 2026-09-02 00:36:21 | 48.26093 | 17.18931 | 321° | 9km/h | 20818m | 6.5m/s | 0°C | 0% | 0hPa | 0V | 00:00:00 | 00:00:00 | 00:00:00 | |
| OE3OSB-13 | 2026-09-02 00:36:20 | 48.26093 | 17.18933 | 293° | 4km/h | 20812m | 4.6m/s | -52.0°C | 0.3% | 50.2hPa | 0V | 00:00:00 | 00:00:00 | 00:00:00 | |
| OE5MMP-10 | 2026-09-02 00:36:14 | 48.26082 | 17.18937 | 6° | 9km/h | 20786m | 6.3m/s | 0°C | 0% | 0hPa | 0V | 00:00:00 | 00:00:00 | 00:00:00 | |
| PG1ADW-2 | 2026-09-02 00:36:10 | 48.26074 | 17.18929 | 41° | 11km/h | 20764m | 4.3m/s | 0°C | 0% | 0hPa | 0V | 00:00:00 | 00:00:00 | 00:00:00 | |
| OE5MMP-10 | 2026-09-02 00:36:04 | 48.26068 | 17.18918 | 16° | 9km/h | 20732m | 4.6m/s | 0°C | 0% | 0hPa | 0V | 00:00:00 | 00:00:00 | 00:00:00 | |
| ATIDSZ-14 | 2026-09-02 00:36:03 | 48.26065 | 17.18916 | 17° | 13km/h | 20727m | 5.3m/s | 0°C | 0% | 0hPa | 0V | 00:00:00 | 00:00:00 | 00:00:00 | |
| OE5DXL-15 | 2026-09-02 00:36:02 | 48.26063 | 17.18915 | 33° | 13km/h | 20721m | 6.0m/s | 0°C | 0% | 0hPa | 0V | 00:00:00 | 00:00:00 | 00:00:00 | |
| PETON7-10 | 2026-09-02 00:36:01 | 48.26062 | 17.18914 | 112° | 11km/h | 20715m | 5.3m/s | 0°C | 0% | 0hPa | 0V | 00:00:00 | 00:00:00 | 00:00:00 | |
| OE3OSB-13 | 2026-09-02 00:35:50 | 48.26064 | 17.18883 | 84° | 5km/h | 20645m | 6.3m/s | -51.9°C | 0.3% | 51.6hPa | 0V | 00:00:00 | 00:00:00 | 00:00:00 | |
| OE5MMP-10 | 2026-09-02 00:35:44 | 48.26066 | 17.18860 | 102° | 18km/h | 20622m | 4.2m/s | 0°C | 0% | 0hPa | 0V | 00:00:00 | 00:00:00 | 00:00:00 | |
| ATIDSZ-14 | 2026-09-02 00:35:42 | 48.26065 | 17.18844 | 75° | 20km/h | 20611m | 5.7m/s | 0°C | 0% | 0hPa | 0V | 00:00:00 | 00:00:00 | 00:00:00 | |
| PETON7-10 | 2026-09-02 00:35:37 | 48.26061 | 17.18816 | 63° | 22km/h | 20585m | 5.5m/s | 0°C | 0% | 0hPa | 0V | 00:00:00 | 00:00:00 | 00:00:00 | |
| OE5MMP-10 | 2026-09-02 00:35:34 | 48.26057 | 17.18796 | 88° | 22km/h | 20570m | 4.7m/s | 0°C | 0% | 0hPa | 0V | 00:00:00 | 00:00:00 | 00:00:00 | |
| OE5DXL-15 | 2026-09-02 00:35:32 | 48.26055 | 17.18783 | 66° | 22km/h | 20559m | 6.6m/s | 0°C | 0% | 0hPa | 0V | 00:00:00 | 00:00:00 | 00:00:00 | |
| OE5MMP-10 | 2026-09-02 00:35:24 | 48.26031 | 17.18724 | 68° | 20km/h | 20515m | 5.9m/s | 0°C | 0% | 0hPa | 0V | 00:00:00 | 00:00:00 | 00:00:00 | |
| PETON7-10 | 2026-09-02 00:35:21 | 48.26022 | 17.18699 | 50° | 20km/h | 20501m | 5.6m/s | 0°C | 0% | 0hPa | 0V | 00:00:00 | 00:00:00 | 00:00:00 | |
| OE3OSB-13 | 2026-09-02 00:35:18 | 48.26009 | 17.18669 | 62° | 20km/h | 20479m | 4.9m/s | -52.3°C | 0.3% | 52.9hPa | 0V | 00:00:00 | 00:00:00 | 00:00:00 | |
| PETON7-10 | 2026-09-02 00:35:05 | 48.25984 | 17.18585 | 62° | 16km/h | 20417m | 6.3m/s | 0°C | 0% | 0hPa | 0V | 00:00:00 | 00:00:00 | 00:00:00 | |
| ATIDSZ-14 | 2026-09-02 00:35:01 | 48.25978 | 17.18564 | 88° | 20km/h | 20395m | 4.8m/s | 0°C | 0% | 0hPa | 0V | 00:00:00 | 00:00:00 | 00:00:00 | |
| OE3OSB-13 | 2026-09-02 00:34:48 | 48.25938 | 17.18503 | 43° | 22km/h | 20317m | 4.1m/s | -53.2°C | 0.3% | 54.3hPa | 0V | 00:00:00 | 00:00:00 | 00:00:00 | |
| ATIDSZ-14 | 2026-09-02 00:34:40 | 48.25920 | 17.18489 | 337° | 11km/h | 20284m | 6.7m/s | 0°C | 0% | 0hPa | 0V | 00:00:00 | 00:00:00 | 00:00:00 | |
| PETON7-10 | 2026-09-02 00:34:33 | 48.25894 | 17.18481 | 7° | 15km/h | 20245m | 5.3m/s | 0°C | 0% | 0hPa | 0V | 00:00:00 | 00:00:00 | 00:00:00 | |
| OE5DXL-15 | 2026-09-02 00:34:32 | 48.25889 | 17.18481 | 360° | 9km/h | 20240m | 5.5m/s | 0°C | 0% | 0hPa | 0V | 00:00:00 | 00:00:00 | 00:00:00 | |
| OE5MMP-10 | 2026-09-02 00:34:25 | 48.25874 | 17.18495 | 345° | 9km/h | 20202m | 4.6m/s | 0°C | 0% | 0hPa | 0V | 00:00:00 | 00:00:00 | 00:00:00 | |
| ATIDSZ-14 | 2026-09-02 00:34:19 | 48.25855 | 17.18496 | 46° | 11km/h | 20170m | 4.1m/s | 0°C | 0% | 0hPa | 0V | 00:00:00 | 00:00:00 | 00:00:00 | |
| PETON7-10 | 2026-09-02 00:34:18 | 48.25854 | 17.18493 | 93° | 7km/h | 20165m | 6.8m/s | 0°C | 0% | 0hPa | 0V | 00:00:00 | 00:00:00 | 00:00:00 | |
| OE3OSB-13 | 2026-09-02 00:34:16 | 48.25857 | 17.18491 | 331° | 0km/h | 20149m | 6.0m/s | -53.2°C | 0.3% | 55.8hPa | 0V | 00:00:00 | 00:00:00 | 00:00:00 | |
| OE5MMP-10 | 2026-09-02 00:34:13 | 48.25853 | 17.18492 | 359° | 9km/h | 20138m | 5.3m/s | 0°C | 0% | 0hPa | 0V | 00:00:00 | 00:00:00 | 00:00:00 | |
| OE5MMP-10 | 2026-09-02 00:34:03 | 48.25849 | 17.18482 | 214° | 9km/h | 20084m | 6.4m/s | 0°C | 0% | 0hPa | 0V | 00:00:00 | 00:00:00 | 00:00:00 | |
| OE5DXL-15 | 2026-09-02 00:34:02 | 48.25849 | 17.18482 | 348° | 13km/h | 20078m | 5.7m/s | 0°C | 0% | 0hPa | 0V | 00:00:00 | 00:00:00 | 00:00:00 | |
| PETON7-10 | 2026-09-02 00:34:01 | 48.25848 | 17.18483 | 358° | 9km/h | 20073m | 4.5m/s | 0°C | 0% | 0hPa | 0V | 00:00:00 | 00:00:00 | 00:00:00 | |
| OE3OSB-13 | 2026-09-02 00:33:45 | 48.25845 | 17.18425 | 92° | 20km/h | 19979m | 4.4m/s | -54.5°C | 0.2% | 57.4hPa | 0V | 00:00:00 | 00:00:00 | 00:00:00 | |
| OE5MMP-10 | 2026-09-02 00:33:40 | 48.25845 | 17.18397 | 66° | 20km/h | 19957m | 6.6m/s | 0°C | 0% | 0hPa | 0V | 00:00:00 | 00:00:00 | 00:00:00 | |
| ATIDSZ-14 | 2026-09-02 00:33:37 | 48.25834 | 17.18380 | 65° | 11km/h | 19936m | 4.6m/s | 0°C | 0% | 0hPa | 0V | 00:00:00 | 00:00:00 | 00:00:00 | |
| OE5DXL-15 | 2026-09-02 00:33:32 | 48.25832 | 17.18347 | 96° | 31km/h | 19916m | 4.9m/s | 0°C | 0% | 0hPa | 0V | 00:00:00 | 00:00:00 | 00:00:00 | |
| PETON7-10 | 2026-09-02 00:33:31 | 48.25833 | 17.18337 | 101° | 29km/h | 19910m | 6.9m/s | 0°C | 0% | 0hPa | 0V | 00:00:00 | 00:00:00 | 00:00:00 | |
| OE5MMP-10 | 2026-09-02 00:33:29 | 48.25835 | 17.18317 | 95° | 31km/h | 19899m | 5.6m/s | 0°C | 0% | 0hPa | 0V | 00:00:00 | 00:00:00 | 00:00:00 | |
| OE5MMP-10 | 2026-09-02 00:33:18 | 48.25827 | 17.18195 | 89° | 31km/h | 19839m | 5.1m/s | 0°C | 0% | 0hPa | 0V | 00:00:00 | 00:00:00 | 00:00:00 | |
| PETON7-10 | 2026-09-02 00:33:16 | 48.25825 | 17.18169 | 83° | 33km/h | 19828m | 4.8m/s | 0°C | 0% | 0hPa | 0V | 00:00:00 | 00:00:00 | 00:00:00 | |
| OE3OSB-13 | 2026-09-02 00:33:14 | 48.25822 | 17.18131 | 86° | 26km/h | 19812m | 5.0m/s | -55.1°C | 0.3% | 58.9hPa | 0V | 00:00:00 | 00:00:00 | 00:00:00 | |
| OE3JTB-15 | 2026-09-02 00:33:13 | 48.25819 | 17.18097 | 78° | 24km/h | 19796m | 4.5m/s | 0°C | 0% | 0hPa | 0V | 00:00:00 | 00:00:00 | 00:00:00 | |
| OE5MMP-10 | 2026-09-02 00:33:08 | 48.25815 | 17.18073 | 71° | 27km/h | 19786m | 6.2m/s | 0°C | 0% | 0hPa | 0V | 00:00:00 | 00:00:00 | 00:00:00 | |
| OE5DXL-15 | 2026-09-02 00:33:02 | 48.25792 | 17.18016 | 64° | 24km/h | 19751m | 5.6m/s | 0°C | 0% | 0hPa | 0V | 00:00:00 | 00:00:00 | 00:00:00 | |
| PETON7-10 | 2026-09-02 00:33:00 | 48.25789 | 17.17999 | 76° | 22km/h | 19740m | 6.0m/s | 0°C | 0% | 0hPa | 0V | 00:00:00 | 00:00:00 | 00:00:00 | |
| OE3OSB-13 | 2026-09-02 00:32:42 | 48.25740 | 17.17843 | 58° | 27km/h | 19643m | 3.7m/s | -54.6°C | 0.4% | 60.5hPa | 0V | 00:00:00 | 00:00:00 | 00:00:00 | |
| ATIDSZ-14 | 2026-09-02 00:32:33 | 48.25708 | 17.17792 | 62° | 16km/h | 19598m | 4.5m/s | 0°C | 0% | 0hPa | 0V | 00:00:00 | 00:00:00 | 00:00:00 | |
| OE5DXL-15 | 2026-09-02 00:32:32 | 48.25706 | 17.17786 | 76° | 13km/h | 19593m | 6.0m/s | 0°C | 0% | 0hPa | 0V | 00:00:00 | 00:00:00 | 00:00:00 | |
| PG1ADW-2 | 2026-09-02 00:32:30 | 48.25704 | 17.17772 | 78° | 38km/h | 19582m | 3.5m/s | 0°C | 0% | 0hPa | 0V | 00:00:00 | 00:00:00 | 00:00:00 | |
| PETON7-10 | 2026-09-02 00:32:14 | 48.25675 | 17.17707 | 67° | 9km/h | 19498m | 6.1m/s | 0°C | 0% | 0hPa | 0V | 00:00:00 | 00:00:00 | 00:00:00 | |
| ATIDSZ-14 | 2026-09-02 00:32:13 | 48.25675 | 17.17703 | 76° | 11km/h | 19492m | 5.1m/s | 0°C | 0% | 0hPa | 0V | 00:00:00 | 00:00:00 | 00:00:00 | |
| OE3OSB-13 | 2026-09-02 00:32:11 | 48.25674 | 17.17692 | 79° | 11km/h | 19474m | 5.4m/s | -53.8°C | 0.5% | 62.2hPa | 0V | 00:00:00 | 00:00:00 | 00:00:00 | |
| OE5DXL-15 | 2026-09-02 00:32:02 | 48.25670 | 17.17678 | 72° | 20km/h | 19431m | 4.7m/s | 0°C | 0% | 0hPa | 0V | 00:00:00 | 00:00:00 | 00:00:00 | |
| PETON7-10 | 2026-09-02 00:31:57 | 48.25669 | 17.17655 | 108° | 18km/h | 19404m | 4.6m/s | 0°C | 0% | 0hPa | 0V | 00:00:00 | 00:00:00 | 00:00:00 | |
| ATIDSZ-14 | 2026-09-02 00:31:52 | 48.25678 | 17.17631 | 96° | 13km/h | 19374m | 4.8m/s | 0°C | 0% | 0hPa | 0V | 00:00:00 | 00:00:00 | 00:00:00 | |
| PETON7-10 | 2026-09-02 00:31:41 | 48.25695 | 17.17557 | 104° | 26km/h | 19316m | 7.3m/s | 0°C | 0% | 0hPa | 0V | 00:00:00 | 00:00:00 | 00:00:00 | |
| OE3OSB-13 | 2026-09-02 00:31:40 | 48.25696 | 17.17544 | 96° | 18km/h | 19305m | 5.6m/s | -54.3°C | 0.5% | 63.9hPa | 0V | 00:00:00 | 00:00:00 | 00:00:00 | |
| OE5DXL-15 | 2026-09-02 00:31:32 | 48.25708 | 17.17464 | 113° | 26km/h | 19266m | 4.5m/s | 0°C | 0% | 0hPa | 0V | 00:00:00 | 00:00:00 | 00:00:00 | |
| ATIDSZ-14 | 2026-09-02 00:31:31 | 48.25710 | 17.17456 | 104° | 22km/h | 19261m | 5.2m/s | 0°C | 0% | 0hPa | 0V | 00:00:00 | 00:00:00 | 00:00:00 | |
| PETON7-10 | 2026-09-02 00:31:26 | 48.25712 | 17.17411 | 100° | 27km/h | 19234m | 5.5m/s | 0°C | 0% | 0hPa | 0V | 00:00:00 | 00:00:00 | 00:00:00 | |
| PETON7-10 | 2026-09-02 00:31:11 | 48.25725 | 17.17261 | 132° | 24km/h | 19152m | 4.6m/s | 0°C | 0% | 0hPa | 0V | 00:00:00 | 00:00:00 | 00:00:00 | |
| ATIDSZ-14 | 2026-09-02 00:31:10 | 48.25730 | 17.17253 | 126° | 27km/h | 19148m | 5.3m/s | 0°C | 0% | 0hPa | 0V | 00:00:00 | 00:00:00 | 00:00:00 | |
| OE3OSB-13 | 2026-09-02 00:31:09 | 48.25733 | 17.17236 | 77° | 20km/h | 19137m | 4.6m/s | -54.3°C | 0.5% | 65.7hPa | 0V | 00:00:00 | 00:00:00 | 00:00:00 | |
| OE5DXL-15 | 2026-09-02 00:31:02 | 48.25719 | 17.17188 | 75° | 22km/h | 19107m | 4.7m/s | 0°C | 0% | 0hPa | 0V | 00:00:00 | 00:00:00 | 00:00:00 | |
| PETON7-10 | 2026-09-02 00:30:52 | 48.25711 | 17.17104 | 79° | 22km/h | 19054m | 3.4m/s | 0°C | 0% | 0hPa | 0V | 00:00:00 | 00:00:00 | 00:00:00 | |
| ATIDSZ-14 | 2026-09-02 00:30:49 | 48.25705 | 17.17077 | 58° | 20km/h | 19039m | 4.2m/s | 0°C | 0% | 0hPa | 0V | 00:00:00 | 00:00:00 | 00:00:00 | |
| OE3OSB-13 | 2026-09-02 00:30:38 | 48.25695 | 17.16981 | 76° | 15km/h | 18977m | 4.8m/s | -54.8°C | 0.6% | 67.4hPa | 0V | 00:00:00 | 00:00:00 | 00:00:00 | |
| PETON7-10 | 2026-09-02 00:30:36 | 48.25690 | 17.16967 | 63° | 20km/h | 18967m | 4.6m/s | 0°C | 0% | 0hPa | 0V | 00:00:00 | 00:00:00 | 00:00:00 | |
| OE5DXL-15 | 2026-09-02 00:30:32 | 48.25686 | 17.16943 | 98° | 16km/h | 18952m | 4.7m/s | 0°C | 0% | 0hPa | 0V | 00:00:00 | 00:00:00 | 00:00:00 | |
| ATIDSZ-14 | 2026-09-02 00:30:29 | 48.25688 | 17.16925 | 99° | 15km/h | 18936m | 4.7m/s | 0°C | 0% | 0hPa | 0V | 00:00:00 | 00:00:00 | 00:00:00 | |
| PETON7-10 | 2026-09-02 00:30:20 | 48.25693 | 17.16866 | 133° | 18km/h | 18889m | 5.4m/s | 0°C | 0% | 0hPa | 0V | 00:00:00 | 00:00:00 | 00:00:00 | |
| ATIDSZ-14 | 2026-09-02 00:30:09 | 48.25706 | 17.16800 | 115° | 18km/h | 18833m | 5.5m/s | 0°C | 0% | 0hPa | 0V | 00:00:00 | 00:00:00 | 00:00:00 | |
| OE3OSB-13 | 2026-09-02 00:30:07 | 48.25711 | 17.16784 | 93° | 16km/h | 18817m | 5.0m/s | -54.8°C | 0.7% | 69.1hPa | 0V | 00:00:00 | 00:00:00 | 00:00:00 | |
| OE3JTB-15 | 2026-09-02 00:30:05 | 48.25715 | 17.16745 | 97° | 20km/h | 18791m | 6.3m/s | 0°C | 0% | 0hPa | 0V | 00:00:00 | 00:00:00 | 00:00:00 | |
| OE5MMP-10 | 2026-09-02 00:29:51 | 48.25727 | 17.16644 | 105° | 31km/h | 18741m | 4.6m/s | 0°C | 0% | 0hPa | 0V | 00:00:00 | 00:00:00 | 00:00:00 | |
| PETON7-10 | 2026-09-02 00:29:49 | 48.25729 | 17.16623 | 96° | 16km/h | 18731m | 4.7m/s | 0°C | 0% | 0hPa | 0V | 00:00:00 | 00:00:00 | 00:00:00 | |
| OE3OSB-13 | 2026-09-02 00:29:36 | 48.25738 | 17.16537 | 96° | 7km/h | 18657m | 4.2m/s | -54.4°C | 0.7% | 70.9hPa | 0V | 00:00:00 | 00:00:00 | 00:00:00 | |
| PETON7-10 | 2026-09-02 00:29:33 | 48.25737 | 17.16531 | 65° | 18km/h | 18647m | 5.0m/s | 0°C | 0% | 0hPa | 0V | 00:00:00 | 00:00:00 | 00:00:00 | |
| OE5DXL-15 | 2026-09-02 00:29:32 | 48.25736 | 17.16528 | 78° | 24km/h | 18642m | 4.4m/s | 0°C | 0% | 0hPa | 0V | 00:00:00 | 00:00:00 | 00:00:00 | |
| ATIDSZ-14 | 2026-09-02 00:29:28 | 48.25743 | 17.16513 | 119° | 22km/h | 18622m | 6.7m/s | 0°C | 0% | 0hPa | 0V | 00:00:00 | 00:00:00 | 00:00:00 | |
| PETON7-10 | 2026-09-02 00:29:15 | 48.25770 | 17.16429 | 101° | 24km/h | 18554m | 4.0m/s | 0°C | 0% | 0hPa | 0V | 00:00:00 | 00:00:00 | 00:00:00 | |
| ATIDSZ-14 | 2026-09-02 00:29:08 | 48.25782 | 17.16378 | 113° | 33km/h | 18518m | 4.5m/s | 0°C | 0% | 0hPa | 0V | 00:00:00 | 00:00:00 | 00:00:00 | |
| OE3OSB-13 | 2026-09-02 00:29:05 | 48.25807 | 17.16319 | 116° | 38km/h | 18491m | 4.0m/s | -54.0°C | 0.8% | 72.8hPa | 0V | 00:00:00 | 00:00:00 | 00:00:00 | |
| OE5DXL-15 | 2026-09-02 00:29:01 | 48.25813 | 17.16297 | 112° | 40km/h | 18481m | 5.6m/s | 0°C | 0% | 0hPa | 0V | 00:00:00 | 00:00:00 | 00:00:00 | |
| PETON7-10 | 2026-09-02 00:28:58 | 48.25816 | 17.16266 | 99° | 42km/h | 18466m | 4.2m/s | 0°C | 0% | 0hPa | 0V | 00:00:00 | 00:00:00 | 00:00:00 | |
| ATIDSZ-14 | 2026-09-02 00:28:48 | 48.25855 | 17.16125 | 91° | 40km/h | 18415m | 5.3m/s | 0°C | 0% | 0hPa | 0V | 00:00:00 | 00:00:00 | 00:00:00 | |
| PETON7-10 | 2026-09-02 00:28:43 | 48.25863 | 17.16046 | 109° | 44km/h | 18392m | 5.7m/s | 0°C | 0% | 0hPa | 0V | 00:00:00 | 00:00:00 | 00:00:00 | |
| OE5MMP-10 | 2026-09-02 00:28:36 | 48.25881 | 17.15938 | 98° | 49km/h | 18358m | 3.7m/s | 0°C | 0% | 0hPa | 0V | 00:00:00 | 00:00:00 | 00:00:00 | |
| OE3OSB-13 | 2026-09-02 00:28:34 | 48.25885 | 17.15885 | 98° | 42km/h | 18344m | 4.4m/s | -54.7°C | 0.8% | 74.5hPa | 0V | 00:00:00 | 00:00:00 | 00:00:00 | |
| OE5DXL-15 | 2026-09-02 00:28:31 | 48.25888 | 17.15852 | 95° | 46km/h | 18334m | 5.1m/s | 0°C | 0% | 0hPa | 0V | 00:00:00 | 00:00:00 | 00:00:00 | |
| ATIDSZ-14 | 2026-09-02 00:28:28 | 48.25891 | 17.15804 | 94° | 40km/h | 18318m | 4.6m/s | 0°C | 0% | 0hPa | 0V | 00:00:00 | 00:00:00 | 00:00:00 | |
| PETON7-10 | 2026-09-02 00:28:24 | 48.25891 | 17.15734 | 86° | 44km/h | 18299m | 5.8m/s | 0°C | 0% | 0hPa | 0V | 00:00:00 | 00:00:00 | 00:00:00 | |
| PETON7-10 | 2026-09-02 00:28:08 | 48.25879 | 17.15476 | 79° | 51km/h | 18219m | 5.8m/s | 0°C | 0% | 0hPa | 0V | 00:00:00 | 00:00:00 | 00:00:00 | |
| ATIDSZ-14 | 2026-09-02 00:28:07 | 48.25876 | 17.15456 | 75° | 57km/h | 18214m | 5.3m/s | 0°C | 0% | 0hPa | 0V | 00:00:00 | 00:00:00 | 00:00:00 | |
| OE3OSB-13 | 2026-09-02 00:28:03 | 48.25861 | 17.15354 | 71° | 49km/h | 18189m | 5.6m/s | -55.2°C | 1.0% | 76.4hPa | 0V | 00:00:00 | 00:00:00 | 00:00:00 | |
| OE5DXL-15 | 2026-09-02 00:28:01 | 48.25857 | 17.15336 | 69° | 44km/h | 18185m | 4.1m/s | 0°C | 0% | 0hPa | 0V | 00:00:00 | 00:00:00 | 00:00:00 | |
| OE3JTB-15 | 2026-09-02 00:27:57 | 48.25826 | 17.15198 | 79° | 40km/h | 18143m | 5.3m/s | 0°C | 0% | 0hPa | 0V | 00:00:00 | 00:00:00 | 00:00:00 | |
| PETON7-10 | 2026-09-02 00:27:53 | 48.25826 | 17.15198 | 79° | 44km/h | 18143m | 5.3m/s | 0°C | 0% | 0hPa | 0V | 00:00:00 | 00:00:00 | 00:00:00 | |
| ATIDSZ-14 | 2026-09-02 00:27:47 | 48.25801 | 17.15104 | 62° | 46km/h | 18112m | 5.9m/s | 0°C | 0% | 0hPa | 0V | 00:00:00 | 00:00:00 | 00:00:00 | |
| PETON7-10 | 2026-09-02 00:27:37 | 48.25764 | 17.14953 | 64° | 38km/h | 18060m | 6.7m/s | 0°C | 0% | 0hPa | 0V | 00:00:00 | 00:00:00 | 00:00:00 | |
| OE3OSB-13 | 2026-09-02 00:27:33 | 48.25746 | 17.14863 | 75° | 44km/h | 18033m | 5.4m/s | -54.0°C | 1.2% | 78.3hPa | 0V | 00:00:00 | 00:00:00 | 00:00:00 | |
| OE5DXL-15 | 2026-09-02 00:27:31 | 48.25746 | 17.14863 | 76° | 35km/h | 18033m | 5.3m/s | 0°C | 0% | 0hPa | 0V | 00:00:00 | 00:00:00 | 00:00:00 | |
| ATIDSZ-14 | 2026-09-02 00:27:26 | 48.25730 | 17.14802 | 65° | 33km/h | 18007m | 5.3m/s | 0°C | 0% | 0hPa | 0V | 00:00:00 | 00:00:00 | 00:00:00 | |
| PETON7-10 | 2026-09-02 00:27:22 | 48.25716 | 17.14752 | 81° | 35km/h | 17987m | 4.4m/s | 0°C | 0% | 0hPa | 0V | 00:00:00 | 00:00:00 | 00:00:00 | |
| PETON7-10 | 2026-09-02 00:27:07 | 48.25681 | 17.14565 | 71° | 29km/h | 17912m | 4.9m/s | 0°C | 0% | 0hPa | 0V | 00:00:00 | 00:00:00 | 00:00:00 | |
| ATIDSZ-14 | 2026-09-02 00:27:05 | 48.25676 | 17.14542 | 76° | 27km/h | 17903m | 5.9m/s | 0°C | 0% | 0hPa | 0V | 00:00:00 | 00:00:00 | 00:00:00 | |
| OE3OSB-13 | 2026-09-02 00:27:01 | 48.25671 | 17.14495 | 83° | 26km/h | 17877m | 6.5m/s | -53.0°C | 1.2% | 80.3hPa | 0V | 00:00:00 | 00:00:00 | 00:00:00 | |
| OE3JTB-15 | 2026-09-02 00:26:57 | 48.25666 | 17.14426 | 89° | 35km/h | 17846m | 5.6m/s | 0°C | 0% | 0hPa | 0V | 00:00:00 | 00:00:00 | 00:00:00 | |
| PETON7-10 | 2026-09-02 00:26:52 | 48.25666 | 17.14401 | 93° | 31km/h | 17836m | 5.8m/s | 0°C | 0% | 0hPa | 0V | 00:00:00 | 00:00:00 | 00:00:00 | |
| ATIDSZ-14 | 2026-09-02 00:26:45 | 48.25671 | 17.14331 | 82° | 29km/h | 17802m | 3.7m/s | 0°C | 0% | 0hPa | 0V | 00:00:00 | 00:00:00 | 00:00:00 | |
| PETON7-10 | 2026-09-02 00:26:37 | 48.25686 | 17.14232 | 111° | 38km/h | 17760m | 4.1m/s | 0°C | 0% | 0hPa | 0V | 00:00:00 | 00:00:00 | 00:00:00 | |
| OE5DXL-15 | 2026-09-02 00:26:31 | 48.25697 | 17.14152 | 100° | 40km/h | 17730m | 5.5m/s | 0°C | 0% | 0hPa | 0V | 00:00:00 | 00:00:00 | 00:00:00 | |
| OE3OSB-13 | 2026-09-02 00:26:29 | 48.25700 | 17.14129 | 105° | 33km/h | 17720m | 5.4m/s | -53.9°C | 1.3% | 82.3hPa | 0V | 00:00:00 | 00:00:00 | 00:00:00 | |
| ATIDSZ-14 | 2026-09-02 00:26:25 | 48.25715 | 17.14068 | 110° | 42km/h | 17700m | 5.3m/s | 0°C | 0% | 0hPa | 0V | 00:00:00 | 00:00:00 | 00:00:00 | |
| PETON7-10 | 2026-09-02 00:26:22 | 48.25725 | 17.14027 | 114° | 40km/h | 17687m | 5.3m/s | 0°C | 0% | 0hPa | 0V | 00:00:00 | 00:00:00 | 00:00:00 | |
| PETON7-10 | 2026-09-02 00:26:07 | 48.25790 | 17.13825 | 124° | 44km/h | 17611m | 5.9m/s | 0°C | 0% | 0hPa | 0V | 00:00:00 | 00:00:00 | 00:00:00 | |
| ATIDSZ-14 | 2026-09-02 00:26:05 | 48.25802 | 17.13792 | 111° | 55km/h | 17600m | 4.0m/s | 0°C | 0% | 0hPa | 0V | 00:00:00 | 00:00:00 | 00:00:00 | |
| OE3OSB-13 | 2026-09-02 00:25:59 | 48.25830 | 17.13680 | 119° | 40km/h | 17568m | 5.2m/s | -54.1°C | 1.3% | 84.3hPa | 0V | 00:00:00 | 00:00:00 | 00:00:00 | |
| OE3JTB-15 | 2026-09-02 00:25:57 | 48.25850 | 17.13621 | 119° | 49km/h | 17548m | 4.9m/s | 0°C | 0% | 0hPa | 0V | 00:00:00 | 00:00:00 | 00:00:00 | |
| PETON7-10 | 2026-09-02 00:25:51 | 48.25869 | 17.13564 | 113° | 49km/h | 17534m | 5.0m/s | 0°C | 0% | 0hPa | 0V | 00:00:00 | 00:00:00 | 00:00:00 | |
| ATIDSZ-14 | 2026-09-02 00:25:45 | 48.25892 | 17.13460 | 106° | 51km/h | 17504m | 5.4m/s | 0°C | 0% | 0hPa | 0V | 00:00:00 | 00:00:00 | 00:00:00 | |
| PETON7-10 | 2026-09-02 00:25:36 | 48.25923 | 17.13298 | 97° | 49km/h | 17455m | 5.1m/s | 0°C | 0% | 0hPa | 0V | 00:00:00 | 00:00:00 | 00:00:00 | |
| OE5DXL-15 | 2026-09-02 00:25:31 | 48.25927 | 17.13209 | 94° | 49km/h | 17427m | 5.5m/s | 0°C | 0% | 0hPa | 0V | 00:00:00 | 00:00:00 | 00:00:00 | |
| OE3OSB-13 | 2026-09-02 00:25:27 | 48.25936 | 17.13131 | 94° | 53km/h | 17407m | 5.8m/s | -54.5°C | 1.5% | 86.5hPa | 0V | 00:00:00 | 00:00:00 | 00:00:00 | |
| OE5MMP-10 | 2026-09-02 00:25:26 | 48.25936 | 17.13111 | 88° | 46km/h | 17403m | 4.7m/s | 0°C | 0% | 0hPa | 0V | 00:00:00 | 00:00:00 | 00:00:00 | |
| ATIDSZ-14 | 2026-09-02 00:25:24 | 48.25935 | 17.13078 | 90° | 38km/h | 17392m | 5.2m/s | 0°C | 0% | 0hPa | 0V | 00:00:00 | 00:00:00 | 00:00:00 | |
| PETON7-10 | 2026-09-02 00:25:20 | 48.25939 | 17.13018 | 95° | 47km/h | 17371m | 5.2m/s | 0°C | 0% | 0hPa | 0V | 00:00:00 | 00:00:00 | 00:00:00 | |
| OE5MMP-10 | 2026-09-02 00:25:16 | 48.25945 | 17.12946 | 91° | 51km/h | 17350m | 6.9m/s | 0°C | 0% | 0hPa | 0V | 00:00:00 | 00:00:00 | 00:00:00 | |
| OE5MMP-10 | 2026-09-02 00:25:06 | 48.25943 | 17.12761 | 93° | 49km/h | 17296m | 5.8m/s | 0°C | 0% | 0hPa | 0V | 00:00:00 | 00:00:00 | 00:00:00 | |
| PETON7-10 | 2026-09-02 00:25:05 | 48.25943 | 17.12741 | 89° | 49km/h | 17290m | 4.8m/s | 0°C | 0% | 0hPa | 0V | 00:00:00 | 00:00:00 | 00:00:00 | |
| ATIDSZ-14 | 2026-09-02 00:25:03 | 48.25941 | 17.12703 | 85° | 46km/h | 17279m | 4.7m/s | 0°C | 0% | 0hPa | 0V | 00:00:00 | 00:00:00 | 00:00:00 | |
| OE5DXL-15 | 2026-09-02 00:25:01 | 48.25937 | 17.12670 | 80° | 46km/h | 17269m | 6.3m/s | 0°C | 0% | 0hPa | 0V | 00:00:00 | 00:00:00 | 00:00:00 | |
| OE3JTB-15 | 2026-09-02 00:24:56 | 48.25926 | 17.12528 | 84° | 44km/h | 17229m | 5.8m/s | 0°C | 0% | 0hPa | 0V | 00:00:00 | 00:00:00 | 00:00:00 | |
| OE5MMP-10 | 2026-09-02 00:24:53 | 48.25926 | 17.12528 | 84° | 49km/h | 17229m | 5.8m/s | 0°C | 0% | 0hPa | 0V | 00:00:00 | 00:00:00 | 00:00:00 | |
| PETON7-10 | 2026-09-02 00:24:49 | 48.25919 | 17.12453 | 82° | 46km/h | 17209m | 4.4m/s | 0°C | 0% | 0hPa | 0V | 00:00:00 | 00:00:00 | 00:00:00 | |
| OE5MMP-10 | 2026-09-02 00:24:43 | 48.25912 | 17.12346 | 82° | 42km/h | 17180m | 4.4m/s | 0°C | 0% | 0hPa | 0V | 00:00:00 | 00:00:00 | 00:00:00 | |
| ATIDSZ-14 | 2026-09-02 00:24:42 | 48.25910 | 17.12327 | 83° | 47km/h | 17175m | 6.1m/s | 0°C | 0% | 0hPa | 0V | 00:00:00 | 00:00:00 | 00:00:00 | |
| PETON7-10 | 2026-09-02 00:24:34 | 48.25885 | 17.12209 | 75° | 42km/h | 17133m | 4.7m/s | 0°C | 0% | 0hPa | 0V | 00:00:00 | 00:00:00 | 00:00:00 | |
| OE5DXL-15 | 2026-09-02 00:24:31 | 48.25876 | 17.12162 | 74° | 42km/h | 17116m | 5.3m/s | 0°C | 0% | 0hPa | 0V | 00:00:00 | 00:00:00 | 00:00:00 | |
| OE3JTB-15 | 2026-09-02 00:24:27 | 48.25860 | 17.12060 | 87° | 44km/h | 17080m | 4.3m/s | 0°C | 0% | 0hPa | 0V | 00:00:00 | 00:00:00 | 00:00:00 | |
| OE3OSB-13 | 2026-09-02 00:24:25 | 48.25860 | 17.12061 | 86° | 47km/h | 17080m | 4.4m/s | -53.6°C | 1.9% | 91.1hPa | 0V | 00:00:00 | 00:00:00 | 00:00:00 | |
| ATIDSZ-14 | 2026-09-02 00:24:22 | 48.25858 | 17.12023 | 85° | 46km/h | 17071m | 5.7m/s | 0°C | 0% | 0hPa | 0V | 00:00:00 | 00:00:00 | 00:00:00 | |
| PETON7-10 | 2026-09-02 00:24:19 | 48.25851 | 17.11978 | 68° | 40km/h | 17057m | 5.2m/s | 0°C | 0% | 0hPa | 0V | 00:00:00 | 00:00:00 | 00:00:00 | |
| ATIDSZ-14 | 2026-09-02 00:24:02 | 48.25819 | 17.11720 | 85° | 46km/h | 16973m | 4.8m/s | 0°C | 0% | 0hPa | 0V | 00:00:00 | 00:00:00 | 00:00:00 | |
| OE5DXL-15 | 2026-09-02 00:24:01 | 48.25817 | 17.11703 | 83° | 49km/h | 16968m | 5.8m/s | 0°C | 0% | 0hPa | 0V | 00:00:00 | 00:00:00 | 00:00:00 | |
| OE3OSB-13 | 2026-09-02 00:23:54 | 48.25812 | 17.11551 | 78° | 51km/h | 16928m | 4.4m/s | -53.5°C | 2.0% | 93.3hPa | 0V | 00:00:00 | 00:00:00 | 00:00:00 | |
| PETON7-10 | 2026-09-02 00:23:47 | 48.25794 | 17.11447 | 80° | 49km/h | 16899m | 4.7m/s | 0°C | 0% | 0hPa | 0V | 00:00:00 | 00:00:00 | 00:00:00 | |
| ATIDSZ-14 | 2026-09-02 00:23:42 | 48.25779 | 17.11352 | 71° | 51km/h | 16873m | 5.9m/s | 0°C | 0% | 0hPa | 0V | 00:00:00 | 00:00:00 | 00:00:00 | |
| PETON7-10 | 2026-09-02 00:23:32 | 48.25747 | 17.11177 | 71° | 46km/h | 16829m | 4.2m/s | 0°C | 0% | 0hPa | 0V | 00:00:00 | 00:00:00 | 00:00:00 | |
| OE5DXL-15 | 2026-09-02 00:23:31 | 48.25743 | 17.11162 | 68° | 51km/h | 16824m | 5.6m/s | 0°C | 0% | 0hPa | 0V | 00:00:00 | 00:00:00 | 00:00:00 | |
| OE3JTB-15 | 2026-09-02 00:23:29 | 48.25734 | 17.11092 | 91° | 53km/h | 16804m | 4.1m/s | 0°C | 0% | 0hPa | 0V | 00:00:00 | 00:00:00 | 00:00:00 | |
| OE3OSB-13 | 2026-09-02 00:23:23 | 48.25734 | 17.10995 | 83° | 46km/h | 16780m | 3.9m/s | -53.5°C | 2.1% | 95.5hPa | 0V | 00:00:00 | 00:00:00 | 00:00:00 | |
| ATIDSZ-14 | 2026-09-02 00:23:21 | 48.25733 | 17.10978 | 83° | 42km/h | 16775m | 4.8m/s | 0°C | 0% | 0hPa | 0V | 00:00:00 | 00:00:00 | 00:00:00 | |
| PETON7-10 | 2026-09-02 00:23:17 | 48.25734 | 17.10913 | 98° | 55km/h | 16757m | 4.6m/s | 0°C | 0% | 0hPa | 0V | 00:00:00 | 00:00:00 | 00:00:00 | |
| PETON7-10 | 2026-09-02 00:23:02 | 48.25752 | 17.10598 | 94° | 51km/h | 16692m | 4.3m/s | 0°C | 0% | 0hPa | 0V | 00:00:00 | 00:00:00 | 00:00:00 | |
| OE5DXL-15 | 2026-09-02 00:23:00 | 48.25752 | 17.10561 | 83° | 53km/h | 16684m | 4.9m/s | 0°C | 0% | 0hPa | 0V | 00:00:00 | 00:00:00 | 00:00:00 | |
| OE3OSB-13 | 2026-09-02 00:22:52 | 48.25739 | 17.10387 | 79° | 51km/h | 16644m | 5.1m/s | -54.0°C | 2.2% | 97.6hPa | 0V | 00:00:00 | 00:00:00 | 00:00:00 | |
| PETON7-10 | 2026-09-02 00:22:47 | 48.25731 | 17.10309 | 84° | 53km/h | 16626m | 4.0m/s | 0°C | 0% | 0hPa | 0V | 00:00:00 | 00:00:00 | 00:00:00 | |
| ATIDSZ-14 | 2026-09-02 00:22:40 | 48.25721 | 17.10169 | 87° | 49km/h | 16593m | 3.9m/s | 0°C | 0% | 0hPa | 0V | 00:00:00 | 00:00:00 | 00:00:00 | |
| OE5DXL-15 | 2026-09-02 00:22:30 | 48.25713 | 17.09966 | 88° | 55km/h | 16547m | 3.0m/s | 0°C | 0% | 0hPa | 0V | 00:00:00 | 00:00:00 | 00:00:00 | |
| PETON7-10 | 2026-09-02 00:22:29 | 48.25713 | 17.09946 | 89° | 57km/h | 16543m | 4.5m/s | 0°C | 0% | 0hPa | 0V | 00:00:00 | 00:00:00 | 00:00:00 | |
| OE3OSB-13 | 2026-09-02 00:22:21 | 48.25713 | 17.09756 | 91° | 57km/h | 16502m | 4.2m/s | -54.1°C | 2.4% | 99.8hPa | 0V | 00:00:00 | 00:00:00 | 00:00:00 | |
| ATIDSZ-14 | 2026-09-02 00:22:19 | 48.25714 | 17.09734 | 90° | 58km/h | 16498m | 3.7m/s | 0°C | 0% | 0hPa | 0V | 00:00:00 | 00:00:00 | 00:00:00 | |
| PETON7-10 | 2026-09-02 00:22:14 | 48.25713 | 17.09625 | 88° | 55km/h | 16476m | 4.7m/s | 0°C | 0% | 0hPa | 0V | 00:00:00 | 00:00:00 | 00:00:00 | |
| PG1ADW-2 | 2026-09-02 00:22:08 | 48.25713 | 17.09501 | 92° | 64km/h | 16448m | 3.4m/s | 0°C | 0% | 0hPa | 0V | 00:00:00 | 00:00:00 | 00:00:00 | |
| OE5DXL-15 | 2026-09-02 00:22:00 | 48.25699 | 17.09336 | 79° | 62km/h | 16413m | 4.9m/s | 0°C | 0% | 0hPa | 0V | 00:00:00 | 00:00:00 | 00:00:00 | |
| OE3OSB-13 | 2026-09-02 00:21:51 | 48.25667 | 17.09087 | 75° | 66km/h | 16363m | 5.7m/s | -54.4°C | 2.5% | 102.0hPa | 0V | 00:00:00 | 00:00:00 | 00:00:00 | |
| PETON7-10 | 2026-09-02 00:21:42 | 48.25640 | 17.08913 | 81° | 57km/h | 16333m | 4.4m/s | 0°C | 0% | 0hPa | 0V | 00:00:00 | 00:00:00 | 00:00:00 | |
| ATIDSZ-14 | 2026-09-02 00:21:38 | 48.25630 | 17.08829 | 82° | 60km/h | 16315m | 5.4m/s | 0°C | 0% | 0hPa | 0V | 00:00:00 | 00:00:00 | 00:00:00 | |
| OE5DXL-15 | 2026-09-02 00:21:31 | 48.25602 | 17.08658 | 72° | 49km/h | 16276m | 5.6m/s | 0°C | 0% | 0hPa | 0V | 00:00:00 | 00:00:00 | 00:00:00 | |
| PETON7-10 | 2026-09-02 00:21:27 | 48.25595 | 17.08601 | 87° | 49km/h | 16261m | 6.3m/s | 0°C | 0% | 0hPa | 0V | 00:00:00 | 00:00:00 | 00:00:00 | |
| OE3OSB-13 | 2026-09-02 00:21:19 | 48.25574 | 17.08429 | 82° | 46km/h | 16216m | 5.9m/s | -54.7°C | 2.6% | 104.4hPa | 0V | 00:00:00 | 00:00:00 | 00:00:00 | |
| ATIDSZ-14 | 2026-09-02 00:21:17 | 48.25573 | 17.08411 | 87° | 51km/h | 16211m | 5.1m/s | 0°C | 0% | 0hPa | 0V | 00:00:00 | 00:00:00 | 00:00:00 | |
| PETON7-10 | 2026-09-02 00:21:10 | 48.25565 | 17.08286 | 81° | 51km/h | 16177m | 4.0m/s | 0°C | 0% | 0hPa | 0V | 00:00:00 | 00:00:00 | 00:00:00 | |
| OE3JTB-15 | 2026-09-02 00:21:04 | 48.25549 | 17.08115 | 77° | 58km/h | 16132m | 5.8m/s | 0°C | 0% | 0hPa | 0V | 00:00:00 | 00:00:00 | 00:00:00 | |
| OE5DXL-15 | 2026-09-02 00:21:00 | 48.25546 | 17.08097 | 77° | 58km/h | 16128m | 3.6m/s | 0°C | 0% | 0hPa | 0V | 00:00:00 | 00:00:00 | 00:00:00 | |
| OE3OSB-13 | 2026-09-02 00:20:48 | 48.25530 | 17.07828 | 81° | 60km/h | 16065m | 4.4m/s | -54.9°C | 2.8% | 107.0hPa | 0V | 00:00:00 | 00:00:00 | 00:00:00 | |
| PETON7-10 | 2026-09-02 00:20:40 | 48.25512 | 17.07677 | 75° | 58km/h | 16029m | 4.5m/s | 0°C | 0% | 0hPa | 0V | 00:00:00 | 00:00:00 | 00:00:00 | |
| ATIDSZ-14 | 2026-09-02 00:20:35 | 48.25500 | 17.07562 | 89° | 58km/h | 16005m | 4.4m/s | 0°C | 0% | 0hPa | 0V | 00:00:00 | 00:00:00 | 00:00:00 | |
| OE5DXL-15 | 2026-09-02 00:20:30 | 48.25494 | 17.07452 | 84° | 60km/h | 15980m | 4.5m/s | 0°C | 0% | 0hPa | 0V | 00:00:00 | 00:00:00 | 00:00:00 | |
| PETON7-10 | 2026-09-02 00:20:25 | 48.25490 | 17.07342 | 88° | 62km/h | 15954m | 4.5m/s | 0°C | 0% | 0hPa | 0V | 00:00:00 | 00:00:00 | 00:00:00 | |
| OE3OSB-13 | 2026-09-02 00:20:17 | 48.25495 | 17.07146 | 86° | 64km/h | 15909m | 6.1m/s | -54.5°C | 3.0% | 109.6hPa | 0V | 00:00:00 | 00:00:00 | 00:00:00 | |
| PETON7-10 | 2026-09-02 00:20:10 | 48.25490 | 17.07003 | 89° | 60km/h | 15880m | 4.7m/s | 0°C | 0% | 0hPa | 0V | 00:00:00 | 00:00:00 | 00:00:00 | |
| OE5DXL-15 | 2026-09-02 00:20:00 | 48.25492 | 17.06781 | 91° | 71km/h | 15830m | 5.7m/s | 0°C | 0% | 0hPa | 0V | 00:00:00 | 00:00:00 | 00:00:00 | |
| OE3OSB-13 | 2026-09-02 00:19:46 | 48.25483 | 17.06407 | 84° | 71km/h | 15755m | 5.8m/s | -54.2°C | 3.4% | 112.4hPa | 0V | 00:00:00 | 00:00:00 | 00:00:00 | |
| OE3JTB-15 | 2026-09-02 00:19:38 | 48.25473 | 17.06071 | 87° | 69km/h | 15696m | 5.9m/s | 0°C | 0% | 0hPa | 0V | 00:00:00 | 00:00:00 | 00:00:00 | |
| ATIDSZ-14 | 2026-09-02 00:19:31 | 48.25470 | 17.06013 | 87° | 73km/h | 15686m | 5.3m/s | 0°C | 0% | 0hPa | 0V | 00:00:00 | 00:00:00 | 00:00:00 | |
| OE5DXL-15 | 2026-09-02 00:19:30 | 48.25469 | 17.05986 | 91° | 68km/h | 15682m | 4.0m/s | 0°C | 0% | 0hPa | 0V | 00:00:00 | 00:00:00 | 00:00:00 | |
| PG1ADW-2 | 2026-09-02 00:19:26 | 48.25468 | 17.05882 | 90° | 69km/h | 15661m | 5.8m/s | 0°C | 0% | 0hPa | 0V | 00:00:00 | 00:00:00 | 00:00:00 | |
| PETON7-10 | 2026-09-02 00:19:22 | 48.25465 | 17.05776 | 88° | 68km/h | 15639m | 5.1m/s | 0°C | 0% | 0hPa | 0V | 00:00:00 | 00:00:00 | 00:00:00 | |
| OE3OSB-13 | 2026-09-02 00:19:15 | 48.25461 | 17.05570 | 89° | 73km/h | 15598m | 5.5m/s | -53.7°C | 3.7% | 115.2hPa | 0V | 00:00:00 | 00:00:00 | 00:00:00 | |
| ATIDSZ-14 | 2026-09-02 00:19:11 | 48.25461 | 17.05490 | 90° | 69km/h | 15585m | 3.8m/s | 0°C | 0% | 0hPa | 0V | 00:00:00 | 00:00:00 | 00:00:00 | |
| PETON7-10 | 2026-09-02 00:19:08 | 48.25456 | 17.05390 | 88° | 62km/h | 15565m | 4.4m/s | 0°C | 0% | 0hPa | 0V | 00:00:00 | 00:00:00 | 00:00:00 | |
| PG1ADW-2 | 2026-09-02 00:19:05 | 48.25455 | 17.05344 | 87° | 64km/h | 15555m | 6.7m/s | 0°C | 0% | 0hPa | 0V | 00:00:00 | 00:00:00 | 00:00:00 | |
| OE5DXL-15 | 2026-09-02 00:19:00 | 48.25449 | 17.05222 | 82° | 62km/h | 15528m | 4.5m/s | 0°C | 0% | 0hPa | 0V | 00:00:00 | 00:00:00 | 00:00:00 | |
| OE3OSB-13 | 2026-09-02 00:18:44 | 48.25436 | 17.04831 | 96° | 58km/h | 15443m | 4.0m/s | -53.2°C | 4.0% | 118.0hPa | 0V | 00:00:00 | 00:00:00 | 00:00:00 | |
| OE3JTB-15 | 2026-09-02 00:18:40 | 48.25434 | 17.04672 | 89° | 62km/h | 15409m | 3.8m/s | 0°C | 0% | 0hPa | 0V | 00:00:00 | 00:00:00 | 00:00:00 | |
| PETON7-10 | 2026-09-02 00:18:36 | 48.25434 | 17.04672 | 89° | 64km/h | 15409m | 3.8m/s | 0°C | 0% | 0hPa | 0V | 00:00:00 | 00:00:00 | 00:00:00 | |
| OE5DXL-15 | 2026-09-02 00:18:30 | 48.25438 | 17.04526 | 90° | 60km/h | 15379m | 4.8m/s | 0°C | 0% | 0hPa | 0V | 00:00:00 | 00:00:00 | 00:00:00 | |
| ATIDSZ-14 | 2026-09-02 00:18:29 | 48.25438 | 17.04499 | 92° | 68km/h | 15374m | 4.4m/s | 0°C | 0% | 0hPa | 0V | 00:00:00 | 00:00:00 | 00:00:00 | |
| PETON7-10 | 2026-09-02 00:18:21 | 48.25440 | 17.04312 | 90° | 58km/h | 15335m | 4.5m/s | 0°C | 0% | 0hPa | 0V | 00:00:00 | 00:00:00 | 00:00:00 | |
| OE3OSB-13 | 2026-09-02 00:18:13 | 48.25442 | 17.04120 | 91° | 55km/h | 15292m | 5.4m/s | -53.7°C | 4.1% | 120.9hPa | 0V | 00:00:00 | 00:00:00 | 00:00:00 | |
| OE5MMP-10 | 2026-09-02 00:18:09 | 48.25443 | 17.04067 | 91° | 64km/h | 15278m | 3.7m/s | 0°C | 0% | 0hPa | 0V | 00:00:00 | 00:00:00 | 00:00:00 | |
| PETON7-10 | 2026-09-02 00:18:05 | 48.25441 | 17.03959 | 92° | 64km/h | 15258m | 4.3m/s | 0°C | 0% | 0hPa | 0V | 00:00:00 | 00:00:00 | 00:00:00 | |
| OE5DXL-15 | 2026-09-02 00:18:00 | 48.25446 | 17.03832 | 95° | 68km/h | 15232m | 4.6m/s | 0°C | 0% | 0hPa | 0V | 00:00:00 | 00:00:00 | 00:00:00 | |
| OE5MMP-10 | 2026-09-02 00:17:51 | 48.25449 | 17.03620 | 96° | 68km/h | 15190m | 5.1m/s | 0°C | 0% | 0hPa | 0V | 00:00:00 | 00:00:00 | 00:00:00 | |
| PETON7-10 | 2026-09-02 00:17:50 | 48.25451 | 17.03593 | 93° | 69km/h | 15185m | 4.9m/s | 0°C | 0% | 0hPa | 0V | 00:00:00 | 00:00:00 | 00:00:00 | |
| ATIDSZ-14 | 2026-09-02 00:17:49 | 48.25451 | 17.03568 | 93° | 64km/h | 15180m | 5.5m/s | 0°C | 0% | 0hPa | 0V | 00:00:00 | 00:00:00 | 00:00:00 | |
| OE3OSB-13 | 2026-09-02 00:17:42 | 48.25459 | 17.03370 | 92° | 71km/h | 15142m | 5.2m/s | -54.4°C | 4.3% | 123.8hPa | 0V | 00:00:00 | 00:00:00 | 00:00:00 | |
| OE3JTB-15 | 2026-09-02 00:17:39 | 48.25465 | 17.03232 | 98° | 68km/h | 15116m | 6.2m/s | 0°C | 0% | 0hPa | 0V | 00:00:00 | 00:00:00 | 00:00:00 | |
| PETON7-10 | 2026-09-02 00:17:33 | 48.25471 | 17.03151 | 96° | 69km/h | 15100m | 4.7m/s | 0°C | 0% | 0hPa | 0V | 00:00:00 | 00:00:00 | 00:00:00 | |
| OE5DXL-15 | 2026-09-02 00:17:30 | 48.25470 | 17.03070 | 86° | 68km/h | 15085m | 4.7m/s | 0°C | 0% | 0hPa | 0V | 00:00:00 | 00:00:00 | 00:00:00 | |
| ATIDSZ-14 | 2026-09-02 00:17:29 | 48.25469 | 17.03043 | 88° | 69km/h | 15080m | 5.6m/s | 0°C | 0% | 0hPa | 0V | 00:00:00 | 00:00:00 | 00:00:00 | |
| OE3OSB-13 | 2026-09-02 00:17:11 | 48.25451 | 17.02562 | 80° | 58km/h | 14982m | 4.1m/s | -54.1°C | 4.5% | 127.0hPa | 0V | 00:00:00 | 00:00:00 | 00:00:00 | |
| ATIDSZ-14 | 2026-09-02 00:17:09 | 48.25449 | 17.02539 | 81° | 62km/h | 14978m | 4.9m/s | 0°C | 0% | 0hPa | 0V | 00:00:00 | 00:00:00 | 00:00:00 | |
| OE5MMP-10 | 2026-09-02 00:17:08 | 48.25446 | 17.02516 | 80° | 68km/h | 14973m | 5.1m/s | 0°C | 0% | 0hPa | 0V | 00:00:00 | 00:00:00 | 00:00:00 | |
| PETON7-10 | 2026-09-02 00:17:02 | 48.25437 | 17.02357 | 90° | 68km/h | 14942m | 5.8m/s | 0°C | 0% | 0hPa | 0V | 00:00:00 | 00:00:00 | 00:00:00 | |
| OE5DXL-15 | 2026-09-02 00:17:00 | 48.25436 | 17.02308 | 86° | 73km/h | 14932m | 4.1m/s | 0°C | 0% | 0hPa | 0V | 00:00:00 | 00:00:00 | 00:00:00 | |
| OE5MMP-10 | 2026-09-02 00:16:51 | 48.25427 | 17.02073 | 91° | 75km/h | 14887m | 5.9m/s | 0°C | 0% | 0hPa | 0V | 00:00:00 | 00:00:00 | 00:00:00 | |
| ATIDSZ-14 | 2026-09-02 00:16:48 | 48.25426 | 17.01997 | 89° | 68km/h | 14871m | 4.4m/s | 0°C | 0% | 0hPa | 0V | 00:00:00 | 00:00:00 | 00:00:00 | |
| PETON7-10 | 2026-09-02 00:16:47 | 48.25425 | 17.01972 | 85° | 77km/h | 14866m | 5.3m/s | 0°C | 0% | 0hPa | 0V | 00:00:00 | 00:00:00 | 00:00:00 | |
| OE3OSB-13 | 2026-09-02 00:16:40 | 48.25430 | 17.01746 | 92° | 71km/h | 14824m | 5.1m/s | -54.9°C | 4.7% | 130.2hPa | 0V | 00:00:00 | 00:00:00 | 00:00:00 | |
| OE3JTB-15 | 2026-09-02 00:16:39 | 48.25428 | 17.01631 | 88° | 84km/h | 14803m | 5.0m/s | 0°C | 0% | 0hPa | 0V | 00:00:00 | 00:00:00 | 00:00:00 | |
| PETON7-10 | 2026-09-02 00:16:32 | 48.25427 | 17.01536 | 90° | 88km/h | 14786m | 5.7m/s | 0°C | 0% | 0hPa | 0V | 00:00:00 | 00:00:00 | 00:00:00 | |
| OE5DXL-15 | 2026-09-02 00:16:30 | 48.25427 | 17.01470 | 91° | 82km/h | 14774m | 5.1m/s | 0°C | 0% | 0hPa | 0V | 00:00:00 | 00:00:00 | 00:00:00 | |
| ATIDSZ-14 | 2026-09-02 00:16:27 | 48.25427 | 17.01376 | 88° | 86km/h | 14760m | 5.6m/s | 0°C | 0% | 0hPa | 0V | 00:00:00 | 00:00:00 | 00:00:00 | |
| HA6NAB-11 | 2026-09-02 00:16:15 | 48.25404 | 17.00988 | 83° | 89km/h | 14699m | 4.6m/s | 0°C | 0% | 0hPa | 0V | 00:00:00 | 00:00:00 | 00:00:00 | |
| PETON7-10 | 2026-09-02 00:16:14 | 48.25400 | 17.00955 | 79° | 80km/h | 14694m | 5.6m/s | 0°C | 0% | 0hPa | 0V | 00:00:00 | 00:00:00 | 00:00:00 | |
| OE3OSB-13 | 2026-09-02 00:16:09 | 48.25384 | 17.00776 | 78° | 69km/h | 14663m | 4.8m/s | -55.1°C | 5.2% | 133.5hPa | 0V | 00:00:00 | 00:00:00 | 00:00:00 | |
| ATIDSZ-14 | 2026-09-02 00:16:06 | 48.25375 | 17.00720 | 75° | 82km/h | 14652m | 4.7m/s | 0°C | 0% | 0hPa | 0V | 00:00:00 | 00:00:00 | 00:00:00 | |
| HA6NAB-11 | 2026-09-02 00:16:03 | 48.25359 | 17.00629 | 78° | 78km/h | 14639m | 5.0m/s | 0°C | 0% | 0hPa | 0V | 00:00:00 | 00:00:00 | 00:00:00 | |
| OE5DXL-15 | 2026-09-02 00:16:00 | 48.25351 | 17.00539 | 84° | 78km/h | 14624m | 4.5m/s | 0°C | 0% | 0hPa | 0V | 00:00:00 | 00:00:00 | 00:00:00 | |
| PETON7-10 | 2026-09-02 00:15:59 | 48.25348 | 17.00509 | 83° | 73km/h | 14619m | 4.7m/s | 0°C | 0% | 0hPa | 0V | 00:00:00 | 00:00:00 | 00:00:00 | |
| HA6NAB-11 | 2026-09-02 00:15:58 | 48.25345 | 17.00482 | 83° | 73km/h | 14614m | 5.4m/s | 0°C | 0% | 0hPa | 0V | 00:00:00 | 00:00:00 | 00:00:00 | |
| HA6NAB-11 | 2026-09-02 00:15:52 | 48.25322 | 17.00313 | 74° | 82km/h | 14585m | 4.8m/s | 0°C | 0% | 0hPa | 0V | 00:00:00 | 00:00:00 | 00:00:00 | |
| ATIDSZ-14 | 2026-09-02 00:15:46 | 48.25288 | 17.00146 | 74° | 68km/h | 14554m | 6.2m/s | 0°C | 0% | 0hPa | 0V | 00:00:00 | 00:00:00 | 00:00:00 | |
| PETON7-10 | 2026-09-02 00:15:44 | 48.25277 | 17.00094 | 72° | 82km/h | 14545m | 5.0m/s | 0°C | 0% | 0hPa | 0V | 00:00:00 | 00:00:00 | 00:00:00 | |
| OE5MMP-10 | 2026-09-02 00:15:39 | 48.25245 | 16.99951 | 73° | 78km/h | 14520m | 5.7m/s | 0°C | 0% | 0hPa | 0V | 00:00:00 | 00:00:00 | 00:00:00 | |
| OE3OSB-13 | 2026-09-02 00:15:37 | 48.25231 | 16.99893 | 71° | 78km/h | 14509m | 4.9m/s | -54.6°C | 5.9% | 136.8hPa | 0V | 00:00:00 | 00:00:00 | 00:00:00 | |
| PETON7-10 | 2026-09-02 00:15:26 | 48.25159 | 16.99574 | 75° | 75km/h | 14451m | 5.3m/s | 0°C | 0% | 0hPa | 0V | 00:00:00 | 00:00:00 | 00:00:00 | |
| OE5MMP-10 | 2026-09-02 00:15:20 | 48.25127 | 16.99410 | 65° | 78km/h | 14417m | 4.4m/s | 0°C | 0% | 0hPa | 0V | 00:00:00 | 00:00:00 | 00:00:00 | |
| PETON7-10 | 2026-09-02 00:15:11 | 48.25075 | 16.99169 | 76° | 73km/h | 14352m | 6.0m/s | 0°C | 0% | 0hPa | 0V | 00:00:00 | 00:00:00 | 00:00:00 | |
| OE5MMP-10 | 2026-09-02 00:15:10 | 48.25069 | 16.99140 | 71° | 71km/h | 14347m | 4.6m/s | 0°C | 0% | 0hPa | 0V | 00:00:00 | 00:00:00 | 00:00:00 | |
| OE3OSB-13 | 2026-09-02 00:15:07 | 48.25050 | 16.99032 | 85° | 71km/h | 14322m | 3.2m/s | -53.2°C | 6.8% | 140.9hPa | 0V | 00:00:00 | 00:00:00 | 00:00:00 | |
| ATIDSZ-14 | 2026-09-02 00:15:06 | 48.25050 | 16.99032 | 87° | 73km/h | 14322m | 3.2m/s | 0°C | 0% | 0hPa | 0V | 00:00:00 | 00:00:00 | 00:00:00 | |
| OE5DXL-15 | 2026-09-02 00:15:00 | 48.25024 | 16.98882 | 77° | 69km/h | 14290m | 4.0m/s | 0°C | 0% | 0hPa | 0V | 00:00:00 | 00:00:00 | 00:00:00 | |
| OE5MMP-10 | 2026-09-02 00:14:59 | 48.25020 | 16.98856 | 79° | 71km/h | 14285m | 6.2m/s | 0°C | 0% | 0hPa | 0V | 00:00:00 | 00:00:00 | 00:00:00 | |
| PETON7-10 | 2026-09-02 00:14:56 | 48.25012 | 16.98779 | 84° | 69km/h | 14268m | 6.1m/s | 0°C | 0% | 0hPa | 0V | 00:00:00 | 00:00:00 | 00:00:00 | |
| OE5MMP-10 | 2026-09-02 00:14:49 | 48.25001 | 16.98617 | 81° | 71km/h | 14232m | 6.2m/s | 0°C | 0% | 0hPa | 0V | 00:00:00 | 00:00:00 | 00:00:00 | |
| ATIDSZ-14 | 2026-09-02 00:14:46 | 48.24994 | 16.98518 | 84° | 68km/h | 14216m | 5.2m/s | 0°C | 0% | 0hPa | 0V | 00:00:00 | 00:00:00 | 00:00:00 | |
| PETON7-10 | 2026-09-02 00:14:41 | 48.24987 | 16.98387 | 82° | 71km/h | 14192m | 4.6m/s | 0°C | 0% | 0hPa | 0V | 00:00:00 | 00:00:00 | 00:00:00 | |
| OE5MMP-10 | 2026-09-02 00:14:37 | 48.24977 | 16.98284 | 80° | 71km/h | 14172m | 5.2m/s | 0°C | 0% | 0hPa | 0V | 00:00:00 | 00:00:00 | 00:00:00 | |
| OE3OSB-13 | 2026-09-02 00:14:35 | 48.24970 | 16.98203 | 86° | 75km/h | 14156m | 3.6m/s | -53.6°C | 7.6% | 144.6hPa | 0V | 00:00:00 | 00:00:00 | 00:00:00 | |
| OE5DXL-15 | 2026-09-02 00:14:30 | 48.24966 | 16.98093 | 89° | 77km/h | 14138m | 5.1m/s | 0°C | 0% | 0hPa | 0V | 00:00:00 | 00:00:00 | 00:00:00 | |
| OE5MMP-10 | 2026-09-02 00:14:27 | 48.24961 | 16.98008 | 82° | 77km/h | 14122m | 4.8m/s | 0°C | 0% | 0hPa | 0V | 00:00:00 | 00:00:00 | 00:00:00 | |
| PETON7-10 | 2026-09-02 00:14:25 | 48.24956 | 16.97951 | 86° | 78km/h | 14112m | 3.9m/s | 0°C | 0% | 0hPa | 0V | 00:00:00 | 00:00:00 | 00:00:00 | |
| PETON7-10 | 2026-09-02 00:14:10 | 48.24946 | 16.97507 | 95° | 77km/h | 14045m | 3.0m/s | 0°C | 0% | 0hPa | 0V | 00:00:00 | 00:00:00 | 00:00:00 | |
| OE3JTB-15 | 2026-09-02 00:14:07 | 48.24945 | 16.97341 | 96° | 75km/h | 14016m | 3.9m/s | 0°C | 0% | 0hPa | 0V | 00:00:00 | 00:00:00 | 00:00:00 | |
| ATIDSZ-14 | 2026-09-02 00:14:04 | 48.24945 | 16.97341 | 96° | 68km/h | 14016m | 4.0m/s | 0°C | 0% | 0hPa | 0V | 00:00:00 | 00:00:00 | 00:00:00 | |
| OE5DXL-15 | 2026-09-02 00:14:00 | 48.24952 | 16.97223 | 97° | 77km/h | 13998m | 5.1m/s | 0°C | 0% | 0hPa | 0V | 00:00:00 | 00:00:00 | 00:00:00 | |
| PETON7-10 | 2026-09-02 00:13:54 | 48.24963 | 16.97056 | 97° | 75km/h | 13969m | 4.5m/s | 0°C | 0% | 0hPa | 0V | 00:00:00 | 00:00:00 | 00:00:00 | |
| ATIDSZ-14 | 2026-09-02 00:13:44 | 48.24979 | 16.96774 | 96° | 78km/h | 13926m | 4.1m/s | 0°C | 0% | 0hPa | 0V | 00:00:00 | 00:00:00 | 00:00:00 | |
| PETON7-10 | 2026-09-02 00:13:39 | 48.24989 | 16.96634 | 97° | 80km/h | 13904m | 3.9m/s | 0°C | 0% | 0hPa | 0V | 00:00:00 | 00:00:00 | 00:00:00 | |
| PG1ADW-2 | 2026-09-02 00:13:38 | 48.24991 | 16.96604 | 94° | 80km/h | 13900m | 4.3m/s | 0°C | 0% | 0hPa | 0V | 00:00:00 | 00:00:00 | 00:00:00 | |
| OE3JTB-15 | 2026-09-02 00:13:37 | 48.24996 | 16.96481 | 96° | 88km/h | 13882m | 3.7m/s | 0°C | 0% | 0hPa | 0V | 00:00:00 | 00:00:00 | 00:00:00 | |
| OE3OSB-13 | 2026-09-02 00:13:33 | 48.24999 | 16.96424 | 93° | 71km/h | 13872m | 4.7m/s | -53.3°C | 9.8% | 151.2hPa | 0V | 00:00:00 | 00:00:00 | 00:00:00 | |
| OE5DXL-15 | 2026-09-02 00:13:30 | 48.25001 | 16.96365 | 92° | 88km/h | 13863m | 3.6m/s | 0°C | 0% | 0hPa | 0V | 00:00:00 | 00:00:00 | 00:00:00 | |
| PETON7-10 | 2026-09-02 00:13:24 | 48.25007 | 16.96177 | 98° | 88km/h | 13838m | 3.8m/s | 0°C | 0% | 0hPa | 0V | 00:00:00 | 00:00:00 | 00:00:00 | |
| PG1ADW-2 | 2026-09-02 00:13:17 | 48.25005 | 16.95942 | 89° | 89km/h | 13807m | 3.9m/s | 0°C | 0% | 0hPa | 0V | 00:00:00 | 00:00:00 | 00:00:00 | |
| PETON7-10 | 2026-09-02 00:13:09 | 48.25002 | 16.95675 | 90° | 91km/h | 13773m | 3.1m/s | 0°C | 0% | 0hPa | 0V | 00:00:00 | 00:00:00 | 00:00:00 | |
| OE3JTB-15 | 2026-09-02 00:13:07 | 48.25001 | 16.95466 | 89° | 89km/h | 13749m | 4.5m/s | 0°C | 0% | 0hPa | 0V | 00:00:00 | 00:00:00 | 00:00:00 | |
| ATIDSZ-14 | 2026-09-02 00:13:03 | 48.25001 | 16.95466 | 90° | 89km/h | 13749m | 4.6m/s | 0°C | 0% | 0hPa | 0V | 00:00:00 | 00:00:00 | 00:00:00 | |
| OE3OSB-13 | 2026-09-02 00:13:02 | 48.24998 | 16.95399 | 83° | 86km/h | 13739m | 6.0m/s | -53.7°C | 11.2% | 154.5hPa | 0V | 00:00:00 | 00:00:00 | 00:00:00 | |
| OE5DXL-15 | 2026-09-02 00:13:00 | 48.24995 | 16.95367 | 84° | 89km/h | 13734m | 4.4m/s | 0°C | 0% | 0hPa | 0V | 00:00:00 | 00:00:00 | 00:00:00 | |
| PG1ADW-2 | 2026-09-02 00:12:57 | 48.24989 | 16.95268 | 86° | 86km/h | 13720m | 3.7m/s | 0°C | 0% | 0hPa | 0V | 00:00:00 | 00:00:00 | 00:00:00 | |
| PETON7-10 | 2026-09-02 00:12:54 | 48.24985 | 16.95166 | 89° | 86km/h | 13707m | 4.8m/s | 0°C | 0% | 0hPa | 0V | 00:00:00 | 00:00:00 | 00:00:00 | |
| ATIDSZ-14 | 2026-09-02 00:12:43 | 48.24975 | 16.94809 | 91° | 88km/h | 13660m | 4.4m/s | 0°C | 0% | 0hPa | 0V | 00:00:00 | 00:00:00 | 00:00:00 | |
| PETON7-10 | 2026-09-02 00:12:39 | 48.24975 | 16.94676 | 87° | 95km/h | 13640m | 3.7m/s | 0°C | 0% | 0hPa | 0V | 00:00:00 | 00:00:00 | 00:00:00 | |
| PG1ADW-2 | 2026-09-02 00:12:36 | 48.24971 | 16.94566 | 88° | 93km/h | 13627m | 2.4m/s | 0°C | 0% | 0hPa | 0V | 00:00:00 | 00:00:00 | 00:00:00 | |
| OE3OSB-13 | 2026-09-02 00:12:31 | 48.24964 | 16.94348 | 88° | 91km/h | 13598m | 6.3m/s | -54.1°C | 13.1% | 157.9hPa | 0V | 00:00:00 | 00:00:00 | 00:00:00 | |
| OE5DXL-15 | 2026-09-02 00:12:30 | 48.24964 | 16.94348 | 89° | 91km/h | 13598m | 6.3m/s | 0°C | 0% | 0hPa | 0V | 00:00:00 | 00:00:00 | 00:00:00 | |
| ATIDSZ-14 | 2026-09-02 00:12:23 | 48.24947 | 16.94104 | 82° | 99km/h | 13566m | 2.4m/s | 0°C | 0% | 0hPa | 0V | 00:00:00 | 00:00:00 | 00:00:00 | |
| PG1ADW-2 | 2026-09-02 00:12:14 | 48.24928 | 16.93800 | 84° | 99km/h | 13520m | 4.2m/s | 0°C | 0% | 0hPa | 0V | 00:00:00 | 00:00:00 | 00:00:00 | |
| PETON7-10 | 2026-09-02 00:12:08 | 48.24915 | 16.93594 | 85° | 88km/h | 13495m | 3.6m/s | 0°C | 0% | 0hPa | 0V | 00:00:00 | 00:00:00 | 00:00:00 | |
| OE3JTB-15 | 2026-09-02 00:12:07 | 48.24910 | 16.93462 | 86° | 91km/h | 13475m | 6.3m/s | 0°C | 0% | 0hPa | 0V | 00:00:00 | 00:00:00 | 00:00:00 | |
| ATIDSZ-14 | 2026-09-02 00:12:03 | 48.24906 | 16.93393 | 86° | 91km/h | 13465m | 3.0m/s | 0°C | 0% | 0hPa | 0V | 00:00:00 | 00:00:00 | 00:00:00 | |
| OE3OSB-13 | 2026-09-02 00:12:00 | 48.24905 | 16.93287 | 93° | 91km/h | 13450m | 4.7m/s | -54.0°C | 15.3% | 161.5hPa | 0V | 00:00:00 | 00:00:00 | 00:00:00 | |
| OE5DXL-15 | 2026-09-02 00:11:59 | 48.24905 | 16.93287 | 94° | 91km/h | 13450m | 4.6m/s | 0°C | 0% | 0hPa | 0V | 00:00:00 | 00:00:00 | 00:00:00 | |
| PETON7-10 | 2026-09-02 00:11:53 | 48.24899 | 16.93093 | 81° | 89km/h | 13422m | 5.6m/s | 0°C | 0% | 0hPa | 0V | 00:00:00 | 00:00:00 | 00:00:00 | |
| ATIDSZ-14 | 2026-09-02 00:11:42 | 48.24869 | 16.92736 | 89° | 93km/h | 13362m | 6.8m/s | 0°C | 0% | 0hPa | 0V | 00:00:00 | 00:00:00 | 00:00:00 | |
| PETON7-10 | 2026-09-02 00:11:38 | 48.24867 | 16.92585 | 82° | 99km/h | 13340m | 5.2m/s | 0°C | 0% | 0hPa | 0V | 00:00:00 | 00:00:00 | 00:00:00 | |
| OE3JTB-15 | 2026-09-02 00:11:37 | 48.24849 | 16.92448 | 83° | 102km/h | 13319m | 4.8m/s | 0°C | 0% | 0hPa | 0V | 00:00:00 | 00:00:00 | 00:00:00 | |
| OE3OSB-13 | 2026-09-02 00:11:29 | 48.24824 | 16.92223 | 79° | 102km/h | 13287m | 6.1m/s | -55.2°C | 18.1% | 165.8hPa | 0V | 00:00:00 | 00:00:00 | 00:00:00 | |
| PETON7-10 | 2026-09-02 00:11:23 | 48.24795 | 16.92039 | 74° | 97km/h | 13261m | 6.1m/s | 0°C | 0% | 0hPa | 0V | 00:00:00 | 00:00:00 | 00:00:00 | |
| ATIDSZ-14 | 2026-09-02 00:11:21 | 48.24786 | 16.91970 | 80° | 95km/h | 13249m | 6.0m/s | 0°C | 0% | 0hPa | 0V | 00:00:00 | 00:00:00 | 00:00:00 | |
| PETON7-10 | 2026-09-02 00:11:07 | 48.24718 | 16.91429 | 82° | 102km/h | 13171m | 3.4m/s | 0°C | 0% | 0hPa | 0V | 00:00:00 | 00:00:00 | 00:00:00 | |
| ATIDSZ-14 | 2026-09-02 00:11:01 | 48.24681 | 16.91194 | 72° | 95km/h | 13124m | 9.8m/s | 0°C | 0% | 0hPa | 0V | 00:00:00 | 00:00:00 | 00:00:00 | |
| OE3OSB-13 | 2026-09-02 00:10:58 | 48.24657 | 16.91058 | 79° | 102km/h | 13096m | 8.5m/s | -54.8°C | 22.6% | 170.9hPa | 0V | 00:00:00 | 00:00:00 | 00:00:00 | |
| PETON7-10 | 2026-09-02 00:10:52 | 48.24628 | 16.90863 | 72° | 102km/h | 13062m | 6.5m/s | 0°C | 0% | 0hPa | 0V | 00:00:00 | 00:00:00 | 00:00:00 | |
| ATIDSZ-14 | 2026-09-02 00:10:41 | 48.24518 | 16.90465 | 73° | 108km/h | 12995m | 3.2m/s | 0°C | 0% | 0hPa | 0V | 00:00:00 | 00:00:00 | 00:00:00 | |
| PETON7-10 | 2026-09-02 00:10:37 | 48.24484 | 16.90322 | 68° | 99km/h | 12972m | 3.4m/s | 0°C | 0% | 0hPa | 0V | 00:00:00 | 00:00:00 | 00:00:00 | |
| OE5DXL-15 | 2026-09-02 00:10:29 | 48.24412 | 16.90030 | 77° | 91km/h | 12924m | 9.0m/s | 0°C | 0% | 0hPa | 0V | 00:00:00 | 00:00:00 | 00:00:00 | |
| OE3OSB-13 | 2026-09-02 00:10:27 | 48.24391 | 16.89928 | 72° | 86km/h | 12902m | 7.3m/s | -54.5°C | 28.0% | 176.2hPa | 0V | 00:00:00 | 00:00:00 | 00:00:00 | |
| PETON7-10 | 2026-09-02 00:10:22 | 48.24362 | 16.89791 | 74° | 91km/h | 12875m | 6.6m/s | 0°C | 0% | 0hPa | 0V | 00:00:00 | 00:00:00 | 00:00:00 | |
| ATIDSZ-14 | 2026-09-02 00:10:20 | 48.24348 | 16.89723 | 76° | 89km/h | 12860m | 7.5m/s | 0°C | 0% | 0hPa | 0V | 00:00:00 | 00:00:00 | 00:00:00 | |
| PETON7-10 | 2026-09-02 00:10:07 | 48.24270 | 16.89292 | 84° | 84km/h | 12772m | 13.4m/s | 0°C | 0% | 0hPa | 0V | 00:00:00 | 00:00:00 | 00:00:00 | |
| ATIDSZ-14 | 2026-09-02 00:10:00 | 48.24245 | 16.89066 | 89° | 86km/h | 12722m | 9.1m/s | 0°C | 0% | 0hPa | 0V | 00:00:00 | 00:00:00 | 00:00:00 | |
| OE3OSB-13 | 2026-09-02 00:09:56 | 48.24227 | 16.88918 | 75° | 91km/h | 12685m | 4.9m/s | -55.4°C | 34.1% | 182.3hPa | 0V | 00:00:00 | 00:00:00 | 00:00:00 | |
| PETON7-10 | 2026-09-02 00:09:52 | 48.24211 | 16.88824 | 77° | 80km/h | 12667m | 5.1m/s | 0°C | 0% | 0hPa | 0V | 00:00:00 | 00:00:00 | 00:00:00 | |
| ATIDSZ-14 | 2026-09-02 00:09:39 | 48.24185 | 16.88435 | 86° | 84km/h | 12585m | 5.7m/s | 0°C | 0% | 0hPa | 0V | 00:00:00 | 00:00:00 | 00:00:00 | |
| PETON7-10 | 2026-09-02 00:09:37 | 48.24183 | 16.88370 | 80° | 89km/h | 12574m | 7.3m/s | 0°C | 0% | 0hPa | 0V | 00:00:00 | 00:00:00 | 00:00:00 | |
| OE5DXL-15 | 2026-09-02 00:09:29 | 48.24162 | 16.88092 | 91° | 91km/h | 12534m | 3.2m/s | 0°C | 0% | 0hPa | 0V | 00:00:00 | 00:00:00 | 00:00:00 | |
| OE3OSB-13 | 2026-09-02 00:09:28 | 48.24155 | 16.87932 | 80° | 80km/h | 12496m | 4.5m/s | -55.7°C | 40.5% | 187.8hPa | 0V | 00:00:00 | 00:00:00 | 00:00:00 | |
| PETON7-10 | 2026-09-02 00:09:22 | 48.24150 | 16.87871 | 77° | 91km/h | 12485m | 9.7m/s | 0°C | 0% | 0hPa | 0V | 00:00:00 | 00:00:00 | 00:00:00 | |
| ATIDSZ-14 | 2026-09-02 00:09:17 | 48.24131 | 16.87691 | 94° | 97km/h | 12457m | 6.3m/s | 0°C | 0% | 0hPa | 0V | 00:00:00 | 00:00:00 | 00:00:00 | |
| OE3JTB-15 | 2026-09-02 00:09:10 | 48.24126 | 16.87349 | 93° | 99km/h | 12390m | 3.7m/s | 0°C | 0% | 0hPa | 0V | 00:00:00 | 00:00:00 | 00:00:00 | |
| PETON7-10 | 2026-09-02 00:09:07 | 48.24126 | 16.87349 | 93° | 95km/h | 12390m | 3.7m/s | 0°C | 0% | 0hPa | 0V | 00:00:00 | 00:00:00 | 00:00:00 | |
| OE3OSB-13 | 2026-09-02 00:08:54 | 48.24136 | 16.86855 | 93° | 102km/h | 12311m | 6.6m/s | -56.5°C | 46.4% | 193.5hPa | 0V | 00:00:00 | 00:00:00 | 00:00:00 | |
| PETON7-10 | 2026-09-02 00:08:50 | 48.24138 | 16.86738 | 91° | 108km/h | 12297m | 5.7m/s | 0°C | 0% | 0hPa | 0V | 00:00:00 | 00:00:00 | 00:00:00 | |
| OE3JTB-15 | 2026-09-02 00:08:41 | 48.24159 | 16.86218 | 90° | 120km/h | 12233m | 4.7m/s | 0°C | 0% | 0hPa | 0V | 00:00:00 | 00:00:00 | 00:00:00 | |
| ATIDSZ-14 | 2026-09-02 00:08:36 | 48.24159 | 16.86174 | 91° | 115km/h | 12228m | 4.1m/s | 0°C | 0% | 0hPa | 0V | 00:00:00 | 00:00:00 | 00:00:00 | |
| PETON7-10 | 2026-09-02 00:08:34 | 48.24160 | 16.86085 | 95° | 117km/h | 12216m | 5.6m/s | 0°C | 0% | 0hPa | 0V | 00:00:00 | 00:00:00 | 00:00:00 | |
| OE5DXL-15 | 2026-09-02 00:08:27 | 48.24178 | 16.85772 | 93° | 124km/h | 12181m | 4.2m/s | 0°C | 0% | 0hPa | 0V | 00:00:00 | 00:00:00 | 00:00:00 | |
| OE3OSB-13 | 2026-09-02 00:08:23 | 48.24193 | 16.85557 | 98° | 106km/h | 12155m | 7.0m/s | -56.8°C | 51.2% | 198.3hPa | 0V | 00:00:00 | 00:00:00 | 00:00:00 | |
| PETON7-10 | 2026-09-02 00:08:19 | 48.24209 | 16.85425 | 99° | 126km/h | 12137m | 6.4m/s | 0°C | 0% | 0hPa | 0V | 00:00:00 | 00:00:00 | 00:00:00 | |
| ATIDSZ-14 | 2026-09-02 00:08:16 | 48.24217 | 16.85284 | 92° | 119km/h | 12114m | 6.2m/s | 0°C | 0% | 0hPa | 0V | 00:00:00 | 00:00:00 | 00:00:00 | |
| OE3JTB-15 | 2026-09-02 00:08:11 | 48.24214 | 16.85043 | 93° | 135km/h | 12084m | 5.2m/s | 0°C | 0% | 0hPa | 0V | 00:00:00 | 00:00:00 | 00:00:00 | |
| PETON7-10 | 2026-09-02 00:08:02 | 48.24217 | 16.84611 | 91° | 130km/h | 12036m | 3.6m/s | 0°C | 0% | 0hPa | 0V | 00:00:00 | 00:00:00 | 00:00:00 | |
| OE3OSB-13 | 2026-09-02 00:07:52 | 48.24218 | 16.84008 | 91° | 128km/h | 11966m | 6.5m/s | -58.3°C | 54.5% | 204.5hPa | 0V | 00:00:00 | 00:00:00 | 00:00:00 | |
| PETON7-10 | 2026-09-02 00:07:47 | 48.24210 | 16.83854 | 86° | 137km/h | 11942m | 4.0m/s | 0°C | 0% | 0hPa | 0V | 00:00:00 | 00:00:00 | 00:00:00 | |
| OE3JTB-15 | 2026-09-02 00:07:37 | 48.24215 | 16.83341 | 93° | 139km/h | 11881m | 4.1m/s | 0°C | 0% | 0hPa | 0V | 00:00:00 | 00:00:00 | 00:00:00 | |
| PETON7-10 | 2026-09-02 00:07:32 | 48.24223 | 16.83081 | 94° | 135km/h | 11853m | 5.5m/s | 0°C | 0% | 0hPa | 0V | 00:00:00 | 00:00:00 | 00:00:00 | |
| OE5DXL-15 | 2026-09-02 00:07:27 | 48.24223 | 16.82822 | 90° | 137km/h | 11828m | 2.4m/s | 0°C | 0% | 0hPa | 0V | 00:00:00 | 00:00:00 | 00:00:00 | |
| OE3OSB-13 | 2026-09-02 00:07:21 | 48.24225 | 16.82417 | 94° | 135km/h | 11773m | 0.1m/s | -57.8°C | 55.6% | 210.9hPa | 0V | 00:00:00 | 00:00:00 | 00:00:00 | |
| PETON7-10 | 2026-09-02 00:07:17 | 48.24228 | 16.82311 | 94° | 135km/h | 11761m | 8.0m/s | 0°C | 0% | 0hPa | 0V | 00:00:00 | 00:00:00 | 00:00:00 | |
| ATIDSZ-14 | 2026-09-02 00:07:10 | 48.24236 | 16.81956 | 90° | 137km/h | 11713m | 7.2m/s | 0°C | 0% | 0hPa | 0V | 00:00:00 | 00:00:00 | 00:00:00 | |
| OE3JTB-15 | 2026-09-02 00:07:08 | 48.24234 | 16.81852 | 90° | 122km/h | 11701m | 5.7m/s | 0°C | 0% | 0hPa | 0V | 00:00:00 | 00:00:00 | 00:00:00 | |
| PETON7-10 | 2026-09-02 00:07:01 | 48.24234 | 16.81491 | 95° | 139km/h | 11662m | 4.1m/s | 0°C | 0% | 0hPa | 0V | 00:00:00 | 00:00:00 | 00:00:00 | |
| OE3OSB-13 | 2026-09-02 00:06:49 | 48.24222 | 16.80809 | 85° | 133km/h | 11588m | 5.7m/s | -56.7°C | 57.1% | 217.0hPa | 0V | 00:00:00 | 00:00:00 | 00:00:00 | |
| ATIDSZ-14 | 2026-09-02 00:06:47 | 48.24222 | 16.80758 | 93° | 133km/h | 11584m | 2.0m/s | 0°C | 0% | 0hPa | 0V | 00:00:00 | 00:00:00 | 00:00:00 | |
| PETON7-10 | 2026-09-02 00:06:45 | 48.24221 | 16.80659 | 92° | 130km/h | 11572m | 6.8m/s | 0°C | 0% | 0hPa | 0V | 00:00:00 | 00:00:00 | 00:00:00 | |
| ATIDSZ-14 | 2026-09-02 00:06:26 | 48.24216 | 16.79723 | 91° | 126km/h | 11469m | 4.7m/s | 0°C | 0% | 0hPa | 0V | 00:00:00 | 00:00:00 | 00:00:00 | |
| OE5DXL-15 | 2026-09-02 00:06:25 | 48.24216 | 16.79673 | 92° | 126km/h | 11464m | 5.3m/s | 0°C | 0% | 0hPa | 0V | 00:00:00 | 00:00:00 | 00:00:00 | |
| OE3OSB-13 | 2026-09-02 00:06:19 | 48.24219 | 16.79287 | 92° | 131km/h | 11428m | 4.6m/s | -55.8°C | 58.1% | 222.7hPa | 0V | 00:00:00 | 00:00:00 | 00:00:00 | |
| PETON7-10 | 2026-09-02 00:06:10 | 48.24219 | 16.78944 | 92° | 122km/h | 11392m | 6.3m/s | 0°C | 0% | 0hPa | 0V | 00:00:00 | 00:00:00 | 00:00:00 | |
| ATIDSZ-14 | 2026-09-02 00:06:06 | 48.24227 | 16.78760 | 95° | 120km/h | 11374m | 3.6m/s | 0°C | 0% | 0hPa | 0V | 00:00:00 | 00:00:00 | 00:00:00 | |
| OE3OSB-13 | 2026-09-02 00:05:47 | 48.24228 | 16.77742 | 88° | 131km/h | 11276m | 5.9m/s | -54.5°C | 60.1% | 228.1hPa | 0V | 00:00:00 | 00:00:00 | 00:00:00 | |
| ATIDSZ-14 | 2026-09-02 00:05:46 | 48.24230 | 16.77789 | 87° | 119km/h | 11282m | 6.5m/s | 0°C | 0% | 0hPa | 0V | 00:00:00 | 00:00:00 | 00:00:00 | |
| PETON7-10 | 2026-09-02 00:05:40 | 48.24230 | 16.77550 | 94° | 119km/h | 11255m | 5.0m/s | 0°C | 0% | 0hPa | 0V | 00:00:00 | 00:00:00 | 00:00:00 | |
| ATIDSZ-14 | 2026-09-02 00:05:24 | 48.24233 | 16.76838 | 96° | 128km/h | 11178m | 5.1m/s | 0°C | 0% | 0hPa | 0V | 00:00:00 | 00:00:00 | 00:00:00 | |
| OE5DXL-15 | 2026-09-02 00:05:23 | 48.24236 | 16.76790 | 95° | 119km/h | 11174m | 2.9m/s | 0°C | 0% | 0hPa | 0V | 00:00:00 | 00:00:00 | 00:00:00 | |
| PETON7-10 | 2026-09-02 00:05:19 | 48.24240 | 16.76610 | 87° | 117km/h | 11156m | 3.7m/s | 0°C | 0% | 0hPa | 0V | 00:00:00 | 00:00:00 | 00:00:00 | |
| OE3OSB-13 | 2026-09-02 00:05:16 | 48.24235 | 16.76435 | 87° | 124km/h | 11133m | 5.8m/s | -53.5°C | 62.4% | 233.2hPa | 0V | 00:00:00 | 00:00:00 | 00:00:00 | |
| PETON7-10 | 2026-09-02 00:05:04 | 48.24230 | 16.75953 | 90° | 119km/h | 11065m | 5.7m/s | 0°C | 0% | 0hPa | 0V | 00:00:00 | 00:00:00 | 00:00:00 | |
| OE3OSB-13 | 2026-09-02 00:04:45 | 48.24224 | 16.75068 | 89° | 111km/h | 10955m | 4.1m/s | -51.9°C | 65.0% | 239.9hPa | 0V | 00:00:00 | 00:00:00 | 00:00:00 | |
| ATIDSZ-14 | 2026-09-02 00:04:44 | 48.24223 | 16.75023 | 91° | 122km/h | 10951m | 5.1m/s | 0°C | 0% | 0hPa | 0V | 00:00:00 | 00:00:00 | 00:00:00 | |
| PETON7-10 | 2026-09-02 00:04:33 | 48.24234 | 16.74576 | 91° | 113km/h | 10889m | 4.7m/s | 0°C | 0% | 0hPa | 0V | 00:00:00 | 00:00:00 | 00:00:00 | |
| OE5DXL-15 | 2026-09-02 00:04:22 | 48.24235 | 16.74082 | 93° | 113km/h | 10832m | 3.2m/s | 0°C | 0% | 0hPa | 0V | 00:00:00 | 00:00:00 | 00:00:00 | |
| PETON7-10 | 2026-09-02 00:04:18 | 48.24245 | 16.73916 | 90° | 113km/h | 10812m | 10.2m/s | 0°C | 0% | 0hPa | 0V | 00:00:00 | 00:00:00 | 00:00:00 | |
| OE3OSB-13 | 2026-09-02 00:04:15 | 48.24239 | 16.73698 | 88° | 115km/h | 10781m | 3.8m/s | -50.6°C | 67.7% | 246.4hPa | 0V | 00:00:00 | 00:00:00 | 00:00:00 | |
| OE3JTB-15 | 2026-09-02 00:04:08 | 48.24232 | 16.73401 | 89° | 113km/h | 10738m | 6.3m/s | 0°C | 0% | 0hPa | 0V | 00:00:00 | 00:00:00 | 00:00:00 | |
| OE3OSB-13 | 2026-09-02 00:03:49 | 48.24222 | 16.72372 | 90° | 113km/h | 10585m | 6.2m/s | -49.0°C | 67.6% | 253.9hPa | 0V | 00:00:00 | 00:00:00 | 00:00:00 | |
| ATIDSZ-14 | 2026-09-02 00:03:46 | 48.24223 | 16.72286 | 92° | 104km/h | 10573m | 4.2m/s | 0°C | 0% | 0hPa | 0V | 00:00:00 | 00:00:00 | 00:00:00 | |
| PETON7-10 | 2026-09-02 00:03:33 | 48.24217 | 16.72001 | 94° | 111km/h | 10531m | 4.5m/s | 0°C | 0% | 0hPa | 0V | 00:00:00 | 00:00:00 | 00:00:00 | |
| OE3JTB-15 | 2026-09-02 00:03:27 | 48.24217 | 16.71497 | 91° | 110km/h | 10455m | 8.0m/s | 0°C | 0% | 0hPa | 0V | 00:00:00 | 00:00:00 | 00:00:00 | |
| OE5DXL-15 | 2026-09-02 00:03:24 | 48.24219 | 16.71413 | 89° | 106km/h | 10444m | 5.5m/s | 0°C | 0% | 0hPa | 0V | 00:00:00 | 00:00:00 | 00:00:00 | |
| OE3OSB-13 | 2026-09-02 00:03:22 | 48.24213 | 16.71074 | 91° | 97km/h | 10397m | 5.6m/s | -47.3°C | 70.6% | 261.6hPa | 0V | 00:00:00 | 00:00:00 | 00:00:00 | |
| PETON7-10 | 2026-09-02 00:03:16 | 48.24219 | 16.70714 | 98° | 104km/h | 10339m | 6.5m/s | 0°C | 0% | 0hPa | 0V | 00:00:00 | 00:00:00 | 00:00:00 | |
| ATIDSZ-14 | 2026-09-02 00:03:10 | 48.24219 | 16.70443 | 89° | 106km/h | 10301m | 4.0m/s | 0°C | 0% | 0hPa | 0V | 00:00:00 | 00:00:00 | 00:00:00 | |
| PETON7-10 | 2026-09-02 00:02:59 | 48.24218 | 16.70130 | 91° | 108km/h | 10251m | 6.0m/s | 0°C | 0% | 0hPa | 0V | 00:00:00 | 00:00:00 | 00:00:00 | |
| OE5DXL-15 | 2026-09-02 00:02:58 | 48.24218 | 16.70089 | 90° | 106km/h | 10245m | 6.9m/s | 0°C | 0% | 0hPa | 0V | 00:00:00 | 00:00:00 | 00:00:00 | |
| OE3OSB-13 | 2026-09-02 00:02:50 | 48.24219 | 16.69844 | 78° | 111km/h | 10214m | 8.3m/s | -45.9°C | 73.0% | 269.0hPa | 0V | 00:00:00 | 00:00:00 | 00:00:00 | |
| ATIDSZ-14 | 2026-09-02 00:02:43 | 48.24217 | 16.69602 | 96° | 106km/h | 10177m | 2.9m/s | 0°C | 0% | 0hPa | 0V | 00:00:00 | 00:00:00 | 00:00:00 | |
| PETON7-10 | 2026-09-02 00:02:41 | 48.24216 | 16.69481 | 85° | 106km/h | 10155m | 8.9m/s | 0°C | 0% | 0hPa | 0V | 00:00:00 | 00:00:00 | 00:00:00 | |
| PETON7-10 | 2026-09-02 00:02:26 | 48.24197 | 16.68880 | 94° | 104km/h | 10065m | 3.5m/s | 0°C | 0% | 0hPa | 0V | 00:00:00 | 00:00:00 | 00:00:00 | |
| OE5DXL-15 | 2026-09-02 00:02:25 | 48.24197 | 16.68880 | 94° | 102km/h | 10065m | 3.5m/s | 0°C | 0% | 0hPa | 0V | 00:00:00 | 00:00:00 | 00:00:00 | |
| OE3OSB-13 | 2026-09-02 00:02:17 | 48.24191 | 16.68606 | 87° | 106km/h | 10026m | 4.5m/s | -44.7°C | 74.0% | 276.7hPa | 0V | 00:00:00 | 00:00:00 | 00:00:00 | |
| PETON7-10 | 2026-09-02 00:02:08 | 48.24177 | 16.68262 | 82° | 100km/h | 9968m | 3.7m/s | 0°C | 0% | 0hPa | 0V | 00:00:00 | 00:00:00 | 00:00:00 | |
| ATIDSZ-14 | 2026-09-02 00:01:57 | 48.24147 | 16.67839 | 83° | 106km/h | 9908m | 7.2m/s | 0°C | 0% | 0hPa | 0V | 00:00:00 | 00:00:00 | 00:00:00 | |
| PETON7-10 | 2026-09-02 00:01:54 | 48.24137 | 16.67689 | 89° | 100km/h | 9881m | 3.9m/s | 0°C | 0% | 0hPa | 0V | 00:00:00 | 00:00:00 | 00:00:00 | |
| OE3JTB-15 | 2026-09-02 00:01:53 | 48.24134 | 16.67529 | 84° | 99km/h | 9854m | 4.6m/s | 0°C | 0% | 0hPa | 0V | 00:00:00 | 00:00:00 | 00:00:00 | |
| OE3OSB-13 | 2026-09-02 00:01:48 | 48.24123 | 16.67421 | 75° | 88km/h | 9840m | 3.8m/s | -43.2°C | 75.5% | 284.4hPa | 0V | 00:00:00 | 00:00:00 | 00:00:00 | |
| ATIDSZ-14 | 2026-09-02 00:01:35 | 48.24099 | 16.67020 | 86° | 88km/h | 9774m | 3.9m/s | 0°C | 0% | 0hPa | 0V | 00:00:00 | 00:00:00 | 00:00:00 | |
| OE5DXL-15 | 2026-09-02 00:01:18 | 48.24071 | 16.66540 | 78° | 102km/h | 9691m | 8.0m/s | 0°C | 0% | 0hPa | 0V | 00:00:00 | 00:00:00 | 00:00:00 | |
| PETON7-10 | 2026-09-02 00:01:15 | 48.24054 | 16.66399 | 90° | 99km/h | 9663m | 6.5m/s | 0°C | 0% | 0hPa | 0V | 00:00:00 | 00:00:00 | 00:00:00 | |
| OE3OSB-13 | 2026-09-02 00:01:12 | 48.24045 | 16.66281 | 77° | 113km/h | 9644m | 5.0m/s | -41.6°C | 74.9% | 292.9hPa | 0V | 00:00:00 | 00:00:00 | 00:00:00 | |
| ATIDSZ-14 | 2026-09-02 00:01:03 | 48.24020 | 16.66127 | 73° | 84km/h | 9623m | 5.5m/s | 0°C | 0% | 0hPa | 0V | 00:00:00 | 00:00:00 | 00:00:00 | |
| PETON7-10 | 2026-09-02 00:00:53 | 48.23989 | 16.65755 | 85° | 100km/h | 9562m | 5.6m/s | 0°C | 0% | 0hPa | 0V | 00:00:00 | 00:00:00 | 00:00:00 | |
| OE3JTB-15 | 2026-09-02 00:00:48 | 48.23947 | 16.65317 | 92° | 99km/h | 9492m | 6.2m/s | 0°C | 0% | 0hPa | 0V | 00:00:00 | 00:00:00 | 00:00:00 | |
| ATIDSZ-14 | 2026-09-02 00:00:46 | 48.23948 | 16.65356 | 85° | 95km/h | 9497m | 4.7m/s | 0°C | 0% | 0hPa | 0V | 00:00:00 | 00:00:00 | 00:00:00 | |
| PETON7-10 | 2026-09-02 00:00:38 | 48.23937 | 16.65158 | 82° | 97km/h | 9467m | 3.1m/s | 0°C | 0% | 0hPa | 0V | 00:00:00 | 00:00:00 | 00:00:00 | |
| OE3OSB-13 | 2026-09-02 00:00:37 | 48.23932 | 16.65089 | 76° | 89km/h | 9453m | 9.6m/s | -39.9°C | 74.1% | 301.5hPa | 0V | 00:00:00 | 00:00:00 | 00:00:00 | |
| PETON7-10 | 2026-09-02 00:00:27 | 48.23884 | 16.64614 | 76° | 97km/h | 9362m | 5.4m/s | 0°C | 0% | 0hPa | 0V | 00:00:00 | 00:00:00 | 00:00:00 | |
| OE3JTB-15 | 2026-09-02 00:00:18 | 48.23827 | 16.64139 | 78° | 91km/h | 9284m | 4.1m/s | 0°C | 0% | 0hPa | 0V | 00:00:00 | 00:00:00 | 00:00:00 | |
| OE5DXL-15 | 2026-09-02 00:00:12 | 48.23823 | 16.64104 | 83° | 93km/h | 9279m | 4.0m/s | 0°C | 0% | 0hPa | 0V | 00:00:00 | 00:00:00 | 00:00:00 | |
| OE3OSB-13 | 2026-09-02 00:00:07 | 48.23821 | 16.63967 | 91° | 91km/h | 9261m | 3.2m/s | -38.4°C | 72.7% | 310.0hPa | 0V | 00:00:00 | 00:00:00 | 00:00:00 | |
| PETON7-10 | 2026-09-02 00:00:06 | 48.23820 | 16.64002 | 91° | 93km/h | 9265m | 5.6m/s | 0°C | 0% | 0hPa | 0V | 00:00:00 | 00:00:00 | 00:00:00 | |
| PETON7-10 | 2026-09-01 23:59:45 | 48.23768 | 16.63304 | 84° | 89km/h | 9127m | 5.2m/s | 0°C | 0% | 0hPa | 0V | 00:00:00 | 00:00:00 | 00:00:00 | |
| OE3JTB-15 | 2026-09-01 23:59:38 | 48.23730 | 16.62951 | 79° | 93km/h | 9064m | 6.7m/s | 0°C | 0% | 0hPa | 0V | 00:00:00 | 00:00:00 | 00:00:00 | |
| OE5DXL-15 | 2026-09-01 23:59:37 | 48.23736 | 16.63018 | 87° | 93km/h | 9080m | 8.3m/s | 0°C | 0% | 0hPa | 0V | 00:00:00 | 00:00:00 | 00:00:00 | |
| OE3OSB-13 | 2026-09-01 23:59:34 | 48.23720 | 16.62892 | 75° | 84km/h | 9053m | 4.4m/s | -37.0°C | 70.8% | 319.6hPa | 0V | 00:00:00 | 00:00:00 | 00:00:00 | |
| PETON7-10 | 2026-09-01 23:59:30 | 48.23711 | 16.62792 | 88° | 95km/h | 9035m | 8.0m/s | 0°C | 0% | 0hPa | 0V | 00:00:00 | 00:00:00 | 00:00:00 | |
| PETON7-10 | 2026-09-01 23:59:15 | 48.23657 | 16.62265 | 81° | 100km/h | 8933m | 6.3m/s | 0°C | 0% | 0hPa | 0V | 00:00:00 | 00:00:00 | 00:00:00 | |
| OE3JTB-15 | 2026-09-01 23:59:06 | 48.23623 | 16.61819 | 78° | 95km/h | 8851m | 5.4m/s | 0°C | 0% | 0hPa | 0V | 00:00:00 | 00:00:00 | 00:00:00 | |
| OE3OSB-13 | 2026-09-01 23:59:03 | 48.23617 | 16.61776 | 78° | 111km/h | 8846m | 5.5m/s | -35.5°C | 68.4% | 329.3hPa | 0V | 00:00:00 | 00:00:00 | 00:00:00 | |
| PETON7-10 | 2026-09-01 23:59:00 | 48.23605 | 16.61699 | 78° | 91km/h | 8835m | 7.9m/s | 0°C | 0% | 0hPa | 0V | 00:00:00 | 00:00:00 | 00:00:00 | |
| HA6NAB-11 | 2026-09-01 23:58:54 | 48.23589 | 16.61487 | 89° | 113km/h | 8789m | 6.2m/s | 0°C | 0% | 0hPa | 0V | 00:00:00 | 00:00:00 | 00:00:00 | |
| HA6NAB-11 | 2026-09-01 23:58:48 | 48.23580 | 16.61276 | 83° | 84km/h | 8748m | 7.8m/s | 0°C | 0% | 0hPa | 0V | 00:00:00 | 00:00:00 | 00:00:00 | |
| OE5DRO-10 | 2026-09-01 23:58:44 | 48.23576 | 16.61135 | 94° | 84km/h | 8722m | 5.8m/s | 0°C | 0% | 0hPa | 0V | 00:00:00 | 00:00:00 | 00:00:00 | |
| HA6NAB-11 | 2026-09-01 23:58:42 | 48.23575 | 16.61070 | 85° | 82km/h | 8710m | 4.2m/s | 0°C | 0% | 0hPa | 0V | 00:00:00 | 00:00:00 | 00:00:00 | |
| OE5DXL-15 | 2026-09-01 23:58:37 | 48.23556 | 16.60888 | 83° | 93km/h | 8683m | 5.4m/s | 0°C | 0% | 0hPa | 0V | 00:00:00 | 00:00:00 | 00:00:00 | |
| HA6NAB-11 | 2026-09-01 23:58:36 | 48.23555 | 16.60849 | 91° | 99km/h | 8679m | 5.0m/s | 0°C | 0% | 0hPa | 0V | 00:00:00 | 00:00:00 | 00:00:00 | |
| OE3JTB-15 | 2026-09-01 23:58:34 | 48.23545 | 16.60690 | 78° | 91km/h | 8640m | 7.2m/s | 0°C | 0% | 0hPa | 0V | 00:00:00 | 00:00:00 | 00:00:00 | |
| OE3OSB-13 | 2026-09-01 23:58:32 | 48.23545 | 16.60690 | 77° | 88km/h | 8640m | 7.3m/s | -34.1°C | 68.6% | 339.1hPa | 0V | 00:00:00 | 00:00:00 | 00:00:00 | |
| HA6NAB-11 | 2026-09-01 23:58:31 | 48.23545 | 16.60690 | 78° | 89km/h | 8640m | 7.3m/s | 0°C | 0% | 0hPa | 0V | 00:00:00 | 00:00:00 | 00:00:00 | |
| PETON7-10 | 2026-09-01 23:58:29 | 48.23537 | 16.60618 | 85° | 97km/h | 8626m | 8.1m/s | 0°C | 0% | 0hPa | 0V | 00:00:00 | 00:00:00 | 00:00:00 | |
| HA6NAB-11 | 2026-09-01 23:58:25 | 48.23541 | 16.60483 | 94° | 78km/h | 8595m | 7.0m/s | 0°C | 0% | 0hPa | 0V | 00:00:00 | 00:00:00 | 00:00:00 | |
| PETON7-10 | 2026-09-01 23:58:14 | 48.23508 | 16.60085 | 85° | 91km/h | 8521m | 7.8m/s | 0°C | 0% | 0hPa | 0V | 00:00:00 | 00:00:00 | 00:00:00 | |
| OE5DXL-15 | 2026-09-01 23:58:06 | 48.23487 | 16.59796 | 82° | 88km/h | 8475m | 4.7m/s | 0°C | 0% | 0hPa | 0V | 00:00:00 | 00:00:00 | 00:00:00 | |
| OE3JTB-15 | 2026-09-01 23:58:03 | 48.23480 | 16.59699 | 88° | 86km/h | 8459m | 6.7m/s | 0°C | 0% | 0hPa | 0V | 00:00:00 | 00:00:00 | 00:00:00 | |
| OE3OSB-13 | 2026-09-01 23:58:01 | 48.23474 | 16.59613 | 81° | 89km/h | 8441m | 6.6m/s | -32.3°C | 68.1% | 349.0hPa | 0V | 00:00:00 | 00:00:00 | 00:00:00 | |
| PETON7-10 | 2026-09-01 23:57:58 | 48.23463 | 16.59545 | 78° | 88km/h | 8430m | 5.3m/s | 0°C | 0% | 0hPa | 0V | 00:00:00 | 00:00:00 | 00:00:00 | |
| PETON7-10 | 2026-09-01 23:57:43 | 48.23440 | 16.59044 | 96° | 84km/h | 8333m | 5.1m/s | 0°C | 0% | 0hPa | 0V | 00:00:00 | 00:00:00 | 00:00:00 | |
| OE5DXL-15 | 2026-09-01 23:57:35 | 48.23414 | 16.58796 | 83° | 80km/h | 8287m | 2.9m/s | 0°C | 0% | 0hPa | 0V | 00:00:00 | 00:00:00 | 00:00:00 | |
| OE3JTB-15 | 2026-09-01 23:57:33 | 48.23418 | 16.58681 | 98° | 73km/h | 8261m | 7.3m/s | 0°C | 0% | 0hPa | 0V | 00:00:00 | 00:00:00 | 00:00:00 | |
| OE3OSB-13 | 2026-09-01 23:57:30 | 48.23419 | 16.58616 | 87° | 84km/h | 8247m | 4.4m/s | -31.6°C | 46.2% | 358.7hPa | 0V | 00:00:00 | 00:00:00 | 00:00:00 | |
| PETON7-10 | 2026-09-01 23:57:27 | 48.23415 | 16.58551 | 85° | 78km/h | 8237m | 5.0m/s | 0°C | 0% | 0hPa | 0V | 00:00:00 | 00:00:00 | 00:00:00 | |
| PETON7-10 | 2026-09-01 23:57:12 | 48.23399 | 16.58109 | 76° | 75km/h | 8152m | 3.8m/s | 0°C | 0% | 0hPa | 0V | 00:00:00 | 00:00:00 | 00:00:00 | |
| OE3OSB-13 | 2026-09-01 23:56:59 | 48.23399 | 16.57711 | 82° | 89km/h | 8071m | 5.0m/s | -30.0°C | 42.9% | 367.7hPa | 0V | 00:00:00 | 00:00:00 | 00:00:00 | |
| PETON7-10 | 2026-09-01 23:56:57 | 48.23396 | 16.57676 | 83° | 80km/h | 8066m | 6.0m/s | 0°C | 0% | 0hPa | 0V | 00:00:00 | 00:00:00 | 00:00:00 | |
| PETON7-10 | 2026-09-01 23:56:42 | 48.23382 | 16.57225 | 91° | 77km/h | 7978m | 1.0m/s | 0°C | 0% | 0hPa | 0V | 00:00:00 | 00:00:00 | 00:00:00 | |
| OE3OSB-13 | 2026-09-01 23:56:28 | 48.23341 | 16.56786 | 83° | 75km/h | 7898m | 6.1m/s | -28.2°C | 42.4% | 376.9hPa | 0V | 00:00:00 | 00:00:00 | 00:00:00 | |
| PETON7-10 | 2026-09-01 23:56:27 | 48.23341 | 16.56786 | 84° | 80km/h | 7898m | 6.0m/s | 0°C | 0% | 0hPa | 0V | 00:00:00 | 00:00:00 | 00:00:00 | |
| PETON7-10 | 2026-09-01 23:56:11 | 48.23330 | 16.56318 | 101° | 73km/h | 7806m | 5.9m/s | 0°C | 0% | 0hPa | 0V | 00:00:00 | 00:00:00 | 00:00:00 | |
| OE3OSB-13 | 2026-09-01 23:55:57 | 48.23309 | 16.55918 | 67° | 69km/h | 7728m | 4.5m/s | -26.6°C | 33.0% | 385.9hPa | 0V | 00:00:00 | 00:00:00 | 00:00:00 | |
| PETON7-10 | 2026-09-01 23:55:56 | 48.23308 | 16.55918 | 68° | 75km/h | 7728m | 4.5m/s | 0°C | 0% | 0hPa | 0V | 00:00:00 | 00:00:00 | 00:00:00 | |
| HA6NAB-11 | 2026-09-01 23:55:42 | 48.23284 | 16.55535 | 84° | 78km/h | 7657m | 8.7m/s | 0°C | 0% | 0hPa | 0V | 00:00:00 | 00:00:00 | 00:00:00 | |
| PETON7-10 | 2026-09-01 23:55:41 | 48.23280 | 16.55506 | 79° | 71km/h | 7648m | 9.0m/s | 0°C | 0% | 0hPa | 0V | 00:00:00 | 00:00:00 | 00:00:00 | |
| OE3JTB-15 | 2026-09-01 23:55:40 | 48.23270 | 16.55426 | 80° | 68km/h | 7627m | 5.1m/s | 0°C | 0% | 0hPa | 0V | 00:00:00 | 00:00:00 | 00:00:00 | |
| HA6NAB-11 | 2026-09-01 23:55:37 | 48.23267 | 16.55399 | 83° | 75km/h | 7623m | 4.0m/s | 0°C | 0% | 0hPa | 0V | 00:00:00 | 00:00:00 | 00:00:00 | |
| HA6NAB-11 | 2026-09-01 23:55:31 | 48.23253 | 16.55240 | 75° | 66km/h | 7597m | 5.6m/s | 0°C | 0% | 0hPa | 0V | 00:00:00 | 00:00:00 | 00:00:00 | |
| OE3OSB-13 | 2026-09-01 23:55:26 | 48.23238 | 16.55083 | 90° | 69km/h | 7560m | 8.2m/s | -25.5°C | 26.6% | 395.2hPa | 0V | 00:00:00 | 00:00:00 | 00:00:00 | |
| HA6NAB-11 | 2026-09-01 23:55:25 | 48.23238 | 16.55083 | 91° | 69km/h | 7560m | 8.2m/s | 0°C | 0% | 0hPa | 0V | 00:00:00 | 00:00:00 | 00:00:00 | |
| HA6NAB-11 | 2026-09-01 23:55:20 | 48.23238 | 16.54950 | 84° | 60km/h | 7530m | 6.4m/s | 0°C | 0% | 0hPa | 0V | 00:00:00 | 00:00:00 | 00:00:00 | |
| HA6NAB-11 | 2026-09-01 23:55:15 | 48.23246 | 16.54833 | 98° | 69km/h | 7502m | 5.9m/s | 0°C | 0% | 0hPa | 0V | 00:00:00 | 00:00:00 | 00:00:00 | |
| PETON7-10 | 2026-09-01 23:55:11 | 48.23248 | 16.54719 | 83° | 73km/h | 7479m | 4.6m/s | 0°C | 0% | 0hPa | 0V | 00:00:00 | 00:00:00 | 00:00:00 | |
| HA6NAB-11 | 2026-09-01 23:55:09 | 48.23241 | 16.54664 | 81° | 69km/h | 7468m | 5.7m/s | 0°C | 0% | 0hPa | 0V | 00:00:00 | 00:00:00 | 00:00:00 | |
| OE3JTB-15 | 2026-09-01 23:55:06 | 48.23236 | 16.54545 | 85° | 73km/h | 7437m | 5.7m/s | 0°C | 0% | 0hPa | 0V | 00:00:00 | 00:00:00 | 00:00:00 | |
| HA6NAB-11 | 2026-09-01 23:55:03 | 48.23234 | 16.54518 | 83° | 77km/h | 7431m | 7.1m/s | 0°C | 0% | 0hPa | 0V | 00:00:00 | 00:00:00 | 00:00:00 | |
| OE3OSB-13 | 2026-09-01 23:54:56 | 48.23215 | 16.54254 | 84° | 53km/h | 7377m | 6.5m/s | -24.0°C | 27.5% | 405.3hPa | 0V | 00:00:00 | 00:00:00 | 00:00:00 | |
| PETON7-10 | 2026-09-01 23:54:55 | 48.23217 | 16.54276 | 82° | 73km/h | 7383m | 6.3m/s | 0°C | 0% | 0hPa | 0V | 00:00:00 | 00:00:00 | 00:00:00 | |
| HA6NAB-11 | 2026-09-01 23:54:51 | 48.23218 | 16.54184 | 100° | 69km/h | 7358m | 6.8m/s | 0°C | 0% | 0hPa | 0V | 00:00:00 | 00:00:00 | 00:00:00 | |
| HA6NAB-11 | 2026-09-01 23:54:43 | 48.23203 | 16.53943 | 82° | 78km/h | 7315m | 7.9m/s | 0°C | 0% | 0hPa | 0V | 00:00:00 | 00:00:00 | 00:00:00 | |
| PETON7-10 | 2026-09-01 23:54:40 | 48.23198 | 16.53868 | 89° | 66km/h | 7295m | 4.5m/s | 0°C | 0% | 0hPa | 0V | 00:00:00 | 00:00:00 | 00:00:00 | |
| HA6NAB-11 | 2026-09-01 23:54:38 | 48.23197 | 16.53823 | 82° | 58km/h | 7281m | 6.7m/s | 0°C | 0% | 0hPa | 0V | 00:00:00 | 00:00:00 | 00:00:00 | |
| OE3JTB-15 | 2026-09-01 23:54:29 | 48.23160 | 16.53504 | 89° | 69km/h | 7200m | 5.9m/s | 0°C | 0% | 0hPa | 0V | 00:00:00 | 00:00:00 | 00:00:00 | |
| PETON7-10 | 2026-09-01 23:54:25 | 48.23160 | 16.53475 | 90° | 66km/h | 7194m | 5.0m/s | 0°C | 0% | 0hPa | 0V | 00:00:00 | 00:00:00 | 00:00:00 | |
| OE3OSB-13 | 2026-09-01 23:54:24 | 48.23161 | 16.53412 | 91° | 80km/h | 7181m | 5.9m/s | -22.7°C | 35.4% | 416.2hPa | 0V | 00:00:00 | 00:00:00 | 00:00:00 | |
| HA6NAB-11 | 2026-09-01 23:54:23 | 48.23161 | 16.53412 | 93° | 82km/h | 7182m | 5.9m/s | 0°C | 0% | 0hPa | 0V | 00:00:00 | 00:00:00 | 00:00:00 | |
| HA6NAB-11 | 2026-09-01 23:54:14 | 48.23168 | 16.53167 | 100° | 71km/h | 7123m | 3.8m/s | 0°C | 0% | 0hPa | 0V | 00:00:00 | 00:00:00 | 00:00:00 | |
| PETON7-10 | 2026-09-01 23:54:07 | 48.23190 | 16.53026 | 97° | 64km/h | 7084m | 7.5m/s | 0°C | 0% | 0hPa | 0V | 00:00:00 | 00:00:00 | 00:00:00 | |
| HA6NAB-11 | 2026-09-01 23:54:01 | 48.23183 | 16.52881 | 88° | 73km/h | 7049m | 4.3m/s | 0°C | 0% | 0hPa | 0V | 00:00:00 | 00:00:00 | 00:00:00 | |
| OE3OSB-13 | 2026-09-01 23:53:53 | 48.23195 | 16.52657 | 104° | 64km/h | 6988m | 4.0m/s | -21.2°C | 36.3% | 427.6hPa | 0V | 00:00:00 | 00:00:00 | 00:00:00 | |
| PETON7-10 | 2026-09-01 23:53:52 | 48.23195 | 16.52656 | 105° | 53km/h | 6988m | 3.9m/s | 0°C | 0% | 0hPa | 0V | 00:00:00 | 00:00:00 | 00:00:00 | |
| HA6NAB-11 | 2026-09-01 23:53:50 | 48.23203 | 16.52611 | 101° | 57km/h | 6981m | 4.0m/s | 0°C | 0% | 0hPa | 0V | 00:00:00 | 00:00:00 | 00:00:00 | |
| HA6NAB-11 | 2026-09-01 23:53:44 | 48.23197 | 16.52491 | 83° | 73km/h | 6942m | 5.2m/s | 0°C | 0% | 0hPa | 0V | 00:00:00 | 00:00:00 | 00:00:00 | |
| HA6NAB-11 | 2026-09-01 23:53:38 | 48.23207 | 16.52357 | 109° | 38km/h | 6908m | 4.5m/s | 0°C | 0% | 0hPa | 0V | 00:00:00 | 00:00:00 | 00:00:00 | |
| PETON7-10 | 2026-09-01 23:53:36 | 48.23209 | 16.52325 | 89° | 60km/h | 6899m | 5.0m/s | 0°C | 0% | 0hPa | 0V | 00:00:00 | 00:00:00 | 00:00:00 | |
| HA6NAB-11 | 2026-09-01 23:53:33 | 48.23207 | 16.52258 | 91° | 68km/h | 6878m | 4.7m/s | 0°C | 0% | 0hPa | 0V | 00:00:00 | 00:00:00 | 00:00:00 | |
| OE3JTB-15 | 2026-09-01 23:53:30 | 48.23208 | 16.52167 | 85° | 55km/h | 6860m | 5.9m/s | 0°C | 0% | 0hPa | 0V | 00:00:00 | 00:00:00 | 00:00:00 | |
| HA6NAB-11 | 2026-09-01 23:53:28 | 48.23207 | 16.52150 | 84° | 46km/h | 6854m | 6.2m/s | 0°C | 0% | 0hPa | 0V | 00:00:00 | 00:00:00 | 00:00:00 | |
| OE3OSB-13 | 2026-09-01 23:53:22 | 48.23203 | 16.51987 | 90° | 44km/h | 6814m | 7.4m/s | -19.7°C | 30.1% | 437.8hPa | 0V | 00:00:00 | 00:00:00 | 00:00:00 | |
| PETON7-10 | 2026-09-01 23:53:21 | 48.23203 | 16.51987 | 91° | 51km/h | 6814m | 7.4m/s | 0°C | 0% | 0hPa | 0V | 00:00:00 | 00:00:00 | 00:00:00 | |
| HA6NAB-11 | 2026-09-01 23:53:18 | 48.23204 | 16.51937 | 83° | 46km/h | 6793m | 8.1m/s | 0°C | 0% | 0hPa | 0V | 00:00:00 | 00:00:00 | 00:00:00 | |
| PETON7-10 | 2026-09-01 23:53:06 | 48.23199 | 16.51691 | 84° | 62km/h | 6720m | 4.3m/s | 0°C | 0% | 0hPa | 0V | 00:00:00 | 00:00:00 | 00:00:00 | |
| OE3OSB-13 | 2026-09-01 23:52:50 | 48.23212 | 16.51351 | 79° | 46km/h | 6630m | 5.8m/s | -18.3°C | 22.6% | 448.9hPa | 0V | 00:00:00 | 00:00:00 | 00:00:00 | |
| PETON7-10 | 2026-09-01 23:52:36 | 48.23235 | 16.51068 | 100° | 60km/h | 6550m | 4.8m/s | 0°C | 0% | 0hPa | 0V | 00:00:00 | 00:00:00 | 00:00:00 | |
| OE3JTB-15 | 2026-09-01 23:52:21 | 48.23241 | 16.50674 | 77° | 62km/h | 6455m | 5.0m/s | 0°C | 0% | 0hPa | 0V | 00:00:00 | 00:00:00 | 00:00:00 | |
| OE3OSB-13 | 2026-09-01 23:52:19 | 48.23241 | 16.50674 | 76° | 42km/h | 6455m | 5.0m/s | -18.9°C | 62.2% | 459.6hPa | 0V | 00:00:00 | 00:00:00 | 00:00:00 | |
| PETON7-10 | 2026-09-01 23:52:06 | 48.23228 | 16.50401 | 80° | 62km/h | 6385m | 4.8m/s | 0°C | 0% | 0hPa | 0V | 00:00:00 | 00:00:00 | 00:00:00 | |
| OE3OSB-13 | 2026-09-01 23:51:48 | 48.23232 | 16.49947 | 104° | 62km/h | 6280m | 7.2m/s | -17.6°C | 68.4% | 470.5hPa | 0V | 00:00:00 | 00:00:00 | 00:00:00 | |
| PETON7-10 | 2026-09-01 23:51:36 | 48.23239 | 16.49703 | 99° | 64km/h | 6219m | 8.5m/s | 0°C | 0% | 0hPa | 0V | 00:00:00 | 00:00:00 | 00:00:00 | |
| PETON7-10 | 2026-09-01 23:51:21 | 48.23244 | 16.49352 | 90° | 64km/h | 6132m | 5.0m/s | 0°C | 0% | 0hPa | 0V | 00:00:00 | 00:00:00 | 00:00:00 | |
| OE3JTB-15 | 2026-09-01 23:51:17 | 48.23240 | 16.49164 | 90° | 58km/h | 6094m | 4.5m/s | 0°C | 0% | 0hPa | 0V | 00:00:00 | 00:00:00 | 00:00:00 | |
| PETON7-10 | 2026-09-01 23:51:05 | 48.23263 | 16.48967 | 106° | 58km/h | 6048m | 7.4m/s | 0°C | 0% | 0hPa | 0V | 00:00:00 | 00:00:00 | 00:00:00 | |
| OE3OSB-13 | 2026-09-01 23:50:46 | 48.23301 | 16.48545 | 116° | 57km/h | 5937m | 2.6m/s | -15.6°C | 74.3% | 492.6hPa | 0V | 00:00:00 | 00:00:00 | 00:00:00 | |
| PETON7-10 | 2026-09-01 23:50:35 | 48.23317 | 16.48357 | 95° | 46km/h | 5881m | 3.7m/s | 0°C | 0% | 0hPa | 0V | 00:00:00 | 00:00:00 | 00:00:00 | |
| PETON7-10 | 2026-09-01 23:50:20 | 48.23336 | 16.48100 | 118° | 42km/h | 5792m | 5.8m/s | 0°C | 0% | 0hPa | 0V | 00:00:00 | 00:00:00 | 00:00:00 | |
| OE3JTB-15 | 2026-09-01 23:50:17 | 48.23343 | 16.48002 | 103° | 37km/h | 5761m | 5.6m/s | 0°C | 0% | 0hPa | 0V | 00:00:00 | 00:00:00 | 00:00:00 | |
| OE3OSB-13 | 2026-09-01 23:50:15 | 48.23343 | 16.48002 | 102° | 38km/h | 5761m | 5.7m/s | -14.2°C | 53.9% | 504.2hPa | 0V | 00:00:00 | 00:00:00 | 00:00:00 | |
| PETON7-10 | 2026-09-01 23:50:04 | 48.23371 | 16.47856 | 90° | 37km/h | 5710m | 5.2m/s | 0°C | 0% | 0hPa | 0V | 00:00:00 | 00:00:00 | 00:00:00 | |
| PETON7-10 | 2026-09-01 23:49:49 | 48.23355 | 16.47657 | 117° | 37km/h | 5630m | 5.9m/s | 0°C | 0% | 0hPa | 0V | 00:00:00 | 00:00:00 | 00:00:00 | |
| OE3JTB-15 | 2026-09-01 23:49:48 | 48.23356 | 16.47617 | 75° | 38km/h | 5607m | 5.7m/s | 0°C | 0% | 0hPa | 0V | 00:00:00 | 00:00:00 | 00:00:00 | |
| PETON7-10 | 2026-09-01 23:49:34 | 48.23369 | 16.47448 | 97° | 33km/h | 5542m | 5.5m/s | 0°C | 0% | 0hPa | 0V | 00:00:00 | 00:00:00 | 00:00:00 | |
| PETON7-10 | 2026-09-01 23:49:19 | 48.23403 | 16.47261 | 106° | 42km/h | 5466m | 5.1m/s | 0°C | 0% | 0hPa | 0V | 00:00:00 | 00:00:00 | 00:00:00 | |
| OE3OSB-13 | 2026-09-01 23:49:13 | 48.23425 | 16.47144 | 106° | 47km/h | 5418m | 8.3m/s | -11.9°C | 43.3% | 527.4hPa | 0V | 00:00:00 | 00:00:00 | 00:00:00 | |
| PETON7-10 | 2026-09-01 23:49:04 | 48.23452 | 16.47040 | 128° | 47km/h | 5373m | 6.6m/s | 0°C | 0% | 0hPa | 0V | 00:00:00 | 00:00:00 | 00:00:00 | |
| PETON7-10 | 2026-09-01 23:48:49 | 48.23489 | 16.46765 | 100° | 42km/h | 5289m | 6.0m/s | 0°C | 0% | 0hPa | 0V | 00:00:00 | 00:00:00 | 00:00:00 | |
| OE3JTB-15 | 2026-09-01 23:48:48 | 48.23508 | 16.46701 | 106° | 38km/h | 5270m | 4.3m/s | 0°C | 0% | 0hPa | 0V | 00:00:00 | 00:00:00 | 00:00:00 | |
| OE3OSB-13 | 2026-09-01 23:48:42 | 48.23510 | 16.46618 | 83° | 37km/h | 5247m | 7.5m/s | -10.6°C | 36.6% | 539.6hPa | 0V | 00:00:00 | 00:00:00 | 00:00:00 | |
| PETON7-10 | 2026-09-01 23:48:34 | 48.23527 | 16.46540 | 103° | 42km/h | 5205m | 5.2m/s | 0°C | 0% | 0hPa | 0V | 00:00:00 | 00:00:00 | 00:00:00 | |
| PETON7-10 | 2026-09-01 23:48:18 | 48.23531 | 16.46293 | 52° | 38km/h | 5112m | 6.5m/s | 0°C | 0% | 0hPa | 0V | 00:00:00 | 00:00:00 | 00:00:00 | |
| OE3JTB-15 | 2026-09-01 23:48:17 | 48.23534 | 16.46252 | 115° | 33km/h | 5088m | 5.6m/s | 0°C | 0% | 0hPa | 0V | 00:00:00 | 00:00:00 | 00:00:00 | |
| OE3OSB-13 | 2026-09-01 23:48:11 | 48.23545 | 16.46180 | 96° | 58km/h | 5068m | 4.3m/s | -9.3°C | 30.3% | 552.4hPa | 0V | 00:00:00 | 00:00:00 | 00:00:00 | |
| PETON7-10 | 2026-09-01 23:48:03 | 48.23535 | 16.46095 | 91° | 31km/h | 5029m | 5.8m/s | 0°C | 0% | 0hPa | 0V | 00:00:00 | 00:00:00 | 00:00:00 | |
| OE3JTB-15 | 2026-09-01 23:47:48 | 48.23545 | 16.45900 | 81° | 33km/h | 4921m | 5.4m/s | 0°C | 0% | 0hPa | 0V | 00:00:00 | 00:00:00 | 00:00:00 | |
| OE3OSB-13 | 2026-09-01 23:47:40 | 48.23536 | 16.45847 | 91° | 31km/h | 4885m | 4.6m/s | -8.1°C | 32.8% | 565.5hPa | 0V | 00:00:00 | 00:00:00 | 00:00:00 | |
| PETON7-10 | 2026-09-01 23:47:33 | 48.23527 | 16.45757 | 100° | 31km/h | 4851m | 6.2m/s | 0°C | 0% | 0hPa | 0V | 00:00:00 | 00:00:00 | 00:00:00 | |
| OE3JTB-15 | 2026-09-01 23:47:18 | 48.23526 | 16.45564 | 110° | 38km/h | 4740m | 6.2m/s | 0°C | 0% | 0hPa | 0V | 00:00:00 | 00:00:00 | 00:00:00 | |
| OE3OSB-13 | 2026-09-01 23:47:13 | 48.23520 | 16.45483 | 102° | 57km/h | 4697m | 6.9m/s | -6.8°C | 32.5% | 579.5hPa | 0V | 00:00:00 | 00:00:00 | 00:00:00 | |
| PETON7-10 | 2026-09-01 23:47:01 | 48.23516 | 16.45401 | 73° | 46km/h | 4659m | 4.3m/s | 0°C | 0% | 0hPa | 0V | 00:00:00 | 00:00:00 | 00:00:00 | |
| OE3JTB-15 | 2026-09-01 23:46:49 | 48.23530 | 16.45151 | 84° | 37km/h | 4574m | 7.2m/s | 0°C | 0% | 0hPa | 0V | 00:00:00 | 00:00:00 | 00:00:00 | |
| PETON7-10 | 2026-09-01 23:46:46 | 48.23530 | 16.45151 | 84° | 33km/h | 4574m | 7.2m/s | 0°C | 0% | 0hPa | 0V | 00:00:00 | 00:00:00 | 00:00:00 | |
| OE3OSB-13 | 2026-09-01 23:46:38 | 48.23526 | 16.45065 | 123° | 33km/h | 4527m | 6.7m/s | -5.7°C | 34.9% | 592.5hPa | 0V | 00:00:00 | 00:00:00 | 00:00:00 | |
| PETON7-10 | 2026-09-01 23:46:31 | 48.23535 | 16.44978 | 76° | 42km/h | 4487m | 5.3m/s | 0°C | 0% | 0hPa | 0V | 00:00:00 | 00:00:00 | 00:00:00 | |
| OE3JTB-15 | 2026-09-01 23:46:20 | 48.23543 | 16.44787 | 88° | 40km/h | 4408m | 5.7m/s | 0°C | 0% | 0hPa | 0V | 00:00:00 | 00:00:00 | 00:00:00 | |
| PETON7-10 | 2026-09-01 23:46:16 | 48.23540 | 16.44761 | 74° | 35km/h | 4397m | 4.3m/s | 0°C | 0% | 0hPa | 0V | 00:00:00 | 00:00:00 | 00:00:00 | |
| OE3OSB-13 | 2026-09-01 23:46:06 | 48.23551 | 16.44633 | 105° | 40km/h | 4353m | 8.1m/s | -4.7°C | 35.7% | 605.8hPa | 0V | 00:00:00 | 00:00:00 | 00:00:00 | |
| PETON7-10 | 2026-09-01 23:46:01 | 48.23547 | 16.44580 | 93° | 37km/h | 4316m | 5.1m/s | 0°C | 0% | 0hPa | 0V | 00:00:00 | 00:00:00 | 00:00:00 | |
| OE3JTB-15 | 2026-09-01 23:45:51 | 48.23558 | 16.44425 | 91° | 42km/h | 4263m | 7.0m/s | 0°C | 0% | 0hPa | 0V | 00:00:00 | 00:00:00 | 00:00:00 | |
| PETON7-10 | 2026-09-01 23:45:45 | 48.23564 | 16.44359 | 101° | 44km/h | 4230m | 7.7m/s | 0°C | 0% | 0hPa | 0V | 00:00:00 | 00:00:00 | 00:00:00 | |
| OE3OSB-13 | 2026-09-01 23:45:35 | 48.23602 | 16.44205 | 119° | 47km/h | 4179m | 6.1m/s | -3.8°C | 38.6% | 619.2hPa | 0V | 00:00:00 | 00:00:00 | 00:00:00 | |
| PETON7-10 | 2026-09-01 23:45:30 | 48.23621 | 16.44133 | 78° | 51km/h | 4147m | 6.0m/s | 0°C | 0% | 0hPa | 0V | 00:00:00 | 00:00:00 | 00:00:00 | |
| OE3JTB-15 | 2026-09-01 23:45:21 | 48.23635 | 16.43979 | 100° | 42km/h | 4092m | 5.3m/s | 0°C | 0% | 0hPa | 0V | 00:00:00 | 00:00:00 | 00:00:00 | |
| PETON7-10 | 2026-09-01 23:45:16 | 48.23665 | 16.43864 | 124° | 42km/h | 4063m | 5.7m/s | 0°C | 0% | 0hPa | 0V | 00:00:00 | 00:00:00 | 00:00:00 | |
| OE3OSB-13 | 2026-09-01 23:45:05 | 48.23686 | 16.43690 | 75° | 46km/h | 3996m | 6.5m/s | -3.0°C | 40.0% | 633.9hPa | 0V | 00:00:00 | 00:00:00 | 00:00:00 | |
| PETON7-10 | 2026-09-01 23:44:58 | 48.23696 | 16.43627 | 96° | 44km/h | 3968m | 5.6m/s | 0°C | 0% | 0hPa | 0V | 00:00:00 | 00:00:00 | 00:00:00 | |
| OE3JTB-15 | 2026-09-01 23:44:52 | 48.23691 | 16.43518 | 87° | 49km/h | 3928m | 3.6m/s | 0°C | 0% | 0hPa | 0V | 00:00:00 | 00:00:00 | 00:00:00 | |
| PETON7-10 | 2026-09-01 23:44:43 | 48.23689 | 16.43386 | 117° | 55km/h | 3888m | 6.0m/s | 0°C | 0% | 0hPa | 0V | 00:00:00 | 00:00:00 | 00:00:00 | |
| OE3OSB-13 | 2026-09-01 23:44:34 | 48.23730 | 16.43178 | 103° | 64km/h | 3829m | 4.5m/s | -2.0°C | 42.4% | 647.5hPa | 0V | 00:00:00 | 00:00:00 | 00:00:00 | |
| PETON7-10 | 2026-09-01 23:44:28 | 48.23743 | 16.43101 | 88° | 44km/h | 3803m | 5.7m/s | 0°C | 0% | 0hPa | 0V | 00:00:00 | 00:00:00 | 00:00:00 | |
| OE3JTB-15 | 2026-09-01 23:44:23 | 48.23755 | 16.43006 | 114° | 51km/h | 3771m | 5.2m/s | 0°C | 0% | 0hPa | 0V | 00:00:00 | 00:00:00 | 00:00:00 | |
| PETON7-10 | 2026-09-01 23:44:13 | 48.23769 | 16.42856 | 99° | 51km/h | 3722m | 6.3m/s | 0°C | 0% | 0hPa | 0V | 00:00:00 | 00:00:00 | 00:00:00 | |
| OE3OSB-13 | 2026-09-01 23:44:03 | 48.23821 | 16.42656 | 96° | 57km/h | 3659m | 6.7m/s | -1.3°C | 44.8% | 661.4hPa | 0V | 00:00:00 | 00:00:00 | 00:00:00 | |
| PETON7-10 | 2026-09-01 23:43:58 | 48.23824 | 16.42584 | 99° | 57km/h | 3644m | 3.5m/s | 0°C | 0% | 0hPa | 0V | 00:00:00 | 00:00:00 | 00:00:00 | |
| OE3JTB-15 | 2026-09-01 23:43:54 | 48.23837 | 16.42489 | 97° | 53km/h | 3627m | 5.3m/s | 0°C | 0% | 0hPa | 0V | 00:00:00 | 00:00:00 | 00:00:00 | |
| PETON7-10 | 2026-09-01 23:43:43 | 48.23855 | 16.42286 | 104° | 53km/h | 3566m | 6.8m/s | 0°C | 0% | 0hPa | 0V | 00:00:00 | 00:00:00 | 00:00:00 | |
| PETON7-10 | 2026-09-01 23:43:28 | 48.23873 | 16.41992 | 104° | 64km/h | 3483m | 6.4m/s | 0°C | 0% | 0hPa | 0V | 00:00:00 | 00:00:00 | 00:00:00 | |
| PETON7-10 | 2026-09-01 23:43:13 | 48.23929 | 16.41640 | 109° | 64km/h | 3399m | 3.6m/s | 0°C | 0% | 0hPa | 0V | 00:00:00 | 00:00:00 | 00:00:00 | |
| OE3OSB-13 | 2026-09-01 23:43:00 | 48.23913 | 16.41299 | 77° | 57km/h | 3323m | 4.0m/s | -0.3°C | 77.8% | 690.1hPa | 0V | 00:00:00 | 00:00:00 | 00:00:00 | |
| PETON7-10 | 2026-09-01 23:42:56 | 48.23906 | 16.41242 | 89° | 64km/h | 3310m | 4.1m/s | 0°C | 0% | 0hPa | 0V | 00:00:00 | 00:00:00 | 00:00:00 | |
| PETON7-10 | 2026-09-01 23:42:41 | 48.23910 | 16.40890 | 91° | 64km/h | 3216m | 7.4m/s | 0°C | 0% | 0hPa | 0V | 00:00:00 | 00:00:00 | 00:00:00 | |
| OE3OSB-13 | 2026-09-01 23:42:29 | 48.23926 | 16.40572 | 95° | 49km/h | 3139m | 6.4m/s | 0.3°C | 68.0% | 706.1hPa | 0V | 00:00:00 | 00:00:00 | 00:00:00 | |
| OE3JTB-15 | 2026-09-01 23:42:27 | 48.23929 | 16.40553 | 106° | 58km/h | 3132m | 6.8m/s | 0°C | 0% | 0hPa | 0V | 00:00:00 | 00:00:00 | 00:00:00 | |
| PETON7-10 | 2026-09-01 23:42:24 | 48.23936 | 16.40493 | 93° | 57km/h | 3110m | 8.1m/s | 0°C | 0% | 0hPa | 0V | 00:00:00 | 00:00:00 | 00:00:00 | |
| PETON7-10 | 2026-09-01 23:42:09 | 48.23934 | 16.40160 | 97° | 57km/h | 3033m | 5.6m/s | 0°C | 0% | 0hPa | 0V | 00:00:00 | 00:00:00 | 00:00:00 | |
| OE3OSB-13 | 2026-09-01 23:41:58 | 48.23946 | 16.39894 | 107° | 69km/h | 2958m | 5.9m/s | 1.8°C | 64.0% | 721.8hPa | 0V | 00:00:00 | 00:00:00 | 00:00:00 | |
| PETON7-10 | 2026-09-01 23:41:54 | 48.23951 | 16.39828 | 76° | 66km/h | 2940m | 5.5m/s | 0°C | 0% | 0hPa | 0V | 00:00:00 | 00:00:00 | 00:00:00 | |
| PETON7-10 | 2026-09-01 23:41:38 | 48.23991 | 16.39445 | 109° | 53km/h | 2860m | 4.7m/s | 0°C | 0% | 0hPa | 0V | 00:00:00 | 00:00:00 | 00:00:00 | |
| OE3JTB-15 | 2026-09-01 23:41:29 | 48.24014 | 16.39278 | 89° | 53km/h | 2810m | 6.8m/s | 0°C | 0% | 0hPa | 0V | 00:00:00 | 00:00:00 | 00:00:00 | |
| OE3OSB-13 | 2026-09-01 23:41:27 | 48.24009 | 16.39212 | 80° | 49km/h | 2797m | 3.3m/s | 2.7°C | 76.9% | 736.7hPa | 0V | 00:00:00 | 00:00:00 | 00:00:00 | |
| PETON7-10 | 2026-09-01 23:41:23 | 48.24012 | 16.39165 | 118° | 57km/h | 2785m | 4.7m/s | 0°C | 0% | 0hPa | 0V | 00:00:00 | 00:00:00 | 00:00:00 | |
| PETON7-10 | 2026-09-01 23:41:08 | 48.24081 | 16.38864 | 127° | 53km/h | 2706m | 3.3m/s | 0°C | 0% | 0hPa | 0V | 00:00:00 | 00:00:00 | 00:00:00 | |
| OE3JTB-15 | 2026-09-01 23:41:00 | 48.24088 | 16.38719 | 97° | 49km/h | 2665m | 4.9m/s | 0°C | 0% | 0hPa | 0V | 00:00:00 | 00:00:00 | 00:00:00 | |
| OE3OSB-13 | 2026-09-01 23:40:56 | 48.24105 | 16.38606 | 104° | 38km/h | 2637m | 6.5m/s | 3.8°C | 76.3% | 751.5hPa | 0V | 00:00:00 | 00:00:00 | 00:00:00 | |
| PETON7-10 | 2026-09-01 23:40:52 | 48.24110 | 16.38569 | 97° | 46km/h | 2622m | 4.3m/s | 0°C | 0% | 0hPa | 0V | 00:00:00 | 00:00:00 | 00:00:00 | |
| PETON7-10 | 2026-09-01 23:40:37 | 48.24135 | 16.38296 | 102° | 42km/h | 2545m | 6.1m/s | 0°C | 0% | 0hPa | 0V | 00:00:00 | 00:00:00 | 00:00:00 | |
| OE3JTB-15 | 2026-09-01 23:40:31 | 48.24158 | 16.38213 | 113° | 46km/h | 2514m | 4.0m/s | 0°C | 0% | 0hPa | 0V | 00:00:00 | 00:00:00 | 00:00:00 | |
| OE3OSB-13 | 2026-09-01 23:40:25 | 48.24185 | 16.38097 | 87° | 29km/h | 2473m | 7.8m/s | 5.1°C | 75.7% | 766.5hPa | 0V | 00:00:00 | 00:00:00 | 00:00:00 | |
| PETON7-10 | 2026-09-01 23:40:22 | 48.24183 | 16.38074 | 85° | 47km/h | 2462m | 4.4m/s | 0°C | 0% | 0hPa | 0V | 00:00:00 | 00:00:00 | 00:00:00 | |
| PETON7-10 | 2026-09-01 23:40:06 | 48.24244 | 16.37818 | 123° | 46km/h | 2376m | 4.2m/s | 0°C | 0% | 0hPa | 0V | 00:00:00 | 00:00:00 | 00:00:00 | |
| OE3JTB-15 | 2026-09-01 23:40:02 | 48.24254 | 16.37744 | 94° | 40km/h | 2358m | 4.4m/s | 0°C | 0% | 0hPa | 0V | 00:00:00 | 00:00:00 | 00:00:00 | |
| OE3OSB-13 | 2026-09-01 23:39:54 | 48.24291 | 16.37604 | 88° | 49km/h | 2309m | 4.7m/s | 6.1°C | 83.3% | 782.3hPa | 0V | 00:00:00 | 00:00:00 | 00:00:00 | |
| PETON7-10 | 2026-09-01 23:39:51 | 48.24290 | 16.37575 | 94° | 38km/h | 2301m | 4.7m/s | 0°C | 0% | 0hPa | 0V | 00:00:00 | 00:00:00 | 00:00:00 | |
| PETON7-10 | 2026-09-01 23:39:35 | 48.24353 | 16.37368 | 118° | 37km/h | 2210m | 6.5m/s | 0°C | 0% | 0hPa | 0V | 00:00:00 | 00:00:00 | 00:00:00 | |
| OE3JTB-15 | 2026-09-01 23:39:33 | 48.24355 | 16.37349 | 85° | 42km/h | 2199m | 6.2m/s | 0°C | 0% | 0hPa | 0V | 00:00:00 | 00:00:00 | 00:00:00 | |
| OE3OSB-13 | 2026-09-01 23:39:23 | 48.24377 | 16.37213 | 97° | 38km/h | 2138m | 6.1m/s | 7.5°C | 79.2% | 798.8hPa | 0V | 00:00:00 | 00:00:00 | 00:00:00 | |
| PETON7-10 | 2026-09-01 23:39:17 | 48.24393 | 16.37121 | 108° | 46km/h | 2113m | 5.9m/s | 0°C | 0% | 0hPa | 0V | 00:00:00 | 00:00:00 | 00:00:00 | |
| OE3JTB-15 | 2026-09-01 23:39:04 | 48.24450 | 16.36915 | 98° | 38km/h | 2046m | 8.6m/s | 0°C | 0% | 0hPa | 0V | 00:00:00 | 00:00:00 | 00:00:00 | |
| PETON7-10 | 2026-09-01 23:39:02 | 48.24451 | 16.36882 | 102° | 40km/h | 2031m | 6.3m/s | 0°C | 0% | 0hPa | 0V | 00:00:00 | 00:00:00 | 00:00:00 | |
| OE3OSB-13 | 2026-09-01 23:38:52 | 48.24504 | 16.36733 | 134° | 47km/h | 1963m | 7.2m/s | 9.1°C | 69.7% | 816.0hPa | 0V | 00:00:00 | 00:00:00 | 00:00:00 | |
| PETON7-10 | 2026-09-01 23:38:47 | 48.24534 | 16.36702 | 143° | 33km/h | 1942m | 5.2m/s | 0°C | 0% | 0hPa | 0V | 00:00:00 | 00:00:00 | 00:00:00 | |
| OE3JTB-15 | 2026-09-01 23:38:35 | 48.24585 | 16.36578 | 147° | 31km/h | 1875m | 3.7m/s | 0°C | 0% | 0hPa | 0V | 00:00:00 | 00:00:00 | 00:00:00 | |
| PETON7-10 | 2026-09-01 23:38:32 | 48.24598 | 16.36559 | 99° | 33km/h | 1858m | 5.2m/s | 0°C | 0% | 0hPa | 0V | 00:00:00 | 00:00:00 | 00:00:00 | |
| OE3OSB-13 | 2026-09-01 23:38:20 | 48.24628 | 16.36437 | 106° | 35km/h | 1795m | 6.3m/s | 10.4°C | 64.6% | 832.6hPa | 0V | 00:00:00 | 00:00:00 | 00:00:00 | |
| PETON7-10 | 2026-09-01 23:38:17 | 48.24645 | 16.36400 | 146° | 27km/h | 1776m | 5.2m/s | 0°C | 0% | 0hPa | 0V | 00:00:00 | 00:00:00 | 00:00:00 | |
| OE3JTB-15 | 2026-09-01 23:38:06 | 48.24687 | 16.36311 | 115° | 26km/h | 1711m | 6.0m/s | 0°C | 0% | 0hPa | 0V | 00:00:00 | 00:00:00 | 00:00:00 | |
| PETON7-10 | 2026-09-01 23:38:02 | 48.24693 | 16.36280 | 150° | 27km/h | 1687m | 3.8m/s | 0°C | 0% | 0hPa | 0V | 00:00:00 | 00:00:00 | 00:00:00 | |
| OE3OSB-13 | 2026-09-01 23:37:50 | 48.24728 | 16.36166 | 106° | 16km/h | 1610m | 4.8m/s | 12.1°C | 60.4% | 851.2hPa | 0V | 00:00:00 | 00:00:00 | 00:00:00 | |
| PETON7-10 | 2026-09-01 23:37:47 | 48.24734 | 16.36156 | 150° | 26km/h | 1599m | 6.6m/s | 0°C | 0% | 0hPa | 0V | 00:00:00 | 00:00:00 | 00:00:00 | |
| OE3JTB-15 | 2026-09-01 23:37:37 | 48.24754 | 16.36084 | 56° | 22km/h | 1551m | 4.3m/s | 0°C | 0% | 0hPa | 0V | 00:00:00 | 00:00:00 | 00:00:00 | |
| PETON7-10 | 2026-09-01 23:37:28 | 48.24775 | 16.36018 | 133° | 22km/h | 1503m | 6.3m/s | 0°C | 0% | 0hPa | 0V | 00:00:00 | 00:00:00 | 00:00:00 | |
| OE3OSB-13 | 2026-09-01 23:37:19 | 48.24797 | 16.35945 | 81° | 5km/h | 1440m | 5.9m/s | 13.2°C | 61.6% | 868.9hPa | 0V | 00:00:00 | 00:00:00 | 00:00:00 | |
| PETON7-10 | 2026-09-01 23:37:12 | 48.24799 | 16.35902 | 128° | 16km/h | 1408m | 5.4m/s | 0°C | 0% | 0hPa | 0V | 00:00:00 | 00:00:00 | 00:00:00 | |
| OE3JTB-15 | 2026-09-01 23:37:08 | 48.24809 | 16.35897 | 43° | 15km/h | 1387m | 3.5m/s | 0°C | 0% | 0hPa | 0V | 00:00:00 | 00:00:00 | 00:00:00 | |
| OE3OSB-13 | 2026-09-01 23:36:47 | 48.24820 | 16.35802 | 37° | 16km/h | 1263m | 4.2m/s | 14.6°C | 57.5% | 887.2hPa | 0V | 00:00:00 | 00:00:00 | 00:00:00 | |
| OE3JTB-15 | 2026-09-01 23:36:39 | 48.24821 | 16.35793 | 335° | 16km/h | 1222m | 3.5m/s | 0°C | 0% | 0hPa | 0V | 00:00:00 | 00:00:00 | 00:00:00 | |
| PETON7-10 | 2026-09-01 23:36:27 | 48.24822 | 16.35752 | 131° | 16km/h | 1161m | 6.2m/s | 0°C | 0% | 0hPa | 0V | 00:00:00 | 00:00:00 | 00:00:00 | |
| PETON7-10 | 2026-09-01 23:36:12 | 48.24840 | 16.35710 | 143° | 15km/h | 1080m | 7.7m/s | 0°C | 0% | 0hPa | 0V | 00:00:00 | 00:00:00 | 00:00:00 | |
| OE3JTB-15 | 2026-09-01 23:36:10 | 48.24842 | 16.35711 | 316° | 13km/h | 1065m | 6.0m/s | 0°C | 0% | 0hPa | 0V | 00:00:00 | 00:00:00 | 00:00:00 | |
| PETON7-10 | 2026-09-01 23:35:57 | 48.24860 | 16.35685 | 213° | 13km/h | 989m | 5.7m/s | 0°C | 0% | 0hPa | 0V | 00:00:00 | 00:00:00 | 00:00:00 | |
| PETON7-10 | 2026-09-01 23:35:42 | 48.24865 | 16.35687 | 332° | 13km/h | 902m | 6.9m/s | 0°C | 0% | 0hPa | 0V | 00:00:00 | 00:00:00 | 00:00:00 | |
| OE3JTB-15 | 2026-09-01 23:35:41 | 48.24864 | 16.35686 | 42° | 13km/h | 896m | 4.5m/s | 0°C | 0% | 0hPa | 0V | 00:00:00 | 00:00:00 | 00:00:00 | |
| PETON7-10 | 2026-09-01 23:35:27 | 48.24867 | 16.35686 | 85° | 13km/h | 812m | 4.7m/s | 0°C | 0% | 0hPa | 0V | 00:00:00 | 00:00:00 | 00:00:00 | |
| OE3JTB-15 | 2026-09-01 23:35:12 | 48.24860 | 16.35701 | 198° | 15km/h | 719m | 5.5m/s | 0°C | 0% | 0hPa | 0V | 00:00:00 | 00:00:00 | 00:00:00 | |
| PETON7-10 | 2026-09-01 23:35:11 | 48.24862 | 16.35704 | 231° | 15km/h | 714m | 4.0m/s | 0°C | 0% | 0hPa | 0V | 00:00:00 | 00:00:00 | 00:00:00 | |
| PETON7-10 | 2026-09-01 23:34:56 | 48.24830 | 16.35724 | 51° | 9km/h | 630m | 5.2m/s | 0°C | 0% | 0hPa | 0V | 00:00:00 | 00:00:00 | 00:00:00 | |
| OE3JTB-15 | 2026-09-01 23:34:43 | 48.24826 | 16.35747 | 5° | 15km/h | 558m | 5.1m/s | 0°C | 0% | 0hPa | 0V | 00:00:00 | 00:00:00 | 00:00:00 | |
| PETON7-10 | 2026-09-01 23:34:41 | 48.24824 | 16.35742 | 136° | 16km/h | 548m | 3.4m/s | 0°C | 0% | 0hPa | 0V | 00:00:00 | 00:00:00 | 00:00:00 | |
| OE3JTB-15 | 2026-09-01 23:34:14 | 48.24834 | 16.35757 | 64° | 15km/h | 401m | 5.9m/s | 0°C | 0% | 0hPa | 0V | 00:00:00 | 00:00:00 | 00:00:00 |